<?xml version="1.0" encoding="UTF-8" standalone="no" ?>
<gpx xmlns="http://www.topografix.com/GPX/1/1" xmlns:xsi="http://www.w3.org/2001/XMLSchema-instance" xsi:schemaLocation="http://www.topografix.com/GPX/1/1 http://www.topografix.com/GPX/1/1/gpx.xsd" version="1.1" creator="VisuGPX - https://www.visugpx.com">
  <metadata>
    <name>Traversée de St-Nizier au col de L'Arzelier via le Moucherotte, le pic St michel et le col Vert.</name>
    <desc><![CDATA[Longue traversée empruntant les grands Noms du Vercors.
Le Moucherotte par le Vallon des forges , le Pic Saint Michel , le Magnifique sentier Gobert versant Ouest .
Le passage sur le Balcon Est au niveau du Col vert en direction de l'arrivée.

Possibilité de s'arrêter au Vertige des Cimes au sommet des pistes de skis de Lans-en-Vercors. 
Point d'eau a la source de Roybon au 20e km.
Panorama splendide versant Est et Ouest.]]></desc>
  </metadata>
  <trk>
    <name><![CDATA[Traversée de St-Nizier au col de L'Arzelier via le Moucherotte, le pic St michel et le col Vert._1]]></name>
    <extensions>
      <line xmlns="http://www.topografix.com/GPX/gpx_style/0/2">
        <color>0000FF</color>
        <width>4</width>
      </line>
    </extensions>
    <trkseg>
      <trkpt lat="45.1683" lon="5.63994">
        <ele>1099</ele>
        <time>2010-01-01T00:00:00Z</time>
      </trkpt>
      <trkpt lat="45.16819" lon="5.63984">
        <ele>1103.2</ele>
        <time>2010-01-01T00:00:00Z</time>
      </trkpt>
      <trkpt lat="45.16807" lon="5.64011">
        <ele>1097.9</ele>
        <time>2010-01-01T00:00:00Z</time>
      </trkpt>
      <trkpt lat="45.16798" lon="5.6403">
        <ele>1097.9</ele>
        <time>2010-01-01T00:00:00Z</time>
      </trkpt>
      <trkpt lat="45.16754" lon="5.64119">
        <ele>1081.7</ele>
        <time>2010-01-01T00:00:00Z</time>
      </trkpt>
      <trkpt lat="45.16722" lon="5.64147">
        <ele>1081.4</ele>
        <time>2010-01-01T00:00:00Z</time>
      </trkpt>
      <trkpt lat="45.16669" lon="5.64201">
        <ele>1065.7</ele>
        <time>2010-01-01T00:00:00Z</time>
      </trkpt>
      <trkpt lat="45.16626" lon="5.64256">
        <ele>1056.7</ele>
        <time>2010-01-01T00:00:00Z</time>
      </trkpt>
      <trkpt lat="45.16614" lon="5.64274">
        <ele>1056.4</ele>
        <time>2010-01-01T00:00:00Z</time>
      </trkpt>
      <trkpt lat="45.16616" lon="5.64308">
        <ele>1054.3</ele>
        <time>2010-01-01T00:00:00Z</time>
      </trkpt>
      <trkpt lat="45.16609" lon="5.64339">
        <ele>1051.9</ele>
        <time>2010-01-01T00:00:00Z</time>
      </trkpt>
      <trkpt lat="45.16609" lon="5.6435">
        <ele>1052</ele>
        <time>2010-01-01T00:00:00Z</time>
      </trkpt>
      <trkpt lat="45.16609" lon="5.6435">
        <ele>1052</ele>
        <time>2010-01-01T00:00:00Z</time>
      </trkpt>
      <trkpt lat="45.16609" lon="5.64339">
        <ele>1051.9</ele>
        <time>2010-01-01T00:00:00Z</time>
      </trkpt>
      <trkpt lat="45.16594" lon="5.64355">
        <ele>1052.5</ele>
        <time>2010-01-01T00:00:00Z</time>
      </trkpt>
      <trkpt lat="45.16547" lon="5.64383">
        <ele>1058</ele>
        <time>2010-01-01T00:00:00Z</time>
      </trkpt>
      <trkpt lat="45.16473" lon="5.64432">
        <ele>1066.8</ele>
        <time>2010-01-01T00:00:00Z</time>
      </trkpt>
      <trkpt lat="45.16392" lon="5.64479">
        <ele>1089.6</ele>
        <time>2010-01-01T00:00:00Z</time>
      </trkpt>
      <trkpt lat="45.16336" lon="5.64525">
        <ele>1082.5</ele>
        <time>2010-01-01T00:00:00Z</time>
      </trkpt>
      <trkpt lat="45.16302" lon="5.64531">
        <ele>1097.2</ele>
        <time>2010-01-01T00:00:00Z</time>
      </trkpt>
      <trkpt lat="45.1625" lon="5.64524">
        <ele>1107.6</ele>
        <time>2010-01-01T00:00:00Z</time>
      </trkpt>
      <trkpt lat="45.16204" lon="5.64518">
        <ele>1118.8</ele>
        <time>2010-01-01T00:00:00Z</time>
      </trkpt>
      <trkpt lat="45.16148" lon="5.64508">
        <ele>1132</ele>
        <time>2010-01-01T00:00:00Z</time>
      </trkpt>
      <trkpt lat="45.16097" lon="5.64517">
        <ele>1136.9</ele>
        <time>2010-01-01T00:00:00Z</time>
      </trkpt>
      <trkpt lat="45.16014" lon="5.6453">
        <ele>1153.7</ele>
        <time>2010-01-01T00:00:00Z</time>
      </trkpt>
      <trkpt lat="45.15972" lon="5.64538">
        <ele>1168.7</ele>
        <time>2010-01-01T00:00:00Z</time>
      </trkpt>
      <trkpt lat="45.15938" lon="5.64536">
        <ele>1172.7</ele>
        <time>2010-01-01T00:00:00Z</time>
      </trkpt>
      <trkpt lat="45.15894" lon="5.64509">
        <ele>1184.6</ele>
        <time>2010-01-01T00:00:00Z</time>
      </trkpt>
      <trkpt lat="45.15852" lon="5.64495">
        <ele>1194.7</ele>
        <time>2010-01-01T00:00:00Z</time>
      </trkpt>
      <trkpt lat="45.15773" lon="5.64502">
        <ele>1206.3</ele>
        <time>2010-01-01T00:00:00Z</time>
      </trkpt>
      <trkpt lat="45.15723" lon="5.64513">
        <ele>1223</ele>
        <time>2010-01-01T00:00:00Z</time>
      </trkpt>
      <trkpt lat="45.1566" lon="5.64499">
        <ele>1244</ele>
        <time>2010-01-01T00:00:00Z</time>
      </trkpt>
      <trkpt lat="45.15533" lon="5.64519">
        <ele>1258.6</ele>
        <time>2010-01-01T00:00:00Z</time>
      </trkpt>
      <trkpt lat="45.15413" lon="5.64536">
        <ele>1269.5</ele>
        <time>2010-01-01T00:00:00Z</time>
      </trkpt>
      <trkpt lat="45.15339" lon="5.6452">
        <ele>1273.6</ele>
        <time>2010-01-01T00:00:00Z</time>
      </trkpt>
      <trkpt lat="45.15339" lon="5.6452">
        <ele>1273.6</ele>
        <time>2010-01-01T00:00:00Z</time>
      </trkpt>
      <trkpt lat="45.15322" lon="5.64517">
        <ele>1274.4</ele>
        <time>2010-01-01T00:00:00Z</time>
      </trkpt>
      <trkpt lat="45.15292" lon="5.64491">
        <ele>1292.2</ele>
        <time>2010-01-01T00:00:00Z</time>
      </trkpt>
      <trkpt lat="45.15252" lon="5.64475">
        <ele>1293.6</ele>
        <time>2010-01-01T00:00:00Z</time>
      </trkpt>
      <trkpt lat="45.15217" lon="5.64464">
        <ele>1307.7</ele>
        <time>2010-01-01T00:00:00Z</time>
      </trkpt>
      <trkpt lat="45.15159" lon="5.64481">
        <ele>1318.6</ele>
        <time>2010-01-01T00:00:00Z</time>
      </trkpt>
      <trkpt lat="45.15169" lon="5.64452">
        <ele>1315.6</ele>
        <time>2010-01-01T00:00:00Z</time>
      </trkpt>
      <trkpt lat="45.15177" lon="5.64436">
        <ele>1321.8</ele>
        <time>2010-01-01T00:00:00Z</time>
      </trkpt>
      <trkpt lat="45.15163" lon="5.64435">
        <ele>1335.7</ele>
        <time>2010-01-01T00:00:00Z</time>
      </trkpt>
      <trkpt lat="45.15117" lon="5.64459">
        <ele>1336.4</ele>
        <time>2010-01-01T00:00:00Z</time>
      </trkpt>
      <trkpt lat="45.15036" lon="5.64503">
        <ele>1332.6</ele>
        <time>2010-01-01T00:00:00Z</time>
      </trkpt>
      <trkpt lat="45.15001" lon="5.64531">
        <ele>1334</ele>
        <time>2010-01-01T00:00:00Z</time>
      </trkpt>
      <trkpt lat="45.1498" lon="5.64526">
        <ele>1356.8</ele>
        <time>2010-01-01T00:00:00Z</time>
      </trkpt>
      <trkpt lat="45.1499" lon="5.64487">
        <ele>1373.7</ele>
        <time>2010-01-01T00:00:00Z</time>
      </trkpt>
      <trkpt lat="45.14973" lon="5.64485">
        <ele>1381.1</ele>
        <time>2010-01-01T00:00:00Z</time>
      </trkpt>
      <trkpt lat="45.14973" lon="5.64485">
        <ele>1381.1</ele>
        <time>2010-01-01T00:00:00Z</time>
      </trkpt>
      <trkpt lat="45.1495" lon="5.64483">
        <ele>1387</ele>
        <time>2010-01-01T00:00:00Z</time>
      </trkpt>
      <trkpt lat="45.14921" lon="5.64473">
        <ele>1391</ele>
        <time>2010-01-01T00:00:00Z</time>
      </trkpt>
      <trkpt lat="45.14906" lon="5.645">
        <ele>1405.3</ele>
        <time>2010-01-01T00:00:00Z</time>
      </trkpt>
      <trkpt lat="45.14894" lon="5.64525">
        <ele>1401.9</ele>
        <time>2010-01-01T00:00:00Z</time>
      </trkpt>
      <trkpt lat="45.14883" lon="5.64534">
        <ele>1405.3</ele>
        <time>2010-01-01T00:00:00Z</time>
      </trkpt>
      <trkpt lat="45.14877" lon="5.64589">
        <ele>1385.3</ele>
        <time>2010-01-01T00:00:00Z</time>
      </trkpt>
      <trkpt lat="45.14859" lon="5.6458">
        <ele>1411</ele>
        <time>2010-01-01T00:00:00Z</time>
      </trkpt>
      <trkpt lat="45.14857" lon="5.64595">
        <ele>1396.6</ele>
        <time>2010-01-01T00:00:00Z</time>
      </trkpt>
      <trkpt lat="45.14857" lon="5.64595">
        <ele>1396.6</ele>
        <time>2010-01-01T00:00:00Z</time>
      </trkpt>
      <trkpt lat="45.14859" lon="5.6458">
        <ele>1411</ele>
        <time>2010-01-01T00:00:00Z</time>
      </trkpt>
      <trkpt lat="45.14854" lon="5.6455">
        <ele>1413.7</ele>
        <time>2010-01-01T00:00:00Z</time>
      </trkpt>
      <trkpt lat="45.14857" lon="5.64515">
        <ele>1421.6</ele>
        <time>2010-01-01T00:00:00Z</time>
      </trkpt>
      <trkpt lat="45.14871" lon="5.64458">
        <ele>1442.7</ele>
        <time>2010-01-01T00:00:00Z</time>
      </trkpt>
      <trkpt lat="45.14886" lon="5.64411">
        <ele>1472.7</ele>
        <time>2010-01-01T00:00:00Z</time>
      </trkpt>
      <trkpt lat="45.14904" lon="5.64382">
        <ele>1474.5</ele>
        <time>2010-01-01T00:00:00Z</time>
      </trkpt>
      <trkpt lat="45.14937" lon="5.64364">
        <ele>1437</ele>
        <time>2010-01-01T00:00:00Z</time>
      </trkpt>
      <trkpt lat="45.14962" lon="5.64344">
        <ele>1437.5</ele>
        <time>2010-01-01T00:00:00Z</time>
      </trkpt>
      <trkpt lat="45.14994" lon="5.64306">
        <ele>1463.1</ele>
        <time>2010-01-01T00:00:00Z</time>
      </trkpt>
      <trkpt lat="45.15018" lon="5.64256">
        <ele>1464.1</ele>
        <time>2010-01-01T00:00:00Z</time>
      </trkpt>
      <trkpt lat="45.15023" lon="5.64212">
        <ele>1490.1</ele>
        <time>2010-01-01T00:00:00Z</time>
      </trkpt>
      <trkpt lat="45.15019" lon="5.64176">
        <ele>1501.5</ele>
        <time>2010-01-01T00:00:00Z</time>
      </trkpt>
      <trkpt lat="45.15008" lon="5.64134">
        <ele>1541.2</ele>
        <time>2010-01-01T00:00:00Z</time>
      </trkpt>
      <trkpt lat="45.15005" lon="5.64103">
        <ele>1570.2</ele>
        <time>2010-01-01T00:00:00Z</time>
      </trkpt>
      <trkpt lat="45.15037" lon="5.64062">
        <ele>1639.6</ele>
        <time>2010-01-01T00:00:00Z</time>
      </trkpt>
      <trkpt lat="45.15069" lon="5.64023">
        <ele>1647.1</ele>
        <time>2010-01-01T00:00:00Z</time>
      </trkpt>
      <trkpt lat="45.15081" lon="5.64019">
        <ele>1642.2</ele>
        <time>2010-01-01T00:00:00Z</time>
      </trkpt>
      <trkpt lat="45.15095" lon="5.64004">
        <ele>1610.2</ele>
        <time>2010-01-01T00:00:00Z</time>
      </trkpt>
      <trkpt lat="45.15107" lon="5.63985">
        <ele>1631.5</ele>
        <time>2010-01-01T00:00:00Z</time>
      </trkpt>
      <trkpt lat="45.15117" lon="5.63958">
        <ele>1634.7</ele>
        <time>2010-01-01T00:00:00Z</time>
      </trkpt>
      <trkpt lat="45.15134" lon="5.63926">
        <ele>1628.1</ele>
        <time>2010-01-01T00:00:00Z</time>
      </trkpt>
      <trkpt lat="45.15152" lon="5.63895">
        <ele>1648.6</ele>
        <time>2010-01-01T00:00:00Z</time>
      </trkpt>
      <trkpt lat="45.1516" lon="5.63853">
        <ele>1658.5</ele>
        <time>2010-01-01T00:00:00Z</time>
      </trkpt>
      <trkpt lat="45.15187" lon="5.63799">
        <ele>1647.7</ele>
        <time>2010-01-01T00:00:00Z</time>
      </trkpt>
      <trkpt lat="45.1524" lon="5.63744">
        <ele>1651.8</ele>
        <time>2010-01-01T00:00:00Z</time>
      </trkpt>
      <trkpt lat="45.15297" lon="5.63698">
        <ele>1637.2</ele>
        <time>2010-01-01T00:00:00Z</time>
      </trkpt>
      <trkpt lat="45.15335" lon="5.63668">
        <ele>1624.6</ele>
        <time>2010-01-01T00:00:00Z</time>
      </trkpt>
      <trkpt lat="45.15364" lon="5.63616">
        <ele>1647.7</ele>
        <time>2010-01-01T00:00:00Z</time>
      </trkpt>
      <trkpt lat="45.15439" lon="5.63555">
        <ele>1649.5</ele>
        <time>2010-01-01T00:00:00Z</time>
      </trkpt>
      <trkpt lat="45.15475" lon="5.63528">
        <ele>1650.9</ele>
        <time>2010-01-01T00:00:00Z</time>
      </trkpt>
      <trkpt lat="45.15555" lon="5.63524">
        <ele>1635.1</ele>
        <time>2010-01-01T00:00:00Z</time>
      </trkpt>
      <trkpt lat="45.15555" lon="5.63524">
        <ele>1635.1</ele>
        <time>2010-01-01T00:00:00Z</time>
      </trkpt>
      <trkpt lat="45.15574" lon="5.63523">
        <ele>1633.1</ele>
        <time>2010-01-01T00:00:00Z</time>
      </trkpt>
      <trkpt lat="45.15572" lon="5.63517">
        <ele>1633.1</ele>
        <time>2010-01-01T00:00:00Z</time>
      </trkpt>
      <trkpt lat="45.15573" lon="5.63512">
        <ele>1632.8</ele>
        <time>2010-01-01T00:00:00Z</time>
      </trkpt>
      <trkpt lat="45.15575" lon="5.63508">
        <ele>1632.2</ele>
        <time>2010-01-01T00:00:00Z</time>
      </trkpt>
      <trkpt lat="45.15579" lon="5.63505">
        <ele>1631.4</ele>
        <time>2010-01-01T00:00:00Z</time>
      </trkpt>
      <trkpt lat="45.15585" lon="5.63502">
        <ele>1628.4</ele>
        <time>2010-01-01T00:00:00Z</time>
      </trkpt>
      <trkpt lat="45.15594" lon="5.63499">
        <ele>1623.6</ele>
        <time>2010-01-01T00:00:00Z</time>
      </trkpt>
      <trkpt lat="45.15605" lon="5.635">
        <ele>1619.4</ele>
        <time>2010-01-01T00:00:00Z</time>
      </trkpt>
      <trkpt lat="45.1562" lon="5.63503">
        <ele>1617.3</ele>
        <time>2010-01-01T00:00:00Z</time>
      </trkpt>
      <trkpt lat="45.15629" lon="5.63507">
        <ele>1615.6</ele>
        <time>2010-01-01T00:00:00Z</time>
      </trkpt>
      <trkpt lat="45.15635" lon="5.63506">
        <ele>1614.7</ele>
        <time>2010-01-01T00:00:00Z</time>
      </trkpt>
      <trkpt lat="45.15638" lon="5.63502">
        <ele>1614.4</ele>
        <time>2010-01-01T00:00:00Z</time>
      </trkpt>
      <trkpt lat="45.15639" lon="5.63497">
        <ele>1612.4</ele>
        <time>2010-01-01T00:00:00Z</time>
      </trkpt>
      <trkpt lat="45.15638" lon="5.63491">
        <ele>1612.3</ele>
        <time>2010-01-01T00:00:00Z</time>
      </trkpt>
      <trkpt lat="45.15634" lon="5.63485">
        <ele>1612.4</ele>
        <time>2010-01-01T00:00:00Z</time>
      </trkpt>
      <trkpt lat="45.15627" lon="5.63475">
        <ele>1612.5</ele>
        <time>2010-01-01T00:00:00Z</time>
      </trkpt>
      <trkpt lat="45.15618" lon="5.63468">
        <ele>1613.1</ele>
        <time>2010-01-01T00:00:00Z</time>
      </trkpt>
      <trkpt lat="45.15611" lon="5.63464">
        <ele>1613.6</ele>
        <time>2010-01-01T00:00:00Z</time>
      </trkpt>
      <trkpt lat="45.15582" lon="5.63419">
        <ele>1618</ele>
        <time>2010-01-01T00:00:00Z</time>
      </trkpt>
      <trkpt lat="45.15584" lon="5.6342">
        <ele>1615.3</ele>
        <time>2010-01-01T00:00:00Z</time>
      </trkpt>
      <trkpt lat="45.15584" lon="5.6342">
        <ele>1615.3</ele>
        <time>2010-01-01T00:00:00Z</time>
      </trkpt>
      <trkpt lat="45.15582" lon="5.63419">
        <ele>1618</ele>
        <time>2010-01-01T00:00:00Z</time>
      </trkpt>
      <trkpt lat="45.15568" lon="5.63415">
        <ele>1614.8</ele>
        <time>2010-01-01T00:00:00Z</time>
      </trkpt>
      <trkpt lat="45.15559" lon="5.63411">
        <ele>1615</ele>
        <time>2010-01-01T00:00:00Z</time>
      </trkpt>
      <trkpt lat="45.15556" lon="5.63409">
        <ele>1615.1</ele>
        <time>2010-01-01T00:00:00Z</time>
      </trkpt>
      <trkpt lat="45.15549" lon="5.63407">
        <ele>1615.9</ele>
        <time>2010-01-01T00:00:00Z</time>
      </trkpt>
      <trkpt lat="45.15538" lon="5.63404">
        <ele>1617.7</ele>
        <time>2010-01-01T00:00:00Z</time>
      </trkpt>
      <trkpt lat="45.15524" lon="5.63401">
        <ele>1621.1</ele>
        <time>2010-01-01T00:00:00Z</time>
      </trkpt>
      <trkpt lat="45.15511" lon="5.63398">
        <ele>1624.1</ele>
        <time>2010-01-01T00:00:00Z</time>
      </trkpt>
      <trkpt lat="45.15503" lon="5.63397">
        <ele>1625.2</ele>
        <time>2010-01-01T00:00:00Z</time>
      </trkpt>
      <trkpt lat="45.15498" lon="5.63396">
        <ele>1634.9</ele>
        <time>2010-01-01T00:00:00Z</time>
      </trkpt>
      <trkpt lat="45.15491" lon="5.63392">
        <ele>1633.9</ele>
        <time>2010-01-01T00:00:00Z</time>
      </trkpt>
      <trkpt lat="45.15487" lon="5.63389">
        <ele>1633.2</ele>
        <time>2010-01-01T00:00:00Z</time>
      </trkpt>
      <trkpt lat="45.15483" lon="5.63388">
        <ele>1633.1</ele>
        <time>2010-01-01T00:00:00Z</time>
      </trkpt>
      <trkpt lat="45.15481" lon="5.63388">
        <ele>1633.1</ele>
        <time>2010-01-01T00:00:00Z</time>
      </trkpt>
      <trkpt lat="45.15478" lon="5.63388">
        <ele>1633.1</ele>
        <time>2010-01-01T00:00:00Z</time>
      </trkpt>
      <trkpt lat="45.15474" lon="5.63388">
        <ele>1633.2</ele>
        <time>2010-01-01T00:00:00Z</time>
      </trkpt>
      <trkpt lat="45.15468" lon="5.6339">
        <ele>1633.8</ele>
        <time>2010-01-01T00:00:00Z</time>
      </trkpt>
      <trkpt lat="45.15464" lon="5.6339">
        <ele>1634</ele>
        <time>2010-01-01T00:00:00Z</time>
      </trkpt>
      <trkpt lat="45.1546" lon="5.6339">
        <ele>1634.2</ele>
        <time>2010-01-01T00:00:00Z</time>
      </trkpt>
      <trkpt lat="45.15458" lon="5.63389">
        <ele>1634.2</ele>
        <time>2010-01-01T00:00:00Z</time>
      </trkpt>
      <trkpt lat="45.15456" lon="5.63389">
        <ele>1634.4</ele>
        <time>2010-01-01T00:00:00Z</time>
      </trkpt>
      <trkpt lat="45.15453" lon="5.6339">
        <ele>1634.8</ele>
        <time>2010-01-01T00:00:00Z</time>
      </trkpt>
      <trkpt lat="45.15448" lon="5.63391">
        <ele>1635.4</ele>
        <time>2010-01-01T00:00:00Z</time>
      </trkpt>
      <trkpt lat="45.1544" lon="5.63392">
        <ele>1636.5</ele>
        <time>2010-01-01T00:00:00Z</time>
      </trkpt>
      <trkpt lat="45.15437" lon="5.63392">
        <ele>1636.9</ele>
        <time>2010-01-01T00:00:00Z</time>
      </trkpt>
      <trkpt lat="45.15434" lon="5.63391">
        <ele>1637</ele>
        <time>2010-01-01T00:00:00Z</time>
      </trkpt>
      <trkpt lat="45.15431" lon="5.6339">
        <ele>1637.1</ele>
        <time>2010-01-01T00:00:00Z</time>
      </trkpt>
      <trkpt lat="45.15429" lon="5.63388">
        <ele>1636.9</ele>
        <time>2010-01-01T00:00:00Z</time>
      </trkpt>
      <trkpt lat="45.15426" lon="5.63387">
        <ele>1636.9</ele>
        <time>2010-01-01T00:00:00Z</time>
      </trkpt>
      <trkpt lat="45.15423" lon="5.63386">
        <ele>1636.8</ele>
        <time>2010-01-01T00:00:00Z</time>
      </trkpt>
      <trkpt lat="45.15418" lon="5.63386">
        <ele>1637</ele>
        <time>2010-01-01T00:00:00Z</time>
      </trkpt>
      <trkpt lat="45.15413" lon="5.63387">
        <ele>1644.2</ele>
        <time>2010-01-01T00:00:00Z</time>
      </trkpt>
      <trkpt lat="45.15407" lon="5.63387">
        <ele>1644.2</ele>
        <time>2010-01-01T00:00:00Z</time>
      </trkpt>
      <trkpt lat="45.15396" lon="5.63389">
        <ele>1644.7</ele>
        <time>2010-01-01T00:00:00Z</time>
      </trkpt>
      <trkpt lat="45.15388" lon="5.63391">
        <ele>1645.2</ele>
        <time>2010-01-01T00:00:00Z</time>
      </trkpt>
      <trkpt lat="45.1538" lon="5.63392">
        <ele>1645.7</ele>
        <time>2010-01-01T00:00:00Z</time>
      </trkpt>
      <trkpt lat="45.1537" lon="5.63391">
        <ele>1646.3</ele>
        <time>2010-01-01T00:00:00Z</time>
      </trkpt>
      <trkpt lat="45.15362" lon="5.63386">
        <ele>1646.3</ele>
        <time>2010-01-01T00:00:00Z</time>
      </trkpt>
      <trkpt lat="45.15355" lon="5.63384">
        <ele>1646.5</ele>
        <time>2010-01-01T00:00:00Z</time>
      </trkpt>
      <trkpt lat="45.15344" lon="5.63383">
        <ele>1647.1</ele>
        <time>2010-01-01T00:00:00Z</time>
      </trkpt>
      <trkpt lat="45.15333" lon="5.63382">
        <ele>1654.4</ele>
        <time>2010-01-01T00:00:00Z</time>
      </trkpt>
      <trkpt lat="45.15323" lon="5.63378">
        <ele>1653.9</ele>
        <time>2010-01-01T00:00:00Z</time>
      </trkpt>
      <trkpt lat="45.15314" lon="5.63374">
        <ele>1653.5</ele>
        <time>2010-01-01T00:00:00Z</time>
      </trkpt>
      <trkpt lat="45.15305" lon="5.63371">
        <ele>1653.6</ele>
        <time>2010-01-01T00:00:00Z</time>
      </trkpt>
      <trkpt lat="45.15299" lon="5.63365">
        <ele>1653</ele>
        <time>2010-01-01T00:00:00Z</time>
      </trkpt>
      <trkpt lat="45.15292" lon="5.63362">
        <ele>1653</ele>
        <time>2010-01-01T00:00:00Z</time>
      </trkpt>
      <trkpt lat="45.15285" lon="5.63359">
        <ele>1652.9</ele>
        <time>2010-01-01T00:00:00Z</time>
      </trkpt>
      <trkpt lat="45.1528" lon="5.63352">
        <ele>1651.9</ele>
        <time>2010-01-01T00:00:00Z</time>
      </trkpt>
      <trkpt lat="45.15274" lon="5.6335">
        <ele>1651.5</ele>
        <time>2010-01-01T00:00:00Z</time>
      </trkpt>
      <trkpt lat="45.15268" lon="5.63345">
        <ele>1650.4</ele>
        <time>2010-01-01T00:00:00Z</time>
      </trkpt>
      <trkpt lat="45.15255" lon="5.6334">
        <ele>1647.4</ele>
        <time>2010-01-01T00:00:00Z</time>
      </trkpt>
      <trkpt lat="45.15239" lon="5.63341">
        <ele>1654.7</ele>
        <time>2010-01-01T00:00:00Z</time>
      </trkpt>
      <trkpt lat="45.15221" lon="5.63338">
        <ele>1661</ele>
        <time>2010-01-01T00:00:00Z</time>
      </trkpt>
      <trkpt lat="45.15208" lon="5.63336">
        <ele>1663.4</ele>
        <time>2010-01-01T00:00:00Z</time>
      </trkpt>
      <trkpt lat="45.15182" lon="5.63345">
        <ele>1664.9</ele>
        <time>2010-01-01T00:00:00Z</time>
      </trkpt>
      <trkpt lat="45.15163" lon="5.63354">
        <ele>1670.9</ele>
        <time>2010-01-01T00:00:00Z</time>
      </trkpt>
      <trkpt lat="45.15107" lon="5.63367">
        <ele>1676.2</ele>
        <time>2010-01-01T00:00:00Z</time>
      </trkpt>
      <trkpt lat="45.15094" lon="5.63374">
        <ele>1678.3</ele>
        <time>2010-01-01T00:00:00Z</time>
      </trkpt>
      <trkpt lat="45.15065" lon="5.63376">
        <ele>1683.8</ele>
        <time>2010-01-01T00:00:00Z</time>
      </trkpt>
      <trkpt lat="45.15031" lon="5.63368">
        <ele>1684.5</ele>
        <time>2010-01-01T00:00:00Z</time>
      </trkpt>
      <trkpt lat="45.14994" lon="5.6337">
        <ele>1691.5</ele>
        <time>2010-01-01T00:00:00Z</time>
      </trkpt>
      <trkpt lat="45.14984" lon="5.63372">
        <ele>1692.3</ele>
        <time>2010-01-01T00:00:00Z</time>
      </trkpt>
      <trkpt lat="45.14975" lon="5.63374">
        <ele>1693</ele>
        <time>2010-01-01T00:00:00Z</time>
      </trkpt>
      <trkpt lat="45.14962" lon="5.63376">
        <ele>1693.6</ele>
        <time>2010-01-01T00:00:00Z</time>
      </trkpt>
      <trkpt lat="45.1495" lon="5.6338">
        <ele>1694.6</ele>
        <time>2010-01-01T00:00:00Z</time>
      </trkpt>
      <trkpt lat="45.14939" lon="5.63382">
        <ele>1695.4</ele>
        <time>2010-01-01T00:00:00Z</time>
      </trkpt>
      <trkpt lat="45.14934" lon="5.63387">
        <ele>1696.8</ele>
        <time>2010-01-01T00:00:00Z</time>
      </trkpt>
      <trkpt lat="45.14928" lon="5.6339">
        <ele>1697.9</ele>
        <time>2010-01-01T00:00:00Z</time>
      </trkpt>
      <trkpt lat="45.14928" lon="5.6339">
        <ele>1697.9</ele>
        <time>2010-01-01T00:00:00Z</time>
      </trkpt>
      <trkpt lat="45.14928" lon="5.6339">
        <ele>1697.9</ele>
        <time>2010-01-01T00:00:00Z</time>
      </trkpt>
      <trkpt lat="45.1491" lon="5.634">
        <ele>1702.4</ele>
        <time>2010-01-01T00:00:00Z</time>
      </trkpt>
      <trkpt lat="45.14907" lon="5.63405">
        <ele>1703.5</ele>
        <time>2010-01-01T00:00:00Z</time>
      </trkpt>
      <trkpt lat="45.149" lon="5.63406">
        <ele>1702.5</ele>
        <time>2010-01-01T00:00:00Z</time>
      </trkpt>
      <trkpt lat="45.149" lon="5.63412">
        <ele>1703.5</ele>
        <time>2010-01-01T00:00:00Z</time>
      </trkpt>
      <trkpt lat="45.14894" lon="5.63412">
        <ele>1702.5</ele>
        <time>2010-01-01T00:00:00Z</time>
      </trkpt>
      <trkpt lat="45.14888" lon="5.63417">
        <ele>1721.3</ele>
        <time>2010-01-01T00:00:00Z</time>
      </trkpt>
      <trkpt lat="45.14873" lon="5.6342">
        <ele>1722.8</ele>
        <time>2010-01-01T00:00:00Z</time>
      </trkpt>
      <trkpt lat="45.14861" lon="5.63421">
        <ele>1722.6</ele>
        <time>2010-01-01T00:00:00Z</time>
      </trkpt>
      <trkpt lat="45.14856" lon="5.63427">
        <ele>1722.7</ele>
        <time>2010-01-01T00:00:00Z</time>
      </trkpt>
      <trkpt lat="45.1485" lon="5.63433">
        <ele>1723.1</ele>
        <time>2010-01-01T00:00:00Z</time>
      </trkpt>
      <trkpt lat="45.14847" lon="5.63436">
        <ele>1723.5</ele>
        <time>2010-01-01T00:00:00Z</time>
      </trkpt>
      <trkpt lat="45.14844" lon="5.63441">
        <ele>1724.5</ele>
        <time>2010-01-01T00:00:00Z</time>
      </trkpt>
      <trkpt lat="45.14839" lon="5.63448">
        <ele>1726.1</ele>
        <time>2010-01-01T00:00:00Z</time>
      </trkpt>
      <trkpt lat="45.14836" lon="5.63451">
        <ele>1726.8</ele>
        <time>2010-01-01T00:00:00Z</time>
      </trkpt>
      <trkpt lat="45.14831" lon="5.63452">
        <ele>1725.7</ele>
        <time>2010-01-01T00:00:00Z</time>
      </trkpt>
      <trkpt lat="45.14826" lon="5.63452">
        <ele>1725.7</ele>
        <time>2010-01-01T00:00:00Z</time>
      </trkpt>
      <trkpt lat="45.1482" lon="5.63453">
        <ele>1725.9</ele>
        <time>2010-01-01T00:00:00Z</time>
      </trkpt>
      <trkpt lat="45.14816" lon="5.63454">
        <ele>1726.1</ele>
        <time>2010-01-01T00:00:00Z</time>
      </trkpt>
      <trkpt lat="45.14812" lon="5.63457">
        <ele>1726.7</ele>
        <time>2010-01-01T00:00:00Z</time>
      </trkpt>
      <trkpt lat="45.14811" lon="5.63458">
        <ele>1726.9</ele>
        <time>2010-01-01T00:00:00Z</time>
      </trkpt>
      <trkpt lat="45.14811" lon="5.63458">
        <ele>1726.9</ele>
        <time>2010-01-01T00:00:00Z</time>
      </trkpt>
      <trkpt lat="45.14808" lon="5.63459">
        <ele>1727</ele>
        <time>2010-01-01T00:00:00Z</time>
      </trkpt>
      <trkpt lat="45.14803" lon="5.63462">
        <ele>1727.4</ele>
        <time>2010-01-01T00:00:00Z</time>
      </trkpt>
      <trkpt lat="45.14797" lon="5.63465">
        <ele>1727.7</ele>
        <time>2010-01-01T00:00:00Z</time>
      </trkpt>
      <trkpt lat="45.14792" lon="5.6347">
        <ele>1728.4</ele>
        <time>2010-01-01T00:00:00Z</time>
      </trkpt>
      <trkpt lat="45.14787" lon="5.63476">
        <ele>1729.1</ele>
        <time>2010-01-01T00:00:00Z</time>
      </trkpt>
      <trkpt lat="45.14782" lon="5.63481">
        <ele>1729.8</ele>
        <time>2010-01-01T00:00:00Z</time>
      </trkpt>
      <trkpt lat="45.14777" lon="5.63488">
        <ele>1730.9</ele>
        <time>2010-01-01T00:00:00Z</time>
      </trkpt>
      <trkpt lat="45.14771" lon="5.63496">
        <ele>1732.2</ele>
        <time>2010-01-01T00:00:00Z</time>
      </trkpt>
      <trkpt lat="45.14766" lon="5.63502">
        <ele>1745</ele>
        <time>2010-01-01T00:00:00Z</time>
      </trkpt>
      <trkpt lat="45.14762" lon="5.63506">
        <ele>1744.4</ele>
        <time>2010-01-01T00:00:00Z</time>
      </trkpt>
      <trkpt lat="45.14759" lon="5.63509">
        <ele>1744.3</ele>
        <time>2010-01-01T00:00:00Z</time>
      </trkpt>
      <trkpt lat="45.14755" lon="5.63511">
        <ele>1744.2</ele>
        <time>2010-01-01T00:00:00Z</time>
      </trkpt>
      <trkpt lat="45.1475" lon="5.63515">
        <ele>1745.3</ele>
        <time>2010-01-01T00:00:00Z</time>
      </trkpt>
      <trkpt lat="45.14736" lon="5.63527">
        <ele>1746.5</ele>
        <time>2010-01-01T00:00:00Z</time>
      </trkpt>
      <trkpt lat="45.14727" lon="5.63532">
        <ele>1747.6</ele>
        <time>2010-01-01T00:00:00Z</time>
      </trkpt>
      <trkpt lat="45.14721" lon="5.63537">
        <ele>1748.4</ele>
        <time>2010-01-01T00:00:00Z</time>
      </trkpt>
      <trkpt lat="45.14718" lon="5.6354">
        <ele>1748.9</ele>
        <time>2010-01-01T00:00:00Z</time>
      </trkpt>
      <trkpt lat="45.14716" lon="5.63546">
        <ele>1749.9</ele>
        <time>2010-01-01T00:00:00Z</time>
      </trkpt>
      <trkpt lat="45.14712" lon="5.6355">
        <ele>1750.4</ele>
        <time>2010-01-01T00:00:00Z</time>
      </trkpt>
      <trkpt lat="45.14707" lon="5.63555">
        <ele>1751</ele>
        <time>2010-01-01T00:00:00Z</time>
      </trkpt>
      <trkpt lat="45.14704" lon="5.63557">
        <ele>1751.2</ele>
        <time>2010-01-01T00:00:00Z</time>
      </trkpt>
      <trkpt lat="45.147" lon="5.63559">
        <ele>1751.4</ele>
        <time>2010-01-01T00:00:00Z</time>
      </trkpt>
      <trkpt lat="45.14695" lon="5.63559">
        <ele>1751.4</ele>
        <time>2010-01-01T00:00:00Z</time>
      </trkpt>
      <trkpt lat="45.14688" lon="5.63558">
        <ele>1751.2</ele>
        <time>2010-01-01T00:00:00Z</time>
      </trkpt>
      <trkpt lat="45.1468" lon="5.63559">
        <ele>1751.7</ele>
        <time>2010-01-01T00:00:00Z</time>
      </trkpt>
      <trkpt lat="45.14672" lon="5.6356">
        <ele>1752.1</ele>
        <time>2010-01-01T00:00:00Z</time>
      </trkpt>
      <trkpt lat="45.14665" lon="5.63562">
        <ele>1749.5</ele>
        <time>2010-01-01T00:00:00Z</time>
      </trkpt>
      <trkpt lat="45.14658" lon="5.63563">
        <ele>1749.4</ele>
        <time>2010-01-01T00:00:00Z</time>
      </trkpt>
      <trkpt lat="45.14655" lon="5.63565">
        <ele>1749.7</ele>
        <time>2010-01-01T00:00:00Z</time>
      </trkpt>
      <trkpt lat="45.14656" lon="5.63568">
        <ele>1750.7</ele>
        <time>2010-01-01T00:00:00Z</time>
      </trkpt>
      <trkpt lat="45.14659" lon="5.63572">
        <ele>1752.6</ele>
        <time>2010-01-01T00:00:00Z</time>
      </trkpt>
      <trkpt lat="45.14664" lon="5.63575">
        <ele>1754.8</ele>
        <time>2010-01-01T00:00:00Z</time>
      </trkpt>
      <trkpt lat="45.14668" lon="5.6358">
        <ele>1758.5</ele>
        <time>2010-01-01T00:00:00Z</time>
      </trkpt>
      <trkpt lat="45.14673" lon="5.63584">
        <ele>1764.3</ele>
        <time>2010-01-01T00:00:00Z</time>
      </trkpt>
      <trkpt lat="45.14672" lon="5.63586">
        <ele>1764.1</ele>
        <time>2010-01-01T00:00:00Z</time>
      </trkpt>
      <trkpt lat="45.14668" lon="5.63587">
        <ele>1762.9</ele>
        <time>2010-01-01T00:00:00Z</time>
      </trkpt>
      <trkpt lat="45.14662" lon="5.63589">
        <ele>1764.6</ele>
        <time>2010-01-01T00:00:00Z</time>
      </trkpt>
      <trkpt lat="45.14658" lon="5.6359">
        <ele>1766.3</ele>
        <time>2010-01-01T00:00:00Z</time>
      </trkpt>
      <trkpt lat="45.14656" lon="5.63593">
        <ele>1767.8</ele>
        <time>2010-01-01T00:00:00Z</time>
      </trkpt>
      <trkpt lat="45.14659" lon="5.63595">
        <ele>1767.7</ele>
        <time>2010-01-01T00:00:00Z</time>
      </trkpt>
      <trkpt lat="45.14662" lon="5.63595">
        <ele>1767.2</ele>
        <time>2010-01-01T00:00:00Z</time>
      </trkpt>
      <trkpt lat="45.14668" lon="5.63597">
        <ele>1768.4</ele>
        <time>2010-01-01T00:00:00Z</time>
      </trkpt>
      <trkpt lat="45.14672" lon="5.63601">
        <ele>1770.4</ele>
        <time>2010-01-01T00:00:00Z</time>
      </trkpt>
      <trkpt lat="45.14671" lon="5.63603">
        <ele>1771.1</ele>
        <time>2010-01-01T00:00:00Z</time>
      </trkpt>
      <trkpt lat="45.14668" lon="5.63606">
        <ele>1772.1</ele>
        <time>2010-01-01T00:00:00Z</time>
      </trkpt>
      <trkpt lat="45.14664" lon="5.63607">
        <ele>1771.8</ele>
        <time>2010-01-01T00:00:00Z</time>
      </trkpt>
      <trkpt lat="45.14657" lon="5.63608">
        <ele>1772.5</ele>
        <time>2010-01-01T00:00:00Z</time>
      </trkpt>
      <trkpt lat="45.1465" lon="5.63611">
        <ele>1773.9</ele>
        <time>2010-01-01T00:00:00Z</time>
      </trkpt>
      <trkpt lat="45.14646" lon="5.63613">
        <ele>1774.7</ele>
        <time>2010-01-01T00:00:00Z</time>
      </trkpt>
      <trkpt lat="45.14643" lon="5.63617">
        <ele>1775.8</ele>
        <time>2010-01-01T00:00:00Z</time>
      </trkpt>
      <trkpt lat="45.14639" lon="5.63622">
        <ele>1777.1</ele>
        <time>2010-01-01T00:00:00Z</time>
      </trkpt>
      <trkpt lat="45.14633" lon="5.63625">
        <ele>1777.9</ele>
        <time>2010-01-01T00:00:00Z</time>
      </trkpt>
      <trkpt lat="45.14627" lon="5.63626">
        <ele>1778.2</ele>
        <time>2010-01-01T00:00:00Z</time>
      </trkpt>
      <trkpt lat="45.14623" lon="5.63629">
        <ele>1778.9</ele>
        <time>2010-01-01T00:00:00Z</time>
      </trkpt>
      <trkpt lat="45.14623" lon="5.63632">
        <ele>1779.5</ele>
        <time>2010-01-01T00:00:00Z</time>
      </trkpt>
      <trkpt lat="45.14623" lon="5.63632">
        <ele>1779.5</ele>
        <time>2010-01-01T00:00:00Z</time>
      </trkpt>
      <trkpt lat="45.14626" lon="5.63634">
        <ele>1779.9</ele>
        <time>2010-01-01T00:00:00Z</time>
      </trkpt>
      <trkpt lat="45.14631" lon="5.63637">
        <ele>1780.5</ele>
        <time>2010-01-01T00:00:00Z</time>
      </trkpt>
      <trkpt lat="45.14636" lon="5.63638">
        <ele>1780.7</ele>
        <time>2010-01-01T00:00:00Z</time>
      </trkpt>
      <trkpt lat="45.14641" lon="5.63639">
        <ele>1781.1</ele>
        <time>2010-01-01T00:00:00Z</time>
      </trkpt>
      <trkpt lat="45.14646" lon="5.63642">
        <ele>1782</ele>
        <time>2010-01-01T00:00:00Z</time>
      </trkpt>
      <trkpt lat="45.14651" lon="5.63645">
        <ele>1783.1</ele>
        <time>2010-01-01T00:00:00Z</time>
      </trkpt>
      <trkpt lat="45.14655" lon="5.63648">
        <ele>1784.3</ele>
        <time>2010-01-01T00:00:00Z</time>
      </trkpt>
      <trkpt lat="45.14659" lon="5.63652">
        <ele>1786.1</ele>
        <time>2010-01-01T00:00:00Z</time>
      </trkpt>
      <trkpt lat="45.14661" lon="5.63654">
        <ele>1787.1</ele>
        <time>2010-01-01T00:00:00Z</time>
      </trkpt>
      <trkpt lat="45.14664" lon="5.6366">
        <ele>1790</ele>
        <time>2010-01-01T00:00:00Z</time>
      </trkpt>
      <trkpt lat="45.14666" lon="5.63663">
        <ele>1791.8</ele>
        <time>2010-01-01T00:00:00Z</time>
      </trkpt>
      <trkpt lat="45.14669" lon="5.63667">
        <ele>1795.5</ele>
        <time>2010-01-01T00:00:00Z</time>
      </trkpt>
      <trkpt lat="45.14674" lon="5.6367">
        <ele>1798.6</ele>
        <time>2010-01-01T00:00:00Z</time>
      </trkpt>
      <trkpt lat="45.14679" lon="5.63672">
        <ele>1800.8</ele>
        <time>2010-01-01T00:00:00Z</time>
      </trkpt>
      <trkpt lat="45.14684" lon="5.63674">
        <ele>1802.5</ele>
        <time>2010-01-01T00:00:00Z</time>
      </trkpt>
      <trkpt lat="45.14689" lon="5.63676">
        <ele>1803.8</ele>
        <time>2010-01-01T00:00:00Z</time>
      </trkpt>
      <trkpt lat="45.14695" lon="5.6368">
        <ele>1805.2</ele>
        <time>2010-01-01T00:00:00Z</time>
      </trkpt>
      <trkpt lat="45.14701" lon="5.63683">
        <ele>1806</ele>
        <time>2010-01-01T00:00:00Z</time>
      </trkpt>
      <trkpt lat="45.14708" lon="5.63686">
        <ele>1806.6</ele>
        <time>2010-01-01T00:00:00Z</time>
      </trkpt>
      <trkpt lat="45.14713" lon="5.63688">
        <ele>1806.9</ele>
        <time>2010-01-01T00:00:00Z</time>
      </trkpt>
      <trkpt lat="45.14718" lon="5.63691">
        <ele>1807.2</ele>
        <time>2010-01-01T00:00:00Z</time>
      </trkpt>
      <trkpt lat="45.14723" lon="5.63697">
        <ele>1808.1</ele>
        <time>2010-01-01T00:00:00Z</time>
      </trkpt>
      <trkpt lat="45.14727" lon="5.637">
        <ele>1808.5</ele>
        <time>2010-01-01T00:00:00Z</time>
      </trkpt>
      <trkpt lat="45.14734" lon="5.63701">
        <ele>1808.5</ele>
        <time>2010-01-01T00:00:00Z</time>
      </trkpt>
      <trkpt lat="45.14739" lon="5.63702">
        <ele>1808.6</ele>
        <time>2010-01-01T00:00:00Z</time>
      </trkpt>
      <trkpt lat="45.14745" lon="5.63704">
        <ele>1808.9</ele>
        <time>2010-01-01T00:00:00Z</time>
      </trkpt>
      <trkpt lat="45.14749" lon="5.63706">
        <ele>1809.4</ele>
        <time>2010-01-01T00:00:00Z</time>
      </trkpt>
      <trkpt lat="45.14756" lon="5.63711">
        <ele>1811.1</ele>
        <time>2010-01-01T00:00:00Z</time>
      </trkpt>
      <trkpt lat="45.14764" lon="5.63715">
        <ele>1812</ele>
        <time>2010-01-01T00:00:00Z</time>
      </trkpt>
      <trkpt lat="45.14772" lon="5.63719">
        <ele>1812.7</ele>
        <time>2010-01-01T00:00:00Z</time>
      </trkpt>
      <trkpt lat="45.14781" lon="5.63723">
        <ele>1813.3</ele>
        <time>2010-01-01T00:00:00Z</time>
      </trkpt>
      <trkpt lat="45.14789" lon="5.63726">
        <ele>1813.8</ele>
        <time>2010-01-01T00:00:00Z</time>
      </trkpt>
      <trkpt lat="45.14795" lon="5.6373">
        <ele>1814.5</ele>
        <time>2010-01-01T00:00:00Z</time>
      </trkpt>
      <trkpt lat="45.14799" lon="5.63732">
        <ele>1814.9</ele>
        <time>2010-01-01T00:00:00Z</time>
      </trkpt>
      <trkpt lat="45.14802" lon="5.63733">
        <ele>1815.3</ele>
        <time>2010-01-01T00:00:00Z</time>
      </trkpt>
      <trkpt lat="45.14804" lon="5.63733">
        <ele>1815.5</ele>
        <time>2010-01-01T00:00:00Z</time>
      </trkpt>
      <trkpt lat="45.14807" lon="5.63733">
        <ele>1815.7</ele>
        <time>2010-01-01T00:00:00Z</time>
      </trkpt>
      <trkpt lat="45.14813" lon="5.63732">
        <ele>1816.3</ele>
        <time>2010-01-01T00:00:00Z</time>
      </trkpt>
      <trkpt lat="45.14817" lon="5.63732">
        <ele>1816.8</ele>
        <time>2010-01-01T00:00:00Z</time>
      </trkpt>
      <trkpt lat="45.14823" lon="5.63732">
        <ele>1817.5</ele>
        <time>2010-01-01T00:00:00Z</time>
      </trkpt>
      <trkpt lat="45.14831" lon="5.63733">
        <ele>1818.5</ele>
        <time>2010-01-01T00:00:00Z</time>
      </trkpt>
      <trkpt lat="45.14836" lon="5.63734">
        <ele>1823.4</ele>
        <time>2010-01-01T00:00:00Z</time>
      </trkpt>
      <trkpt lat="45.1484" lon="5.63736">
        <ele>1823.7</ele>
        <time>2010-01-01T00:00:00Z</time>
      </trkpt>
      <trkpt lat="45.14845" lon="5.63741">
        <ele>1824.2</ele>
        <time>2010-01-01T00:00:00Z</time>
      </trkpt>
      <trkpt lat="45.14853" lon="5.63751">
        <ele>1834.4</ele>
        <time>2010-01-01T00:00:00Z</time>
      </trkpt>
      <trkpt lat="45.14861" lon="5.63763">
        <ele>1837.2</ele>
        <time>2010-01-01T00:00:00Z</time>
      </trkpt>
      <trkpt lat="45.14867" lon="5.63774">
        <ele>1839.2</ele>
        <time>2010-01-01T00:00:00Z</time>
      </trkpt>
      <trkpt lat="45.1487" lon="5.63778">
        <ele>1839.8</ele>
        <time>2010-01-01T00:00:00Z</time>
      </trkpt>
      <trkpt lat="45.14871" lon="5.63784">
        <ele>1840.5</ele>
        <time>2010-01-01T00:00:00Z</time>
      </trkpt>
      <trkpt lat="45.14876" lon="5.63786">
        <ele>1841.1</ele>
        <time>2010-01-01T00:00:00Z</time>
      </trkpt>
      <trkpt lat="45.1488" lon="5.6379">
        <ele>1841.7</ele>
        <time>2010-01-01T00:00:00Z</time>
      </trkpt>
      <trkpt lat="45.14881" lon="5.63796">
        <ele>1842.3</ele>
        <time>2010-01-01T00:00:00Z</time>
      </trkpt>
      <trkpt lat="45.14879" lon="5.63801">
        <ele>1842.6</ele>
        <time>2010-01-01T00:00:00Z</time>
      </trkpt>
      <trkpt lat="45.14874" lon="5.63805">
        <ele>1842.6</ele>
        <time>2010-01-01T00:00:00Z</time>
      </trkpt>
      <trkpt lat="45.1487" lon="5.63808">
        <ele>1842.6</ele>
        <time>2010-01-01T00:00:00Z</time>
      </trkpt>
      <trkpt lat="45.14868" lon="5.63812">
        <ele>1842.9</ele>
        <time>2010-01-01T00:00:00Z</time>
      </trkpt>
      <trkpt lat="45.14868" lon="5.63815">
        <ele>1843.1</ele>
        <time>2010-01-01T00:00:00Z</time>
      </trkpt>
      <trkpt lat="45.14866" lon="5.6382">
        <ele>1843.3</ele>
        <time>2010-01-01T00:00:00Z</time>
      </trkpt>
      <trkpt lat="45.14869" lon="5.6383">
        <ele>1843.9</ele>
        <time>2010-01-01T00:00:00Z</time>
      </trkpt>
      <trkpt lat="45.14869" lon="5.63843">
        <ele>1853.9</ele>
        <time>2010-01-01T00:00:00Z</time>
      </trkpt>
      <trkpt lat="45.14868" lon="5.63848">
        <ele>1854.2</ele>
        <time>2010-01-01T00:00:00Z</time>
      </trkpt>
      <trkpt lat="45.14868" lon="5.63856">
        <ele>1854.8</ele>
        <time>2010-01-01T00:00:00Z</time>
      </trkpt>
      <trkpt lat="45.14869" lon="5.63867">
        <ele>1855.9</ele>
        <time>2010-01-01T00:00:00Z</time>
      </trkpt>
      <trkpt lat="45.14869" lon="5.63871">
        <ele>1856.3</ele>
        <time>2010-01-01T00:00:00Z</time>
      </trkpt>
      <trkpt lat="45.14871" lon="5.63876">
        <ele>1856.8</ele>
        <time>2010-01-01T00:00:00Z</time>
      </trkpt>
      <trkpt lat="45.14876" lon="5.63886">
        <ele>1857.8</ele>
        <time>2010-01-01T00:00:00Z</time>
      </trkpt>
      <trkpt lat="45.14879" lon="5.63893">
        <ele>1858.3</ele>
        <time>2010-01-01T00:00:00Z</time>
      </trkpt>
      <trkpt lat="45.14881" lon="5.639">
        <ele>1858.8</ele>
        <time>2010-01-01T00:00:00Z</time>
      </trkpt>
      <trkpt lat="45.14882" lon="5.63909">
        <ele>1859.4</ele>
        <time>2010-01-01T00:00:00Z</time>
      </trkpt>
      <trkpt lat="45.14882" lon="5.63915">
        <ele>1859.6</ele>
        <time>2010-01-01T00:00:00Z</time>
      </trkpt>
      <trkpt lat="45.14881" lon="5.63921">
        <ele>1864.2</ele>
        <time>2010-01-01T00:00:00Z</time>
      </trkpt>
      <trkpt lat="45.14881" lon="5.63923">
        <ele>1864.2</ele>
        <time>2010-01-01T00:00:00Z</time>
      </trkpt>
      <trkpt lat="45.14879" lon="5.63925">
        <ele>1864.2</ele>
        <time>2010-01-01T00:00:00Z</time>
      </trkpt>
      <trkpt lat="45.14875" lon="5.63925">
        <ele>1864.3</ele>
        <time>2010-01-01T00:00:00Z</time>
      </trkpt>
      <trkpt lat="45.14868" lon="5.63927">
        <ele>1864.5</ele>
        <time>2010-01-01T00:00:00Z</time>
      </trkpt>
      <trkpt lat="45.14864" lon="5.63928">
        <ele>1864.7</ele>
        <time>2010-01-01T00:00:00Z</time>
      </trkpt>
      <trkpt lat="45.14864" lon="5.63928">
        <ele>1864.7</ele>
        <time>2010-01-01T00:00:00Z</time>
      </trkpt>
      <trkpt lat="45.1486" lon="5.63929">
        <ele>1864.8</ele>
        <time>2010-01-01T00:00:00Z</time>
      </trkpt>
      <trkpt lat="45.14854" lon="5.63925">
        <ele>1865</ele>
        <time>2010-01-01T00:00:00Z</time>
      </trkpt>
      <trkpt lat="45.14849" lon="5.63925">
        <ele>1865.2</ele>
        <time>2010-01-01T00:00:00Z</time>
      </trkpt>
      <trkpt lat="45.14844" lon="5.63923">
        <ele>1865.4</ele>
        <time>2010-01-01T00:00:00Z</time>
      </trkpt>
      <trkpt lat="45.14839" lon="5.6392">
        <ele>1865.6</ele>
        <time>2010-01-01T00:00:00Z</time>
      </trkpt>
      <trkpt lat="45.1483" lon="5.63913">
        <ele>1865.2</ele>
        <time>2010-01-01T00:00:00Z</time>
      </trkpt>
      <trkpt lat="45.14823" lon="5.63908">
        <ele>1864.1</ele>
        <time>2010-01-01T00:00:00Z</time>
      </trkpt>
      <trkpt lat="45.14818" lon="5.63906">
        <ele>1863.7</ele>
        <time>2010-01-01T00:00:00Z</time>
      </trkpt>
      <trkpt lat="45.14811" lon="5.63902">
        <ele>1863.4</ele>
        <time>2010-01-01T00:00:00Z</time>
      </trkpt>
      <trkpt lat="45.14804" lon="5.63898">
        <ele>1863.2</ele>
        <time>2010-01-01T00:00:00Z</time>
      </trkpt>
      <trkpt lat="45.14796" lon="5.63893">
        <ele>1863.1</ele>
        <time>2010-01-01T00:00:00Z</time>
      </trkpt>
      <trkpt lat="45.14788" lon="5.63887">
        <ele>1863</ele>
        <time>2010-01-01T00:00:00Z</time>
      </trkpt>
      <trkpt lat="45.1478" lon="5.63881">
        <ele>1862.7</ele>
        <time>2010-01-01T00:00:00Z</time>
      </trkpt>
      <trkpt lat="45.14772" lon="5.63875">
        <ele>1862.1</ele>
        <time>2010-01-01T00:00:00Z</time>
      </trkpt>
      <trkpt lat="45.14763" lon="5.63869">
        <ele>1861.2</ele>
        <time>2010-01-01T00:00:00Z</time>
      </trkpt>
      <trkpt lat="45.14757" lon="5.63864">
        <ele>1860.2</ele>
        <time>2010-01-01T00:00:00Z</time>
      </trkpt>
      <trkpt lat="45.14753" lon="5.63861">
        <ele>1859.6</ele>
        <time>2010-01-01T00:00:00Z</time>
      </trkpt>
      <trkpt lat="45.14746" lon="5.63853">
        <ele>1861.5</ele>
        <time>2010-01-01T00:00:00Z</time>
      </trkpt>
      <trkpt lat="45.14738" lon="5.63845">
        <ele>1860.2</ele>
        <time>2010-01-01T00:00:00Z</time>
      </trkpt>
      <trkpt lat="45.14732" lon="5.6384">
        <ele>1860.8</ele>
        <time>2010-01-01T00:00:00Z</time>
      </trkpt>
      <trkpt lat="45.14726" lon="5.63835">
        <ele>1861.9</ele>
        <time>2010-01-01T00:00:00Z</time>
      </trkpt>
      <trkpt lat="45.14719" lon="5.63829">
        <ele>1847.9</ele>
        <time>2010-01-01T00:00:00Z</time>
      </trkpt>
      <trkpt lat="45.14707" lon="5.63822">
        <ele>1848.2</ele>
        <time>2010-01-01T00:00:00Z</time>
      </trkpt>
      <trkpt lat="45.14699" lon="5.63818">
        <ele>1848.9</ele>
        <time>2010-01-01T00:00:00Z</time>
      </trkpt>
      <trkpt lat="45.1469" lon="5.63813">
        <ele>1849.5</ele>
        <time>2010-01-01T00:00:00Z</time>
      </trkpt>
      <trkpt lat="45.14679" lon="5.63811">
        <ele>1850.9</ele>
        <time>2010-01-01T00:00:00Z</time>
      </trkpt>
      <trkpt lat="45.14667" lon="5.63807">
        <ele>1850.5</ele>
        <time>2010-01-01T00:00:00Z</time>
      </trkpt>
      <trkpt lat="45.1465" lon="5.63802">
        <ele>1850.5</ele>
        <time>2010-01-01T00:00:00Z</time>
      </trkpt>
      <trkpt lat="45.14641" lon="5.63799">
        <ele>1849.2</ele>
        <time>2010-01-01T00:00:00Z</time>
      </trkpt>
      <trkpt lat="45.14633" lon="5.63797">
        <ele>1848.5</ele>
        <time>2010-01-01T00:00:00Z</time>
      </trkpt>
      <trkpt lat="45.14625" lon="5.63796">
        <ele>1848.1</ele>
        <time>2010-01-01T00:00:00Z</time>
      </trkpt>
      <trkpt lat="45.14615" lon="5.63795">
        <ele>1847.8</ele>
        <time>2010-01-01T00:00:00Z</time>
      </trkpt>
      <trkpt lat="45.14605" lon="5.63793">
        <ele>1847.3</ele>
        <time>2010-01-01T00:00:00Z</time>
      </trkpt>
      <trkpt lat="45.14598" lon="5.63792">
        <ele>1847</ele>
        <time>2010-01-01T00:00:00Z</time>
      </trkpt>
      <trkpt lat="45.14589" lon="5.63791">
        <ele>1846.6</ele>
        <time>2010-01-01T00:00:00Z</time>
      </trkpt>
      <trkpt lat="45.14583" lon="5.63791">
        <ele>1841.5</ele>
        <time>2010-01-01T00:00:00Z</time>
      </trkpt>
      <trkpt lat="45.14577" lon="5.63792">
        <ele>1841.5</ele>
        <time>2010-01-01T00:00:00Z</time>
      </trkpt>
      <trkpt lat="45.14576" lon="5.63792">
        <ele>1841.5</ele>
        <time>2010-01-01T00:00:00Z</time>
      </trkpt>
      <trkpt lat="45.14576" lon="5.63792">
        <ele>1841.5</ele>
        <time>2010-01-01T00:00:00Z</time>
      </trkpt>
      <trkpt lat="45.14567" lon="5.63794">
        <ele>1841.5</ele>
        <time>2010-01-01T00:00:00Z</time>
      </trkpt>
      <trkpt lat="45.14557" lon="5.63797">
        <ele>1841.3</ele>
        <time>2010-01-01T00:00:00Z</time>
      </trkpt>
      <trkpt lat="45.14549" lon="5.63801">
        <ele>1841.1</ele>
        <time>2010-01-01T00:00:00Z</time>
      </trkpt>
      <trkpt lat="45.14536" lon="5.63806">
        <ele>1840.5</ele>
        <time>2010-01-01T00:00:00Z</time>
      </trkpt>
      <trkpt lat="45.14529" lon="5.63809">
        <ele>1840.3</ele>
        <time>2010-01-01T00:00:00Z</time>
      </trkpt>
      <trkpt lat="45.14521" lon="5.6381">
        <ele>1839.9</ele>
        <time>2010-01-01T00:00:00Z</time>
      </trkpt>
      <trkpt lat="45.14516" lon="5.63812">
        <ele>1839.9</ele>
        <time>2010-01-01T00:00:00Z</time>
      </trkpt>
      <trkpt lat="45.14511" lon="5.63812">
        <ele>1839.8</ele>
        <time>2010-01-01T00:00:00Z</time>
      </trkpt>
      <trkpt lat="45.14499" lon="5.63814">
        <ele>1835.3</ele>
        <time>2010-01-01T00:00:00Z</time>
      </trkpt>
      <trkpt lat="45.14487" lon="5.63814">
        <ele>1834.5</ele>
        <time>2010-01-01T00:00:00Z</time>
      </trkpt>
      <trkpt lat="45.14477" lon="5.63814">
        <ele>1833.5</ele>
        <time>2010-01-01T00:00:00Z</time>
      </trkpt>
      <trkpt lat="45.14467" lon="5.63813">
        <ele>1832.6</ele>
        <time>2010-01-01T00:00:00Z</time>
      </trkpt>
      <trkpt lat="45.14461" lon="5.63812">
        <ele>1832.2</ele>
        <time>2010-01-01T00:00:00Z</time>
      </trkpt>
      <trkpt lat="45.14456" lon="5.6381">
        <ele>1831.8</ele>
        <time>2010-01-01T00:00:00Z</time>
      </trkpt>
      <trkpt lat="45.14451" lon="5.63808">
        <ele>1831.5</ele>
        <time>2010-01-01T00:00:00Z</time>
      </trkpt>
      <trkpt lat="45.14445" lon="5.63802">
        <ele>1830.8</ele>
        <time>2010-01-01T00:00:00Z</time>
      </trkpt>
      <trkpt lat="45.14437" lon="5.63794">
        <ele>1829.8</ele>
        <time>2010-01-01T00:00:00Z</time>
      </trkpt>
      <trkpt lat="45.1443" lon="5.63788">
        <ele>1828.9</ele>
        <time>2010-01-01T00:00:00Z</time>
      </trkpt>
      <trkpt lat="45.14421" lon="5.63783">
        <ele>1828</ele>
        <time>2010-01-01T00:00:00Z</time>
      </trkpt>
      <trkpt lat="45.14407" lon="5.63775">
        <ele>1825.9</ele>
        <time>2010-01-01T00:00:00Z</time>
      </trkpt>
      <trkpt lat="45.14395" lon="5.63765">
        <ele>1825.6</ele>
        <time>2010-01-01T00:00:00Z</time>
      </trkpt>
      <trkpt lat="45.14383" lon="5.63757">
        <ele>1826.2</ele>
        <time>2010-01-01T00:00:00Z</time>
      </trkpt>
      <trkpt lat="45.14371" lon="5.63749">
        <ele>1816</ele>
        <time>2010-01-01T00:00:00Z</time>
      </trkpt>
      <trkpt lat="45.14356" lon="5.6374">
        <ele>1817.6</ele>
        <time>2010-01-01T00:00:00Z</time>
      </trkpt>
      <trkpt lat="45.14345" lon="5.63733">
        <ele>1818.3</ele>
        <time>2010-01-01T00:00:00Z</time>
      </trkpt>
      <trkpt lat="45.14336" lon="5.63729">
        <ele>1818</ele>
        <time>2010-01-01T00:00:00Z</time>
      </trkpt>
      <trkpt lat="45.14326" lon="5.63725">
        <ele>1822.1</ele>
        <time>2010-01-01T00:00:00Z</time>
      </trkpt>
      <trkpt lat="45.14309" lon="5.63714">
        <ele>1820</ele>
        <time>2010-01-01T00:00:00Z</time>
      </trkpt>
      <trkpt lat="45.14292" lon="5.63704">
        <ele>1819.2</ele>
        <time>2010-01-01T00:00:00Z</time>
      </trkpt>
      <trkpt lat="45.14275" lon="5.63691">
        <ele>1817.7</ele>
        <time>2010-01-01T00:00:00Z</time>
      </trkpt>
      <trkpt lat="45.14269" lon="5.6368">
        <ele>1815.8</ele>
        <time>2010-01-01T00:00:00Z</time>
      </trkpt>
      <trkpt lat="45.14256" lon="5.63668">
        <ele>1812.1</ele>
        <time>2010-01-01T00:00:00Z</time>
      </trkpt>
      <trkpt lat="45.14243" lon="5.63658">
        <ele>1805.5</ele>
        <time>2010-01-01T00:00:00Z</time>
      </trkpt>
      <trkpt lat="45.14229" lon="5.63647">
        <ele>1801.6</ele>
        <time>2010-01-01T00:00:00Z</time>
      </trkpt>
      <trkpt lat="45.14215" lon="5.63639">
        <ele>1800</ele>
        <time>2010-01-01T00:00:00Z</time>
      </trkpt>
      <trkpt lat="45.14202" lon="5.6363">
        <ele>1798.9</ele>
        <time>2010-01-01T00:00:00Z</time>
      </trkpt>
      <trkpt lat="45.14199" lon="5.63628">
        <ele>1798.6</ele>
        <time>2010-01-01T00:00:00Z</time>
      </trkpt>
      <trkpt lat="45.14199" lon="5.63628">
        <ele>1798.6</ele>
        <time>2010-01-01T00:00:00Z</time>
      </trkpt>
      <trkpt lat="45.14187" lon="5.63621">
        <ele>1797.6</ele>
        <time>2010-01-01T00:00:00Z</time>
      </trkpt>
      <trkpt lat="45.14175" lon="5.63616">
        <ele>1796.4</ele>
        <time>2010-01-01T00:00:00Z</time>
      </trkpt>
      <trkpt lat="45.14163" lon="5.63609">
        <ele>1788.9</ele>
        <time>2010-01-01T00:00:00Z</time>
      </trkpt>
      <trkpt lat="45.14152" lon="5.63603">
        <ele>1788</ele>
        <time>2010-01-01T00:00:00Z</time>
      </trkpt>
      <trkpt lat="45.14142" lon="5.636">
        <ele>1787.5</ele>
        <time>2010-01-01T00:00:00Z</time>
      </trkpt>
      <trkpt lat="45.14134" lon="5.63596">
        <ele>1787.1</ele>
        <time>2010-01-01T00:00:00Z</time>
      </trkpt>
      <trkpt lat="45.14126" lon="5.63594">
        <ele>1786.8</ele>
        <time>2010-01-01T00:00:00Z</time>
      </trkpt>
      <trkpt lat="45.14117" lon="5.63591">
        <ele>1786.7</ele>
        <time>2010-01-01T00:00:00Z</time>
      </trkpt>
      <trkpt lat="45.14103" lon="5.6359">
        <ele>1786.9</ele>
        <time>2010-01-01T00:00:00Z</time>
      </trkpt>
      <trkpt lat="45.14088" lon="5.63588">
        <ele>1788.5</ele>
        <time>2010-01-01T00:00:00Z</time>
      </trkpt>
      <trkpt lat="45.14075" lon="5.63585">
        <ele>1784.3</ele>
        <time>2010-01-01T00:00:00Z</time>
      </trkpt>
      <trkpt lat="45.14069" lon="5.63586">
        <ele>1781.6</ele>
        <time>2010-01-01T00:00:00Z</time>
      </trkpt>
      <trkpt lat="45.14063" lon="5.63582">
        <ele>1786.9</ele>
        <time>2010-01-01T00:00:00Z</time>
      </trkpt>
      <trkpt lat="45.14058" lon="5.63577">
        <ele>1786.4</ele>
        <time>2010-01-01T00:00:00Z</time>
      </trkpt>
      <trkpt lat="45.14055" lon="5.63573">
        <ele>1786.1</ele>
        <time>2010-01-01T00:00:00Z</time>
      </trkpt>
      <trkpt lat="45.14052" lon="5.63568">
        <ele>1785.7</ele>
        <time>2010-01-01T00:00:00Z</time>
      </trkpt>
      <trkpt lat="45.14048" lon="5.63564">
        <ele>1785.4</ele>
        <time>2010-01-01T00:00:00Z</time>
      </trkpt>
      <trkpt lat="45.14042" lon="5.63557">
        <ele>1784.9</ele>
        <time>2010-01-01T00:00:00Z</time>
      </trkpt>
      <trkpt lat="45.14036" lon="5.63552">
        <ele>1784.5</ele>
        <time>2010-01-01T00:00:00Z</time>
      </trkpt>
      <trkpt lat="45.14029" lon="5.63545">
        <ele>1783.8</ele>
        <time>2010-01-01T00:00:00Z</time>
      </trkpt>
      <trkpt lat="45.14024" lon="5.63541">
        <ele>1783.4</ele>
        <time>2010-01-01T00:00:00Z</time>
      </trkpt>
      <trkpt lat="45.1402" lon="5.63539">
        <ele>1783.2</ele>
        <time>2010-01-01T00:00:00Z</time>
      </trkpt>
      <trkpt lat="45.14015" lon="5.63538">
        <ele>1783.1</ele>
        <time>2010-01-01T00:00:00Z</time>
      </trkpt>
      <trkpt lat="45.14009" lon="5.63538">
        <ele>1783.1</ele>
        <time>2010-01-01T00:00:00Z</time>
      </trkpt>
      <trkpt lat="45.14006" lon="5.63537">
        <ele>1783</ele>
        <time>2010-01-01T00:00:00Z</time>
      </trkpt>
      <trkpt lat="45.14002" lon="5.63535">
        <ele>1782.6</ele>
        <time>2010-01-01T00:00:00Z</time>
      </trkpt>
      <trkpt lat="45.13999" lon="5.63532">
        <ele>1780.3</ele>
        <time>2010-01-01T00:00:00Z</time>
      </trkpt>
      <trkpt lat="45.13995" lon="5.63525">
        <ele>1779.2</ele>
        <time>2010-01-01T00:00:00Z</time>
      </trkpt>
      <trkpt lat="45.13992" lon="5.63518">
        <ele>1778.2</ele>
        <time>2010-01-01T00:00:00Z</time>
      </trkpt>
      <trkpt lat="45.1399" lon="5.63508">
        <ele>1776.9</ele>
        <time>2010-01-01T00:00:00Z</time>
      </trkpt>
      <trkpt lat="45.13988" lon="5.63502">
        <ele>1776.7</ele>
        <time>2010-01-01T00:00:00Z</time>
      </trkpt>
      <trkpt lat="45.13987" lon="5.63498">
        <ele>1770.9</ele>
        <time>2010-01-01T00:00:00Z</time>
      </trkpt>
      <trkpt lat="45.13985" lon="5.63495">
        <ele>1770.4</ele>
        <time>2010-01-01T00:00:00Z</time>
      </trkpt>
      <trkpt lat="45.13981" lon="5.63492">
        <ele>1769.8</ele>
        <time>2010-01-01T00:00:00Z</time>
      </trkpt>
      <trkpt lat="45.13971" lon="5.63485">
        <ele>1768.8</ele>
        <time>2010-01-01T00:00:00Z</time>
      </trkpt>
      <trkpt lat="45.13954" lon="5.63476">
        <ele>1768.4</ele>
        <time>2010-01-01T00:00:00Z</time>
      </trkpt>
      <trkpt lat="45.13944" lon="5.63471">
        <ele>1768.4</ele>
        <time>2010-01-01T00:00:00Z</time>
      </trkpt>
      <trkpt lat="45.13934" lon="5.63463">
        <ele>1767.7</ele>
        <time>2010-01-01T00:00:00Z</time>
      </trkpt>
      <trkpt lat="45.13927" lon="5.63459">
        <ele>1767.3</ele>
        <time>2010-01-01T00:00:00Z</time>
      </trkpt>
      <trkpt lat="45.1392" lon="5.63455">
        <ele>1766.7</ele>
        <time>2010-01-01T00:00:00Z</time>
      </trkpt>
      <trkpt lat="45.1391" lon="5.63448">
        <ele>1768.4</ele>
        <time>2010-01-01T00:00:00Z</time>
      </trkpt>
      <trkpt lat="45.13899" lon="5.63438">
        <ele>1767.3</ele>
        <time>2010-01-01T00:00:00Z</time>
      </trkpt>
      <trkpt lat="45.13891" lon="5.63429">
        <ele>1767</ele>
        <time>2010-01-01T00:00:00Z</time>
      </trkpt>
      <trkpt lat="45.13881" lon="5.63419">
        <ele>1767.4</ele>
        <time>2010-01-01T00:00:00Z</time>
      </trkpt>
      <trkpt lat="45.13873" lon="5.63409">
        <ele>1756.9</ele>
        <time>2010-01-01T00:00:00Z</time>
      </trkpt>
      <trkpt lat="45.13864" lon="5.63401">
        <ele>1757.2</ele>
        <time>2010-01-01T00:00:00Z</time>
      </trkpt>
      <trkpt lat="45.13856" lon="5.63393">
        <ele>1757</ele>
        <time>2010-01-01T00:00:00Z</time>
      </trkpt>
      <trkpt lat="45.13848" lon="5.63385">
        <ele>1756.3</ele>
        <time>2010-01-01T00:00:00Z</time>
      </trkpt>
      <trkpt lat="45.13839" lon="5.63378">
        <ele>1755.5</ele>
        <time>2010-01-01T00:00:00Z</time>
      </trkpt>
      <trkpt lat="45.1383" lon="5.63372">
        <ele>1762.2</ele>
        <time>2010-01-01T00:00:00Z</time>
      </trkpt>
      <trkpt lat="45.1382" lon="5.63366">
        <ele>1761.6</ele>
        <time>2010-01-01T00:00:00Z</time>
      </trkpt>
      <trkpt lat="45.13813" lon="5.6336">
        <ele>1761.2</ele>
        <time>2010-01-01T00:00:00Z</time>
      </trkpt>
      <trkpt lat="45.13805" lon="5.63353">
        <ele>1761.3</ele>
        <time>2010-01-01T00:00:00Z</time>
      </trkpt>
      <trkpt lat="45.13796" lon="5.63343">
        <ele>1761.6</ele>
        <time>2010-01-01T00:00:00Z</time>
      </trkpt>
      <trkpt lat="45.13789" lon="5.63334">
        <ele>1762.1</ele>
        <time>2010-01-01T00:00:00Z</time>
      </trkpt>
      <trkpt lat="45.13782" lon="5.63326">
        <ele>1748.4</ele>
        <time>2010-01-01T00:00:00Z</time>
      </trkpt>
      <trkpt lat="45.13774" lon="5.63318">
        <ele>1748.9</ele>
        <time>2010-01-01T00:00:00Z</time>
      </trkpt>
      <trkpt lat="45.13764" lon="5.63308">
        <ele>1748.3</ele>
        <time>2010-01-01T00:00:00Z</time>
      </trkpt>
      <trkpt lat="45.13754" lon="5.63297">
        <ele>1746.1</ele>
        <time>2010-01-01T00:00:00Z</time>
      </trkpt>
      <trkpt lat="45.13742" lon="5.63286">
        <ele>1755.2</ele>
        <time>2010-01-01T00:00:00Z</time>
      </trkpt>
      <trkpt lat="45.13738" lon="5.63282">
        <ele>1754.5</ele>
        <time>2010-01-01T00:00:00Z</time>
      </trkpt>
      <trkpt lat="45.13735" lon="5.63277">
        <ele>1753.5</ele>
        <time>2010-01-01T00:00:00Z</time>
      </trkpt>
      <trkpt lat="45.13731" lon="5.63272">
        <ele>1752.9</ele>
        <time>2010-01-01T00:00:00Z</time>
      </trkpt>
      <trkpt lat="45.13726" lon="5.63263">
        <ele>1752.1</ele>
        <time>2010-01-01T00:00:00Z</time>
      </trkpt>
      <trkpt lat="45.13722" lon="5.63256">
        <ele>1752.4</ele>
        <time>2010-01-01T00:00:00Z</time>
      </trkpt>
      <trkpt lat="45.13717" lon="5.63249">
        <ele>1737.5</ele>
        <time>2010-01-01T00:00:00Z</time>
      </trkpt>
      <trkpt lat="45.13712" lon="5.63242">
        <ele>1738</ele>
        <time>2010-01-01T00:00:00Z</time>
      </trkpt>
      <trkpt lat="45.13705" lon="5.63235">
        <ele>1738.7</ele>
        <time>2010-01-01T00:00:00Z</time>
      </trkpt>
      <trkpt lat="45.13699" lon="5.63224">
        <ele>1738.2</ele>
        <time>2010-01-01T00:00:00Z</time>
      </trkpt>
      <trkpt lat="45.13694" lon="5.63215">
        <ele>1737.3</ele>
        <time>2010-01-01T00:00:00Z</time>
      </trkpt>
      <trkpt lat="45.13688" lon="5.63206">
        <ele>1736.1</ele>
        <time>2010-01-01T00:00:00Z</time>
      </trkpt>
      <trkpt lat="45.13683" lon="5.63196">
        <ele>1734.6</ele>
        <time>2010-01-01T00:00:00Z</time>
      </trkpt>
      <trkpt lat="45.13679" lon="5.63187">
        <ele>1733.2</ele>
        <time>2010-01-01T00:00:00Z</time>
      </trkpt>
      <trkpt lat="45.13675" lon="5.63179">
        <ele>1732.1</ele>
        <time>2010-01-01T00:00:00Z</time>
      </trkpt>
      <trkpt lat="45.13671" lon="5.63172">
        <ele>1731.1</ele>
        <time>2010-01-01T00:00:00Z</time>
      </trkpt>
      <trkpt lat="45.13664" lon="5.63163">
        <ele>1729</ele>
        <time>2010-01-01T00:00:00Z</time>
      </trkpt>
      <trkpt lat="45.13656" lon="5.63154">
        <ele>1727.1</ele>
        <time>2010-01-01T00:00:00Z</time>
      </trkpt>
      <trkpt lat="45.13649" lon="5.63146">
        <ele>1725.9</ele>
        <time>2010-01-01T00:00:00Z</time>
      </trkpt>
      <trkpt lat="45.13641" lon="5.63138">
        <ele>1725</ele>
        <time>2010-01-01T00:00:00Z</time>
      </trkpt>
      <trkpt lat="45.13633" lon="5.63131">
        <ele>1724.5</ele>
        <time>2010-01-01T00:00:00Z</time>
      </trkpt>
      <trkpt lat="45.13623" lon="5.63124">
        <ele>1724.3</ele>
        <time>2010-01-01T00:00:00Z</time>
      </trkpt>
      <trkpt lat="45.13614" lon="5.63117">
        <ele>1723.9</ele>
        <time>2010-01-01T00:00:00Z</time>
      </trkpt>
      <trkpt lat="45.13605" lon="5.63112">
        <ele>1723.7</ele>
        <time>2010-01-01T00:00:00Z</time>
      </trkpt>
      <trkpt lat="45.13597" lon="5.63107">
        <ele>1723.2</ele>
        <time>2010-01-01T00:00:00Z</time>
      </trkpt>
      <trkpt lat="45.13589" lon="5.63101">
        <ele>1722.2</ele>
        <time>2010-01-01T00:00:00Z</time>
      </trkpt>
      <trkpt lat="45.13578" lon="5.63092">
        <ele>1724.1</ele>
        <time>2010-01-01T00:00:00Z</time>
      </trkpt>
      <trkpt lat="45.13567" lon="5.63083">
        <ele>1717.1</ele>
        <time>2010-01-01T00:00:00Z</time>
      </trkpt>
      <trkpt lat="45.13552" lon="5.63071">
        <ele>1716.4</ele>
        <time>2010-01-01T00:00:00Z</time>
      </trkpt>
      <trkpt lat="45.13542" lon="5.63061">
        <ele>1716.2</ele>
        <time>2010-01-01T00:00:00Z</time>
      </trkpt>
      <trkpt lat="45.13542" lon="5.63061">
        <ele>1716.2</ele>
        <time>2010-01-01T00:00:00Z</time>
      </trkpt>
      <trkpt lat="45.13542" lon="5.63061">
        <ele>1716.2</ele>
        <time>2010-01-01T00:00:00Z</time>
      </trkpt>
      <trkpt lat="45.13539" lon="5.63059">
        <ele>1716.3</ele>
        <time>2010-01-01T00:00:00Z</time>
      </trkpt>
      <trkpt lat="45.1353" lon="5.6305">
        <ele>1716.2</ele>
        <time>2010-01-01T00:00:00Z</time>
      </trkpt>
      <trkpt lat="45.13524" lon="5.63044">
        <ele>1716</ele>
        <time>2010-01-01T00:00:00Z</time>
      </trkpt>
      <trkpt lat="45.13519" lon="5.63037">
        <ele>1715.7</ele>
        <time>2010-01-01T00:00:00Z</time>
      </trkpt>
      <trkpt lat="45.13514" lon="5.6303">
        <ele>1715.5</ele>
        <time>2010-01-01T00:00:00Z</time>
      </trkpt>
      <trkpt lat="45.13511" lon="5.63022">
        <ele>1715.3</ele>
        <time>2010-01-01T00:00:00Z</time>
      </trkpt>
      <trkpt lat="45.13508" lon="5.6301">
        <ele>1715.2</ele>
        <time>2010-01-01T00:00:00Z</time>
      </trkpt>
      <trkpt lat="45.13507" lon="5.62993">
        <ele>1711.9</ele>
        <time>2010-01-01T00:00:00Z</time>
      </trkpt>
      <trkpt lat="45.13506" lon="5.62979">
        <ele>1709.1</ele>
        <time>2010-01-01T00:00:00Z</time>
      </trkpt>
      <trkpt lat="45.13504" lon="5.62966">
        <ele>1707.9</ele>
        <time>2010-01-01T00:00:00Z</time>
      </trkpt>
      <trkpt lat="45.13504" lon="5.62962">
        <ele>1707.7</ele>
        <time>2010-01-01T00:00:00Z</time>
      </trkpt>
      <trkpt lat="45.13503" lon="5.62953">
        <ele>1707.7</ele>
        <time>2010-01-01T00:00:00Z</time>
      </trkpt>
      <trkpt lat="45.13503" lon="5.62945">
        <ele>1708.1</ele>
        <time>2010-01-01T00:00:00Z</time>
      </trkpt>
      <trkpt lat="45.13504" lon="5.62938">
        <ele>1708.8</ele>
        <time>2010-01-01T00:00:00Z</time>
      </trkpt>
      <trkpt lat="45.135" lon="5.62929">
        <ele>1719</ele>
        <time>2010-01-01T00:00:00Z</time>
      </trkpt>
      <trkpt lat="45.13496" lon="5.62912">
        <ele>1716.1</ele>
        <time>2010-01-01T00:00:00Z</time>
      </trkpt>
      <trkpt lat="45.13492" lon="5.62892">
        <ele>1715.6</ele>
        <time>2010-01-01T00:00:00Z</time>
      </trkpt>
      <trkpt lat="45.1349" lon="5.62876">
        <ele>1714.5</ele>
        <time>2010-01-01T00:00:00Z</time>
      </trkpt>
      <trkpt lat="45.13487" lon="5.62859">
        <ele>1712.6</ele>
        <time>2010-01-01T00:00:00Z</time>
      </trkpt>
      <trkpt lat="45.13486" lon="5.6285">
        <ele>1711.3</ele>
        <time>2010-01-01T00:00:00Z</time>
      </trkpt>
      <trkpt lat="45.13485" lon="5.62844">
        <ele>1710.6</ele>
        <time>2010-01-01T00:00:00Z</time>
      </trkpt>
      <trkpt lat="45.13484" lon="5.62837">
        <ele>1710</ele>
        <time>2010-01-01T00:00:00Z</time>
      </trkpt>
      <trkpt lat="45.13485" lon="5.6283">
        <ele>1706.9</ele>
        <time>2010-01-01T00:00:00Z</time>
      </trkpt>
      <trkpt lat="45.13485" lon="5.62821">
        <ele>1707.3</ele>
        <time>2010-01-01T00:00:00Z</time>
      </trkpt>
      <trkpt lat="45.13485" lon="5.62809">
        <ele>1707.8</ele>
        <time>2010-01-01T00:00:00Z</time>
      </trkpt>
      <trkpt lat="45.13485" lon="5.62797">
        <ele>1707.9</ele>
        <time>2010-01-01T00:00:00Z</time>
      </trkpt>
      <trkpt lat="45.13485" lon="5.62797">
        <ele>1707.9</ele>
        <time>2010-01-01T00:00:00Z</time>
      </trkpt>
      <trkpt lat="45.13485" lon="5.62797">
        <ele>1707.9</ele>
        <time>2010-01-01T00:00:00Z</time>
      </trkpt>
      <trkpt lat="45.13484" lon="5.62784">
        <ele>1707.7</ele>
        <time>2010-01-01T00:00:00Z</time>
      </trkpt>
      <trkpt lat="45.13483" lon="5.62771">
        <ele>1706.9</ele>
        <time>2010-01-01T00:00:00Z</time>
      </trkpt>
      <trkpt lat="45.13481" lon="5.6276">
        <ele>1706.4</ele>
        <time>2010-01-01T00:00:00Z</time>
      </trkpt>
      <trkpt lat="45.13478" lon="5.6275">
        <ele>1706.5</ele>
        <time>2010-01-01T00:00:00Z</time>
      </trkpt>
      <trkpt lat="45.13474" lon="5.62736">
        <ele>1704.9</ele>
        <time>2010-01-01T00:00:00Z</time>
      </trkpt>
      <trkpt lat="45.1347" lon="5.62721">
        <ele>1705.2</ele>
        <time>2010-01-01T00:00:00Z</time>
      </trkpt>
      <trkpt lat="45.13466" lon="5.62712">
        <ele>1705.3</ele>
        <time>2010-01-01T00:00:00Z</time>
      </trkpt>
      <trkpt lat="45.13463" lon="5.62706">
        <ele>1705.3</ele>
        <time>2010-01-01T00:00:00Z</time>
      </trkpt>
      <trkpt lat="45.13461" lon="5.62703">
        <ele>1705.3</ele>
        <time>2010-01-01T00:00:00Z</time>
      </trkpt>
      <trkpt lat="45.13458" lon="5.627">
        <ele>1705.5</ele>
        <time>2010-01-01T00:00:00Z</time>
      </trkpt>
      <trkpt lat="45.13449" lon="5.62691">
        <ele>1705.8</ele>
        <time>2010-01-01T00:00:00Z</time>
      </trkpt>
      <trkpt lat="45.13439" lon="5.62677">
        <ele>1706</ele>
        <time>2010-01-01T00:00:00Z</time>
      </trkpt>
      <trkpt lat="45.13428" lon="5.62667">
        <ele>1706.5</ele>
        <time>2010-01-01T00:00:00Z</time>
      </trkpt>
      <trkpt lat="45.13417" lon="5.62659">
        <ele>1704.4</ele>
        <time>2010-01-01T00:00:00Z</time>
      </trkpt>
      <trkpt lat="45.13404" lon="5.6265">
        <ele>1704</ele>
        <time>2010-01-01T00:00:00Z</time>
      </trkpt>
      <trkpt lat="45.13394" lon="5.62643">
        <ele>1703.2</ele>
        <time>2010-01-01T00:00:00Z</time>
      </trkpt>
      <trkpt lat="45.13386" lon="5.62637">
        <ele>1702.7</ele>
        <time>2010-01-01T00:00:00Z</time>
      </trkpt>
      <trkpt lat="45.13376" lon="5.62633">
        <ele>1702.4</ele>
        <time>2010-01-01T00:00:00Z</time>
      </trkpt>
      <trkpt lat="45.13362" lon="5.62628">
        <ele>1702.2</ele>
        <time>2010-01-01T00:00:00Z</time>
      </trkpt>
      <trkpt lat="45.13343" lon="5.62623">
        <ele>1702</ele>
        <time>2010-01-01T00:00:00Z</time>
      </trkpt>
      <trkpt lat="45.13327" lon="5.62621">
        <ele>1700.8</ele>
        <time>2010-01-01T00:00:00Z</time>
      </trkpt>
      <trkpt lat="45.13303" lon="5.62618">
        <ele>1700.3</ele>
        <time>2010-01-01T00:00:00Z</time>
      </trkpt>
      <trkpt lat="45.13286" lon="5.62617">
        <ele>1699.8</ele>
        <time>2010-01-01T00:00:00Z</time>
      </trkpt>
      <trkpt lat="45.13265" lon="5.62617">
        <ele>1699.3</ele>
        <time>2010-01-01T00:00:00Z</time>
      </trkpt>
      <trkpt lat="45.13249" lon="5.62619">
        <ele>1696.1</ele>
        <time>2010-01-01T00:00:00Z</time>
      </trkpt>
      <trkpt lat="45.13238" lon="5.6262">
        <ele>1696</ele>
        <time>2010-01-01T00:00:00Z</time>
      </trkpt>
      <trkpt lat="45.1323" lon="5.62622">
        <ele>1695.8</ele>
        <time>2010-01-01T00:00:00Z</time>
      </trkpt>
      <trkpt lat="45.13224" lon="5.62624">
        <ele>1695.7</ele>
        <time>2010-01-01T00:00:00Z</time>
      </trkpt>
      <trkpt lat="45.13219" lon="5.62625">
        <ele>1695.6</ele>
        <time>2010-01-01T00:00:00Z</time>
      </trkpt>
      <trkpt lat="45.13211" lon="5.6263">
        <ele>1695.4</ele>
        <time>2010-01-01T00:00:00Z</time>
      </trkpt>
      <trkpt lat="45.132" lon="5.62638">
        <ele>1695.1</ele>
        <time>2010-01-01T00:00:00Z</time>
      </trkpt>
      <trkpt lat="45.13185" lon="5.62649">
        <ele>1694.5</ele>
        <time>2010-01-01T00:00:00Z</time>
      </trkpt>
      <trkpt lat="45.13177" lon="5.62655">
        <ele>1694.1</ele>
        <time>2010-01-01T00:00:00Z</time>
      </trkpt>
      <trkpt lat="45.13172" lon="5.62659">
        <ele>1693.7</ele>
        <time>2010-01-01T00:00:00Z</time>
      </trkpt>
      <trkpt lat="45.13167" lon="5.62661">
        <ele>1693.5</ele>
        <time>2010-01-01T00:00:00Z</time>
      </trkpt>
      <trkpt lat="45.13167" lon="5.62661">
        <ele>1693.5</ele>
        <time>2010-01-01T00:00:00Z</time>
      </trkpt>
      <trkpt lat="45.13167" lon="5.62661">
        <ele>1693.5</ele>
        <time>2010-01-01T00:00:00Z</time>
      </trkpt>
      <trkpt lat="45.13161" lon="5.62661">
        <ele>1691.2</ele>
        <time>2010-01-01T00:00:00Z</time>
      </trkpt>
      <trkpt lat="45.13155" lon="5.6266">
        <ele>1690.3</ele>
        <time>2010-01-01T00:00:00Z</time>
      </trkpt>
      <trkpt lat="45.13147" lon="5.62658">
        <ele>1689.1</ele>
        <time>2010-01-01T00:00:00Z</time>
      </trkpt>
      <trkpt lat="45.13139" lon="5.62655">
        <ele>1688.1</ele>
        <time>2010-01-01T00:00:00Z</time>
      </trkpt>
      <trkpt lat="45.13131" lon="5.62651">
        <ele>1687.2</ele>
        <time>2010-01-01T00:00:00Z</time>
      </trkpt>
      <trkpt lat="45.13127" lon="5.62647">
        <ele>1686.8</ele>
        <time>2010-01-01T00:00:00Z</time>
      </trkpt>
      <trkpt lat="45.1312" lon="5.62644">
        <ele>1686.2</ele>
        <time>2010-01-01T00:00:00Z</time>
      </trkpt>
      <trkpt lat="45.13114" lon="5.62641">
        <ele>1685.7</ele>
        <time>2010-01-01T00:00:00Z</time>
      </trkpt>
      <trkpt lat="45.13108" lon="5.62637">
        <ele>1685.3</ele>
        <time>2010-01-01T00:00:00Z</time>
      </trkpt>
      <trkpt lat="45.131" lon="5.62632">
        <ele>1684.9</ele>
        <time>2010-01-01T00:00:00Z</time>
      </trkpt>
      <trkpt lat="45.13088" lon="5.6262">
        <ele>1684.3</ele>
        <time>2010-01-01T00:00:00Z</time>
      </trkpt>
      <trkpt lat="45.1307" lon="5.62607">
        <ele>1678.1</ele>
        <time>2010-01-01T00:00:00Z</time>
      </trkpt>
      <trkpt lat="45.13052" lon="5.62594">
        <ele>1677.2</ele>
        <time>2010-01-01T00:00:00Z</time>
      </trkpt>
      <trkpt lat="45.1303" lon="5.6258">
        <ele>1674.1</ele>
        <time>2010-01-01T00:00:00Z</time>
      </trkpt>
      <trkpt lat="45.13008" lon="5.62564">
        <ele>1672.9</ele>
        <time>2010-01-01T00:00:00Z</time>
      </trkpt>
      <trkpt lat="45.12988" lon="5.62552">
        <ele>1667.9</ele>
        <time>2010-01-01T00:00:00Z</time>
      </trkpt>
      <trkpt lat="45.12974" lon="5.62543">
        <ele>1667.2</ele>
        <time>2010-01-01T00:00:00Z</time>
      </trkpt>
      <trkpt lat="45.12967" lon="5.62539">
        <ele>1666.8</ele>
        <time>2010-01-01T00:00:00Z</time>
      </trkpt>
      <trkpt lat="45.12962" lon="5.62533">
        <ele>1666.5</ele>
        <time>2010-01-01T00:00:00Z</time>
      </trkpt>
      <trkpt lat="45.12956" lon="5.62526">
        <ele>1666.1</ele>
        <time>2010-01-01T00:00:00Z</time>
      </trkpt>
      <trkpt lat="45.12948" lon="5.62514">
        <ele>1665.4</ele>
        <time>2010-01-01T00:00:00Z</time>
      </trkpt>
      <trkpt lat="45.12943" lon="5.62505">
        <ele>1664.8</ele>
        <time>2010-01-01T00:00:00Z</time>
      </trkpt>
      <trkpt lat="45.12937" lon="5.62496">
        <ele>1661.7</ele>
        <time>2010-01-01T00:00:00Z</time>
      </trkpt>
      <trkpt lat="45.12931" lon="5.6248">
        <ele>1661.4</ele>
        <time>2010-01-01T00:00:00Z</time>
      </trkpt>
      <trkpt lat="45.12925" lon="5.62469">
        <ele>1660.9</ele>
        <time>2010-01-01T00:00:00Z</time>
      </trkpt>
      <trkpt lat="45.12919" lon="5.62458">
        <ele>1660.3</ele>
        <time>2010-01-01T00:00:00Z</time>
      </trkpt>
      <trkpt lat="45.12913" lon="5.62443">
        <ele>1653.5</ele>
        <time>2010-01-01T00:00:00Z</time>
      </trkpt>
      <trkpt lat="45.12906" lon="5.62427">
        <ele>1653.5</ele>
        <time>2010-01-01T00:00:00Z</time>
      </trkpt>
      <trkpt lat="45.129" lon="5.62412">
        <ele>1651.7</ele>
        <time>2010-01-01T00:00:00Z</time>
      </trkpt>
      <trkpt lat="45.12894" lon="5.62396">
        <ele>1650.4</ele>
        <time>2010-01-01T00:00:00Z</time>
      </trkpt>
      <trkpt lat="45.12888" lon="5.6238">
        <ele>1649.6</ele>
        <time>2010-01-01T00:00:00Z</time>
      </trkpt>
      <trkpt lat="45.12885" lon="5.62373">
        <ele>1649.3</ele>
        <time>2010-01-01T00:00:00Z</time>
      </trkpt>
      <trkpt lat="45.12882" lon="5.62369">
        <ele>1649.1</ele>
        <time>2010-01-01T00:00:00Z</time>
      </trkpt>
      <trkpt lat="45.1288" lon="5.62366">
        <ele>1649</ele>
        <time>2010-01-01T00:00:00Z</time>
      </trkpt>
      <trkpt lat="45.12877" lon="5.62363">
        <ele>1648.8</ele>
        <time>2010-01-01T00:00:00Z</time>
      </trkpt>
      <trkpt lat="45.12874" lon="5.62362">
        <ele>1648.6</ele>
        <time>2010-01-01T00:00:00Z</time>
      </trkpt>
      <trkpt lat="45.12871" lon="5.62362">
        <ele>1648.4</ele>
        <time>2010-01-01T00:00:00Z</time>
      </trkpt>
      <trkpt lat="45.12867" lon="5.62361">
        <ele>1648.2</ele>
        <time>2010-01-01T00:00:00Z</time>
      </trkpt>
      <trkpt lat="45.12864" lon="5.6236">
        <ele>1648</ele>
        <time>2010-01-01T00:00:00Z</time>
      </trkpt>
      <trkpt lat="45.12861" lon="5.62359">
        <ele>1647.8</ele>
        <time>2010-01-01T00:00:00Z</time>
      </trkpt>
      <trkpt lat="45.12857" lon="5.62359">
        <ele>1647.5</ele>
        <time>2010-01-01T00:00:00Z</time>
      </trkpt>
      <trkpt lat="45.12854" lon="5.62358">
        <ele>1647.4</ele>
        <time>2010-01-01T00:00:00Z</time>
      </trkpt>
      <trkpt lat="45.1285" lon="5.62358">
        <ele>1647.1</ele>
        <time>2010-01-01T00:00:00Z</time>
      </trkpt>
      <trkpt lat="45.12847" lon="5.62358">
        <ele>1647</ele>
        <time>2010-01-01T00:00:00Z</time>
      </trkpt>
      <trkpt lat="45.12843" lon="5.62357">
        <ele>1646.8</ele>
        <time>2010-01-01T00:00:00Z</time>
      </trkpt>
      <trkpt lat="45.12839" lon="5.62357">
        <ele>1646.6</ele>
        <time>2010-01-01T00:00:00Z</time>
      </trkpt>
      <trkpt lat="45.12836" lon="5.62356">
        <ele>1646.5</ele>
        <time>2010-01-01T00:00:00Z</time>
      </trkpt>
      <trkpt lat="45.12833" lon="5.62356">
        <ele>1639.9</ele>
        <time>2010-01-01T00:00:00Z</time>
      </trkpt>
      <trkpt lat="45.12829" lon="5.62355">
        <ele>1639.8</ele>
        <time>2010-01-01T00:00:00Z</time>
      </trkpt>
      <trkpt lat="45.12825" lon="5.62356">
        <ele>1639.5</ele>
        <time>2010-01-01T00:00:00Z</time>
      </trkpt>
      <trkpt lat="45.12822" lon="5.62356">
        <ele>1639.3</ele>
        <time>2010-01-01T00:00:00Z</time>
      </trkpt>
      <trkpt lat="45.12818" lon="5.62357">
        <ele>1638.9</ele>
        <time>2010-01-01T00:00:00Z</time>
      </trkpt>
      <trkpt lat="45.12815" lon="5.62356">
        <ele>1638.7</ele>
        <time>2010-01-01T00:00:00Z</time>
      </trkpt>
      <trkpt lat="45.12812" lon="5.62354">
        <ele>1638.4</ele>
        <time>2010-01-01T00:00:00Z</time>
      </trkpt>
      <trkpt lat="45.12806" lon="5.62351">
        <ele>1637.8</ele>
        <time>2010-01-01T00:00:00Z</time>
      </trkpt>
      <trkpt lat="45.12803" lon="5.62349">
        <ele>1637.5</ele>
        <time>2010-01-01T00:00:00Z</time>
      </trkpt>
      <trkpt lat="45.12797" lon="5.62345">
        <ele>1636.8</ele>
        <time>2010-01-01T00:00:00Z</time>
      </trkpt>
      <trkpt lat="45.12792" lon="5.62343">
        <ele>1636.1</ele>
        <time>2010-01-01T00:00:00Z</time>
      </trkpt>
      <trkpt lat="45.12789" lon="5.62342">
        <ele>1635.6</ele>
        <time>2010-01-01T00:00:00Z</time>
      </trkpt>
      <trkpt lat="45.12786" lon="5.62339">
        <ele>1635.1</ele>
        <time>2010-01-01T00:00:00Z</time>
      </trkpt>
      <trkpt lat="45.12784" lon="5.62337">
        <ele>1634.8</ele>
        <time>2010-01-01T00:00:00Z</time>
      </trkpt>
      <trkpt lat="45.12784" lon="5.62337">
        <ele>1634.8</ele>
        <time>2010-01-01T00:00:00Z</time>
      </trkpt>
      <trkpt lat="45.12783" lon="5.62336">
        <ele>1634.6</ele>
        <time>2010-01-01T00:00:00Z</time>
      </trkpt>
      <trkpt lat="45.12781" lon="5.62335">
        <ele>1634.3</ele>
        <time>2010-01-01T00:00:00Z</time>
      </trkpt>
      <trkpt lat="45.12779" lon="5.62334">
        <ele>1634</ele>
        <time>2010-01-01T00:00:00Z</time>
      </trkpt>
      <trkpt lat="45.12776" lon="5.62334">
        <ele>1633.5</ele>
        <time>2010-01-01T00:00:00Z</time>
      </trkpt>
      <trkpt lat="45.12774" lon="5.62334">
        <ele>1633.1</ele>
        <time>2010-01-01T00:00:00Z</time>
      </trkpt>
      <trkpt lat="45.12771" lon="5.62334">
        <ele>1632.6</ele>
        <time>2010-01-01T00:00:00Z</time>
      </trkpt>
      <trkpt lat="45.12769" lon="5.62335">
        <ele>1632.2</ele>
        <time>2010-01-01T00:00:00Z</time>
      </trkpt>
      <trkpt lat="45.12766" lon="5.62336">
        <ele>1631.6</ele>
        <time>2010-01-01T00:00:00Z</time>
      </trkpt>
      <trkpt lat="45.12764" lon="5.62337">
        <ele>1631.2</ele>
        <time>2010-01-01T00:00:00Z</time>
      </trkpt>
      <trkpt lat="45.12762" lon="5.62339">
        <ele>1630.9</ele>
        <time>2010-01-01T00:00:00Z</time>
      </trkpt>
      <trkpt lat="45.12759" lon="5.62341">
        <ele>1630.5</ele>
        <time>2010-01-01T00:00:00Z</time>
      </trkpt>
      <trkpt lat="45.12757" lon="5.62343">
        <ele>1630.5</ele>
        <time>2010-01-01T00:00:00Z</time>
      </trkpt>
      <trkpt lat="45.12755" lon="5.62346">
        <ele>1630.8</ele>
        <time>2010-01-01T00:00:00Z</time>
      </trkpt>
      <trkpt lat="45.12752" lon="5.62349">
        <ele>1631.1</ele>
        <time>2010-01-01T00:00:00Z</time>
      </trkpt>
      <trkpt lat="45.12749" lon="5.62353">
        <ele>1626.3</ele>
        <time>2010-01-01T00:00:00Z</time>
      </trkpt>
      <trkpt lat="45.12745" lon="5.62357">
        <ele>1626.2</ele>
        <time>2010-01-01T00:00:00Z</time>
      </trkpt>
      <trkpt lat="45.12743" lon="5.62361">
        <ele>1626.1</ele>
        <time>2010-01-01T00:00:00Z</time>
      </trkpt>
      <trkpt lat="45.12737" lon="5.62365">
        <ele>1626</ele>
        <time>2010-01-01T00:00:00Z</time>
      </trkpt>
      <trkpt lat="45.1273" lon="5.62368">
        <ele>1625.9</ele>
        <time>2010-01-01T00:00:00Z</time>
      </trkpt>
      <trkpt lat="45.12724" lon="5.62369">
        <ele>1625.7</ele>
        <time>2010-01-01T00:00:00Z</time>
      </trkpt>
      <trkpt lat="45.12719" lon="5.6237">
        <ele>1625.6</ele>
        <time>2010-01-01T00:00:00Z</time>
      </trkpt>
      <trkpt lat="45.12713" lon="5.62369">
        <ele>1625.3</ele>
        <time>2010-01-01T00:00:00Z</time>
      </trkpt>
      <trkpt lat="45.12707" lon="5.62366">
        <ele>1625</ele>
        <time>2010-01-01T00:00:00Z</time>
      </trkpt>
      <trkpt lat="45.12702" lon="5.62361">
        <ele>1624.7</ele>
        <time>2010-01-01T00:00:00Z</time>
      </trkpt>
      <trkpt lat="45.12698" lon="5.62356">
        <ele>1624.3</ele>
        <time>2010-01-01T00:00:00Z</time>
      </trkpt>
      <trkpt lat="45.12694" lon="5.62351">
        <ele>1624</ele>
        <time>2010-01-01T00:00:00Z</time>
      </trkpt>
      <trkpt lat="45.1269" lon="5.62344">
        <ele>1623.5</ele>
        <time>2010-01-01T00:00:00Z</time>
      </trkpt>
      <trkpt lat="45.12686" lon="5.62338">
        <ele>1622.9</ele>
        <time>2010-01-01T00:00:00Z</time>
      </trkpt>
      <trkpt lat="45.1268" lon="5.6233">
        <ele>1621.7</ele>
        <time>2010-01-01T00:00:00Z</time>
      </trkpt>
      <trkpt lat="45.12674" lon="5.62323">
        <ele>1621.5</ele>
        <time>2010-01-01T00:00:00Z</time>
      </trkpt>
      <trkpt lat="45.12669" lon="5.62316">
        <ele>1621.8</ele>
        <time>2010-01-01T00:00:00Z</time>
      </trkpt>
      <trkpt lat="45.12665" lon="5.62313">
        <ele>1617.9</ele>
        <time>2010-01-01T00:00:00Z</time>
      </trkpt>
      <trkpt lat="45.12661" lon="5.62312">
        <ele>1617.7</ele>
        <time>2010-01-01T00:00:00Z</time>
      </trkpt>
      <trkpt lat="45.12657" lon="5.62312">
        <ele>1617.6</ele>
        <time>2010-01-01T00:00:00Z</time>
      </trkpt>
      <trkpt lat="45.12654" lon="5.62314">
        <ele>1617.6</ele>
        <time>2010-01-01T00:00:00Z</time>
      </trkpt>
      <trkpt lat="45.12649" lon="5.62317">
        <ele>1617.5</ele>
        <time>2010-01-01T00:00:00Z</time>
      </trkpt>
      <trkpt lat="45.12645" lon="5.6232">
        <ele>1617.3</ele>
        <time>2010-01-01T00:00:00Z</time>
      </trkpt>
      <trkpt lat="45.12639" lon="5.62324">
        <ele>1617.1</ele>
        <time>2010-01-01T00:00:00Z</time>
      </trkpt>
      <trkpt lat="45.12632" lon="5.62327">
        <ele>1616.7</ele>
        <time>2010-01-01T00:00:00Z</time>
      </trkpt>
      <trkpt lat="45.12625" lon="5.62331">
        <ele>1616.4</ele>
        <time>2010-01-01T00:00:00Z</time>
      </trkpt>
      <trkpt lat="45.12616" lon="5.62334">
        <ele>1618</ele>
        <time>2010-01-01T00:00:00Z</time>
      </trkpt>
      <trkpt lat="45.12609" lon="5.62336">
        <ele>1617.6</ele>
        <time>2010-01-01T00:00:00Z</time>
      </trkpt>
      <trkpt lat="45.12605" lon="5.62337">
        <ele>1617.3</ele>
        <time>2010-01-01T00:00:00Z</time>
      </trkpt>
      <trkpt lat="45.12599" lon="5.62337">
        <ele>1616.9</ele>
        <time>2010-01-01T00:00:00Z</time>
      </trkpt>
      <trkpt lat="45.12593" lon="5.62336">
        <ele>1616.3</ele>
        <time>2010-01-01T00:00:00Z</time>
      </trkpt>
      <trkpt lat="45.12588" lon="5.62335">
        <ele>1615.7</ele>
        <time>2010-01-01T00:00:00Z</time>
      </trkpt>
      <trkpt lat="45.12583" lon="5.62335">
        <ele>1614.7</ele>
        <time>2010-01-01T00:00:00Z</time>
      </trkpt>
      <trkpt lat="45.12576" lon="5.62335">
        <ele>1613.8</ele>
        <time>2010-01-01T00:00:00Z</time>
      </trkpt>
      <trkpt lat="45.1257" lon="5.62336">
        <ele>1613.1</ele>
        <time>2010-01-01T00:00:00Z</time>
      </trkpt>
      <trkpt lat="45.12564" lon="5.62339">
        <ele>1612.4</ele>
        <time>2010-01-01T00:00:00Z</time>
      </trkpt>
      <trkpt lat="45.1256" lon="5.62342">
        <ele>1611.9</ele>
        <time>2010-01-01T00:00:00Z</time>
      </trkpt>
      <trkpt lat="45.12555" lon="5.62346">
        <ele>1611.4</ele>
        <time>2010-01-01T00:00:00Z</time>
      </trkpt>
      <trkpt lat="45.12549" lon="5.62348">
        <ele>1610.9</ele>
        <time>2010-01-01T00:00:00Z</time>
      </trkpt>
      <trkpt lat="45.12544" lon="5.62348">
        <ele>1610.5</ele>
        <time>2010-01-01T00:00:00Z</time>
      </trkpt>
      <trkpt lat="45.12538" lon="5.62346">
        <ele>1609.9</ele>
        <time>2010-01-01T00:00:00Z</time>
      </trkpt>
      <trkpt lat="45.12532" lon="5.62342">
        <ele>1609.1</ele>
        <time>2010-01-01T00:00:00Z</time>
      </trkpt>
      <trkpt lat="45.12527" lon="5.62339">
        <ele>1608.5</ele>
        <time>2010-01-01T00:00:00Z</time>
      </trkpt>
      <trkpt lat="45.12519" lon="5.62337">
        <ele>1607.3</ele>
        <time>2010-01-01T00:00:00Z</time>
      </trkpt>
      <trkpt lat="45.12509" lon="5.62335">
        <ele>1605.4</ele>
        <time>2010-01-01T00:00:00Z</time>
      </trkpt>
      <trkpt lat="45.12503" lon="5.62332">
        <ele>1603.3</ele>
        <time>2010-01-01T00:00:00Z</time>
      </trkpt>
      <trkpt lat="45.12496" lon="5.62329">
        <ele>1601.3</ele>
        <time>2010-01-01T00:00:00Z</time>
      </trkpt>
      <trkpt lat="45.1249" lon="5.62327">
        <ele>1599.9</ele>
        <time>2010-01-01T00:00:00Z</time>
      </trkpt>
      <trkpt lat="45.12485" lon="5.62325">
        <ele>1599</ele>
        <time>2010-01-01T00:00:00Z</time>
      </trkpt>
      <trkpt lat="45.12485" lon="5.62325">
        <ele>1599</ele>
        <time>2010-01-01T00:00:00Z</time>
      </trkpt>
      <trkpt lat="45.12484" lon="5.62325">
        <ele>1598.8</ele>
        <time>2010-01-01T00:00:00Z</time>
      </trkpt>
      <trkpt lat="45.12476" lon="5.62322">
        <ele>1597.7</ele>
        <time>2010-01-01T00:00:00Z</time>
      </trkpt>
      <trkpt lat="45.1247" lon="5.62319">
        <ele>1596.9</ele>
        <time>2010-01-01T00:00:00Z</time>
      </trkpt>
      <trkpt lat="45.12464" lon="5.62315">
        <ele>1596.3</ele>
        <time>2010-01-01T00:00:00Z</time>
      </trkpt>
      <trkpt lat="45.12459" lon="5.62312">
        <ele>1595.8</ele>
        <time>2010-01-01T00:00:00Z</time>
      </trkpt>
      <trkpt lat="45.1245" lon="5.62307">
        <ele>1595.1</ele>
        <time>2010-01-01T00:00:00Z</time>
      </trkpt>
      <trkpt lat="45.12442" lon="5.62302">
        <ele>1594.4</ele>
        <time>2010-01-01T00:00:00Z</time>
      </trkpt>
      <trkpt lat="45.12435" lon="5.62296">
        <ele>1593.6</ele>
        <time>2010-01-01T00:00:00Z</time>
      </trkpt>
      <trkpt lat="45.12425" lon="5.6229">
        <ele>1592.6</ele>
        <time>2010-01-01T00:00:00Z</time>
      </trkpt>
      <trkpt lat="45.12417" lon="5.62284">
        <ele>1591.5</ele>
        <time>2010-01-01T00:00:00Z</time>
      </trkpt>
      <trkpt lat="45.12409" lon="5.62279">
        <ele>1587.6</ele>
        <time>2010-01-01T00:00:00Z</time>
      </trkpt>
      <trkpt lat="45.12405" lon="5.62277">
        <ele>1587.4</ele>
        <time>2010-01-01T00:00:00Z</time>
      </trkpt>
      <trkpt lat="45.12401" lon="5.62276">
        <ele>1587.4</ele>
        <time>2010-01-01T00:00:00Z</time>
      </trkpt>
      <trkpt lat="45.12398" lon="5.62276">
        <ele>1587.5</ele>
        <time>2010-01-01T00:00:00Z</time>
      </trkpt>
      <trkpt lat="45.12394" lon="5.62276">
        <ele>1587.6</ele>
        <time>2010-01-01T00:00:00Z</time>
      </trkpt>
      <trkpt lat="45.1239" lon="5.62277">
        <ele>1587.8</ele>
        <time>2010-01-01T00:00:00Z</time>
      </trkpt>
      <trkpt lat="45.12386" lon="5.62281">
        <ele>1588.2</ele>
        <time>2010-01-01T00:00:00Z</time>
      </trkpt>
      <trkpt lat="45.12381" lon="5.62283">
        <ele>1588.4</ele>
        <time>2010-01-01T00:00:00Z</time>
      </trkpt>
      <trkpt lat="45.12374" lon="5.62287">
        <ele>1588.8</ele>
        <time>2010-01-01T00:00:00Z</time>
      </trkpt>
      <trkpt lat="45.1237" lon="5.62289">
        <ele>1589</ele>
        <time>2010-01-01T00:00:00Z</time>
      </trkpt>
      <trkpt lat="45.12364" lon="5.6229">
        <ele>1589</ele>
        <time>2010-01-01T00:00:00Z</time>
      </trkpt>
      <trkpt lat="45.12359" lon="5.62291">
        <ele>1589.1</ele>
        <time>2010-01-01T00:00:00Z</time>
      </trkpt>
      <trkpt lat="45.12353" lon="5.62293">
        <ele>1589.4</ele>
        <time>2010-01-01T00:00:00Z</time>
      </trkpt>
      <trkpt lat="45.12348" lon="5.62294">
        <ele>1589.5</ele>
        <time>2010-01-01T00:00:00Z</time>
      </trkpt>
      <trkpt lat="45.12344" lon="5.62296">
        <ele>1589.8</ele>
        <time>2010-01-01T00:00:00Z</time>
      </trkpt>
      <trkpt lat="45.12339" lon="5.62297">
        <ele>1590</ele>
        <time>2010-01-01T00:00:00Z</time>
      </trkpt>
      <trkpt lat="45.12333" lon="5.62299">
        <ele>1591.5</ele>
        <time>2010-01-01T00:00:00Z</time>
      </trkpt>
      <trkpt lat="45.12328" lon="5.62299">
        <ele>1591.6</ele>
        <time>2010-01-01T00:00:00Z</time>
      </trkpt>
      <trkpt lat="45.12323" lon="5.62298">
        <ele>1591.4</ele>
        <time>2010-01-01T00:00:00Z</time>
      </trkpt>
      <trkpt lat="45.12319" lon="5.62297">
        <ele>1591.3</ele>
        <time>2010-01-01T00:00:00Z</time>
      </trkpt>
      <trkpt lat="45.12315" lon="5.62297">
        <ele>1591.4</ele>
        <time>2010-01-01T00:00:00Z</time>
      </trkpt>
      <trkpt lat="45.12311" lon="5.62296">
        <ele>1591.3</ele>
        <time>2010-01-01T00:00:00Z</time>
      </trkpt>
      <trkpt lat="45.12311" lon="5.62296">
        <ele>1591.3</ele>
        <time>2010-01-01T00:00:00Z</time>
      </trkpt>
      <trkpt lat="45.12309" lon="5.62296">
        <ele>1591.3</ele>
        <time>2010-01-01T00:00:00Z</time>
      </trkpt>
      <trkpt lat="45.12304" lon="5.62296">
        <ele>1591.4</ele>
        <time>2010-01-01T00:00:00Z</time>
      </trkpt>
      <trkpt lat="45.12299" lon="5.62299">
        <ele>1591.8</ele>
        <time>2010-01-01T00:00:00Z</time>
      </trkpt>
      <trkpt lat="45.12292" lon="5.62304">
        <ele>1592.4</ele>
        <time>2010-01-01T00:00:00Z</time>
      </trkpt>
      <trkpt lat="45.12288" lon="5.62306">
        <ele>1592.6</ele>
        <time>2010-01-01T00:00:00Z</time>
      </trkpt>
      <trkpt lat="45.12284" lon="5.62308">
        <ele>1592.9</ele>
        <time>2010-01-01T00:00:00Z</time>
      </trkpt>
      <trkpt lat="45.1228" lon="5.6231">
        <ele>1593.3</ele>
        <time>2010-01-01T00:00:00Z</time>
      </trkpt>
      <trkpt lat="45.12277" lon="5.62312">
        <ele>1593.6</ele>
        <time>2010-01-01T00:00:00Z</time>
      </trkpt>
      <trkpt lat="45.12276" lon="5.62314">
        <ele>1593.8</ele>
        <time>2010-01-01T00:00:00Z</time>
      </trkpt>
      <trkpt lat="45.12274" lon="5.62316">
        <ele>1594.1</ele>
        <time>2010-01-01T00:00:00Z</time>
      </trkpt>
      <trkpt lat="45.12272" lon="5.62319">
        <ele>1594.6</ele>
        <time>2010-01-01T00:00:00Z</time>
      </trkpt>
      <trkpt lat="45.12271" lon="5.62321">
        <ele>1594.8</ele>
        <time>2010-01-01T00:00:00Z</time>
      </trkpt>
      <trkpt lat="45.12269" lon="5.62323">
        <ele>1595.2</ele>
        <time>2010-01-01T00:00:00Z</time>
      </trkpt>
      <trkpt lat="45.12268" lon="5.62326">
        <ele>1595.6</ele>
        <time>2010-01-01T00:00:00Z</time>
      </trkpt>
      <trkpt lat="45.12266" lon="5.62327">
        <ele>1595.9</ele>
        <time>2010-01-01T00:00:00Z</time>
      </trkpt>
      <trkpt lat="45.12265" lon="5.62329">
        <ele>1596.2</ele>
        <time>2010-01-01T00:00:00Z</time>
      </trkpt>
      <trkpt lat="45.12263" lon="5.62331">
        <ele>1596.6</ele>
        <time>2010-01-01T00:00:00Z</time>
      </trkpt>
      <trkpt lat="45.1226" lon="5.62333">
        <ele>1597.3</ele>
        <time>2010-01-01T00:00:00Z</time>
      </trkpt>
      <trkpt lat="45.12258" lon="5.62335">
        <ele>1600.6</ele>
        <time>2010-01-01T00:00:00Z</time>
      </trkpt>
      <trkpt lat="45.12255" lon="5.62336">
        <ele>1600.4</ele>
        <time>2010-01-01T00:00:00Z</time>
      </trkpt>
      <trkpt lat="45.12251" lon="5.62337">
        <ele>1600.3</ele>
        <time>2010-01-01T00:00:00Z</time>
      </trkpt>
      <trkpt lat="45.12247" lon="5.62339">
        <ele>1601.4</ele>
        <time>2010-01-01T00:00:00Z</time>
      </trkpt>
      <trkpt lat="45.12243" lon="5.6234">
        <ele>1602</ele>
        <time>2010-01-01T00:00:00Z</time>
      </trkpt>
      <trkpt lat="45.12239" lon="5.62341">
        <ele>1602.7</ele>
        <time>2010-01-01T00:00:00Z</time>
      </trkpt>
      <trkpt lat="45.12235" lon="5.62342">
        <ele>1603.2</ele>
        <time>2010-01-01T00:00:00Z</time>
      </trkpt>
      <trkpt lat="45.12231" lon="5.62343">
        <ele>1603.7</ele>
        <time>2010-01-01T00:00:00Z</time>
      </trkpt>
      <trkpt lat="45.12227" lon="5.62344">
        <ele>1604.1</ele>
        <time>2010-01-01T00:00:00Z</time>
      </trkpt>
      <trkpt lat="45.12223" lon="5.62344">
        <ele>1604.5</ele>
        <time>2010-01-01T00:00:00Z</time>
      </trkpt>
      <trkpt lat="45.12219" lon="5.62345">
        <ele>1604.9</ele>
        <time>2010-01-01T00:00:00Z</time>
      </trkpt>
      <trkpt lat="45.12215" lon="5.62345">
        <ele>1605.2</ele>
        <time>2010-01-01T00:00:00Z</time>
      </trkpt>
      <trkpt lat="45.12211" lon="5.62345">
        <ele>1605.5</ele>
        <time>2010-01-01T00:00:00Z</time>
      </trkpt>
      <trkpt lat="45.12207" lon="5.62346">
        <ele>1605.8</ele>
        <time>2010-01-01T00:00:00Z</time>
      </trkpt>
      <trkpt lat="45.12204" lon="5.62346">
        <ele>1606</ele>
        <time>2010-01-01T00:00:00Z</time>
      </trkpt>
      <trkpt lat="45.12201" lon="5.62346">
        <ele>1606.2</ele>
        <time>2010-01-01T00:00:00Z</time>
      </trkpt>
      <trkpt lat="45.12197" lon="5.62346">
        <ele>1606.5</ele>
        <time>2010-01-01T00:00:00Z</time>
      </trkpt>
      <trkpt lat="45.12195" lon="5.62347">
        <ele>1606.6</ele>
        <time>2010-01-01T00:00:00Z</time>
      </trkpt>
      <trkpt lat="45.12192" lon="5.62348">
        <ele>1606.8</ele>
        <time>2010-01-01T00:00:00Z</time>
      </trkpt>
      <trkpt lat="45.12189" lon="5.6235">
        <ele>1606.9</ele>
        <time>2010-01-01T00:00:00Z</time>
      </trkpt>
      <trkpt lat="45.12186" lon="5.62351">
        <ele>1607.1</ele>
        <time>2010-01-01T00:00:00Z</time>
      </trkpt>
      <trkpt lat="45.12184" lon="5.62353">
        <ele>1607.2</ele>
        <time>2010-01-01T00:00:00Z</time>
      </trkpt>
      <trkpt lat="45.12181" lon="5.62354">
        <ele>1607.3</ele>
        <time>2010-01-01T00:00:00Z</time>
      </trkpt>
      <trkpt lat="45.12179" lon="5.62355">
        <ele>1607.4</ele>
        <time>2010-01-01T00:00:00Z</time>
      </trkpt>
      <trkpt lat="45.12176" lon="5.62356">
        <ele>1607.4</ele>
        <time>2010-01-01T00:00:00Z</time>
      </trkpt>
      <trkpt lat="45.12174" lon="5.62357">
        <ele>1607.5</ele>
        <time>2010-01-01T00:00:00Z</time>
      </trkpt>
      <trkpt lat="45.12171" lon="5.62357">
        <ele>1607.6</ele>
        <time>2010-01-01T00:00:00Z</time>
      </trkpt>
      <trkpt lat="45.12168" lon="5.62358">
        <ele>1607.6</ele>
        <time>2010-01-01T00:00:00Z</time>
      </trkpt>
      <trkpt lat="45.12165" lon="5.62358">
        <ele>1614.1</ele>
        <time>2010-01-01T00:00:00Z</time>
      </trkpt>
      <trkpt lat="45.12162" lon="5.62357">
        <ele>1614.2</ele>
        <time>2010-01-01T00:00:00Z</time>
      </trkpt>
      <trkpt lat="45.12159" lon="5.62356">
        <ele>1614.2</ele>
        <time>2010-01-01T00:00:00Z</time>
      </trkpt>
      <trkpt lat="45.12159" lon="5.62356">
        <ele>1614.2</ele>
        <time>2010-01-01T00:00:00Z</time>
      </trkpt>
      <trkpt lat="45.12159" lon="5.62356">
        <ele>1614.2</ele>
        <time>2010-01-01T00:00:00Z</time>
      </trkpt>
      <trkpt lat="45.12156" lon="5.62355">
        <ele>1614.4</ele>
        <time>2010-01-01T00:00:00Z</time>
      </trkpt>
      <trkpt lat="45.12152" lon="5.62354">
        <ele>1614.7</ele>
        <time>2010-01-01T00:00:00Z</time>
      </trkpt>
      <trkpt lat="45.12149" lon="5.62353">
        <ele>1615</ele>
        <time>2010-01-01T00:00:00Z</time>
      </trkpt>
      <trkpt lat="45.12146" lon="5.62352">
        <ele>1615.3</ele>
        <time>2010-01-01T00:00:00Z</time>
      </trkpt>
      <trkpt lat="45.12143" lon="5.62351">
        <ele>1615.6</ele>
        <time>2010-01-01T00:00:00Z</time>
      </trkpt>
      <trkpt lat="45.12141" lon="5.6235">
        <ele>1615.8</ele>
        <time>2010-01-01T00:00:00Z</time>
      </trkpt>
      <trkpt lat="45.12138" lon="5.62349">
        <ele>1616.2</ele>
        <time>2010-01-01T00:00:00Z</time>
      </trkpt>
      <trkpt lat="45.12136" lon="5.62347">
        <ele>1616.4</ele>
        <time>2010-01-01T00:00:00Z</time>
      </trkpt>
      <trkpt lat="45.12133" lon="5.62346">
        <ele>1616.8</ele>
        <time>2010-01-01T00:00:00Z</time>
      </trkpt>
      <trkpt lat="45.12131" lon="5.62346">
        <ele>1617.1</ele>
        <time>2010-01-01T00:00:00Z</time>
      </trkpt>
      <trkpt lat="45.12128" lon="5.62344">
        <ele>1617.6</ele>
        <time>2010-01-01T00:00:00Z</time>
      </trkpt>
      <trkpt lat="45.12126" lon="5.62344">
        <ele>1617.9</ele>
        <time>2010-01-01T00:00:00Z</time>
      </trkpt>
      <trkpt lat="45.12123" lon="5.62344">
        <ele>1618.3</ele>
        <time>2010-01-01T00:00:00Z</time>
      </trkpt>
      <trkpt lat="45.1212" lon="5.62345">
        <ele>1618.7</ele>
        <time>2010-01-01T00:00:00Z</time>
      </trkpt>
      <trkpt lat="45.12117" lon="5.62345">
        <ele>1619.2</ele>
        <time>2010-01-01T00:00:00Z</time>
      </trkpt>
      <trkpt lat="45.12113" lon="5.62345">
        <ele>1619.8</ele>
        <time>2010-01-01T00:00:00Z</time>
      </trkpt>
      <trkpt lat="45.12111" lon="5.62345">
        <ele>1620.1</ele>
        <time>2010-01-01T00:00:00Z</time>
      </trkpt>
      <trkpt lat="45.12107" lon="5.62345">
        <ele>1620.7</ele>
        <time>2010-01-01T00:00:00Z</time>
      </trkpt>
      <trkpt lat="45.12105" lon="5.62345">
        <ele>1621</ele>
        <time>2010-01-01T00:00:00Z</time>
      </trkpt>
      <trkpt lat="45.12101" lon="5.62344">
        <ele>1621.7</ele>
        <time>2010-01-01T00:00:00Z</time>
      </trkpt>
      <trkpt lat="45.12099" lon="5.62343">
        <ele>1622.1</ele>
        <time>2010-01-01T00:00:00Z</time>
      </trkpt>
      <trkpt lat="45.12095" lon="5.62341">
        <ele>1623</ele>
        <time>2010-01-01T00:00:00Z</time>
      </trkpt>
      <trkpt lat="45.12091" lon="5.62339">
        <ele>1624.1</ele>
        <time>2010-01-01T00:00:00Z</time>
      </trkpt>
      <trkpt lat="45.12086" lon="5.62337">
        <ele>1625.5</ele>
        <time>2010-01-01T00:00:00Z</time>
      </trkpt>
      <trkpt lat="45.12082" lon="5.62336">
        <ele>1627.2</ele>
        <time>2010-01-01T00:00:00Z</time>
      </trkpt>
      <trkpt lat="45.12078" lon="5.62336">
        <ele>1627.4</ele>
        <time>2010-01-01T00:00:00Z</time>
      </trkpt>
      <trkpt lat="45.12074" lon="5.62335">
        <ele>1627.6</ele>
        <time>2010-01-01T00:00:00Z</time>
      </trkpt>
      <trkpt lat="45.1207" lon="5.62336">
        <ele>1627.8</ele>
        <time>2010-01-01T00:00:00Z</time>
      </trkpt>
      <trkpt lat="45.12066" lon="5.62336">
        <ele>1628</ele>
        <time>2010-01-01T00:00:00Z</time>
      </trkpt>
      <trkpt lat="45.12062" lon="5.62337">
        <ele>1628.2</ele>
        <time>2010-01-01T00:00:00Z</time>
      </trkpt>
      <trkpt lat="45.12057" lon="5.62339">
        <ele>1628.4</ele>
        <time>2010-01-01T00:00:00Z</time>
      </trkpt>
      <trkpt lat="45.12053" lon="5.6234">
        <ele>1628.6</ele>
        <time>2010-01-01T00:00:00Z</time>
      </trkpt>
      <trkpt lat="45.12049" lon="5.62341">
        <ele>1628.8</ele>
        <time>2010-01-01T00:00:00Z</time>
      </trkpt>
      <trkpt lat="45.12046" lon="5.62342">
        <ele>1629</ele>
        <time>2010-01-01T00:00:00Z</time>
      </trkpt>
      <trkpt lat="45.12043" lon="5.62342">
        <ele>1629.1</ele>
        <time>2010-01-01T00:00:00Z</time>
      </trkpt>
      <trkpt lat="45.1204" lon="5.62342">
        <ele>1629.3</ele>
        <time>2010-01-01T00:00:00Z</time>
      </trkpt>
      <trkpt lat="45.12037" lon="5.62341">
        <ele>1629.4</ele>
        <time>2010-01-01T00:00:00Z</time>
      </trkpt>
      <trkpt lat="45.12033" lon="5.6234">
        <ele>1629.7</ele>
        <time>2010-01-01T00:00:00Z</time>
      </trkpt>
      <trkpt lat="45.12029" lon="5.62339">
        <ele>1629.9</ele>
        <time>2010-01-01T00:00:00Z</time>
      </trkpt>
      <trkpt lat="45.12026" lon="5.62338">
        <ele>1630.1</ele>
        <time>2010-01-01T00:00:00Z</time>
      </trkpt>
      <trkpt lat="45.12023" lon="5.62338">
        <ele>1630.3</ele>
        <time>2010-01-01T00:00:00Z</time>
      </trkpt>
      <trkpt lat="45.1202" lon="5.62338">
        <ele>1630.6</ele>
        <time>2010-01-01T00:00:00Z</time>
      </trkpt>
      <trkpt lat="45.12017" lon="5.62338">
        <ele>1630.8</ele>
        <time>2010-01-01T00:00:00Z</time>
      </trkpt>
      <trkpt lat="45.12013" lon="5.62339">
        <ele>1631.1</ele>
        <time>2010-01-01T00:00:00Z</time>
      </trkpt>
      <trkpt lat="45.12007" lon="5.6234">
        <ele>1631.6</ele>
        <time>2010-01-01T00:00:00Z</time>
      </trkpt>
      <trkpt lat="45.12002" lon="5.62341">
        <ele>1631.8</ele>
        <time>2010-01-01T00:00:00Z</time>
      </trkpt>
      <trkpt lat="45.11997" lon="5.62343">
        <ele>1633.4</ele>
        <time>2010-01-01T00:00:00Z</time>
      </trkpt>
      <trkpt lat="45.11993" lon="5.62344">
        <ele>1633.5</ele>
        <time>2010-01-01T00:00:00Z</time>
      </trkpt>
      <trkpt lat="45.11987" lon="5.62345">
        <ele>1633.6</ele>
        <time>2010-01-01T00:00:00Z</time>
      </trkpt>
      <trkpt lat="45.11982" lon="5.62346">
        <ele>1633.8</ele>
        <time>2010-01-01T00:00:00Z</time>
      </trkpt>
      <trkpt lat="45.11975" lon="5.62347">
        <ele>1634</ele>
        <time>2010-01-01T00:00:00Z</time>
      </trkpt>
      <trkpt lat="45.1197" lon="5.62347">
        <ele>1634.2</ele>
        <time>2010-01-01T00:00:00Z</time>
      </trkpt>
      <trkpt lat="45.11964" lon="5.62348">
        <ele>1634.4</ele>
        <time>2010-01-01T00:00:00Z</time>
      </trkpt>
      <trkpt lat="45.11958" lon="5.62348">
        <ele>1634.6</ele>
        <time>2010-01-01T00:00:00Z</time>
      </trkpt>
      <trkpt lat="45.11953" lon="5.62348">
        <ele>1634.8</ele>
        <time>2010-01-01T00:00:00Z</time>
      </trkpt>
      <trkpt lat="45.11948" lon="5.62349">
        <ele>1635.1</ele>
        <time>2010-01-01T00:00:00Z</time>
      </trkpt>
      <trkpt lat="45.11943" lon="5.62349">
        <ele>1635.3</ele>
        <time>2010-01-01T00:00:00Z</time>
      </trkpt>
      <trkpt lat="45.11938" lon="5.6235">
        <ele>1635.5</ele>
        <time>2010-01-01T00:00:00Z</time>
      </trkpt>
      <trkpt lat="45.11933" lon="5.6235">
        <ele>1635.7</ele>
        <time>2010-01-01T00:00:00Z</time>
      </trkpt>
      <trkpt lat="45.11929" lon="5.6235">
        <ele>1635.9</ele>
        <time>2010-01-01T00:00:00Z</time>
      </trkpt>
      <trkpt lat="45.11926" lon="5.62351">
        <ele>1636</ele>
        <time>2010-01-01T00:00:00Z</time>
      </trkpt>
      <trkpt lat="45.11922" lon="5.62351">
        <ele>1636.1</ele>
        <time>2010-01-01T00:00:00Z</time>
      </trkpt>
      <trkpt lat="45.11918" lon="5.62351">
        <ele>1636.2</ele>
        <time>2010-01-01T00:00:00Z</time>
      </trkpt>
      <trkpt lat="45.11914" lon="5.62351">
        <ele>1639.2</ele>
        <time>2010-01-01T00:00:00Z</time>
      </trkpt>
      <trkpt lat="45.1191" lon="5.62352">
        <ele>1639.4</ele>
        <time>2010-01-01T00:00:00Z</time>
      </trkpt>
      <trkpt lat="45.11906" lon="5.62353">
        <ele>1639.5</ele>
        <time>2010-01-01T00:00:00Z</time>
      </trkpt>
      <trkpt lat="45.11898" lon="5.62355">
        <ele>1639.8</ele>
        <time>2010-01-01T00:00:00Z</time>
      </trkpt>
      <trkpt lat="45.11891" lon="5.62355">
        <ele>1640.1</ele>
        <time>2010-01-01T00:00:00Z</time>
      </trkpt>
      <trkpt lat="45.11884" lon="5.62355">
        <ele>1640.4</ele>
        <time>2010-01-01T00:00:00Z</time>
      </trkpt>
      <trkpt lat="45.11879" lon="5.62355">
        <ele>1640.6</ele>
        <time>2010-01-01T00:00:00Z</time>
      </trkpt>
      <trkpt lat="45.11874" lon="5.62355">
        <ele>1640.8</ele>
        <time>2010-01-01T00:00:00Z</time>
      </trkpt>
      <trkpt lat="45.1187" lon="5.62355">
        <ele>1641</ele>
        <time>2010-01-01T00:00:00Z</time>
      </trkpt>
      <trkpt lat="45.11867" lon="5.62354">
        <ele>1641.1</ele>
        <time>2010-01-01T00:00:00Z</time>
      </trkpt>
      <trkpt lat="45.11864" lon="5.62354">
        <ele>1641.2</ele>
        <time>2010-01-01T00:00:00Z</time>
      </trkpt>
      <trkpt lat="45.1186" lon="5.62353">
        <ele>1641.3</ele>
        <time>2010-01-01T00:00:00Z</time>
      </trkpt>
      <trkpt lat="45.11857" lon="5.62353">
        <ele>1641.4</ele>
        <time>2010-01-01T00:00:00Z</time>
      </trkpt>
      <trkpt lat="45.11854" lon="5.62353">
        <ele>1641.5</ele>
        <time>2010-01-01T00:00:00Z</time>
      </trkpt>
      <trkpt lat="45.1185" lon="5.62353">
        <ele>1641.6</ele>
        <time>2010-01-01T00:00:00Z</time>
      </trkpt>
      <trkpt lat="45.11845" lon="5.62353">
        <ele>1641.7</ele>
        <time>2010-01-01T00:00:00Z</time>
      </trkpt>
      <trkpt lat="45.11842" lon="5.62353">
        <ele>1641.8</ele>
        <time>2010-01-01T00:00:00Z</time>
      </trkpt>
      <trkpt lat="45.11839" lon="5.62352">
        <ele>1641.8</ele>
        <time>2010-01-01T00:00:00Z</time>
      </trkpt>
      <trkpt lat="45.11836" lon="5.62352">
        <ele>1641.8</ele>
        <time>2010-01-01T00:00:00Z</time>
      </trkpt>
      <trkpt lat="45.11832" lon="5.62352">
        <ele>1642.9</ele>
        <time>2010-01-01T00:00:00Z</time>
      </trkpt>
      <trkpt lat="45.11828" lon="5.62351">
        <ele>1642.9</ele>
        <time>2010-01-01T00:00:00Z</time>
      </trkpt>
      <trkpt lat="45.11823" lon="5.62351">
        <ele>1642.9</ele>
        <time>2010-01-01T00:00:00Z</time>
      </trkpt>
      <trkpt lat="45.11817" lon="5.6235">
        <ele>1642.9</ele>
        <time>2010-01-01T00:00:00Z</time>
      </trkpt>
      <trkpt lat="45.1181" lon="5.6235">
        <ele>1642.9</ele>
        <time>2010-01-01T00:00:00Z</time>
      </trkpt>
      <trkpt lat="45.11803" lon="5.62349">
        <ele>1642.8</ele>
        <time>2010-01-01T00:00:00Z</time>
      </trkpt>
      <trkpt lat="45.11798" lon="5.62348">
        <ele>1642.8</ele>
        <time>2010-01-01T00:00:00Z</time>
      </trkpt>
      <trkpt lat="45.11793" lon="5.62347">
        <ele>1642.6</ele>
        <time>2010-01-01T00:00:00Z</time>
      </trkpt>
      <trkpt lat="45.11787" lon="5.62346">
        <ele>1642.5</ele>
        <time>2010-01-01T00:00:00Z</time>
      </trkpt>
      <trkpt lat="45.11781" lon="5.62345">
        <ele>1642.2</ele>
        <time>2010-01-01T00:00:00Z</time>
      </trkpt>
      <trkpt lat="45.11777" lon="5.62344">
        <ele>1642</ele>
        <time>2010-01-01T00:00:00Z</time>
      </trkpt>
      <trkpt lat="45.11772" lon="5.62344">
        <ele>1641.8</ele>
        <time>2010-01-01T00:00:00Z</time>
      </trkpt>
      <trkpt lat="45.11772" lon="5.62344">
        <ele>1641.8</ele>
        <time>2010-01-01T00:00:00Z</time>
      </trkpt>
      <trkpt lat="45.11772" lon="5.62344">
        <ele>1641.8</ele>
        <time>2010-01-01T00:00:00Z</time>
      </trkpt>
      <trkpt lat="45.11766" lon="5.62344">
        <ele>1641.4</ele>
        <time>2010-01-01T00:00:00Z</time>
      </trkpt>
      <trkpt lat="45.11761" lon="5.62344">
        <ele>1641.1</ele>
        <time>2010-01-01T00:00:00Z</time>
      </trkpt>
      <trkpt lat="45.11757" lon="5.62345">
        <ele>1640.9</ele>
        <time>2010-01-01T00:00:00Z</time>
      </trkpt>
      <trkpt lat="45.11753" lon="5.62346">
        <ele>1640.8</ele>
        <time>2010-01-01T00:00:00Z</time>
      </trkpt>
      <trkpt lat="45.11749" lon="5.62347">
        <ele>1643.3</ele>
        <time>2010-01-01T00:00:00Z</time>
      </trkpt>
      <trkpt lat="45.11745" lon="5.62347">
        <ele>1643.6</ele>
        <time>2010-01-01T00:00:00Z</time>
      </trkpt>
      <trkpt lat="45.11743" lon="5.62348">
        <ele>1644</ele>
        <time>2010-01-01T00:00:00Z</time>
      </trkpt>
      <trkpt lat="45.11741" lon="5.62348">
        <ele>1644.3</ele>
        <time>2010-01-01T00:00:00Z</time>
      </trkpt>
      <trkpt lat="45.11738" lon="5.62348">
        <ele>1644.7</ele>
        <time>2010-01-01T00:00:00Z</time>
      </trkpt>
      <trkpt lat="45.11736" lon="5.62347">
        <ele>1644.8</ele>
        <time>2010-01-01T00:00:00Z</time>
      </trkpt>
      <trkpt lat="45.11732" lon="5.62345">
        <ele>1645.3</ele>
        <time>2010-01-01T00:00:00Z</time>
      </trkpt>
      <trkpt lat="45.1173" lon="5.62342">
        <ele>1645.4</ele>
        <time>2010-01-01T00:00:00Z</time>
      </trkpt>
      <trkpt lat="45.11727" lon="5.62339">
        <ele>1645.8</ele>
        <time>2010-01-01T00:00:00Z</time>
      </trkpt>
      <trkpt lat="45.11725" lon="5.62333">
        <ele>1643.9</ele>
        <time>2010-01-01T00:00:00Z</time>
      </trkpt>
      <trkpt lat="45.11724" lon="5.62329">
        <ele>1644.1</ele>
        <time>2010-01-01T00:00:00Z</time>
      </trkpt>
      <trkpt lat="45.11723" lon="5.62324">
        <ele>1644.3</ele>
        <time>2010-01-01T00:00:00Z</time>
      </trkpt>
      <trkpt lat="45.11723" lon="5.62318">
        <ele>1644.3</ele>
        <time>2010-01-01T00:00:00Z</time>
      </trkpt>
      <trkpt lat="45.11723" lon="5.6231">
        <ele>1644.4</ele>
        <time>2010-01-01T00:00:00Z</time>
      </trkpt>
      <trkpt lat="45.11724" lon="5.62303">
        <ele>1644.2</ele>
        <time>2010-01-01T00:00:00Z</time>
      </trkpt>
      <trkpt lat="45.11724" lon="5.62296">
        <ele>1644.1</ele>
        <time>2010-01-01T00:00:00Z</time>
      </trkpt>
      <trkpt lat="45.11725" lon="5.6229">
        <ele>1643.8</ele>
        <time>2010-01-01T00:00:00Z</time>
      </trkpt>
      <trkpt lat="45.11725" lon="5.62284">
        <ele>1643.5</ele>
        <time>2010-01-01T00:00:00Z</time>
      </trkpt>
      <trkpt lat="45.11725" lon="5.6228">
        <ele>1643.3</ele>
        <time>2010-01-01T00:00:00Z</time>
      </trkpt>
      <trkpt lat="45.11723" lon="5.62275">
        <ele>1643.2</ele>
        <time>2010-01-01T00:00:00Z</time>
      </trkpt>
      <trkpt lat="45.11722" lon="5.62272">
        <ele>1643.2</ele>
        <time>2010-01-01T00:00:00Z</time>
      </trkpt>
      <trkpt lat="45.11719" lon="5.62269">
        <ele>1643.5</ele>
        <time>2010-01-01T00:00:00Z</time>
      </trkpt>
      <trkpt lat="45.11717" lon="5.62265">
        <ele>1643.6</ele>
        <time>2010-01-01T00:00:00Z</time>
      </trkpt>
      <trkpt lat="45.11714" lon="5.62261">
        <ele>1644</ele>
        <time>2010-01-01T00:00:00Z</time>
      </trkpt>
      <trkpt lat="45.11711" lon="5.62258">
        <ele>1644.5</ele>
        <time>2010-01-01T00:00:00Z</time>
      </trkpt>
      <trkpt lat="45.11708" lon="5.62256">
        <ele>1645</ele>
        <time>2010-01-01T00:00:00Z</time>
      </trkpt>
      <trkpt lat="45.11704" lon="5.62255">
        <ele>1645.7</ele>
        <time>2010-01-01T00:00:00Z</time>
      </trkpt>
      <trkpt lat="45.11699" lon="5.62255">
        <ele>1646.6</ele>
        <time>2010-01-01T00:00:00Z</time>
      </trkpt>
      <trkpt lat="45.11694" lon="5.62256">
        <ele>1647.5</ele>
        <time>2010-01-01T00:00:00Z</time>
      </trkpt>
      <trkpt lat="45.11689" lon="5.62258">
        <ele>1648.4</ele>
        <time>2010-01-01T00:00:00Z</time>
      </trkpt>
      <trkpt lat="45.11682" lon="5.62261">
        <ele>1649.4</ele>
        <time>2010-01-01T00:00:00Z</time>
      </trkpt>
      <trkpt lat="45.11676" lon="5.62263">
        <ele>1650.1</ele>
        <time>2010-01-01T00:00:00Z</time>
      </trkpt>
      <trkpt lat="45.1167" lon="5.62265">
        <ele>1650.5</ele>
        <time>2010-01-01T00:00:00Z</time>
      </trkpt>
      <trkpt lat="45.11663" lon="5.62267">
        <ele>1658.6</ele>
        <time>2010-01-01T00:00:00Z</time>
      </trkpt>
      <trkpt lat="45.11657" lon="5.62267">
        <ele>1659.1</ele>
        <time>2010-01-01T00:00:00Z</time>
      </trkpt>
      <trkpt lat="45.11649" lon="5.62268">
        <ele>1660.2</ele>
        <time>2010-01-01T00:00:00Z</time>
      </trkpt>
      <trkpt lat="45.11643" lon="5.62269">
        <ele>1661</ele>
        <time>2010-01-01T00:00:00Z</time>
      </trkpt>
      <trkpt lat="45.11636" lon="5.62269">
        <ele>1661.9</ele>
        <time>2010-01-01T00:00:00Z</time>
      </trkpt>
      <trkpt lat="45.1163" lon="5.6227">
        <ele>1662.6</ele>
        <time>2010-01-01T00:00:00Z</time>
      </trkpt>
      <trkpt lat="45.11622" lon="5.6227">
        <ele>1663.5</ele>
        <time>2010-01-01T00:00:00Z</time>
      </trkpt>
      <trkpt lat="45.11615" lon="5.62271">
        <ele>1664.2</ele>
        <time>2010-01-01T00:00:00Z</time>
      </trkpt>
      <trkpt lat="45.1161" lon="5.62272">
        <ele>1664.7</ele>
        <time>2010-01-01T00:00:00Z</time>
      </trkpt>
      <trkpt lat="45.11603" lon="5.62273">
        <ele>1665.2</ele>
        <time>2010-01-01T00:00:00Z</time>
      </trkpt>
      <trkpt lat="45.11596" lon="5.62274">
        <ele>1665.7</ele>
        <time>2010-01-01T00:00:00Z</time>
      </trkpt>
      <trkpt lat="45.11592" lon="5.62275">
        <ele>1665.9</ele>
        <time>2010-01-01T00:00:00Z</time>
      </trkpt>
      <trkpt lat="45.11589" lon="5.62276">
        <ele>1666.1</ele>
        <time>2010-01-01T00:00:00Z</time>
      </trkpt>
      <trkpt lat="45.11584" lon="5.62278">
        <ele>1666.3</ele>
        <time>2010-01-01T00:00:00Z</time>
      </trkpt>
      <trkpt lat="45.11579" lon="5.6228">
        <ele>1676.5</ele>
        <time>2010-01-01T00:00:00Z</time>
      </trkpt>
      <trkpt lat="45.11574" lon="5.62283">
        <ele>1677.3</ele>
        <time>2010-01-01T00:00:00Z</time>
      </trkpt>
      <trkpt lat="45.1157" lon="5.62285">
        <ele>1677.9</ele>
        <time>2010-01-01T00:00:00Z</time>
      </trkpt>
      <trkpt lat="45.11567" lon="5.62288">
        <ele>1678.5</ele>
        <time>2010-01-01T00:00:00Z</time>
      </trkpt>
      <trkpt lat="45.11561" lon="5.62289">
        <ele>1679.1</ele>
        <time>2010-01-01T00:00:00Z</time>
      </trkpt>
      <trkpt lat="45.11556" lon="5.62291">
        <ele>1679.7</ele>
        <time>2010-01-01T00:00:00Z</time>
      </trkpt>
      <trkpt lat="45.11551" lon="5.62291">
        <ele>1680.2</ele>
        <time>2010-01-01T00:00:00Z</time>
      </trkpt>
      <trkpt lat="45.11546" lon="5.62292">
        <ele>1680.8</ele>
        <time>2010-01-01T00:00:00Z</time>
      </trkpt>
      <trkpt lat="45.11542" lon="5.62292">
        <ele>1681.2</ele>
        <time>2010-01-01T00:00:00Z</time>
      </trkpt>
      <trkpt lat="45.11537" lon="5.62292">
        <ele>1681.8</ele>
        <time>2010-01-01T00:00:00Z</time>
      </trkpt>
      <trkpt lat="45.11531" lon="5.62293">
        <ele>1682.5</ele>
        <time>2010-01-01T00:00:00Z</time>
      </trkpt>
      <trkpt lat="45.11527" lon="5.62294">
        <ele>1683</ele>
        <time>2010-01-01T00:00:00Z</time>
      </trkpt>
      <trkpt lat="45.11521" lon="5.62296">
        <ele>1683.9</ele>
        <time>2010-01-01T00:00:00Z</time>
      </trkpt>
      <trkpt lat="45.11515" lon="5.62297">
        <ele>1684.6</ele>
        <time>2010-01-01T00:00:00Z</time>
      </trkpt>
      <trkpt lat="45.11509" lon="5.62297">
        <ele>1685.1</ele>
        <time>2010-01-01T00:00:00Z</time>
      </trkpt>
      <trkpt lat="45.11503" lon="5.62297">
        <ele>1685.5</ele>
        <time>2010-01-01T00:00:00Z</time>
      </trkpt>
      <trkpt lat="45.11498" lon="5.62296">
        <ele>1692.3</ele>
        <time>2010-01-01T00:00:00Z</time>
      </trkpt>
      <trkpt lat="45.11498" lon="5.62296">
        <ele>1692.3</ele>
        <time>2010-01-01T00:00:00Z</time>
      </trkpt>
      <trkpt lat="45.11497" lon="5.62296">
        <ele>1692.3</ele>
        <time>2010-01-01T00:00:00Z</time>
      </trkpt>
      <trkpt lat="45.11493" lon="5.62295">
        <ele>1692.2</ele>
        <time>2010-01-01T00:00:00Z</time>
      </trkpt>
      <trkpt lat="45.11488" lon="5.62293">
        <ele>1691.9</ele>
        <time>2010-01-01T00:00:00Z</time>
      </trkpt>
      <trkpt lat="45.11482" lon="5.62292">
        <ele>1691.9</ele>
        <time>2010-01-01T00:00:00Z</time>
      </trkpt>
      <trkpt lat="45.11477" lon="5.62291">
        <ele>1691.9</ele>
        <time>2010-01-01T00:00:00Z</time>
      </trkpt>
      <trkpt lat="45.11473" lon="5.6229">
        <ele>1691.9</ele>
        <time>2010-01-01T00:00:00Z</time>
      </trkpt>
      <trkpt lat="45.11471" lon="5.62289">
        <ele>1691.8</ele>
        <time>2010-01-01T00:00:00Z</time>
      </trkpt>
      <trkpt lat="45.11464" lon="5.62291">
        <ele>1692.3</ele>
        <time>2010-01-01T00:00:00Z</time>
      </trkpt>
      <trkpt lat="45.11456" lon="5.62295">
        <ele>1692.9</ele>
        <time>2010-01-01T00:00:00Z</time>
      </trkpt>
      <trkpt lat="45.11451" lon="5.62302">
        <ele>1693.8</ele>
        <time>2010-01-01T00:00:00Z</time>
      </trkpt>
      <trkpt lat="45.11446" lon="5.62309">
        <ele>1694.8</ele>
        <time>2010-01-01T00:00:00Z</time>
      </trkpt>
      <trkpt lat="45.11444" lon="5.62311">
        <ele>1695.1</ele>
        <time>2010-01-01T00:00:00Z</time>
      </trkpt>
      <trkpt lat="45.11439" lon="5.62316">
        <ele>1696</ele>
        <time>2010-01-01T00:00:00Z</time>
      </trkpt>
      <trkpt lat="45.11431" lon="5.62319">
        <ele>1697.3</ele>
        <time>2010-01-01T00:00:00Z</time>
      </trkpt>
      <trkpt lat="45.11422" lon="5.62323">
        <ele>1699.1</ele>
        <time>2010-01-01T00:00:00Z</time>
      </trkpt>
      <trkpt lat="45.11413" lon="5.62327">
        <ele>1701.4</ele>
        <time>2010-01-01T00:00:00Z</time>
      </trkpt>
      <trkpt lat="45.11404" lon="5.62329">
        <ele>1700.6</ele>
        <time>2010-01-01T00:00:00Z</time>
      </trkpt>
      <trkpt lat="45.11395" lon="5.62332">
        <ele>1700.1</ele>
        <time>2010-01-01T00:00:00Z</time>
      </trkpt>
      <trkpt lat="45.11384" lon="5.62335">
        <ele>1707.6</ele>
        <time>2010-01-01T00:00:00Z</time>
      </trkpt>
      <trkpt lat="45.11371" lon="5.62342">
        <ele>1708.5</ele>
        <time>2010-01-01T00:00:00Z</time>
      </trkpt>
      <trkpt lat="45.11351" lon="5.62352">
        <ele>1709.2</ele>
        <time>2010-01-01T00:00:00Z</time>
      </trkpt>
      <trkpt lat="45.11339" lon="5.6236">
        <ele>1709.8</ele>
        <time>2010-01-01T00:00:00Z</time>
      </trkpt>
      <trkpt lat="45.11321" lon="5.62368">
        <ele>1721</ele>
        <time>2010-01-01T00:00:00Z</time>
      </trkpt>
      <trkpt lat="45.113" lon="5.62373">
        <ele>1724.2</ele>
        <time>2010-01-01T00:00:00Z</time>
      </trkpt>
      <trkpt lat="45.1129" lon="5.62373">
        <ele>1725.7</ele>
        <time>2010-01-01T00:00:00Z</time>
      </trkpt>
      <trkpt lat="45.11264" lon="5.62368">
        <ele>1729.2</ele>
        <time>2010-01-01T00:00:00Z</time>
      </trkpt>
      <trkpt lat="45.11248" lon="5.62358">
        <ele>1743.3</ele>
        <time>2010-01-01T00:00:00Z</time>
      </trkpt>
      <trkpt lat="45.11231" lon="5.62344">
        <ele>1743.8</ele>
        <time>2010-01-01T00:00:00Z</time>
      </trkpt>
      <trkpt lat="45.11216" lon="5.62328">
        <ele>1740.9</ele>
        <time>2010-01-01T00:00:00Z</time>
      </trkpt>
      <trkpt lat="45.11213" lon="5.62325">
        <ele>1741.2</ele>
        <time>2010-01-01T00:00:00Z</time>
      </trkpt>
      <trkpt lat="45.11212" lon="5.62317">
        <ele>1740.9</ele>
        <time>2010-01-01T00:00:00Z</time>
      </trkpt>
      <trkpt lat="45.1121" lon="5.62314">
        <ele>1741</ele>
        <time>2010-01-01T00:00:00Z</time>
      </trkpt>
      <trkpt lat="45.11209" lon="5.62313">
        <ele>1741.1</ele>
        <time>2010-01-01T00:00:00Z</time>
      </trkpt>
      <trkpt lat="45.11192" lon="5.62304">
        <ele>1742.9</ele>
        <time>2010-01-01T00:00:00Z</time>
      </trkpt>
      <trkpt lat="45.11187" lon="5.62298">
        <ele>1742.7</ele>
        <time>2010-01-01T00:00:00Z</time>
      </trkpt>
      <trkpt lat="45.11183" lon="5.62291">
        <ele>1742.3</ele>
        <time>2010-01-01T00:00:00Z</time>
      </trkpt>
      <trkpt lat="45.11182" lon="5.62286">
        <ele>1741.8</ele>
        <time>2010-01-01T00:00:00Z</time>
      </trkpt>
      <trkpt lat="45.11179" lon="5.62282">
        <ele>1741.7</ele>
        <time>2010-01-01T00:00:00Z</time>
      </trkpt>
      <trkpt lat="45.11175" lon="5.62277">
        <ele>1741.7</ele>
        <time>2010-01-01T00:00:00Z</time>
      </trkpt>
      <trkpt lat="45.11169" lon="5.62273">
        <ele>1741.8</ele>
        <time>2010-01-01T00:00:00Z</time>
      </trkpt>
      <trkpt lat="45.1116" lon="5.6227">
        <ele>1748.1</ele>
        <time>2010-01-01T00:00:00Z</time>
      </trkpt>
      <trkpt lat="45.1115" lon="5.62271">
        <ele>1748.8</ele>
        <time>2010-01-01T00:00:00Z</time>
      </trkpt>
      <trkpt lat="45.11141" lon="5.62273">
        <ele>1749.5</ele>
        <time>2010-01-01T00:00:00Z</time>
      </trkpt>
      <trkpt lat="45.11132" lon="5.62279">
        <ele>1750.3</ele>
        <time>2010-01-01T00:00:00Z</time>
      </trkpt>
      <trkpt lat="45.11121" lon="5.62288">
        <ele>1751.2</ele>
        <time>2010-01-01T00:00:00Z</time>
      </trkpt>
      <trkpt lat="45.11105" lon="5.62304">
        <ele>1752.9</ele>
        <time>2010-01-01T00:00:00Z</time>
      </trkpt>
      <trkpt lat="45.11101" lon="5.62308">
        <ele>1753.5</ele>
        <time>2010-01-01T00:00:00Z</time>
      </trkpt>
      <trkpt lat="45.11096" lon="5.62312">
        <ele>1754.2</ele>
        <time>2010-01-01T00:00:00Z</time>
      </trkpt>
      <trkpt lat="45.11091" lon="5.62314">
        <ele>1754.7</ele>
        <time>2010-01-01T00:00:00Z</time>
      </trkpt>
      <trkpt lat="45.11082" lon="5.62316">
        <ele>1760.7</ele>
        <time>2010-01-01T00:00:00Z</time>
      </trkpt>
      <trkpt lat="45.11074" lon="5.62315">
        <ele>1761.2</ele>
        <time>2010-01-01T00:00:00Z</time>
      </trkpt>
      <trkpt lat="45.11074" lon="5.62315">
        <ele>1761.2</ele>
        <time>2010-01-01T00:00:00Z</time>
      </trkpt>
      <trkpt lat="45.11074" lon="5.62315">
        <ele>1761.2</ele>
        <time>2010-01-01T00:00:00Z</time>
      </trkpt>
      <trkpt lat="45.11063" lon="5.62312">
        <ele>1762.2</ele>
        <time>2010-01-01T00:00:00Z</time>
      </trkpt>
      <trkpt lat="45.11054" lon="5.62303">
        <ele>1762.9</ele>
        <time>2010-01-01T00:00:00Z</time>
      </trkpt>
      <trkpt lat="45.11043" lon="5.62291">
        <ele>1763.3</ele>
        <time>2010-01-01T00:00:00Z</time>
      </trkpt>
      <trkpt lat="45.11033" lon="5.62278">
        <ele>1763.3</ele>
        <time>2010-01-01T00:00:00Z</time>
      </trkpt>
      <trkpt lat="45.11014" lon="5.62257">
        <ele>1764.1</ele>
        <time>2010-01-01T00:00:00Z</time>
      </trkpt>
      <trkpt lat="45.10999" lon="5.62246">
        <ele>1764.6</ele>
        <time>2010-01-01T00:00:00Z</time>
      </trkpt>
      <trkpt lat="45.1098" lon="5.62233">
        <ele>1763.6</ele>
        <time>2010-01-01T00:00:00Z</time>
      </trkpt>
      <trkpt lat="45.10965" lon="5.62226">
        <ele>1764.1</ele>
        <time>2010-01-01T00:00:00Z</time>
      </trkpt>
      <trkpt lat="45.10948" lon="5.62218">
        <ele>1765.1</ele>
        <time>2010-01-01T00:00:00Z</time>
      </trkpt>
      <trkpt lat="45.10934" lon="5.6221">
        <ele>1765.1</ele>
        <time>2010-01-01T00:00:00Z</time>
      </trkpt>
      <trkpt lat="45.1091" lon="5.62199">
        <ele>1775.1</ele>
        <time>2010-01-01T00:00:00Z</time>
      </trkpt>
      <trkpt lat="45.10891" lon="5.62189">
        <ele>1775.2</ele>
        <time>2010-01-01T00:00:00Z</time>
      </trkpt>
      <trkpt lat="45.10873" lon="5.62182">
        <ele>1777.3</ele>
        <time>2010-01-01T00:00:00Z</time>
      </trkpt>
      <trkpt lat="45.10857" lon="5.62179">
        <ele>1778.7</ele>
        <time>2010-01-01T00:00:00Z</time>
      </trkpt>
      <trkpt lat="45.10839" lon="5.62179">
        <ele>1778.9</ele>
        <time>2010-01-01T00:00:00Z</time>
      </trkpt>
      <trkpt lat="45.10827" lon="5.62176">
        <ele>1783</ele>
        <time>2010-01-01T00:00:00Z</time>
      </trkpt>
      <trkpt lat="45.10822" lon="5.62174">
        <ele>1783.8</ele>
        <time>2010-01-01T00:00:00Z</time>
      </trkpt>
      <trkpt lat="45.10822" lon="5.62174">
        <ele>1783.8</ele>
        <time>2010-01-01T00:00:00Z</time>
      </trkpt>
      <trkpt lat="45.10813" lon="5.6217">
        <ele>1785.7</ele>
        <time>2010-01-01T00:00:00Z</time>
      </trkpt>
      <trkpt lat="45.10798" lon="5.62162">
        <ele>1772.6</ele>
        <time>2010-01-01T00:00:00Z</time>
      </trkpt>
      <trkpt lat="45.10788" lon="5.62153">
        <ele>1772.5</ele>
        <time>2010-01-01T00:00:00Z</time>
      </trkpt>
      <trkpt lat="45.10773" lon="5.62143">
        <ele>1772.7</ele>
        <time>2010-01-01T00:00:00Z</time>
      </trkpt>
      <trkpt lat="45.10759" lon="5.62136">
        <ele>1772.4</ele>
        <time>2010-01-01T00:00:00Z</time>
      </trkpt>
      <trkpt lat="45.1075" lon="5.62134">
        <ele>1772.2</ele>
        <time>2010-01-01T00:00:00Z</time>
      </trkpt>
      <trkpt lat="45.1074" lon="5.62133">
        <ele>1776.6</ele>
        <time>2010-01-01T00:00:00Z</time>
      </trkpt>
      <trkpt lat="45.10727" lon="5.62133">
        <ele>1776.7</ele>
        <time>2010-01-01T00:00:00Z</time>
      </trkpt>
      <trkpt lat="45.10715" lon="5.62133">
        <ele>1777</ele>
        <time>2010-01-01T00:00:00Z</time>
      </trkpt>
      <trkpt lat="45.107" lon="5.62134">
        <ele>1777.7</ele>
        <time>2010-01-01T00:00:00Z</time>
      </trkpt>
      <trkpt lat="45.10688" lon="5.62133">
        <ele>1778.2</ele>
        <time>2010-01-01T00:00:00Z</time>
      </trkpt>
      <trkpt lat="45.10672" lon="5.62133">
        <ele>1779</ele>
        <time>2010-01-01T00:00:00Z</time>
      </trkpt>
      <trkpt lat="45.10659" lon="5.62134">
        <ele>1783.8</ele>
        <time>2010-01-01T00:00:00Z</time>
      </trkpt>
      <trkpt lat="45.1065" lon="5.62136">
        <ele>1784.1</ele>
        <time>2010-01-01T00:00:00Z</time>
      </trkpt>
      <trkpt lat="45.10637" lon="5.62139">
        <ele>1784.6</ele>
        <time>2010-01-01T00:00:00Z</time>
      </trkpt>
      <trkpt lat="45.10619" lon="5.62141">
        <ele>1785.3</ele>
        <time>2010-01-01T00:00:00Z</time>
      </trkpt>
      <trkpt lat="45.10609" lon="5.62139">
        <ele>1785.6</ele>
        <time>2010-01-01T00:00:00Z</time>
      </trkpt>
      <trkpt lat="45.10597" lon="5.62139">
        <ele>1786.3</ele>
        <time>2010-01-01T00:00:00Z</time>
      </trkpt>
      <trkpt lat="45.10586" lon="5.62137">
        <ele>1786.4</ele>
        <time>2010-01-01T00:00:00Z</time>
      </trkpt>
      <trkpt lat="45.10575" lon="5.62134">
        <ele>1792.2</ele>
        <time>2010-01-01T00:00:00Z</time>
      </trkpt>
      <trkpt lat="45.1057" lon="5.62129">
        <ele>1792</ele>
        <time>2010-01-01T00:00:00Z</time>
      </trkpt>
      <trkpt lat="45.10557" lon="5.62122">
        <ele>1792.2</ele>
        <time>2010-01-01T00:00:00Z</time>
      </trkpt>
      <trkpt lat="45.10547" lon="5.62112">
        <ele>1792.2</ele>
        <time>2010-01-01T00:00:00Z</time>
      </trkpt>
      <trkpt lat="45.10541" lon="5.6211">
        <ele>1792.6</ele>
        <time>2010-01-01T00:00:00Z</time>
      </trkpt>
      <trkpt lat="45.10534" lon="5.62108">
        <ele>1793</ele>
        <time>2010-01-01T00:00:00Z</time>
      </trkpt>
      <trkpt lat="45.10526" lon="5.62105">
        <ele>1793.4</ele>
        <time>2010-01-01T00:00:00Z</time>
      </trkpt>
      <trkpt lat="45.10525" lon="5.62105">
        <ele>1793.5</ele>
        <time>2010-01-01T00:00:00Z</time>
      </trkpt>
      <trkpt lat="45.10525" lon="5.62105">
        <ele>1793.5</ele>
        <time>2010-01-01T00:00:00Z</time>
      </trkpt>
      <trkpt lat="45.10517" lon="5.62102">
        <ele>1793.7</ele>
        <time>2010-01-01T00:00:00Z</time>
      </trkpt>
      <trkpt lat="45.1051" lon="5.62098">
        <ele>1793.9</ele>
        <time>2010-01-01T00:00:00Z</time>
      </trkpt>
      <trkpt lat="45.10504" lon="5.62093">
        <ele>1793.9</ele>
        <time>2010-01-01T00:00:00Z</time>
      </trkpt>
      <trkpt lat="45.105" lon="5.62083">
        <ele>1794</ele>
        <time>2010-01-01T00:00:00Z</time>
      </trkpt>
      <trkpt lat="45.10502" lon="5.62077">
        <ele>1792.1</ele>
        <time>2010-01-01T00:00:00Z</time>
      </trkpt>
      <trkpt lat="45.10504" lon="5.62072">
        <ele>1790.9</ele>
        <time>2010-01-01T00:00:00Z</time>
      </trkpt>
      <trkpt lat="45.10509" lon="5.62067">
        <ele>1789.7</ele>
        <time>2010-01-01T00:00:00Z</time>
      </trkpt>
      <trkpt lat="45.10513" lon="5.6206">
        <ele>1788.6</ele>
        <time>2010-01-01T00:00:00Z</time>
      </trkpt>
      <trkpt lat="45.10515" lon="5.62054">
        <ele>1788</ele>
        <time>2010-01-01T00:00:00Z</time>
      </trkpt>
      <trkpt lat="45.10515" lon="5.62046">
        <ele>1787.5</ele>
        <time>2010-01-01T00:00:00Z</time>
      </trkpt>
      <trkpt lat="45.10509" lon="5.62029">
        <ele>1787.5</ele>
        <time>2010-01-01T00:00:00Z</time>
      </trkpt>
      <trkpt lat="45.10508" lon="5.62028">
        <ele>1787.5</ele>
        <time>2010-01-01T00:00:00Z</time>
      </trkpt>
      <trkpt lat="45.10508" lon="5.62028">
        <ele>1787.5</ele>
        <time>2010-01-01T00:00:00Z</time>
      </trkpt>
      <trkpt lat="45.10504" lon="5.62019">
        <ele>1787.9</ele>
        <time>2010-01-01T00:00:00Z</time>
      </trkpt>
      <trkpt lat="45.10501" lon="5.62012">
        <ele>1788.4</ele>
        <time>2010-01-01T00:00:00Z</time>
      </trkpt>
      <trkpt lat="45.10498" lon="5.62003">
        <ele>1790.6</ele>
        <time>2010-01-01T00:00:00Z</time>
      </trkpt>
      <trkpt lat="45.10486" lon="5.61998">
        <ele>1788.8</ele>
        <time>2010-01-01T00:00:00Z</time>
      </trkpt>
      <trkpt lat="45.10472" lon="5.61992">
        <ele>1788.4</ele>
        <time>2010-01-01T00:00:00Z</time>
      </trkpt>
      <trkpt lat="45.10464" lon="5.61989">
        <ele>1788.5</ele>
        <time>2010-01-01T00:00:00Z</time>
      </trkpt>
      <trkpt lat="45.10455" lon="5.61985">
        <ele>1788.7</ele>
        <time>2010-01-01T00:00:00Z</time>
      </trkpt>
      <trkpt lat="45.10449" lon="5.61982">
        <ele>1789</ele>
        <time>2010-01-01T00:00:00Z</time>
      </trkpt>
      <trkpt lat="45.10444" lon="5.61979">
        <ele>1789.1</ele>
        <time>2010-01-01T00:00:00Z</time>
      </trkpt>
      <trkpt lat="45.10441" lon="5.61973">
        <ele>1788.8</ele>
        <time>2010-01-01T00:00:00Z</time>
      </trkpt>
      <trkpt lat="45.10438" lon="5.61965">
        <ele>1788.3</ele>
        <time>2010-01-01T00:00:00Z</time>
      </trkpt>
      <trkpt lat="45.10437" lon="5.61963">
        <ele>1788.2</ele>
        <time>2010-01-01T00:00:00Z</time>
      </trkpt>
      <trkpt lat="45.10437" lon="5.61963">
        <ele>1788.2</ele>
        <time>2010-01-01T00:00:00Z</time>
      </trkpt>
      <trkpt lat="45.10433" lon="5.61952">
        <ele>1787.4</ele>
        <time>2010-01-01T00:00:00Z</time>
      </trkpt>
      <trkpt lat="45.10428" lon="5.61938">
        <ele>1786.7</ele>
        <time>2010-01-01T00:00:00Z</time>
      </trkpt>
      <trkpt lat="45.10426" lon="5.61933">
        <ele>1786.5</ele>
        <time>2010-01-01T00:00:00Z</time>
      </trkpt>
      <trkpt lat="45.10425" lon="5.61926">
        <ele>1786.2</ele>
        <time>2010-01-01T00:00:00Z</time>
      </trkpt>
      <trkpt lat="45.10424" lon="5.61916">
        <ele>1782.2</ele>
        <time>2010-01-01T00:00:00Z</time>
      </trkpt>
      <trkpt lat="45.10426" lon="5.61902">
        <ele>1778.4</ele>
        <time>2010-01-01T00:00:00Z</time>
      </trkpt>
      <trkpt lat="45.10428" lon="5.61888">
        <ele>1775.1</ele>
        <time>2010-01-01T00:00:00Z</time>
      </trkpt>
      <trkpt lat="45.10435" lon="5.61872">
        <ele>1772.2</ele>
        <time>2010-01-01T00:00:00Z</time>
      </trkpt>
      <trkpt lat="45.10435" lon="5.61872">
        <ele>1772.2</ele>
        <time>2010-01-01T00:00:00Z</time>
      </trkpt>
      <trkpt lat="45.10437" lon="5.61867">
        <ele>1771.5</ele>
        <time>2010-01-01T00:00:00Z</time>
      </trkpt>
      <trkpt lat="45.10448" lon="5.61843">
        <ele>1768.7</ele>
        <time>2010-01-01T00:00:00Z</time>
      </trkpt>
      <trkpt lat="45.10457" lon="5.61821">
        <ele>1753.3</ele>
        <time>2010-01-01T00:00:00Z</time>
      </trkpt>
      <trkpt lat="45.10462" lon="5.61807">
        <ele>1751.1</ele>
        <time>2010-01-01T00:00:00Z</time>
      </trkpt>
      <trkpt lat="45.10458" lon="5.61803">
        <ele>1751.2</ele>
        <time>2010-01-01T00:00:00Z</time>
      </trkpt>
      <trkpt lat="45.10456" lon="5.61798">
        <ele>1750.9</ele>
        <time>2010-01-01T00:00:00Z</time>
      </trkpt>
      <trkpt lat="45.10455" lon="5.61785">
        <ele>1749.4</ele>
        <time>2010-01-01T00:00:00Z</time>
      </trkpt>
      <trkpt lat="45.10455" lon="5.61774">
        <ele>1748.1</ele>
        <time>2010-01-01T00:00:00Z</time>
      </trkpt>
      <trkpt lat="45.10456" lon="5.61751">
        <ele>1746.2</ele>
        <time>2010-01-01T00:00:00Z</time>
      </trkpt>
      <trkpt lat="45.10455" lon="5.6174">
        <ele>1734.1</ele>
        <time>2010-01-01T00:00:00Z</time>
      </trkpt>
      <trkpt lat="45.1045" lon="5.61725">
        <ele>1733.7</ele>
        <time>2010-01-01T00:00:00Z</time>
      </trkpt>
      <trkpt lat="45.10446" lon="5.61715">
        <ele>1733.2</ele>
        <time>2010-01-01T00:00:00Z</time>
      </trkpt>
      <trkpt lat="45.10442" lon="5.61711">
        <ele>1733.2</ele>
        <time>2010-01-01T00:00:00Z</time>
      </trkpt>
      <trkpt lat="45.10433" lon="5.61707">
        <ele>1733.7</ele>
        <time>2010-01-01T00:00:00Z</time>
      </trkpt>
      <trkpt lat="45.10423" lon="5.61703">
        <ele>1733.9</ele>
        <time>2010-01-01T00:00:00Z</time>
      </trkpt>
      <trkpt lat="45.10409" lon="5.61697">
        <ele>1743.7</ele>
        <time>2010-01-01T00:00:00Z</time>
      </trkpt>
      <trkpt lat="45.10395" lon="5.61692">
        <ele>1743.9</ele>
        <time>2010-01-01T00:00:00Z</time>
      </trkpt>
      <trkpt lat="45.10393" lon="5.61691">
        <ele>1744</ele>
        <time>2010-01-01T00:00:00Z</time>
      </trkpt>
      <trkpt lat="45.10393" lon="5.61691">
        <ele>1744</ele>
        <time>2010-01-01T00:00:00Z</time>
      </trkpt>
      <trkpt lat="45.10381" lon="5.61688">
        <ele>1744.7</ele>
        <time>2010-01-01T00:00:00Z</time>
      </trkpt>
      <trkpt lat="45.10371" lon="5.61687">
        <ele>1745.3</ele>
        <time>2010-01-01T00:00:00Z</time>
      </trkpt>
      <trkpt lat="45.1036" lon="5.61688">
        <ele>1745.7</ele>
        <time>2010-01-01T00:00:00Z</time>
      </trkpt>
      <trkpt lat="45.10349" lon="5.61689">
        <ele>1745.8</ele>
        <time>2010-01-01T00:00:00Z</time>
      </trkpt>
      <trkpt lat="45.10341" lon="5.61689">
        <ele>1745.7</ele>
        <time>2010-01-01T00:00:00Z</time>
      </trkpt>
      <trkpt lat="45.10333" lon="5.6169">
        <ele>1751.5</ele>
        <time>2010-01-01T00:00:00Z</time>
      </trkpt>
      <trkpt lat="45.10328" lon="5.61689">
        <ele>1751.4</ele>
        <time>2010-01-01T00:00:00Z</time>
      </trkpt>
      <trkpt lat="45.1032" lon="5.61687">
        <ele>1751.8</ele>
        <time>2010-01-01T00:00:00Z</time>
      </trkpt>
      <trkpt lat="45.10314" lon="5.61683">
        <ele>1751.8</ele>
        <time>2010-01-01T00:00:00Z</time>
      </trkpt>
      <trkpt lat="45.10309" lon="5.61681">
        <ele>1752.4</ele>
        <time>2010-01-01T00:00:00Z</time>
      </trkpt>
      <trkpt lat="45.10303" lon="5.61679">
        <ele>1753.1</ele>
        <time>2010-01-01T00:00:00Z</time>
      </trkpt>
      <trkpt lat="45.10297" lon="5.61677">
        <ele>1753.7</ele>
        <time>2010-01-01T00:00:00Z</time>
      </trkpt>
      <trkpt lat="45.10291" lon="5.61675">
        <ele>1754.2</ele>
        <time>2010-01-01T00:00:00Z</time>
      </trkpt>
      <trkpt lat="45.10284" lon="5.61673">
        <ele>1754.5</ele>
        <time>2010-01-01T00:00:00Z</time>
      </trkpt>
      <trkpt lat="45.10276" lon="5.61669">
        <ele>1754.4</ele>
        <time>2010-01-01T00:00:00Z</time>
      </trkpt>
      <trkpt lat="45.10269" lon="5.61667">
        <ele>1754.1</ele>
        <time>2010-01-01T00:00:00Z</time>
      </trkpt>
      <trkpt lat="45.10261" lon="5.61665">
        <ele>1744</ele>
        <time>2010-01-01T00:00:00Z</time>
      </trkpt>
      <trkpt lat="45.10252" lon="5.61664">
        <ele>1748.5</ele>
        <time>2010-01-01T00:00:00Z</time>
      </trkpt>
      <trkpt lat="45.1024" lon="5.61662">
        <ele>1747.8</ele>
        <time>2010-01-01T00:00:00Z</time>
      </trkpt>
      <trkpt lat="45.1023" lon="5.61661">
        <ele>1746.5</ele>
        <time>2010-01-01T00:00:00Z</time>
      </trkpt>
      <trkpt lat="45.10221" lon="5.61661">
        <ele>1746.1</ele>
        <time>2010-01-01T00:00:00Z</time>
      </trkpt>
      <trkpt lat="45.10212" lon="5.61662">
        <ele>1746.4</ele>
        <time>2010-01-01T00:00:00Z</time>
      </trkpt>
      <trkpt lat="45.10205" lon="5.61663">
        <ele>1747.1</ele>
        <time>2010-01-01T00:00:00Z</time>
      </trkpt>
      <trkpt lat="45.10197" lon="5.61665">
        <ele>1748.3</ele>
        <time>2010-01-01T00:00:00Z</time>
      </trkpt>
      <trkpt lat="45.10188" lon="5.61666">
        <ele>1750.3</ele>
        <time>2010-01-01T00:00:00Z</time>
      </trkpt>
      <trkpt lat="45.1018" lon="5.61664">
        <ele>1752.7</ele>
        <time>2010-01-01T00:00:00Z</time>
      </trkpt>
      <trkpt lat="45.10171" lon="5.6166">
        <ele>1755</ele>
        <time>2010-01-01T00:00:00Z</time>
      </trkpt>
      <trkpt lat="45.10165" lon="5.61656">
        <ele>1757.7</ele>
        <time>2010-01-01T00:00:00Z</time>
      </trkpt>
      <trkpt lat="45.10157" lon="5.61654">
        <ele>1757.1</ele>
        <time>2010-01-01T00:00:00Z</time>
      </trkpt>
      <trkpt lat="45.10151" lon="5.61653">
        <ele>1756.8</ele>
        <time>2010-01-01T00:00:00Z</time>
      </trkpt>
      <trkpt lat="45.10146" lon="5.61652">
        <ele>1756.7</ele>
        <time>2010-01-01T00:00:00Z</time>
      </trkpt>
      <trkpt lat="45.10139" lon="5.61652">
        <ele>1756.9</ele>
        <time>2010-01-01T00:00:00Z</time>
      </trkpt>
      <trkpt lat="45.10134" lon="5.61649">
        <ele>1756.8</ele>
        <time>2010-01-01T00:00:00Z</time>
      </trkpt>
      <trkpt lat="45.10134" lon="5.61649">
        <ele>1756.8</ele>
        <time>2010-01-01T00:00:00Z</time>
      </trkpt>
      <trkpt lat="45.10132" lon="5.61649">
        <ele>1757</ele>
        <time>2010-01-01T00:00:00Z</time>
      </trkpt>
      <trkpt lat="45.10129" lon="5.61645">
        <ele>1756.8</ele>
        <time>2010-01-01T00:00:00Z</time>
      </trkpt>
      <trkpt lat="45.10116" lon="5.61632">
        <ele>1756.2</ele>
        <time>2010-01-01T00:00:00Z</time>
      </trkpt>
      <trkpt lat="45.10107" lon="5.61622">
        <ele>1755.2</ele>
        <time>2010-01-01T00:00:00Z</time>
      </trkpt>
      <trkpt lat="45.10091" lon="5.61607">
        <ele>1753.3</ele>
        <time>2010-01-01T00:00:00Z</time>
      </trkpt>
      <trkpt lat="45.10079" lon="5.61594">
        <ele>1755.7</ele>
        <time>2010-01-01T00:00:00Z</time>
      </trkpt>
      <trkpt lat="45.10069" lon="5.61588">
        <ele>1756.9</ele>
        <time>2010-01-01T00:00:00Z</time>
      </trkpt>
      <trkpt lat="45.10058" lon="5.61582">
        <ele>1745.4</ele>
        <time>2010-01-01T00:00:00Z</time>
      </trkpt>
      <trkpt lat="45.10044" lon="5.61576">
        <ele>1745.4</ele>
        <time>2010-01-01T00:00:00Z</time>
      </trkpt>
      <trkpt lat="45.10035" lon="5.61573">
        <ele>1746.1</ele>
        <time>2010-01-01T00:00:00Z</time>
      </trkpt>
      <trkpt lat="45.10018" lon="5.61573">
        <ele>1749.5</ele>
        <time>2010-01-01T00:00:00Z</time>
      </trkpt>
      <trkpt lat="45.10006" lon="5.61574">
        <ele>1753.2</ele>
        <time>2010-01-01T00:00:00Z</time>
      </trkpt>
      <trkpt lat="45.09985" lon="5.61579">
        <ele>1755.5</ele>
        <time>2010-01-01T00:00:00Z</time>
      </trkpt>
      <trkpt lat="45.0997" lon="5.61582">
        <ele>1754.4</ele>
        <time>2010-01-01T00:00:00Z</time>
      </trkpt>
      <trkpt lat="45.09958" lon="5.61586">
        <ele>1770.4</ele>
        <time>2010-01-01T00:00:00Z</time>
      </trkpt>
      <trkpt lat="45.09947" lon="5.61595">
        <ele>1771.3</ele>
        <time>2010-01-01T00:00:00Z</time>
      </trkpt>
      <trkpt lat="45.09942" lon="5.61601">
        <ele>1771.8</ele>
        <time>2010-01-01T00:00:00Z</time>
      </trkpt>
      <trkpt lat="45.09939" lon="5.61605">
        <ele>1772.2</ele>
        <time>2010-01-01T00:00:00Z</time>
      </trkpt>
      <trkpt lat="45.09933" lon="5.61607">
        <ele>1772.3</ele>
        <time>2010-01-01T00:00:00Z</time>
      </trkpt>
      <trkpt lat="45.09925" lon="5.61604">
        <ele>1771.6</ele>
        <time>2010-01-01T00:00:00Z</time>
      </trkpt>
      <trkpt lat="45.09915" lon="5.61597">
        <ele>1771.4</ele>
        <time>2010-01-01T00:00:00Z</time>
      </trkpt>
      <trkpt lat="45.09907" lon="5.61594">
        <ele>1771.5</ele>
        <time>2010-01-01T00:00:00Z</time>
      </trkpt>
      <trkpt lat="45.09898" lon="5.61595">
        <ele>1773.1</ele>
        <time>2010-01-01T00:00:00Z</time>
      </trkpt>
      <trkpt lat="45.09889" lon="5.61597">
        <ele>1774.3</ele>
        <time>2010-01-01T00:00:00Z</time>
      </trkpt>
      <trkpt lat="45.09876" lon="5.61601">
        <ele>1775.4</ele>
        <time>2010-01-01T00:00:00Z</time>
      </trkpt>
      <trkpt lat="45.09874" lon="5.61602">
        <ele>1775.5</ele>
        <time>2010-01-01T00:00:00Z</time>
      </trkpt>
      <trkpt lat="45.09874" lon="5.61602">
        <ele>1775.5</ele>
        <time>2010-01-01T00:00:00Z</time>
      </trkpt>
      <trkpt lat="45.09865" lon="5.61605">
        <ele>1775.8</ele>
        <time>2010-01-01T00:00:00Z</time>
      </trkpt>
      <trkpt lat="45.09856" lon="5.61604">
        <ele>1775.2</ele>
        <time>2010-01-01T00:00:00Z</time>
      </trkpt>
      <trkpt lat="45.09848" lon="5.616">
        <ele>1773.8</ele>
        <time>2010-01-01T00:00:00Z</time>
      </trkpt>
      <trkpt lat="45.0984" lon="5.61593">
        <ele>1770.9</ele>
        <time>2010-01-01T00:00:00Z</time>
      </trkpt>
      <trkpt lat="45.09834" lon="5.61584">
        <ele>1766.5</ele>
        <time>2010-01-01T00:00:00Z</time>
      </trkpt>
      <trkpt lat="45.0983" lon="5.61579">
        <ele>1764.1</ele>
        <time>2010-01-01T00:00:00Z</time>
      </trkpt>
      <trkpt lat="45.09825" lon="5.61577">
        <ele>1762.7</ele>
        <time>2010-01-01T00:00:00Z</time>
      </trkpt>
      <trkpt lat="45.09817" lon="5.61576">
        <ele>1761.4</ele>
        <time>2010-01-01T00:00:00Z</time>
      </trkpt>
      <trkpt lat="45.098" lon="5.61575">
        <ele>1760.3</ele>
        <time>2010-01-01T00:00:00Z</time>
      </trkpt>
      <trkpt lat="45.09784" lon="5.61574">
        <ele>1761</ele>
        <time>2010-01-01T00:00:00Z</time>
      </trkpt>
      <trkpt lat="45.09775" lon="5.6157">
        <ele>1761.7</ele>
        <time>2010-01-01T00:00:00Z</time>
      </trkpt>
      <trkpt lat="45.09765" lon="5.6156">
        <ele>1761.1</ele>
        <time>2010-01-01T00:00:00Z</time>
      </trkpt>
      <trkpt lat="45.09756" lon="5.6155">
        <ele>1759.3</ele>
        <time>2010-01-01T00:00:00Z</time>
      </trkpt>
      <trkpt lat="45.09737" lon="5.61534">
        <ele>1760.2</ele>
        <time>2010-01-01T00:00:00Z</time>
      </trkpt>
      <trkpt lat="45.09722" lon="5.61523">
        <ele>1759.2</ele>
        <time>2010-01-01T00:00:00Z</time>
      </trkpt>
      <trkpt lat="45.09708" lon="5.61513">
        <ele>1759.2</ele>
        <time>2010-01-01T00:00:00Z</time>
      </trkpt>
      <trkpt lat="45.09696" lon="5.61506">
        <ele>1759</ele>
        <time>2010-01-01T00:00:00Z</time>
      </trkpt>
      <trkpt lat="45.09683" lon="5.61496">
        <ele>1747</ele>
        <time>2010-01-01T00:00:00Z</time>
      </trkpt>
      <trkpt lat="45.09672" lon="5.61485">
        <ele>1746.9</ele>
        <time>2010-01-01T00:00:00Z</time>
      </trkpt>
      <trkpt lat="45.09663" lon="5.61472">
        <ele>1746.8</ele>
        <time>2010-01-01T00:00:00Z</time>
      </trkpt>
      <trkpt lat="45.09655" lon="5.61459">
        <ele>1744</ele>
        <time>2010-01-01T00:00:00Z</time>
      </trkpt>
      <trkpt lat="45.09644" lon="5.61446">
        <ele>1741.9</ele>
        <time>2010-01-01T00:00:00Z</time>
      </trkpt>
      <trkpt lat="45.09635" lon="5.61435">
        <ele>1741</ele>
        <time>2010-01-01T00:00:00Z</time>
      </trkpt>
      <trkpt lat="45.09627" lon="5.61427">
        <ele>1740.8</ele>
        <time>2010-01-01T00:00:00Z</time>
      </trkpt>
      <trkpt lat="45.09625" lon="5.61425">
        <ele>1740.8</ele>
        <time>2010-01-01T00:00:00Z</time>
      </trkpt>
      <trkpt lat="45.09625" lon="5.61425">
        <ele>1740.8</ele>
        <time>2010-01-01T00:00:00Z</time>
      </trkpt>
      <trkpt lat="45.09618" lon="5.61418">
        <ele>1740.7</ele>
        <time>2010-01-01T00:00:00Z</time>
      </trkpt>
      <trkpt lat="45.09615" lon="5.61419">
        <ele>1740.8</ele>
        <time>2010-01-01T00:00:00Z</time>
      </trkpt>
      <trkpt lat="45.09612" lon="5.61421">
        <ele>1740.9</ele>
        <time>2010-01-01T00:00:00Z</time>
      </trkpt>
      <trkpt lat="45.09609" lon="5.61423">
        <ele>1741</ele>
        <time>2010-01-01T00:00:00Z</time>
      </trkpt>
      <trkpt lat="45.09607" lon="5.61424">
        <ele>1741</ele>
        <time>2010-01-01T00:00:00Z</time>
      </trkpt>
      <trkpt lat="45.09604" lon="5.61427">
        <ele>1741.1</ele>
        <time>2010-01-01T00:00:00Z</time>
      </trkpt>
      <trkpt lat="45.09602" lon="5.61427">
        <ele>1741</ele>
        <time>2010-01-01T00:00:00Z</time>
      </trkpt>
      <trkpt lat="45.096" lon="5.61429">
        <ele>1741.1</ele>
        <time>2010-01-01T00:00:00Z</time>
      </trkpt>
      <trkpt lat="45.09599" lon="5.61431">
        <ele>1741.3</ele>
        <time>2010-01-01T00:00:00Z</time>
      </trkpt>
      <trkpt lat="45.09597" lon="5.61434">
        <ele>1741.6</ele>
        <time>2010-01-01T00:00:00Z</time>
      </trkpt>
      <trkpt lat="45.09594" lon="5.61436">
        <ele>1741.8</ele>
        <time>2010-01-01T00:00:00Z</time>
      </trkpt>
      <trkpt lat="45.09593" lon="5.61437">
        <ele>1741.9</ele>
        <time>2010-01-01T00:00:00Z</time>
      </trkpt>
      <trkpt lat="45.0959" lon="5.6144">
        <ele>1742.4</ele>
        <time>2010-01-01T00:00:00Z</time>
      </trkpt>
      <trkpt lat="45.09587" lon="5.61441">
        <ele>1742.5</ele>
        <time>2010-01-01T00:00:00Z</time>
      </trkpt>
      <trkpt lat="45.09584" lon="5.61441">
        <ele>1742.5</ele>
        <time>2010-01-01T00:00:00Z</time>
      </trkpt>
      <trkpt lat="45.09583" lon="5.61441">
        <ele>1746</ele>
        <time>2010-01-01T00:00:00Z</time>
      </trkpt>
      <trkpt lat="45.09581" lon="5.61443">
        <ele>1746.5</ele>
        <time>2010-01-01T00:00:00Z</time>
      </trkpt>
      <trkpt lat="45.09579" lon="5.61445">
        <ele>1747</ele>
        <time>2010-01-01T00:00:00Z</time>
      </trkpt>
      <trkpt lat="45.09577" lon="5.61448">
        <ele>1747.8</ele>
        <time>2010-01-01T00:00:00Z</time>
      </trkpt>
      <trkpt lat="45.09574" lon="5.61448">
        <ele>1747.9</ele>
        <time>2010-01-01T00:00:00Z</time>
      </trkpt>
      <trkpt lat="45.09571" lon="5.61448">
        <ele>1748</ele>
        <time>2010-01-01T00:00:00Z</time>
      </trkpt>
      <trkpt lat="45.0957" lon="5.6145">
        <ele>1748.5</ele>
        <time>2010-01-01T00:00:00Z</time>
      </trkpt>
      <trkpt lat="45.09567" lon="5.61453">
        <ele>1749.1</ele>
        <time>2010-01-01T00:00:00Z</time>
      </trkpt>
      <trkpt lat="45.09564" lon="5.61452">
        <ele>1749.1</ele>
        <time>2010-01-01T00:00:00Z</time>
      </trkpt>
      <trkpt lat="45.09563" lon="5.61454">
        <ele>1749.5</ele>
        <time>2010-01-01T00:00:00Z</time>
      </trkpt>
      <trkpt lat="45.09562" lon="5.61455">
        <ele>1749.7</ele>
        <time>2010-01-01T00:00:00Z</time>
      </trkpt>
      <trkpt lat="45.09562" lon="5.61457">
        <ele>1750</ele>
        <time>2010-01-01T00:00:00Z</time>
      </trkpt>
      <trkpt lat="45.09562" lon="5.61462">
        <ele>1750.7</ele>
        <time>2010-01-01T00:00:00Z</time>
      </trkpt>
      <trkpt lat="45.09562" lon="5.61465">
        <ele>1751.2</ele>
        <time>2010-01-01T00:00:00Z</time>
      </trkpt>
      <trkpt lat="45.0956" lon="5.61469">
        <ele>1751.8</ele>
        <time>2010-01-01T00:00:00Z</time>
      </trkpt>
      <trkpt lat="45.0956" lon="5.61471">
        <ele>1752</ele>
        <time>2010-01-01T00:00:00Z</time>
      </trkpt>
      <trkpt lat="45.09562" lon="5.61474">
        <ele>1752.4</ele>
        <time>2010-01-01T00:00:00Z</time>
      </trkpt>
      <trkpt lat="45.09563" lon="5.61477">
        <ele>1752.8</ele>
        <time>2010-01-01T00:00:00Z</time>
      </trkpt>
      <trkpt lat="45.09563" lon="5.6148">
        <ele>1753.2</ele>
        <time>2010-01-01T00:00:00Z</time>
      </trkpt>
      <trkpt lat="45.09561" lon="5.61482">
        <ele>1753.3</ele>
        <time>2010-01-01T00:00:00Z</time>
      </trkpt>
      <trkpt lat="45.09559" lon="5.61485">
        <ele>1753.6</ele>
        <time>2010-01-01T00:00:00Z</time>
      </trkpt>
      <trkpt lat="45.09557" lon="5.61487">
        <ele>1753.8</ele>
        <time>2010-01-01T00:00:00Z</time>
      </trkpt>
      <trkpt lat="45.09557" lon="5.61489">
        <ele>1753.9</ele>
        <time>2010-01-01T00:00:00Z</time>
      </trkpt>
      <trkpt lat="45.09555" lon="5.61492">
        <ele>1754.1</ele>
        <time>2010-01-01T00:00:00Z</time>
      </trkpt>
      <trkpt lat="45.09554" lon="5.61495">
        <ele>1754.3</ele>
        <time>2010-01-01T00:00:00Z</time>
      </trkpt>
      <trkpt lat="45.09553" lon="5.61498">
        <ele>1754.4</ele>
        <time>2010-01-01T00:00:00Z</time>
      </trkpt>
      <trkpt lat="45.09553" lon="5.615">
        <ele>1767.3</ele>
        <time>2010-01-01T00:00:00Z</time>
      </trkpt>
      <trkpt lat="45.09551" lon="5.61501">
        <ele>1767.5</ele>
        <time>2010-01-01T00:00:00Z</time>
      </trkpt>
      <trkpt lat="45.09543" lon="5.61506">
        <ele>1768.5</ele>
        <time>2010-01-01T00:00:00Z</time>
      </trkpt>
      <trkpt lat="45.09541" lon="5.61507">
        <ele>1768.7</ele>
        <time>2010-01-01T00:00:00Z</time>
      </trkpt>
      <trkpt lat="45.0954" lon="5.6151">
        <ele>1769</ele>
        <time>2010-01-01T00:00:00Z</time>
      </trkpt>
      <trkpt lat="45.09538" lon="5.61512">
        <ele>1769.2</ele>
        <time>2010-01-01T00:00:00Z</time>
      </trkpt>
      <trkpt lat="45.09537" lon="5.61515">
        <ele>1769.5</ele>
        <time>2010-01-01T00:00:00Z</time>
      </trkpt>
      <trkpt lat="45.09535" lon="5.6152">
        <ele>1770.1</ele>
        <time>2010-01-01T00:00:00Z</time>
      </trkpt>
      <trkpt lat="45.09533" lon="5.61522">
        <ele>1770.4</ele>
        <time>2010-01-01T00:00:00Z</time>
      </trkpt>
      <trkpt lat="45.09531" lon="5.61522">
        <ele>1770.4</ele>
        <time>2010-01-01T00:00:00Z</time>
      </trkpt>
      <trkpt lat="45.09529" lon="5.61523">
        <ele>1770.5</ele>
        <time>2010-01-01T00:00:00Z</time>
      </trkpt>
      <trkpt lat="45.09527" lon="5.61526">
        <ele>1770.9</ele>
        <time>2010-01-01T00:00:00Z</time>
      </trkpt>
      <trkpt lat="45.09525" lon="5.6153">
        <ele>1771.5</ele>
        <time>2010-01-01T00:00:00Z</time>
      </trkpt>
      <trkpt lat="45.09523" lon="5.61532">
        <ele>1771.8</ele>
        <time>2010-01-01T00:00:00Z</time>
      </trkpt>
      <trkpt lat="45.0952" lon="5.61533">
        <ele>1772</ele>
        <time>2010-01-01T00:00:00Z</time>
      </trkpt>
      <trkpt lat="45.09518" lon="5.61535">
        <ele>1772.3</ele>
        <time>2010-01-01T00:00:00Z</time>
      </trkpt>
      <trkpt lat="45.09516" lon="5.61537">
        <ele>1772.7</ele>
        <time>2010-01-01T00:00:00Z</time>
      </trkpt>
      <trkpt lat="45.09513" lon="5.61539">
        <ele>1773.1</ele>
        <time>2010-01-01T00:00:00Z</time>
      </trkpt>
      <trkpt lat="45.09511" lon="5.61541">
        <ele>1773.5</ele>
        <time>2010-01-01T00:00:00Z</time>
      </trkpt>
      <trkpt lat="45.09508" lon="5.61543">
        <ele>1774</ele>
        <time>2010-01-01T00:00:00Z</time>
      </trkpt>
      <trkpt lat="45.09505" lon="5.61545">
        <ele>1774.4</ele>
        <time>2010-01-01T00:00:00Z</time>
      </trkpt>
      <trkpt lat="45.09503" lon="5.61545">
        <ele>1774.5</ele>
        <time>2010-01-01T00:00:00Z</time>
      </trkpt>
      <trkpt lat="45.095" lon="5.61547">
        <ele>1778.7</ele>
        <time>2010-01-01T00:00:00Z</time>
      </trkpt>
      <trkpt lat="45.09496" lon="5.61549">
        <ele>1779.2</ele>
        <time>2010-01-01T00:00:00Z</time>
      </trkpt>
      <trkpt lat="45.09491" lon="5.6155">
        <ele>1779.4</ele>
        <time>2010-01-01T00:00:00Z</time>
      </trkpt>
      <trkpt lat="45.09487" lon="5.6155">
        <ele>1779.4</ele>
        <time>2010-01-01T00:00:00Z</time>
      </trkpt>
      <trkpt lat="45.09483" lon="5.61551">
        <ele>1779.6</ele>
        <time>2010-01-01T00:00:00Z</time>
      </trkpt>
      <trkpt lat="45.09481" lon="5.61551">
        <ele>1779.6</ele>
        <time>2010-01-01T00:00:00Z</time>
      </trkpt>
      <trkpt lat="45.09479" lon="5.61553">
        <ele>1780</ele>
        <time>2010-01-01T00:00:00Z</time>
      </trkpt>
      <trkpt lat="45.09478" lon="5.61557">
        <ele>1780.5</ele>
        <time>2010-01-01T00:00:00Z</time>
      </trkpt>
      <trkpt lat="45.09478" lon="5.6156">
        <ele>1780.9</ele>
        <time>2010-01-01T00:00:00Z</time>
      </trkpt>
      <trkpt lat="45.09478" lon="5.61564">
        <ele>1781.5</ele>
        <time>2010-01-01T00:00:00Z</time>
      </trkpt>
      <trkpt lat="45.09478" lon="5.61567">
        <ele>1781.8</ele>
        <time>2010-01-01T00:00:00Z</time>
      </trkpt>
      <trkpt lat="45.09478" lon="5.6157">
        <ele>1782.1</ele>
        <time>2010-01-01T00:00:00Z</time>
      </trkpt>
      <trkpt lat="45.09475" lon="5.61573">
        <ele>1782.3</ele>
        <time>2010-01-01T00:00:00Z</time>
      </trkpt>
      <trkpt lat="45.09473" lon="5.61575">
        <ele>1782.4</ele>
        <time>2010-01-01T00:00:00Z</time>
      </trkpt>
      <trkpt lat="45.09471" lon="5.61577">
        <ele>1782.5</ele>
        <time>2010-01-01T00:00:00Z</time>
      </trkpt>
      <trkpt lat="45.09469" lon="5.61579">
        <ele>1782.6</ele>
        <time>2010-01-01T00:00:00Z</time>
      </trkpt>
      <trkpt lat="45.09465" lon="5.61583">
        <ele>1782.8</ele>
        <time>2010-01-01T00:00:00Z</time>
      </trkpt>
      <trkpt lat="45.09461" lon="5.61587">
        <ele>1795.1</ele>
        <time>2010-01-01T00:00:00Z</time>
      </trkpt>
      <trkpt lat="45.09458" lon="5.6159">
        <ele>1795.4</ele>
        <time>2010-01-01T00:00:00Z</time>
      </trkpt>
      <trkpt lat="45.09455" lon="5.6159">
        <ele>1795.5</ele>
        <time>2010-01-01T00:00:00Z</time>
      </trkpt>
      <trkpt lat="45.09451" lon="5.6159">
        <ele>1795.5</ele>
        <time>2010-01-01T00:00:00Z</time>
      </trkpt>
      <trkpt lat="45.09448" lon="5.61588">
        <ele>1795.4</ele>
        <time>2010-01-01T00:00:00Z</time>
      </trkpt>
      <trkpt lat="45.09445" lon="5.61589">
        <ele>1795.5</ele>
        <time>2010-01-01T00:00:00Z</time>
      </trkpt>
      <trkpt lat="45.09439" lon="5.61591">
        <ele>1795.4</ele>
        <time>2010-01-01T00:00:00Z</time>
      </trkpt>
      <trkpt lat="45.09436" lon="5.61592">
        <ele>1795.3</ele>
        <time>2010-01-01T00:00:00Z</time>
      </trkpt>
      <trkpt lat="45.09433" lon="5.61596">
        <ele>1795.5</ele>
        <time>2010-01-01T00:00:00Z</time>
      </trkpt>
      <trkpt lat="45.09429" lon="5.61598">
        <ele>1795.5</ele>
        <time>2010-01-01T00:00:00Z</time>
      </trkpt>
      <trkpt lat="45.09426" lon="5.61601">
        <ele>1795.7</ele>
        <time>2010-01-01T00:00:00Z</time>
      </trkpt>
      <trkpt lat="45.09422" lon="5.61604">
        <ele>1796</ele>
        <time>2010-01-01T00:00:00Z</time>
      </trkpt>
      <trkpt lat="45.09418" lon="5.61609">
        <ele>1796.7</ele>
        <time>2010-01-01T00:00:00Z</time>
      </trkpt>
      <trkpt lat="45.09414" lon="5.61611">
        <ele>1798.2</ele>
        <time>2010-01-01T00:00:00Z</time>
      </trkpt>
      <trkpt lat="45.09412" lon="5.61612">
        <ele>1798.4</ele>
        <time>2010-01-01T00:00:00Z</time>
      </trkpt>
      <trkpt lat="45.0941" lon="5.61617">
        <ele>1799.2</ele>
        <time>2010-01-01T00:00:00Z</time>
      </trkpt>
      <trkpt lat="45.09408" lon="5.61622">
        <ele>1799.9</ele>
        <time>2010-01-01T00:00:00Z</time>
      </trkpt>
      <trkpt lat="45.09401" lon="5.61631">
        <ele>1801.1</ele>
        <time>2010-01-01T00:00:00Z</time>
      </trkpt>
      <trkpt lat="45.09396" lon="5.61635">
        <ele>1801.6</ele>
        <time>2010-01-01T00:00:00Z</time>
      </trkpt>
      <trkpt lat="45.09392" lon="5.61641">
        <ele>1802.2</ele>
        <time>2010-01-01T00:00:00Z</time>
      </trkpt>
      <trkpt lat="45.09391" lon="5.61644">
        <ele>1802.5</ele>
        <time>2010-01-01T00:00:00Z</time>
      </trkpt>
      <trkpt lat="45.09389" lon="5.61649">
        <ele>1802.9</ele>
        <time>2010-01-01T00:00:00Z</time>
      </trkpt>
      <trkpt lat="45.09386" lon="5.61656">
        <ele>1803.3</ele>
        <time>2010-01-01T00:00:00Z</time>
      </trkpt>
      <trkpt lat="45.09382" lon="5.6166">
        <ele>1803.5</ele>
        <time>2010-01-01T00:00:00Z</time>
      </trkpt>
      <trkpt lat="45.0938" lon="5.61663">
        <ele>1803.6</ele>
        <time>2010-01-01T00:00:00Z</time>
      </trkpt>
      <trkpt lat="45.09376" lon="5.61665">
        <ele>1803.7</ele>
        <time>2010-01-01T00:00:00Z</time>
      </trkpt>
      <trkpt lat="45.09372" lon="5.61667">
        <ele>1817.9</ele>
        <time>2010-01-01T00:00:00Z</time>
      </trkpt>
      <trkpt lat="45.09369" lon="5.61667">
        <ele>1817.8</ele>
        <time>2010-01-01T00:00:00Z</time>
      </trkpt>
      <trkpt lat="45.09366" lon="5.61666">
        <ele>1804.1</ele>
        <time>2010-01-01T00:00:00Z</time>
      </trkpt>
      <trkpt lat="45.09362" lon="5.61667">
        <ele>1817.5</ele>
        <time>2010-01-01T00:00:00Z</time>
      </trkpt>
      <trkpt lat="45.09359" lon="5.61667">
        <ele>1817.2</ele>
        <time>2010-01-01T00:00:00Z</time>
      </trkpt>
      <trkpt lat="45.09356" lon="5.61668">
        <ele>1817</ele>
        <time>2010-01-01T00:00:00Z</time>
      </trkpt>
      <trkpt lat="45.09353" lon="5.6167">
        <ele>1816.7</ele>
        <time>2010-01-01T00:00:00Z</time>
      </trkpt>
      <trkpt lat="45.09349" lon="5.6167">
        <ele>1815.9</ele>
        <time>2010-01-01T00:00:00Z</time>
      </trkpt>
      <trkpt lat="45.09346" lon="5.61671">
        <ele>1815.3</ele>
        <time>2010-01-01T00:00:00Z</time>
      </trkpt>
      <trkpt lat="45.09344" lon="5.61673">
        <ele>1815.2</ele>
        <time>2010-01-01T00:00:00Z</time>
      </trkpt>
      <trkpt lat="45.09343" lon="5.61675">
        <ele>1815.4</ele>
        <time>2010-01-01T00:00:00Z</time>
      </trkpt>
      <trkpt lat="45.09341" lon="5.61677">
        <ele>1815.6</ele>
        <time>2010-01-01T00:00:00Z</time>
      </trkpt>
      <trkpt lat="45.09338" lon="5.61678">
        <ele>1815.4</ele>
        <time>2010-01-01T00:00:00Z</time>
      </trkpt>
      <trkpt lat="45.09335" lon="5.61678">
        <ele>1815.2</ele>
        <time>2010-01-01T00:00:00Z</time>
      </trkpt>
      <trkpt lat="45.0933" lon="5.6168">
        <ele>1817.8</ele>
        <time>2010-01-01T00:00:00Z</time>
      </trkpt>
      <trkpt lat="45.09327" lon="5.61682">
        <ele>1819</ele>
        <time>2010-01-01T00:00:00Z</time>
      </trkpt>
      <trkpt lat="45.09327" lon="5.61685">
        <ele>1820.1</ele>
        <time>2010-01-01T00:00:00Z</time>
      </trkpt>
      <trkpt lat="45.09328" lon="5.61687">
        <ele>1820.7</ele>
        <time>2010-01-01T00:00:00Z</time>
      </trkpt>
      <trkpt lat="45.0933" lon="5.61687">
        <ele>1820.6</ele>
        <time>2010-01-01T00:00:00Z</time>
      </trkpt>
      <trkpt lat="45.09332" lon="5.61687">
        <ele>1820.5</ele>
        <time>2010-01-01T00:00:00Z</time>
      </trkpt>
      <trkpt lat="45.09333" lon="5.61689">
        <ele>1821.2</ele>
        <time>2010-01-01T00:00:00Z</time>
      </trkpt>
      <trkpt lat="45.09333" lon="5.61691">
        <ele>1821.9</ele>
        <time>2010-01-01T00:00:00Z</time>
      </trkpt>
      <trkpt lat="45.09331" lon="5.61693">
        <ele>1822.7</ele>
        <time>2010-01-01T00:00:00Z</time>
      </trkpt>
      <trkpt lat="45.09328" lon="5.61693">
        <ele>1822.8</ele>
        <time>2010-01-01T00:00:00Z</time>
      </trkpt>
      <trkpt lat="45.09324" lon="5.61692">
        <ele>1822.7</ele>
        <time>2010-01-01T00:00:00Z</time>
      </trkpt>
      <trkpt lat="45.09321" lon="5.61692">
        <ele>1822.9</ele>
        <time>2010-01-01T00:00:00Z</time>
      </trkpt>
      <trkpt lat="45.0932" lon="5.61694">
        <ele>1823.6</ele>
        <time>2010-01-01T00:00:00Z</time>
      </trkpt>
      <trkpt lat="45.09319" lon="5.61697">
        <ele>1824.5</ele>
        <time>2010-01-01T00:00:00Z</time>
      </trkpt>
      <trkpt lat="45.09319" lon="5.617">
        <ele>1825.3</ele>
        <time>2010-01-01T00:00:00Z</time>
      </trkpt>
      <trkpt lat="45.09317" lon="5.61704">
        <ele>1826.5</ele>
        <time>2010-01-01T00:00:00Z</time>
      </trkpt>
      <trkpt lat="45.09315" lon="5.61705">
        <ele>1826.8</ele>
        <time>2010-01-01T00:00:00Z</time>
      </trkpt>
      <trkpt lat="45.09312" lon="5.61706">
        <ele>1827.1</ele>
        <time>2010-01-01T00:00:00Z</time>
      </trkpt>
      <trkpt lat="45.09309" lon="5.61706">
        <ele>1827.2</ele>
        <time>2010-01-01T00:00:00Z</time>
      </trkpt>
      <trkpt lat="45.09304" lon="5.61706">
        <ele>1827.3</ele>
        <time>2010-01-01T00:00:00Z</time>
      </trkpt>
      <trkpt lat="45.093" lon="5.61705">
        <ele>1827.2</ele>
        <time>2010-01-01T00:00:00Z</time>
      </trkpt>
      <trkpt lat="45.09299" lon="5.61705">
        <ele>1827.2</ele>
        <time>2010-01-01T00:00:00Z</time>
      </trkpt>
      <trkpt lat="45.09297" lon="5.61706">
        <ele>1827.4</ele>
        <time>2010-01-01T00:00:00Z</time>
      </trkpt>
      <trkpt lat="45.09292" lon="5.61707">
        <ele>1827.7</ele>
        <time>2010-01-01T00:00:00Z</time>
      </trkpt>
      <trkpt lat="45.0929" lon="5.61707">
        <ele>1827.8</ele>
        <time>2010-01-01T00:00:00Z</time>
      </trkpt>
      <trkpt lat="45.09287" lon="5.61708">
        <ele>1828</ele>
        <time>2010-01-01T00:00:00Z</time>
      </trkpt>
      <trkpt lat="45.09287" lon="5.61709">
        <ele>1828.2</ele>
        <time>2010-01-01T00:00:00Z</time>
      </trkpt>
      <trkpt lat="45.09285" lon="5.6171">
        <ele>1828.5</ele>
        <time>2010-01-01T00:00:00Z</time>
      </trkpt>
      <trkpt lat="45.09284" lon="5.61711">
        <ele>1828.7</ele>
        <time>2010-01-01T00:00:00Z</time>
      </trkpt>
      <trkpt lat="45.09283" lon="5.61714">
        <ele>1829.3</ele>
        <time>2010-01-01T00:00:00Z</time>
      </trkpt>
      <trkpt lat="45.09281" lon="5.61716">
        <ele>1829.8</ele>
        <time>2010-01-01T00:00:00Z</time>
      </trkpt>
      <trkpt lat="45.09279" lon="5.61718">
        <ele>1830.3</ele>
        <time>2010-01-01T00:00:00Z</time>
      </trkpt>
      <trkpt lat="45.09275" lon="5.61721">
        <ele>1831.2</ele>
        <time>2010-01-01T00:00:00Z</time>
      </trkpt>
      <trkpt lat="45.09274" lon="5.61723">
        <ele>1831.7</ele>
        <time>2010-01-01T00:00:00Z</time>
      </trkpt>
      <trkpt lat="45.09275" lon="5.61727">
        <ele>1832.5</ele>
        <time>2010-01-01T00:00:00Z</time>
      </trkpt>
      <trkpt lat="45.09274" lon="5.61729">
        <ele>1833</ele>
        <time>2010-01-01T00:00:00Z</time>
      </trkpt>
      <trkpt lat="45.0927" lon="5.61739">
        <ele>1835.6</ele>
        <time>2010-01-01T00:00:00Z</time>
      </trkpt>
      <trkpt lat="45.09266" lon="5.61748">
        <ele>1838</ele>
        <time>2010-01-01T00:00:00Z</time>
      </trkpt>
      <trkpt lat="45.09264" lon="5.61757">
        <ele>1852.2</ele>
        <time>2010-01-01T00:00:00Z</time>
      </trkpt>
      <trkpt lat="45.0926" lon="5.61759">
        <ele>1851.8</ele>
        <time>2010-01-01T00:00:00Z</time>
      </trkpt>
      <trkpt lat="45.09255" lon="5.61762">
        <ele>1851.8</ele>
        <time>2010-01-01T00:00:00Z</time>
      </trkpt>
      <trkpt lat="45.09251" lon="5.61762">
        <ele>1851.5</ele>
        <time>2010-01-01T00:00:00Z</time>
      </trkpt>
      <trkpt lat="45.09246" lon="5.61764">
        <ele>1849.8</ele>
        <time>2010-01-01T00:00:00Z</time>
      </trkpt>
      <trkpt lat="45.09238" lon="5.61767">
        <ele>1850.7</ele>
        <time>2010-01-01T00:00:00Z</time>
      </trkpt>
      <trkpt lat="45.09228" lon="5.61771">
        <ele>1851.5</ele>
        <time>2010-01-01T00:00:00Z</time>
      </trkpt>
      <trkpt lat="45.09217" lon="5.61776">
        <ele>1851.8</ele>
        <time>2010-01-01T00:00:00Z</time>
      </trkpt>
      <trkpt lat="45.09213" lon="5.61778">
        <ele>1851.8</ele>
        <time>2010-01-01T00:00:00Z</time>
      </trkpt>
      <trkpt lat="45.09204" lon="5.61782">
        <ele>1851.7</ele>
        <time>2010-01-01T00:00:00Z</time>
      </trkpt>
      <trkpt lat="45.09204" lon="5.61783">
        <ele>1851.8</ele>
        <time>2010-01-01T00:00:00Z</time>
      </trkpt>
      <trkpt lat="45.09204" lon="5.61783">
        <ele>1851.8</ele>
        <time>2010-01-01T00:00:00Z</time>
      </trkpt>
      <trkpt lat="45.09199" lon="5.61786">
        <ele>1851.9</ele>
        <time>2010-01-01T00:00:00Z</time>
      </trkpt>
      <trkpt lat="45.09197" lon="5.61793">
        <ele>1853</ele>
        <time>2010-01-01T00:00:00Z</time>
      </trkpt>
      <trkpt lat="45.0919" lon="5.6181">
        <ele>1855.6</ele>
        <time>2010-01-01T00:00:00Z</time>
      </trkpt>
      <trkpt lat="45.09182" lon="5.61826">
        <ele>1857.9</ele>
        <time>2010-01-01T00:00:00Z</time>
      </trkpt>
      <trkpt lat="45.09176" lon="5.61839">
        <ele>1867</ele>
        <time>2010-01-01T00:00:00Z</time>
      </trkpt>
      <trkpt lat="45.09171" lon="5.61846">
        <ele>1868</ele>
        <time>2010-01-01T00:00:00Z</time>
      </trkpt>
      <trkpt lat="45.09167" lon="5.61851">
        <ele>1869.5</ele>
        <time>2010-01-01T00:00:00Z</time>
      </trkpt>
      <trkpt lat="45.09165" lon="5.61853">
        <ele>1868.6</ele>
        <time>2010-01-01T00:00:00Z</time>
      </trkpt>
      <trkpt lat="45.09164" lon="5.61856">
        <ele>1869.4</ele>
        <time>2010-01-01T00:00:00Z</time>
      </trkpt>
      <trkpt lat="45.09164" lon="5.6186">
        <ele>1870.4</ele>
        <time>2010-01-01T00:00:00Z</time>
      </trkpt>
      <trkpt lat="45.09163" lon="5.61865">
        <ele>1871.6</ele>
        <time>2010-01-01T00:00:00Z</time>
      </trkpt>
      <trkpt lat="45.09161" lon="5.61868">
        <ele>1872.3</ele>
        <time>2010-01-01T00:00:00Z</time>
      </trkpt>
      <trkpt lat="45.0916" lon="5.61871">
        <ele>1873</ele>
        <time>2010-01-01T00:00:00Z</time>
      </trkpt>
      <trkpt lat="45.09158" lon="5.61874">
        <ele>1873.6</ele>
        <time>2010-01-01T00:00:00Z</time>
      </trkpt>
      <trkpt lat="45.09157" lon="5.61877">
        <ele>1874.2</ele>
        <time>2010-01-01T00:00:00Z</time>
      </trkpt>
      <trkpt lat="45.09157" lon="5.6188">
        <ele>1874.8</ele>
        <time>2010-01-01T00:00:00Z</time>
      </trkpt>
      <trkpt lat="45.09158" lon="5.61882">
        <ele>1875.2</ele>
        <time>2010-01-01T00:00:00Z</time>
      </trkpt>
      <trkpt lat="45.09159" lon="5.61886">
        <ele>1875.9</ele>
        <time>2010-01-01T00:00:00Z</time>
      </trkpt>
      <trkpt lat="45.09159" lon="5.61889">
        <ele>1876.4</ele>
        <time>2010-01-01T00:00:00Z</time>
      </trkpt>
      <trkpt lat="45.09158" lon="5.61892">
        <ele>1877</ele>
        <time>2010-01-01T00:00:00Z</time>
      </trkpt>
      <trkpt lat="45.09157" lon="5.61894">
        <ele>1877.3</ele>
        <time>2010-01-01T00:00:00Z</time>
      </trkpt>
      <trkpt lat="45.09157" lon="5.61897">
        <ele>1877.8</ele>
        <time>2010-01-01T00:00:00Z</time>
      </trkpt>
      <trkpt lat="45.09157" lon="5.619">
        <ele>1878.3</ele>
        <time>2010-01-01T00:00:00Z</time>
      </trkpt>
      <trkpt lat="45.09157" lon="5.61902">
        <ele>1878.6</ele>
        <time>2010-01-01T00:00:00Z</time>
      </trkpt>
      <trkpt lat="45.09158" lon="5.61905">
        <ele>1879.1</ele>
        <time>2010-01-01T00:00:00Z</time>
      </trkpt>
      <trkpt lat="45.09159" lon="5.61908">
        <ele>1879.6</ele>
        <time>2010-01-01T00:00:00Z</time>
      </trkpt>
      <trkpt lat="45.09158" lon="5.6191">
        <ele>1879.8</ele>
        <time>2010-01-01T00:00:00Z</time>
      </trkpt>
      <trkpt lat="45.09156" lon="5.61911">
        <ele>1879.7</ele>
        <time>2010-01-01T00:00:00Z</time>
      </trkpt>
      <trkpt lat="45.09155" lon="5.61912">
        <ele>1879.7</ele>
        <time>2010-01-01T00:00:00Z</time>
      </trkpt>
      <trkpt lat="45.09156" lon="5.61914">
        <ele>1880</ele>
        <time>2010-01-01T00:00:00Z</time>
      </trkpt>
      <trkpt lat="45.09161" lon="5.6192">
        <ele>1886.2</ele>
        <time>2010-01-01T00:00:00Z</time>
      </trkpt>
      <trkpt lat="45.09162" lon="5.61921">
        <ele>1886.1</ele>
        <time>2010-01-01T00:00:00Z</time>
      </trkpt>
      <trkpt lat="45.09161" lon="5.61922">
        <ele>1886.9</ele>
        <time>2010-01-01T00:00:00Z</time>
      </trkpt>
      <trkpt lat="45.09159" lon="5.61923">
        <ele>1888</ele>
        <time>2010-01-01T00:00:00Z</time>
      </trkpt>
      <trkpt lat="45.09158" lon="5.61924">
        <ele>1888.7</ele>
        <time>2010-01-01T00:00:00Z</time>
      </trkpt>
      <trkpt lat="45.09158" lon="5.61924">
        <ele>1888.7</ele>
        <time>2010-01-01T00:00:00Z</time>
      </trkpt>
      <trkpt lat="45.09153" lon="5.61928">
        <ele>1891.3</ele>
        <time>2010-01-01T00:00:00Z</time>
      </trkpt>
      <trkpt lat="45.09145" lon="5.61935">
        <ele>1894.6</ele>
        <time>2010-01-01T00:00:00Z</time>
      </trkpt>
      <trkpt lat="45.09136" lon="5.61938">
        <ele>1896.6</ele>
        <time>2010-01-01T00:00:00Z</time>
      </trkpt>
      <trkpt lat="45.09125" lon="5.61943">
        <ele>1898.8</ele>
        <time>2010-01-01T00:00:00Z</time>
      </trkpt>
      <trkpt lat="45.0912" lon="5.61946">
        <ele>1899.7</ele>
        <time>2010-01-01T00:00:00Z</time>
      </trkpt>
      <trkpt lat="45.09118" lon="5.61948">
        <ele>1900.2</ele>
        <time>2010-01-01T00:00:00Z</time>
      </trkpt>
      <trkpt lat="45.09114" lon="5.61949">
        <ele>1900.7</ele>
        <time>2010-01-01T00:00:00Z</time>
      </trkpt>
      <trkpt lat="45.09105" lon="5.6195">
        <ele>1901.6</ele>
        <time>2010-01-01T00:00:00Z</time>
      </trkpt>
      <trkpt lat="45.09096" lon="5.6195">
        <ele>1902.2</ele>
        <time>2010-01-01T00:00:00Z</time>
      </trkpt>
      <trkpt lat="45.09096" lon="5.61954">
        <ele>1903</ele>
        <time>2010-01-01T00:00:00Z</time>
      </trkpt>
      <trkpt lat="45.09098" lon="5.61962">
        <ele>1904.5</ele>
        <time>2010-01-01T00:00:00Z</time>
      </trkpt>
      <trkpt lat="45.09098" lon="5.61967">
        <ele>1905.7</ele>
        <time>2010-01-01T00:00:00Z</time>
      </trkpt>
      <trkpt lat="45.09098" lon="5.61969">
        <ele>1906.2</ele>
        <time>2010-01-01T00:00:00Z</time>
      </trkpt>
      <trkpt lat="45.09099" lon="5.61973">
        <ele>1907.2</ele>
        <time>2010-01-01T00:00:00Z</time>
      </trkpt>
      <trkpt lat="45.091" lon="5.61977">
        <ele>1908.1</ele>
        <time>2010-01-01T00:00:00Z</time>
      </trkpt>
      <trkpt lat="45.091" lon="5.61979">
        <ele>1908.6</ele>
        <time>2010-01-01T00:00:00Z</time>
      </trkpt>
      <trkpt lat="45.09096" lon="5.61983">
        <ele>1910.9</ele>
        <time>2010-01-01T00:00:00Z</time>
      </trkpt>
      <trkpt lat="45.09091" lon="5.61987">
        <ele>1913.8</ele>
        <time>2010-01-01T00:00:00Z</time>
      </trkpt>
      <trkpt lat="45.09086" lon="5.6199">
        <ele>1916.7</ele>
        <time>2010-01-01T00:00:00Z</time>
      </trkpt>
      <trkpt lat="45.09078" lon="5.61993">
        <ele>1924.3</ele>
        <time>2010-01-01T00:00:00Z</time>
      </trkpt>
      <trkpt lat="45.09076" lon="5.61993">
        <ele>1924.3</ele>
        <time>2010-01-01T00:00:00Z</time>
      </trkpt>
      <trkpt lat="45.09074" lon="5.61993">
        <ele>1924.3</ele>
        <time>2010-01-01T00:00:00Z</time>
      </trkpt>
      <trkpt lat="45.09073" lon="5.61994">
        <ele>1924.3</ele>
        <time>2010-01-01T00:00:00Z</time>
      </trkpt>
      <trkpt lat="45.09072" lon="5.61996">
        <ele>1924.4</ele>
        <time>2010-01-01T00:00:00Z</time>
      </trkpt>
      <trkpt lat="45.09071" lon="5.62">
        <ele>1921.7</ele>
        <time>2010-01-01T00:00:00Z</time>
      </trkpt>
      <trkpt lat="45.0907" lon="5.62002">
        <ele>1921.4</ele>
        <time>2010-01-01T00:00:00Z</time>
      </trkpt>
      <trkpt lat="45.09068" lon="5.62001">
        <ele>1921.1</ele>
        <time>2010-01-01T00:00:00Z</time>
      </trkpt>
      <trkpt lat="45.09066" lon="5.61999">
        <ele>1924.7</ele>
        <time>2010-01-01T00:00:00Z</time>
      </trkpt>
      <trkpt lat="45.09064" lon="5.61996">
        <ele>1924.7</ele>
        <time>2010-01-01T00:00:00Z</time>
      </trkpt>
      <trkpt lat="45.09062" lon="5.61995">
        <ele>1924.8</ele>
        <time>2010-01-01T00:00:00Z</time>
      </trkpt>
      <trkpt lat="45.0906" lon="5.61994">
        <ele>1924.9</ele>
        <time>2010-01-01T00:00:00Z</time>
      </trkpt>
      <trkpt lat="45.09058" lon="5.61996">
        <ele>1925.2</ele>
        <time>2010-01-01T00:00:00Z</time>
      </trkpt>
      <trkpt lat="45.09057" lon="5.61998">
        <ele>1925.4</ele>
        <time>2010-01-01T00:00:00Z</time>
      </trkpt>
      <trkpt lat="45.09057" lon="5.62">
        <ele>1920</ele>
        <time>2010-01-01T00:00:00Z</time>
      </trkpt>
      <trkpt lat="45.09053" lon="5.62002">
        <ele>1919.7</ele>
        <time>2010-01-01T00:00:00Z</time>
      </trkpt>
      <trkpt lat="45.09047" lon="5.62003">
        <ele>1919.7</ele>
        <time>2010-01-01T00:00:00Z</time>
      </trkpt>
      <trkpt lat="45.09039" lon="5.62004">
        <ele>1920.2</ele>
        <time>2010-01-01T00:00:00Z</time>
      </trkpt>
      <trkpt lat="45.09027" lon="5.62004">
        <ele>1922.9</ele>
        <time>2010-01-01T00:00:00Z</time>
      </trkpt>
      <trkpt lat="45.09019" lon="5.61999">
        <ele>1934.2</ele>
        <time>2010-01-01T00:00:00Z</time>
      </trkpt>
      <trkpt lat="45.09015" lon="5.61998">
        <ele>1935.9</ele>
        <time>2010-01-01T00:00:00Z</time>
      </trkpt>
      <trkpt lat="45.09009" lon="5.61994">
        <ele>1938</ele>
        <time>2010-01-01T00:00:00Z</time>
      </trkpt>
      <trkpt lat="45.09001" lon="5.61987">
        <ele>1936.9</ele>
        <time>2010-01-01T00:00:00Z</time>
      </trkpt>
      <trkpt lat="45.08994" lon="5.61981">
        <ele>1927.4</ele>
        <time>2010-01-01T00:00:00Z</time>
      </trkpt>
      <trkpt lat="45.08989" lon="5.61978">
        <ele>1924.6</ele>
        <time>2010-01-01T00:00:00Z</time>
      </trkpt>
      <trkpt lat="45.08985" lon="5.61978">
        <ele>1923.2</ele>
        <time>2010-01-01T00:00:00Z</time>
      </trkpt>
      <trkpt lat="45.0898" lon="5.6198">
        <ele>1921.6</ele>
        <time>2010-01-01T00:00:00Z</time>
      </trkpt>
      <trkpt lat="45.08973" lon="5.61981">
        <ele>1918.5</ele>
        <time>2010-01-01T00:00:00Z</time>
      </trkpt>
      <trkpt lat="45.08969" lon="5.61984">
        <ele>1916.6</ele>
        <time>2010-01-01T00:00:00Z</time>
      </trkpt>
      <trkpt lat="45.08967" lon="5.61984">
        <ele>1915.5</ele>
        <time>2010-01-01T00:00:00Z</time>
      </trkpt>
      <trkpt lat="45.08967" lon="5.61984">
        <ele>1915.5</ele>
        <time>2010-01-01T00:00:00Z</time>
      </trkpt>
      <trkpt lat="45.08965" lon="5.61985">
        <ele>1914.4</ele>
        <time>2010-01-01T00:00:00Z</time>
      </trkpt>
      <trkpt lat="45.08963" lon="5.61984">
        <ele>1913.3</ele>
        <time>2010-01-01T00:00:00Z</time>
      </trkpt>
      <trkpt lat="45.08959" lon="5.61981">
        <ele>1911.3</ele>
        <time>2010-01-01T00:00:00Z</time>
      </trkpt>
      <trkpt lat="45.08949" lon="5.61974">
        <ele>1907.5</ele>
        <time>2010-01-01T00:00:00Z</time>
      </trkpt>
      <trkpt lat="45.08939" lon="5.61969">
        <ele>1905</ele>
        <time>2010-01-01T00:00:00Z</time>
      </trkpt>
      <trkpt lat="45.08927" lon="5.61966">
        <ele>1902.8</ele>
        <time>2010-01-01T00:00:00Z</time>
      </trkpt>
      <trkpt lat="45.08921" lon="5.61963">
        <ele>1903.3</ele>
        <time>2010-01-01T00:00:00Z</time>
      </trkpt>
      <trkpt lat="45.08915" lon="5.61958">
        <ele>1862.6</ele>
        <time>2010-01-01T00:00:00Z</time>
      </trkpt>
      <trkpt lat="45.08912" lon="5.61955">
        <ele>1863.8</ele>
        <time>2010-01-01T00:00:00Z</time>
      </trkpt>
      <trkpt lat="45.08908" lon="5.61951">
        <ele>1865.3</ele>
        <time>2010-01-01T00:00:00Z</time>
      </trkpt>
      <trkpt lat="45.08906" lon="5.61947">
        <ele>1867.5</ele>
        <time>2010-01-01T00:00:00Z</time>
      </trkpt>
      <trkpt lat="45.08903" lon="5.61944">
        <ele>1868.4</ele>
        <time>2010-01-01T00:00:00Z</time>
      </trkpt>
      <trkpt lat="45.089" lon="5.6194">
        <ele>1869.8</ele>
        <time>2010-01-01T00:00:00Z</time>
      </trkpt>
      <trkpt lat="45.089" lon="5.61934">
        <ele>1874.9</ele>
        <time>2010-01-01T00:00:00Z</time>
      </trkpt>
      <trkpt lat="45.08898" lon="5.61929">
        <ele>1876.9</ele>
        <time>2010-01-01T00:00:00Z</time>
      </trkpt>
      <trkpt lat="45.08898" lon="5.61929">
        <ele>1876.9</ele>
        <time>2010-01-01T00:00:00Z</time>
      </trkpt>
      <trkpt lat="45.08896" lon="5.61924">
        <ele>1877.6</ele>
        <time>2010-01-01T00:00:00Z</time>
      </trkpt>
      <trkpt lat="45.08893" lon="5.61922">
        <ele>1874.8</ele>
        <time>2010-01-01T00:00:00Z</time>
      </trkpt>
      <trkpt lat="45.08888" lon="5.61913">
        <ele>1897.8</ele>
        <time>2010-01-01T00:00:00Z</time>
      </trkpt>
      <trkpt lat="45.08883" lon="5.61903">
        <ele>1894.7</ele>
        <time>2010-01-01T00:00:00Z</time>
      </trkpt>
      <trkpt lat="45.08882" lon="5.61897">
        <ele>1894.3</ele>
        <time>2010-01-01T00:00:00Z</time>
      </trkpt>
      <trkpt lat="45.08882" lon="5.61894">
        <ele>1894.4</ele>
        <time>2010-01-01T00:00:00Z</time>
      </trkpt>
      <trkpt lat="45.08882" lon="5.61887">
        <ele>1894.9</ele>
        <time>2010-01-01T00:00:00Z</time>
      </trkpt>
      <trkpt lat="45.08881" lon="5.6188">
        <ele>1895.2</ele>
        <time>2010-01-01T00:00:00Z</time>
      </trkpt>
      <trkpt lat="45.08879" lon="5.61874">
        <ele>1895.4</ele>
        <time>2010-01-01T00:00:00Z</time>
      </trkpt>
      <trkpt lat="45.08877" lon="5.61868">
        <ele>1895.8</ele>
        <time>2010-01-01T00:00:00Z</time>
      </trkpt>
      <trkpt lat="45.08872" lon="5.61859">
        <ele>1896.5</ele>
        <time>2010-01-01T00:00:00Z</time>
      </trkpt>
      <trkpt lat="45.08869" lon="5.61857">
        <ele>1896.6</ele>
        <time>2010-01-01T00:00:00Z</time>
      </trkpt>
      <trkpt lat="45.08866" lon="5.61854">
        <ele>1896.9</ele>
        <time>2010-01-01T00:00:00Z</time>
      </trkpt>
      <trkpt lat="45.0886" lon="5.61842">
        <ele>1899.1</ele>
        <time>2010-01-01T00:00:00Z</time>
      </trkpt>
      <trkpt lat="45.08857" lon="5.61836">
        <ele>1900.2</ele>
        <time>2010-01-01T00:00:00Z</time>
      </trkpt>
      <trkpt lat="45.08853" lon="5.61833">
        <ele>1904.9</ele>
        <time>2010-01-01T00:00:00Z</time>
      </trkpt>
      <trkpt lat="45.0885" lon="5.61832">
        <ele>1905.4</ele>
        <time>2010-01-01T00:00:00Z</time>
      </trkpt>
      <trkpt lat="45.08845" lon="5.6183">
        <ele>1906.3</ele>
        <time>2010-01-01T00:00:00Z</time>
      </trkpt>
      <trkpt lat="45.08838" lon="5.61823">
        <ele>1906.4</ele>
        <time>2010-01-01T00:00:00Z</time>
      </trkpt>
      <trkpt lat="45.08836" lon="5.61821">
        <ele>1906.1</ele>
        <time>2010-01-01T00:00:00Z</time>
      </trkpt>
      <trkpt lat="45.08832" lon="5.6182">
        <ele>1899.7</ele>
        <time>2010-01-01T00:00:00Z</time>
      </trkpt>
      <trkpt lat="45.08823" lon="5.61813">
        <ele>1895</ele>
        <time>2010-01-01T00:00:00Z</time>
      </trkpt>
      <trkpt lat="45.08821" lon="5.61812">
        <ele>1894.2</ele>
        <time>2010-01-01T00:00:00Z</time>
      </trkpt>
      <trkpt lat="45.08819" lon="5.61809">
        <ele>1893</ele>
        <time>2010-01-01T00:00:00Z</time>
      </trkpt>
      <trkpt lat="45.08818" lon="5.61805">
        <ele>1892.1</ele>
        <time>2010-01-01T00:00:00Z</time>
      </trkpt>
      <trkpt lat="45.08818" lon="5.61803">
        <ele>1891.9</ele>
        <time>2010-01-01T00:00:00Z</time>
      </trkpt>
      <trkpt lat="45.08817" lon="5.61802">
        <ele>1891.6</ele>
        <time>2010-01-01T00:00:00Z</time>
      </trkpt>
      <trkpt lat="45.08817" lon="5.61801">
        <ele>1891.5</ele>
        <time>2010-01-01T00:00:00Z</time>
      </trkpt>
      <trkpt lat="45.08818" lon="5.61799">
        <ele>1891.5</ele>
        <time>2010-01-01T00:00:00Z</time>
      </trkpt>
      <trkpt lat="45.08817" lon="5.61797">
        <ele>1891.2</ele>
        <time>2010-01-01T00:00:00Z</time>
      </trkpt>
      <trkpt lat="45.08817" lon="5.61794">
        <ele>1891.1</ele>
        <time>2010-01-01T00:00:00Z</time>
      </trkpt>
      <trkpt lat="45.08815" lon="5.61789">
        <ele>1890.7</ele>
        <time>2010-01-01T00:00:00Z</time>
      </trkpt>
      <trkpt lat="45.08813" lon="5.61785">
        <ele>1890.4</ele>
        <time>2010-01-01T00:00:00Z</time>
      </trkpt>
      <trkpt lat="45.08811" lon="5.61784">
        <ele>1890.1</ele>
        <time>2010-01-01T00:00:00Z</time>
      </trkpt>
      <trkpt lat="45.0881" lon="5.61781">
        <ele>1890.1</ele>
        <time>2010-01-01T00:00:00Z</time>
      </trkpt>
      <trkpt lat="45.08808" lon="5.61776">
        <ele>1890.1</ele>
        <time>2010-01-01T00:00:00Z</time>
      </trkpt>
      <trkpt lat="45.08806" lon="5.61771">
        <ele>1890.1</ele>
        <time>2010-01-01T00:00:00Z</time>
      </trkpt>
      <trkpt lat="45.08803" lon="5.61766">
        <ele>1889.9</ele>
        <time>2010-01-01T00:00:00Z</time>
      </trkpt>
      <trkpt lat="45.08801" lon="5.61763">
        <ele>1889.7</ele>
        <time>2010-01-01T00:00:00Z</time>
      </trkpt>
      <trkpt lat="45.08799" lon="5.61761">
        <ele>1889.4</ele>
        <time>2010-01-01T00:00:00Z</time>
      </trkpt>
      <trkpt lat="45.08797" lon="5.61757">
        <ele>1889.3</ele>
        <time>2010-01-01T00:00:00Z</time>
      </trkpt>
      <trkpt lat="45.08794" lon="5.61746">
        <ele>1892.5</ele>
        <time>2010-01-01T00:00:00Z</time>
      </trkpt>
      <trkpt lat="45.08792" lon="5.61742">
        <ele>1892.2</ele>
        <time>2010-01-01T00:00:00Z</time>
      </trkpt>
      <trkpt lat="45.0879" lon="5.61739">
        <ele>1892</ele>
        <time>2010-01-01T00:00:00Z</time>
      </trkpt>
      <trkpt lat="45.08788" lon="5.61736">
        <ele>1891.8</ele>
        <time>2010-01-01T00:00:00Z</time>
      </trkpt>
      <trkpt lat="45.08786" lon="5.61732">
        <ele>1891.6</ele>
        <time>2010-01-01T00:00:00Z</time>
      </trkpt>
      <trkpt lat="45.08785" lon="5.61727">
        <ele>1891.5</ele>
        <time>2010-01-01T00:00:00Z</time>
      </trkpt>
      <trkpt lat="45.08781" lon="5.61717">
        <ele>1891.4</ele>
        <time>2010-01-01T00:00:00Z</time>
      </trkpt>
      <trkpt lat="45.0878" lon="5.61713">
        <ele>1891.4</ele>
        <time>2010-01-01T00:00:00Z</time>
      </trkpt>
      <trkpt lat="45.0878" lon="5.61705">
        <ele>1891.5</ele>
        <time>2010-01-01T00:00:00Z</time>
      </trkpt>
      <trkpt lat="45.08779" lon="5.61702">
        <ele>1891.5</ele>
        <time>2010-01-01T00:00:00Z</time>
      </trkpt>
      <trkpt lat="45.08778" lon="5.61697">
        <ele>1891.6</ele>
        <time>2010-01-01T00:00:00Z</time>
      </trkpt>
      <trkpt lat="45.08776" lon="5.61692">
        <ele>1891.8</ele>
        <time>2010-01-01T00:00:00Z</time>
      </trkpt>
      <trkpt lat="45.08774" lon="5.61687">
        <ele>1892</ele>
        <time>2010-01-01T00:00:00Z</time>
      </trkpt>
      <trkpt lat="45.08764" lon="5.6167">
        <ele>1893.5</ele>
        <time>2010-01-01T00:00:00Z</time>
      </trkpt>
      <trkpt lat="45.08762" lon="5.61666">
        <ele>1890.3</ele>
        <time>2010-01-01T00:00:00Z</time>
      </trkpt>
      <trkpt lat="45.08759" lon="5.61664">
        <ele>1891.3</ele>
        <time>2010-01-01T00:00:00Z</time>
      </trkpt>
      <trkpt lat="45.08754" lon="5.61663">
        <ele>1893</ele>
        <time>2010-01-01T00:00:00Z</time>
      </trkpt>
      <trkpt lat="45.08751" lon="5.61662">
        <ele>1893.4</ele>
        <time>2010-01-01T00:00:00Z</time>
      </trkpt>
      <trkpt lat="45.08747" lon="5.61661">
        <ele>1889.8</ele>
        <time>2010-01-01T00:00:00Z</time>
      </trkpt>
      <trkpt lat="45.08744" lon="5.61661">
        <ele>1888.2</ele>
        <time>2010-01-01T00:00:00Z</time>
      </trkpt>
      <trkpt lat="45.08743" lon="5.61659">
        <ele>1886.7</ele>
        <time>2010-01-01T00:00:00Z</time>
      </trkpt>
      <trkpt lat="45.08742" lon="5.61654">
        <ele>1883.9</ele>
        <time>2010-01-01T00:00:00Z</time>
      </trkpt>
      <trkpt lat="45.08741" lon="5.61649">
        <ele>1881.6</ele>
        <time>2010-01-01T00:00:00Z</time>
      </trkpt>
      <trkpt lat="45.08741" lon="5.61644">
        <ele>1880.1</ele>
        <time>2010-01-01T00:00:00Z</time>
      </trkpt>
      <trkpt lat="45.08741" lon="5.61641">
        <ele>1879.3</ele>
        <time>2010-01-01T00:00:00Z</time>
      </trkpt>
      <trkpt lat="45.08741" lon="5.61641">
        <ele>1879.3</ele>
        <time>2010-01-01T00:00:00Z</time>
      </trkpt>
      <trkpt lat="45.08741" lon="5.6164">
        <ele>1879.1</ele>
        <time>2010-01-01T00:00:00Z</time>
      </trkpt>
      <trkpt lat="45.08741" lon="5.61635">
        <ele>1878.2</ele>
        <time>2010-01-01T00:00:00Z</time>
      </trkpt>
      <trkpt lat="45.08739" lon="5.61627">
        <ele>1877</ele>
        <time>2010-01-01T00:00:00Z</time>
      </trkpt>
      <trkpt lat="45.08736" lon="5.61624">
        <ele>1876.4</ele>
        <time>2010-01-01T00:00:00Z</time>
      </trkpt>
      <trkpt lat="45.08732" lon="5.61622">
        <ele>1875.7</ele>
        <time>2010-01-01T00:00:00Z</time>
      </trkpt>
      <trkpt lat="45.08729" lon="5.61621">
        <ele>1875.2</ele>
        <time>2010-01-01T00:00:00Z</time>
      </trkpt>
      <trkpt lat="45.08726" lon="5.61621">
        <ele>1874.7</ele>
        <time>2010-01-01T00:00:00Z</time>
      </trkpt>
      <trkpt lat="45.08724" lon="5.61619">
        <ele>1874.4</ele>
        <time>2010-01-01T00:00:00Z</time>
      </trkpt>
      <trkpt lat="45.08724" lon="5.61616">
        <ele>1874.5</ele>
        <time>2010-01-01T00:00:00Z</time>
      </trkpt>
      <trkpt lat="45.08724" lon="5.61613">
        <ele>1874.7</ele>
        <time>2010-01-01T00:00:00Z</time>
      </trkpt>
      <trkpt lat="45.08722" lon="5.6161">
        <ele>1874.5</ele>
        <time>2010-01-01T00:00:00Z</time>
      </trkpt>
      <trkpt lat="45.08718" lon="5.61607">
        <ele>1874</ele>
        <time>2010-01-01T00:00:00Z</time>
      </trkpt>
      <trkpt lat="45.08714" lon="5.61608">
        <ele>1873.2</ele>
        <time>2010-01-01T00:00:00Z</time>
      </trkpt>
      <trkpt lat="45.0871" lon="5.61607">
        <ele>1872.6</ele>
        <time>2010-01-01T00:00:00Z</time>
      </trkpt>
      <trkpt lat="45.08706" lon="5.61605">
        <ele>1872.1</ele>
        <time>2010-01-01T00:00:00Z</time>
      </trkpt>
      <trkpt lat="45.08703" lon="5.61603">
        <ele>1871.9</ele>
        <time>2010-01-01T00:00:00Z</time>
      </trkpt>
      <trkpt lat="45.087" lon="5.61601">
        <ele>1871.6</ele>
        <time>2010-01-01T00:00:00Z</time>
      </trkpt>
      <trkpt lat="45.08696" lon="5.61596">
        <ele>1871.6</ele>
        <time>2010-01-01T00:00:00Z</time>
      </trkpt>
      <trkpt lat="45.08692" lon="5.61595">
        <ele>1871.3</ele>
        <time>2010-01-01T00:00:00Z</time>
      </trkpt>
      <trkpt lat="45.08689" lon="5.61595">
        <ele>1871.1</ele>
        <time>2010-01-01T00:00:00Z</time>
      </trkpt>
      <trkpt lat="45.08683" lon="5.61594">
        <ele>1871</ele>
        <time>2010-01-01T00:00:00Z</time>
      </trkpt>
      <trkpt lat="45.08675" lon="5.6159">
        <ele>1871.5</ele>
        <time>2010-01-01T00:00:00Z</time>
      </trkpt>
      <trkpt lat="45.08663" lon="5.61584">
        <ele>1864.1</ele>
        <time>2010-01-01T00:00:00Z</time>
      </trkpt>
      <trkpt lat="45.0866" lon="5.61582">
        <ele>1863.4</ele>
        <time>2010-01-01T00:00:00Z</time>
      </trkpt>
      <trkpt lat="45.08656" lon="5.6158">
        <ele>1858.4</ele>
        <time>2010-01-01T00:00:00Z</time>
      </trkpt>
      <trkpt lat="45.08653" lon="5.61578">
        <ele>1855</ele>
        <time>2010-01-01T00:00:00Z</time>
      </trkpt>
      <trkpt lat="45.0865" lon="5.61578">
        <ele>1852.4</ele>
        <time>2010-01-01T00:00:00Z</time>
      </trkpt>
      <trkpt lat="45.08646" lon="5.61577">
        <ele>1849</ele>
        <time>2010-01-01T00:00:00Z</time>
      </trkpt>
      <trkpt lat="45.08643" lon="5.61575">
        <ele>1846.5</ele>
        <time>2010-01-01T00:00:00Z</time>
      </trkpt>
      <trkpt lat="45.08641" lon="5.61572">
        <ele>1844.6</ele>
        <time>2010-01-01T00:00:00Z</time>
      </trkpt>
      <trkpt lat="45.08641" lon="5.6157">
        <ele>1844.3</ele>
        <time>2010-01-01T00:00:00Z</time>
      </trkpt>
      <trkpt lat="45.0864" lon="5.61568">
        <ele>1843.3</ele>
        <time>2010-01-01T00:00:00Z</time>
      </trkpt>
      <trkpt lat="45.08637" lon="5.61567">
        <ele>1841.5</ele>
        <time>2010-01-01T00:00:00Z</time>
      </trkpt>
      <trkpt lat="45.08634" lon="5.61565">
        <ele>1839.7</ele>
        <time>2010-01-01T00:00:00Z</time>
      </trkpt>
      <trkpt lat="45.08631" lon="5.61563">
        <ele>1838</ele>
        <time>2010-01-01T00:00:00Z</time>
      </trkpt>
      <trkpt lat="45.08629" lon="5.61561">
        <ele>1837</ele>
        <time>2010-01-01T00:00:00Z</time>
      </trkpt>
      <trkpt lat="45.08628" lon="5.61558">
        <ele>1836.5</ele>
        <time>2010-01-01T00:00:00Z</time>
      </trkpt>
      <trkpt lat="45.08627" lon="5.61555">
        <ele>1836.1</ele>
        <time>2010-01-01T00:00:00Z</time>
      </trkpt>
      <trkpt lat="45.08625" lon="5.61552">
        <ele>1835.4</ele>
        <time>2010-01-01T00:00:00Z</time>
      </trkpt>
      <trkpt lat="45.08624" lon="5.61548">
        <ele>1835.2</ele>
        <time>2010-01-01T00:00:00Z</time>
      </trkpt>
      <trkpt lat="45.08624" lon="5.61546">
        <ele>1835.3</ele>
        <time>2010-01-01T00:00:00Z</time>
      </trkpt>
      <trkpt lat="45.08619" lon="5.61545">
        <ele>1833.7</ele>
        <time>2010-01-01T00:00:00Z</time>
      </trkpt>
      <trkpt lat="45.08615" lon="5.61543">
        <ele>1832.7</ele>
        <time>2010-01-01T00:00:00Z</time>
      </trkpt>
      <trkpt lat="45.08612" lon="5.6154">
        <ele>1832.3</ele>
        <time>2010-01-01T00:00:00Z</time>
      </trkpt>
      <trkpt lat="45.08612" lon="5.61538">
        <ele>1832.5</ele>
        <time>2010-01-01T00:00:00Z</time>
      </trkpt>
      <trkpt lat="45.08612" lon="5.61535">
        <ele>1832.9</ele>
        <time>2010-01-01T00:00:00Z</time>
      </trkpt>
      <trkpt lat="45.08613" lon="5.61532">
        <ele>1833.4</ele>
        <time>2010-01-01T00:00:00Z</time>
      </trkpt>
      <trkpt lat="45.08613" lon="5.61529">
        <ele>1833.6</ele>
        <time>2010-01-01T00:00:00Z</time>
      </trkpt>
      <trkpt lat="45.08612" lon="5.61526">
        <ele>1833.6</ele>
        <time>2010-01-01T00:00:00Z</time>
      </trkpt>
      <trkpt lat="45.08611" lon="5.61524">
        <ele>1833.6</ele>
        <time>2010-01-01T00:00:00Z</time>
      </trkpt>
      <trkpt lat="45.08609" lon="5.61523">
        <ele>1833.3</ele>
        <time>2010-01-01T00:00:00Z</time>
      </trkpt>
      <trkpt lat="45.08607" lon="5.61524">
        <ele>1832.9</ele>
        <time>2010-01-01T00:00:00Z</time>
      </trkpt>
      <trkpt lat="45.08605" lon="5.61524">
        <ele>1832.6</ele>
        <time>2010-01-01T00:00:00Z</time>
      </trkpt>
      <trkpt lat="45.08603" lon="5.61523">
        <ele>1832.3</ele>
        <time>2010-01-01T00:00:00Z</time>
      </trkpt>
      <trkpt lat="45.08601" lon="5.61523">
        <ele>1832.1</ele>
        <time>2010-01-01T00:00:00Z</time>
      </trkpt>
      <trkpt lat="45.08599" lon="5.61523">
        <ele>1831.8</ele>
        <time>2010-01-01T00:00:00Z</time>
      </trkpt>
      <trkpt lat="45.086" lon="5.6152">
        <ele>1832.2</ele>
        <time>2010-01-01T00:00:00Z</time>
      </trkpt>
      <trkpt lat="45.08601" lon="5.61517">
        <ele>1832.5</ele>
        <time>2010-01-01T00:00:00Z</time>
      </trkpt>
      <trkpt lat="45.08601" lon="5.61515">
        <ele>1832.5</ele>
        <time>2010-01-01T00:00:00Z</time>
      </trkpt>
      <trkpt lat="45.086" lon="5.61513">
        <ele>1832.5</ele>
        <time>2010-01-01T00:00:00Z</time>
      </trkpt>
      <trkpt lat="45.08601" lon="5.61508">
        <ele>1832.8</ele>
        <time>2010-01-01T00:00:00Z</time>
      </trkpt>
      <trkpt lat="45.08602" lon="5.61502">
        <ele>1833</ele>
        <time>2010-01-01T00:00:00Z</time>
      </trkpt>
      <trkpt lat="45.08602" lon="5.615">
        <ele>1833.1</ele>
        <time>2010-01-01T00:00:00Z</time>
      </trkpt>
      <trkpt lat="45.08603" lon="5.615">
        <ele>1833.2</ele>
        <time>2010-01-01T00:00:00Z</time>
      </trkpt>
      <trkpt lat="45.08605" lon="5.61498">
        <ele>1828.5</ele>
        <time>2010-01-01T00:00:00Z</time>
      </trkpt>
      <trkpt lat="45.08604" lon="5.61496">
        <ele>1828.4</ele>
        <time>2010-01-01T00:00:00Z</time>
      </trkpt>
      <trkpt lat="45.08603" lon="5.61494">
        <ele>1828.2</ele>
        <time>2010-01-01T00:00:00Z</time>
      </trkpt>
      <trkpt lat="45.08603" lon="5.61493">
        <ele>1828.2</ele>
        <time>2010-01-01T00:00:00Z</time>
      </trkpt>
      <trkpt lat="45.08602" lon="5.6149">
        <ele>1827.9</ele>
        <time>2010-01-01T00:00:00Z</time>
      </trkpt>
      <trkpt lat="45.08602" lon="5.61488">
        <ele>1827.7</ele>
        <time>2010-01-01T00:00:00Z</time>
      </trkpt>
      <trkpt lat="45.08601" lon="5.61486">
        <ele>1827.5</ele>
        <time>2010-01-01T00:00:00Z</time>
      </trkpt>
      <trkpt lat="45.086" lon="5.61483">
        <ele>1827.1</ele>
        <time>2010-01-01T00:00:00Z</time>
      </trkpt>
      <trkpt lat="45.086" lon="5.61481">
        <ele>1826.8</ele>
        <time>2010-01-01T00:00:00Z</time>
      </trkpt>
      <trkpt lat="45.08603" lon="5.6148">
        <ele>1826.7</ele>
        <time>2010-01-01T00:00:00Z</time>
      </trkpt>
      <trkpt lat="45.08607" lon="5.61479">
        <ele>1826.6</ele>
        <time>2010-01-01T00:00:00Z</time>
      </trkpt>
      <trkpt lat="45.0861" lon="5.61476">
        <ele>1826.2</ele>
        <time>2010-01-01T00:00:00Z</time>
      </trkpt>
      <trkpt lat="45.08615" lon="5.61475">
        <ele>1826.3</ele>
        <time>2010-01-01T00:00:00Z</time>
      </trkpt>
      <trkpt lat="45.08618" lon="5.61474">
        <ele>1826.4</ele>
        <time>2010-01-01T00:00:00Z</time>
      </trkpt>
      <trkpt lat="45.0862" lon="5.61472">
        <ele>1826.2</ele>
        <time>2010-01-01T00:00:00Z</time>
      </trkpt>
      <trkpt lat="45.0862" lon="5.61469">
        <ele>1825.7</ele>
        <time>2010-01-01T00:00:00Z</time>
      </trkpt>
      <trkpt lat="45.08621" lon="5.61467">
        <ele>1825.5</ele>
        <time>2010-01-01T00:00:00Z</time>
      </trkpt>
      <trkpt lat="45.08617" lon="5.61461">
        <ele>1824.2</ele>
        <time>2010-01-01T00:00:00Z</time>
      </trkpt>
      <trkpt lat="45.08615" lon="5.61459">
        <ele>1823.7</ele>
        <time>2010-01-01T00:00:00Z</time>
      </trkpt>
      <trkpt lat="45.08611" lon="5.61458">
        <ele>1823.3</ele>
        <time>2010-01-01T00:00:00Z</time>
      </trkpt>
      <trkpt lat="45.08607" lon="5.61459">
        <ele>1823.3</ele>
        <time>2010-01-01T00:00:00Z</time>
      </trkpt>
      <trkpt lat="45.08604" lon="5.61458">
        <ele>1822.9</ele>
        <time>2010-01-01T00:00:00Z</time>
      </trkpt>
      <trkpt lat="45.08598" lon="5.61456">
        <ele>1822.2</ele>
        <time>2010-01-01T00:00:00Z</time>
      </trkpt>
      <trkpt lat="45.08592" lon="5.61451">
        <ele>1820.8</ele>
        <time>2010-01-01T00:00:00Z</time>
      </trkpt>
      <trkpt lat="45.0859" lon="5.61447">
        <ele>1819.7</ele>
        <time>2010-01-01T00:00:00Z</time>
      </trkpt>
      <trkpt lat="45.08589" lon="5.61445">
        <ele>1819.1</ele>
        <time>2010-01-01T00:00:00Z</time>
      </trkpt>
      <trkpt lat="45.0859" lon="5.61442">
        <ele>1818.4</ele>
        <time>2010-01-01T00:00:00Z</time>
      </trkpt>
      <trkpt lat="45.0859" lon="5.61439">
        <ele>1817.5</ele>
        <time>2010-01-01T00:00:00Z</time>
      </trkpt>
      <trkpt lat="45.08589" lon="5.61438">
        <ele>1817.1</ele>
        <time>2010-01-01T00:00:00Z</time>
      </trkpt>
      <trkpt lat="45.08587" lon="5.61437">
        <ele>1816.7</ele>
        <time>2010-01-01T00:00:00Z</time>
      </trkpt>
      <trkpt lat="45.08586" lon="5.61437">
        <ele>1816.6</ele>
        <time>2010-01-01T00:00:00Z</time>
      </trkpt>
      <trkpt lat="45.08584" lon="5.61435">
        <ele>1815.9</ele>
        <time>2010-01-01T00:00:00Z</time>
      </trkpt>
      <trkpt lat="45.08581" lon="5.61434">
        <ele>1803.6</ele>
        <time>2010-01-01T00:00:00Z</time>
      </trkpt>
      <trkpt lat="45.08578" lon="5.61434">
        <ele>1803.3</ele>
        <time>2010-01-01T00:00:00Z</time>
      </trkpt>
      <trkpt lat="45.08572" lon="5.61438">
        <ele>1802.4</ele>
        <time>2010-01-01T00:00:00Z</time>
      </trkpt>
      <trkpt lat="45.08563" lon="5.61443">
        <ele>1800.9</ele>
        <time>2010-01-01T00:00:00Z</time>
      </trkpt>
      <trkpt lat="45.08554" lon="5.61446">
        <ele>1799.2</ele>
        <time>2010-01-01T00:00:00Z</time>
      </trkpt>
      <trkpt lat="45.0854" lon="5.61447">
        <ele>1796</ele>
        <time>2010-01-01T00:00:00Z</time>
      </trkpt>
      <trkpt lat="45.08531" lon="5.61448">
        <ele>1793.9</ele>
        <time>2010-01-01T00:00:00Z</time>
      </trkpt>
      <trkpt lat="45.08516" lon="5.61448">
        <ele>1790.7</ele>
        <time>2010-01-01T00:00:00Z</time>
      </trkpt>
      <trkpt lat="45.08506" lon="5.6145">
        <ele>1789.2</ele>
        <time>2010-01-01T00:00:00Z</time>
      </trkpt>
      <trkpt lat="45.08499" lon="5.61449">
        <ele>1763.1</ele>
        <time>2010-01-01T00:00:00Z</time>
      </trkpt>
      <trkpt lat="45.08496" lon="5.61447">
        <ele>1763.3</ele>
        <time>2010-01-01T00:00:00Z</time>
      </trkpt>
      <trkpt lat="45.08496" lon="5.61447">
        <ele>1763.3</ele>
        <time>2010-01-01T00:00:00Z</time>
      </trkpt>
      <trkpt lat="45.08491" lon="5.61445">
        <ele>1763.1</ele>
        <time>2010-01-01T00:00:00Z</time>
      </trkpt>
      <trkpt lat="45.08488" lon="5.61443">
        <ele>1763.1</ele>
        <time>2010-01-01T00:00:00Z</time>
      </trkpt>
      <trkpt lat="45.08488" lon="5.61438">
        <ele>1764.6</ele>
        <time>2010-01-01T00:00:00Z</time>
      </trkpt>
      <trkpt lat="45.08487" lon="5.61427">
        <ele>1768.1</ele>
        <time>2010-01-01T00:00:00Z</time>
      </trkpt>
      <trkpt lat="45.08489" lon="5.61419">
        <ele>1771.4</ele>
        <time>2010-01-01T00:00:00Z</time>
      </trkpt>
      <trkpt lat="45.0849" lon="5.61416">
        <ele>1774</ele>
        <time>2010-01-01T00:00:00Z</time>
      </trkpt>
      <trkpt lat="45.08485" lon="5.61417">
        <ele>1769.1</ele>
        <time>2010-01-01T00:00:00Z</time>
      </trkpt>
      <trkpt lat="45.08474" lon="5.61419">
        <ele>1763.6</ele>
        <time>2010-01-01T00:00:00Z</time>
      </trkpt>
      <trkpt lat="45.08468" lon="5.61419">
        <ele>1761.4</ele>
        <time>2010-01-01T00:00:00Z</time>
      </trkpt>
      <trkpt lat="45.08466" lon="5.61416">
        <ele>1764.7</ele>
        <time>2010-01-01T00:00:00Z</time>
      </trkpt>
      <trkpt lat="45.08459" lon="5.61411">
        <ele>1762.6</ele>
        <time>2010-01-01T00:00:00Z</time>
      </trkpt>
      <trkpt lat="45.08457" lon="5.61409">
        <ele>1762.1</ele>
        <time>2010-01-01T00:00:00Z</time>
      </trkpt>
      <trkpt lat="45.08452" lon="5.61408">
        <ele>1760.9</ele>
        <time>2010-01-01T00:00:00Z</time>
      </trkpt>
      <trkpt lat="45.08443" lon="5.61406">
        <ele>1759.1</ele>
        <time>2010-01-01T00:00:00Z</time>
      </trkpt>
      <trkpt lat="45.08435" lon="5.61404">
        <ele>1757.7</ele>
        <time>2010-01-01T00:00:00Z</time>
      </trkpt>
      <trkpt lat="45.08427" lon="5.61403">
        <ele>1756.5</ele>
        <time>2010-01-01T00:00:00Z</time>
      </trkpt>
      <trkpt lat="45.08418" lon="5.61399">
        <ele>1756</ele>
        <time>2010-01-01T00:00:00Z</time>
      </trkpt>
      <trkpt lat="45.0841" lon="5.61398">
        <ele>1743.9</ele>
        <time>2010-01-01T00:00:00Z</time>
      </trkpt>
      <trkpt lat="45.084" lon="5.61391">
        <ele>1741</ele>
        <time>2010-01-01T00:00:00Z</time>
      </trkpt>
      <trkpt lat="45.08395" lon="5.61388">
        <ele>1739.9</ele>
        <time>2010-01-01T00:00:00Z</time>
      </trkpt>
      <trkpt lat="45.08393" lon="5.61386">
        <ele>1739.4</ele>
        <time>2010-01-01T00:00:00Z</time>
      </trkpt>
      <trkpt lat="45.08391" lon="5.6138">
        <ele>1738.8</ele>
        <time>2010-01-01T00:00:00Z</time>
      </trkpt>
      <trkpt lat="45.0839" lon="5.61376">
        <ele>1738.6</ele>
        <time>2010-01-01T00:00:00Z</time>
      </trkpt>
      <trkpt lat="45.08386" lon="5.61371">
        <ele>1738</ele>
        <time>2010-01-01T00:00:00Z</time>
      </trkpt>
      <trkpt lat="45.0838" lon="5.61365">
        <ele>1737.4</ele>
        <time>2010-01-01T00:00:00Z</time>
      </trkpt>
      <trkpt lat="45.08379" lon="5.61362">
        <ele>1737.3</ele>
        <time>2010-01-01T00:00:00Z</time>
      </trkpt>
      <trkpt lat="45.08378" lon="5.61359">
        <ele>1737.2</ele>
        <time>2010-01-01T00:00:00Z</time>
      </trkpt>
      <trkpt lat="45.08378" lon="5.61356">
        <ele>1737.3</ele>
        <time>2010-01-01T00:00:00Z</time>
      </trkpt>
      <trkpt lat="45.08375" lon="5.61356">
        <ele>1736.9</ele>
        <time>2010-01-01T00:00:00Z</time>
      </trkpt>
      <trkpt lat="45.08372" lon="5.61357">
        <ele>1736.6</ele>
        <time>2010-01-01T00:00:00Z</time>
      </trkpt>
      <trkpt lat="45.08366" lon="5.61359">
        <ele>1735.8</ele>
        <time>2010-01-01T00:00:00Z</time>
      </trkpt>
      <trkpt lat="45.08357" lon="5.61358">
        <ele>1734.9</ele>
        <time>2010-01-01T00:00:00Z</time>
      </trkpt>
      <trkpt lat="45.08349" lon="5.61354">
        <ele>1734.4</ele>
        <time>2010-01-01T00:00:00Z</time>
      </trkpt>
      <trkpt lat="45.08329" lon="5.61346">
        <ele>1725.7</ele>
        <time>2010-01-01T00:00:00Z</time>
      </trkpt>
      <trkpt lat="45.08323" lon="5.61345">
        <ele>1724.8</ele>
        <time>2010-01-01T00:00:00Z</time>
      </trkpt>
      <trkpt lat="45.08323" lon="5.61345">
        <ele>1724.8</ele>
        <time>2010-01-01T00:00:00Z</time>
      </trkpt>
      <trkpt lat="45.08317" lon="5.61344">
        <ele>1723.5</ele>
        <time>2010-01-01T00:00:00Z</time>
      </trkpt>
      <trkpt lat="45.0831" lon="5.61346">
        <ele>1721.5</ele>
        <time>2010-01-01T00:00:00Z</time>
      </trkpt>
      <trkpt lat="45.08312" lon="5.61339">
        <ele>1722.9</ele>
        <time>2010-01-01T00:00:00Z</time>
      </trkpt>
      <trkpt lat="45.08313" lon="5.61334">
        <ele>1723.6</ele>
        <time>2010-01-01T00:00:00Z</time>
      </trkpt>
      <trkpt lat="45.08317" lon="5.61327">
        <ele>1730.1</ele>
        <time>2010-01-01T00:00:00Z</time>
      </trkpt>
      <trkpt lat="45.08322" lon="5.61321">
        <ele>1730.1</ele>
        <time>2010-01-01T00:00:00Z</time>
      </trkpt>
      <trkpt lat="45.08324" lon="5.61315">
        <ele>1729.7</ele>
        <time>2010-01-01T00:00:00Z</time>
      </trkpt>
      <trkpt lat="45.08327" lon="5.61306">
        <ele>1728.9</ele>
        <time>2010-01-01T00:00:00Z</time>
      </trkpt>
      <trkpt lat="45.08329" lon="5.613">
        <ele>1728.4</ele>
        <time>2010-01-01T00:00:00Z</time>
      </trkpt>
      <trkpt lat="45.0833" lon="5.61285">
        <ele>1727</ele>
        <time>2010-01-01T00:00:00Z</time>
      </trkpt>
      <trkpt lat="45.08333" lon="5.61277">
        <ele>1726</ele>
        <time>2010-01-01T00:00:00Z</time>
      </trkpt>
      <trkpt lat="45.08334" lon="5.6127">
        <ele>1725.3</ele>
        <time>2010-01-01T00:00:00Z</time>
      </trkpt>
      <trkpt lat="45.08337" lon="5.61254">
        <ele>1721.8</ele>
        <time>2010-01-01T00:00:00Z</time>
      </trkpt>
      <trkpt lat="45.08341" lon="5.61245">
        <ele>1717.7</ele>
        <time>2010-01-01T00:00:00Z</time>
      </trkpt>
      <trkpt lat="45.08344" lon="5.61235">
        <ele>1716</ele>
        <time>2010-01-01T00:00:00Z</time>
      </trkpt>
      <trkpt lat="45.08343" lon="5.61222">
        <ele>1714.2</ele>
        <time>2010-01-01T00:00:00Z</time>
      </trkpt>
      <trkpt lat="45.08345" lon="5.61198">
        <ele>1711</ele>
        <time>2010-01-01T00:00:00Z</time>
      </trkpt>
      <trkpt lat="45.08341" lon="5.61171">
        <ele>1707.1</ele>
        <time>2010-01-01T00:00:00Z</time>
      </trkpt>
      <trkpt lat="45.08341" lon="5.6116">
        <ele>1702</ele>
        <time>2010-01-01T00:00:00Z</time>
      </trkpt>
      <trkpt lat="45.08341" lon="5.6115">
        <ele>1700.2</ele>
        <time>2010-01-01T00:00:00Z</time>
      </trkpt>
      <trkpt lat="45.08339" lon="5.61139">
        <ele>1698.3</ele>
        <time>2010-01-01T00:00:00Z</time>
      </trkpt>
      <trkpt lat="45.08335" lon="5.61128">
        <ele>1696.6</ele>
        <time>2010-01-01T00:00:00Z</time>
      </trkpt>
      <trkpt lat="45.08334" lon="5.61118">
        <ele>1695</ele>
        <time>2010-01-01T00:00:00Z</time>
      </trkpt>
      <trkpt lat="45.08332" lon="5.6111">
        <ele>1697.5</ele>
        <time>2010-01-01T00:00:00Z</time>
      </trkpt>
      <trkpt lat="45.08329" lon="5.61099">
        <ele>1694.6</ele>
        <time>2010-01-01T00:00:00Z</time>
      </trkpt>
      <trkpt lat="45.08326" lon="5.61089">
        <ele>1691.9</ele>
        <time>2010-01-01T00:00:00Z</time>
      </trkpt>
      <trkpt lat="45.08322" lon="5.61083">
        <ele>1683.5</ele>
        <time>2010-01-01T00:00:00Z</time>
      </trkpt>
      <trkpt lat="45.08317" lon="5.61081">
        <ele>1682.5</ele>
        <time>2010-01-01T00:00:00Z</time>
      </trkpt>
      <trkpt lat="45.08314" lon="5.6108">
        <ele>1682.1</ele>
        <time>2010-01-01T00:00:00Z</time>
      </trkpt>
      <trkpt lat="45.08313" lon="5.61076">
        <ele>1681.6</ele>
        <time>2010-01-01T00:00:00Z</time>
      </trkpt>
      <trkpt lat="45.08312" lon="5.61071">
        <ele>1680.9</ele>
        <time>2010-01-01T00:00:00Z</time>
      </trkpt>
      <trkpt lat="45.08305" lon="5.61066">
        <ele>1679.9</ele>
        <time>2010-01-01T00:00:00Z</time>
      </trkpt>
      <trkpt lat="45.08292" lon="5.61065">
        <ele>1680.1</ele>
        <time>2010-01-01T00:00:00Z</time>
      </trkpt>
      <trkpt lat="45.08281" lon="5.61068">
        <ele>1681.6</ele>
        <time>2010-01-01T00:00:00Z</time>
      </trkpt>
      <trkpt lat="45.0827" lon="5.61074">
        <ele>1684.9</ele>
        <time>2010-01-01T00:00:00Z</time>
      </trkpt>
      <trkpt lat="45.08264" lon="5.61078">
        <ele>1687.7</ele>
        <time>2010-01-01T00:00:00Z</time>
      </trkpt>
      <trkpt lat="45.08259" lon="5.61079">
        <ele>1690</ele>
        <time>2010-01-01T00:00:00Z</time>
      </trkpt>
      <trkpt lat="45.08253" lon="5.6108">
        <ele>1693.4</ele>
        <time>2010-01-01T00:00:00Z</time>
      </trkpt>
      <trkpt lat="45.08247" lon="5.61079">
        <ele>1696.2</ele>
        <time>2010-01-01T00:00:00Z</time>
      </trkpt>
      <trkpt lat="45.08242" lon="5.6108">
        <ele>1696</ele>
        <time>2010-01-01T00:00:00Z</time>
      </trkpt>
      <trkpt lat="45.08242" lon="5.6108">
        <ele>1696</ele>
        <time>2010-01-01T00:00:00Z</time>
      </trkpt>
      <trkpt lat="45.08241" lon="5.6108">
        <ele>1696</ele>
        <time>2010-01-01T00:00:00Z</time>
      </trkpt>
      <trkpt lat="45.08237" lon="5.6108">
        <ele>1695.9</ele>
        <time>2010-01-01T00:00:00Z</time>
      </trkpt>
      <trkpt lat="45.08232" lon="5.61073">
        <ele>1695.4</ele>
        <time>2010-01-01T00:00:00Z</time>
      </trkpt>
      <trkpt lat="45.08229" lon="5.61063">
        <ele>1694.2</ele>
        <time>2010-01-01T00:00:00Z</time>
      </trkpt>
      <trkpt lat="45.08226" lon="5.61059">
        <ele>1693.8</ele>
        <time>2010-01-01T00:00:00Z</time>
      </trkpt>
      <trkpt lat="45.08226" lon="5.61053">
        <ele>1692.5</ele>
        <time>2010-01-01T00:00:00Z</time>
      </trkpt>
      <trkpt lat="45.08226" lon="5.61043">
        <ele>1690</ele>
        <time>2010-01-01T00:00:00Z</time>
      </trkpt>
      <trkpt lat="45.08231" lon="5.61041">
        <ele>1688.8</ele>
        <time>2010-01-01T00:00:00Z</time>
      </trkpt>
      <trkpt lat="45.08248" lon="5.61038">
        <ele>1686</ele>
        <time>2010-01-01T00:00:00Z</time>
      </trkpt>
      <trkpt lat="45.0827" lon="5.61033">
        <ele>1674.4</ele>
        <time>2010-01-01T00:00:00Z</time>
      </trkpt>
      <trkpt lat="45.08282" lon="5.61028">
        <ele>1673.5</ele>
        <time>2010-01-01T00:00:00Z</time>
      </trkpt>
      <trkpt lat="45.08285" lon="5.61022">
        <ele>1672.4</ele>
        <time>2010-01-01T00:00:00Z</time>
      </trkpt>
      <trkpt lat="45.0828" lon="5.61014">
        <ele>1670.9</ele>
        <time>2010-01-01T00:00:00Z</time>
      </trkpt>
      <trkpt lat="45.08278" lon="5.61005">
        <ele>1669.6</ele>
        <time>2010-01-01T00:00:00Z</time>
      </trkpt>
      <trkpt lat="45.08278" lon="5.60997">
        <ele>1649.8</ele>
        <time>2010-01-01T00:00:00Z</time>
      </trkpt>
      <trkpt lat="45.08282" lon="5.60994">
        <ele>1649</ele>
        <time>2010-01-01T00:00:00Z</time>
      </trkpt>
      <trkpt lat="45.08288" lon="5.60992">
        <ele>1648.4</ele>
        <time>2010-01-01T00:00:00Z</time>
      </trkpt>
      <trkpt lat="45.0829" lon="5.60987">
        <ele>1647.7</ele>
        <time>2010-01-01T00:00:00Z</time>
      </trkpt>
      <trkpt lat="45.08292" lon="5.60977">
        <ele>1646</ele>
        <time>2010-01-01T00:00:00Z</time>
      </trkpt>
      <trkpt lat="45.08295" lon="5.60965">
        <ele>1643.6</ele>
        <time>2010-01-01T00:00:00Z</time>
      </trkpt>
      <trkpt lat="45.08299" lon="5.60953">
        <ele>1640.8</ele>
        <time>2010-01-01T00:00:00Z</time>
      </trkpt>
      <trkpt lat="45.08314" lon="5.60936">
        <ele>1635.2</ele>
        <time>2010-01-01T00:00:00Z</time>
      </trkpt>
      <trkpt lat="45.08321" lon="5.60928">
        <ele>1631</ele>
        <time>2010-01-01T00:00:00Z</time>
      </trkpt>
      <trkpt lat="45.08324" lon="5.60921">
        <ele>1627.5</ele>
        <time>2010-01-01T00:00:00Z</time>
      </trkpt>
      <trkpt lat="45.08323" lon="5.60914">
        <ele>1619.3</ele>
        <time>2010-01-01T00:00:00Z</time>
      </trkpt>
      <trkpt lat="45.08323" lon="5.60905">
        <ele>1618.8</ele>
        <time>2010-01-01T00:00:00Z</time>
      </trkpt>
      <trkpt lat="45.08325" lon="5.60897">
        <ele>1618.1</ele>
        <time>2010-01-01T00:00:00Z</time>
      </trkpt>
      <trkpt lat="45.08328" lon="5.6089">
        <ele>1617.4</ele>
        <time>2010-01-01T00:00:00Z</time>
      </trkpt>
      <trkpt lat="45.08328" lon="5.60883">
        <ele>1616.6</ele>
        <time>2010-01-01T00:00:00Z</time>
      </trkpt>
      <trkpt lat="45.0833" lon="5.60877">
        <ele>1615.7</ele>
        <time>2010-01-01T00:00:00Z</time>
      </trkpt>
      <trkpt lat="45.08334" lon="5.6087">
        <ele>1612.2</ele>
        <time>2010-01-01T00:00:00Z</time>
      </trkpt>
      <trkpt lat="45.0834" lon="5.60858">
        <ele>1610.1</ele>
        <time>2010-01-01T00:00:00Z</time>
      </trkpt>
      <trkpt lat="45.08348" lon="5.60849">
        <ele>1609</ele>
        <time>2010-01-01T00:00:00Z</time>
      </trkpt>
      <trkpt lat="45.08354" lon="5.60838">
        <ele>1608.3</ele>
        <time>2010-01-01T00:00:00Z</time>
      </trkpt>
      <trkpt lat="45.08361" lon="5.60825">
        <ele>1600.2</ele>
        <time>2010-01-01T00:00:00Z</time>
      </trkpt>
      <trkpt lat="45.08371" lon="5.60817">
        <ele>1599.6</ele>
        <time>2010-01-01T00:00:00Z</time>
      </trkpt>
      <trkpt lat="45.08381" lon="5.6081">
        <ele>1599</ele>
        <time>2010-01-01T00:00:00Z</time>
      </trkpt>
      <trkpt lat="45.08389" lon="5.60805">
        <ele>1598.5</ele>
        <time>2010-01-01T00:00:00Z</time>
      </trkpt>
      <trkpt lat="45.08396" lon="5.60801">
        <ele>1598.1</ele>
        <time>2010-01-01T00:00:00Z</time>
      </trkpt>
      <trkpt lat="45.08402" lon="5.60795">
        <ele>1597.6</ele>
        <time>2010-01-01T00:00:00Z</time>
      </trkpt>
      <trkpt lat="45.08404" lon="5.60787">
        <ele>1596.9</ele>
        <time>2010-01-01T00:00:00Z</time>
      </trkpt>
      <trkpt lat="45.08403" lon="5.60778">
        <ele>1596.2</ele>
        <time>2010-01-01T00:00:00Z</time>
      </trkpt>
      <trkpt lat="45.08402" lon="5.6077">
        <ele>1595.4</ele>
        <time>2010-01-01T00:00:00Z</time>
      </trkpt>
      <trkpt lat="45.08403" lon="5.60762">
        <ele>1594.3</ele>
        <time>2010-01-01T00:00:00Z</time>
      </trkpt>
      <trkpt lat="45.08407" lon="5.60753">
        <ele>1592.4</ele>
        <time>2010-01-01T00:00:00Z</time>
      </trkpt>
      <trkpt lat="45.08412" lon="5.60743">
        <ele>1589.9</ele>
        <time>2010-01-01T00:00:00Z</time>
      </trkpt>
      <trkpt lat="45.0842" lon="5.60724">
        <ele>1582.9</ele>
        <time>2010-01-01T00:00:00Z</time>
      </trkpt>
      <trkpt lat="45.0842" lon="5.60724">
        <ele>1582.9</ele>
        <time>2010-01-01T00:00:00Z</time>
      </trkpt>
      <trkpt lat="45.08423" lon="5.60717">
        <ele>1581.9</ele>
        <time>2010-01-01T00:00:00Z</time>
      </trkpt>
      <trkpt lat="45.08434" lon="5.60702">
        <ele>1580</ele>
        <time>2010-01-01T00:00:00Z</time>
      </trkpt>
      <trkpt lat="45.08442" lon="5.60689">
        <ele>1578.8</ele>
        <time>2010-01-01T00:00:00Z</time>
      </trkpt>
      <trkpt lat="45.0845" lon="5.60676">
        <ele>1577.7</ele>
        <time>2010-01-01T00:00:00Z</time>
      </trkpt>
      <trkpt lat="45.0846" lon="5.60664">
        <ele>1568.3</ele>
        <time>2010-01-01T00:00:00Z</time>
      </trkpt>
      <trkpt lat="45.08467" lon="5.60659">
        <ele>1567.5</ele>
        <time>2010-01-01T00:00:00Z</time>
      </trkpt>
      <trkpt lat="45.08475" lon="5.60656">
        <ele>1566.8</ele>
        <time>2010-01-01T00:00:00Z</time>
      </trkpt>
      <trkpt lat="45.08483" lon="5.60656">
        <ele>1566.3</ele>
        <time>2010-01-01T00:00:00Z</time>
      </trkpt>
      <trkpt lat="45.0849" lon="5.60655">
        <ele>1566</ele>
        <time>2010-01-01T00:00:00Z</time>
      </trkpt>
      <trkpt lat="45.08497" lon="5.60652">
        <ele>1565.8</ele>
        <time>2010-01-01T00:00:00Z</time>
      </trkpt>
      <trkpt lat="45.08504" lon="5.60648">
        <ele>1558.3</ele>
        <time>2010-01-01T00:00:00Z</time>
      </trkpt>
      <trkpt lat="45.08513" lon="5.60645">
        <ele>1556.7</ele>
        <time>2010-01-01T00:00:00Z</time>
      </trkpt>
      <trkpt lat="45.0852" lon="5.60647">
        <ele>1556.1</ele>
        <time>2010-01-01T00:00:00Z</time>
      </trkpt>
      <trkpt lat="45.08526" lon="5.60645">
        <ele>1555</ele>
        <time>2010-01-01T00:00:00Z</time>
      </trkpt>
      <trkpt lat="45.08531" lon="5.60641">
        <ele>1553.9</ele>
        <time>2010-01-01T00:00:00Z</time>
      </trkpt>
      <trkpt lat="45.08538" lon="5.60637">
        <ele>1552.8</ele>
        <time>2010-01-01T00:00:00Z</time>
      </trkpt>
      <trkpt lat="45.08543" lon="5.60632">
        <ele>1552</ele>
        <time>2010-01-01T00:00:00Z</time>
      </trkpt>
      <trkpt lat="45.08549" lon="5.60623">
        <ele>1550.7</ele>
        <time>2010-01-01T00:00:00Z</time>
      </trkpt>
      <trkpt lat="45.08555" lon="5.60616">
        <ele>1549.6</ele>
        <time>2010-01-01T00:00:00Z</time>
      </trkpt>
      <trkpt lat="45.08561" lon="5.6061">
        <ele>1548.3</ele>
        <time>2010-01-01T00:00:00Z</time>
      </trkpt>
      <trkpt lat="45.08568" lon="5.60603">
        <ele>1546.5</ele>
        <time>2010-01-01T00:00:00Z</time>
      </trkpt>
      <trkpt lat="45.08572" lon="5.60596">
        <ele>1544.6</ele>
        <time>2010-01-01T00:00:00Z</time>
      </trkpt>
      <trkpt lat="45.08579" lon="5.6059">
        <ele>1541.7</ele>
        <time>2010-01-01T00:00:00Z</time>
      </trkpt>
      <trkpt lat="45.08586" lon="5.60586">
        <ele>1538.2</ele>
        <time>2010-01-01T00:00:00Z</time>
      </trkpt>
      <trkpt lat="45.08594" lon="5.60587">
        <ele>1538.3</ele>
        <time>2010-01-01T00:00:00Z</time>
      </trkpt>
      <trkpt lat="45.08603" lon="5.60587">
        <ele>1538.2</ele>
        <time>2010-01-01T00:00:00Z</time>
      </trkpt>
      <trkpt lat="45.08612" lon="5.60587">
        <ele>1537.9</ele>
        <time>2010-01-01T00:00:00Z</time>
      </trkpt>
      <trkpt lat="45.08615" lon="5.60584">
        <ele>1537.6</ele>
        <time>2010-01-01T00:00:00Z</time>
      </trkpt>
      <trkpt lat="45.08615" lon="5.60581">
        <ele>1529.2</ele>
        <time>2010-01-01T00:00:00Z</time>
      </trkpt>
      <trkpt lat="45.08613" lon="5.60577">
        <ele>1529.3</ele>
        <time>2010-01-01T00:00:00Z</time>
      </trkpt>
      <trkpt lat="45.0861" lon="5.60573">
        <ele>1529.4</ele>
        <time>2010-01-01T00:00:00Z</time>
      </trkpt>
      <trkpt lat="45.08607" lon="5.60567">
        <ele>1529.1</ele>
        <time>2010-01-01T00:00:00Z</time>
      </trkpt>
      <trkpt lat="45.08608" lon="5.60559">
        <ele>1528</ele>
        <time>2010-01-01T00:00:00Z</time>
      </trkpt>
      <trkpt lat="45.08611" lon="5.60554">
        <ele>1527.2</ele>
        <time>2010-01-01T00:00:00Z</time>
      </trkpt>
      <trkpt lat="45.08616" lon="5.60551">
        <ele>1526.5</ele>
        <time>2010-01-01T00:00:00Z</time>
      </trkpt>
      <trkpt lat="45.08619" lon="5.60528">
        <ele>1524</ele>
        <time>2010-01-01T00:00:00Z</time>
      </trkpt>
      <trkpt lat="45.0862" lon="5.60506">
        <ele>1522.4</ele>
        <time>2010-01-01T00:00:00Z</time>
      </trkpt>
      <trkpt lat="45.08614" lon="5.60507">
        <ele>1522.7</ele>
        <time>2010-01-01T00:00:00Z</time>
      </trkpt>
      <trkpt lat="45.08614" lon="5.60507">
        <ele>1522.7</ele>
        <time>2010-01-01T00:00:00Z</time>
      </trkpt>
      <trkpt lat="45.08609" lon="5.60509">
        <ele>1522.9</ele>
        <time>2010-01-01T00:00:00Z</time>
      </trkpt>
      <trkpt lat="45.08602" lon="5.60508">
        <ele>1522.8</ele>
        <time>2010-01-01T00:00:00Z</time>
      </trkpt>
      <trkpt lat="45.08595" lon="5.60506">
        <ele>1522.5</ele>
        <time>2010-01-01T00:00:00Z</time>
      </trkpt>
      <trkpt lat="45.08587" lon="5.60504">
        <ele>1521.8</ele>
        <time>2010-01-01T00:00:00Z</time>
      </trkpt>
      <trkpt lat="45.08578" lon="5.60503">
        <ele>1524.7</ele>
        <time>2010-01-01T00:00:00Z</time>
      </trkpt>
      <trkpt lat="45.08566" lon="5.60504">
        <ele>1529.4</ele>
        <time>2010-01-01T00:00:00Z</time>
      </trkpt>
      <trkpt lat="45.08556" lon="5.60504">
        <ele>1532.2</ele>
        <time>2010-01-01T00:00:00Z</time>
      </trkpt>
      <trkpt lat="45.08547" lon="5.60498">
        <ele>1526.5</ele>
        <time>2010-01-01T00:00:00Z</time>
      </trkpt>
      <trkpt lat="45.08535" lon="5.60491">
        <ele>1528.3</ele>
        <time>2010-01-01T00:00:00Z</time>
      </trkpt>
      <trkpt lat="45.08524" lon="5.60491">
        <ele>1530.6</ele>
        <time>2010-01-01T00:00:00Z</time>
      </trkpt>
      <trkpt lat="45.08516" lon="5.60489">
        <ele>1532.2</ele>
        <time>2010-01-01T00:00:00Z</time>
      </trkpt>
      <trkpt lat="45.08516" lon="5.60489">
        <ele>1532.2</ele>
        <time>2010-01-01T00:00:00Z</time>
      </trkpt>
      <trkpt lat="45.08516" lon="5.60489">
        <ele>1532.2</ele>
        <time>2010-01-01T00:00:00Z</time>
      </trkpt>
      <trkpt lat="45.08516" lon="5.60483">
        <ele>1531.3</ele>
        <time>2010-01-01T00:00:00Z</time>
      </trkpt>
      <trkpt lat="45.08517" lon="5.60481">
        <ele>1530.8</ele>
        <time>2010-01-01T00:00:00Z</time>
      </trkpt>
      <trkpt lat="45.08522" lon="5.60474">
        <ele>1529.2</ele>
        <time>2010-01-01T00:00:00Z</time>
      </trkpt>
      <trkpt lat="45.08523" lon="5.60466">
        <ele>1528.3</ele>
        <time>2010-01-01T00:00:00Z</time>
      </trkpt>
      <trkpt lat="45.08525" lon="5.60456">
        <ele>1527.4</ele>
        <time>2010-01-01T00:00:00Z</time>
      </trkpt>
      <trkpt lat="45.08525" lon="5.60451">
        <ele>1527.1</ele>
        <time>2010-01-01T00:00:00Z</time>
      </trkpt>
      <trkpt lat="45.08523" lon="5.60447">
        <ele>1527.2</ele>
        <time>2010-01-01T00:00:00Z</time>
      </trkpt>
      <trkpt lat="45.08519" lon="5.60443">
        <ele>1527.6</ele>
        <time>2010-01-01T00:00:00Z</time>
      </trkpt>
      <trkpt lat="45.08515" lon="5.6044">
        <ele>1528</ele>
        <time>2010-01-01T00:00:00Z</time>
      </trkpt>
      <trkpt lat="45.08512" lon="5.60434">
        <ele>1528.4</ele>
        <time>2010-01-01T00:00:00Z</time>
      </trkpt>
      <trkpt lat="45.08511" lon="5.60428">
        <ele>1528.9</ele>
        <time>2010-01-01T00:00:00Z</time>
      </trkpt>
      <trkpt lat="45.08512" lon="5.60418">
        <ele>1529.2</ele>
        <time>2010-01-01T00:00:00Z</time>
      </trkpt>
      <trkpt lat="45.08511" lon="5.6041">
        <ele>1523.8</ele>
        <time>2010-01-01T00:00:00Z</time>
      </trkpt>
      <trkpt lat="45.08508" lon="5.60403">
        <ele>1522.5</ele>
        <time>2010-01-01T00:00:00Z</time>
      </trkpt>
      <trkpt lat="45.08504" lon="5.60398">
        <ele>1521.3</ele>
        <time>2010-01-01T00:00:00Z</time>
      </trkpt>
      <trkpt lat="45.08498" lon="5.60394">
        <ele>1534.7</ele>
        <time>2010-01-01T00:00:00Z</time>
      </trkpt>
      <trkpt lat="45.08495" lon="5.60388">
        <ele>1534.7</ele>
        <time>2010-01-01T00:00:00Z</time>
      </trkpt>
      <trkpt lat="45.08493" lon="5.60383">
        <ele>1534.5</ele>
        <time>2010-01-01T00:00:00Z</time>
      </trkpt>
      <trkpt lat="45.08492" lon="5.60377">
        <ele>1533.9</ele>
        <time>2010-01-01T00:00:00Z</time>
      </trkpt>
      <trkpt lat="45.08492" lon="5.60371">
        <ele>1532.9</ele>
        <time>2010-01-01T00:00:00Z</time>
      </trkpt>
      <trkpt lat="45.08495" lon="5.60363">
        <ele>1530.7</ele>
        <time>2010-01-01T00:00:00Z</time>
      </trkpt>
      <trkpt lat="45.08495" lon="5.60354">
        <ele>1527.8</ele>
        <time>2010-01-01T00:00:00Z</time>
      </trkpt>
      <trkpt lat="45.08494" lon="5.60346">
        <ele>1524.6</ele>
        <time>2010-01-01T00:00:00Z</time>
      </trkpt>
      <trkpt lat="45.08491" lon="5.60339">
        <ele>1522.7</ele>
        <time>2010-01-01T00:00:00Z</time>
      </trkpt>
      <trkpt lat="45.08486" lon="5.60336">
        <ele>1524.8</ele>
        <time>2010-01-01T00:00:00Z</time>
      </trkpt>
      <trkpt lat="45.08484" lon="5.60334">
        <ele>1525.7</ele>
        <time>2010-01-01T00:00:00Z</time>
      </trkpt>
      <trkpt lat="45.0848" lon="5.60329">
        <ele>1516.2</ele>
        <time>2010-01-01T00:00:00Z</time>
      </trkpt>
      <trkpt lat="45.08471" lon="5.60324">
        <ele>1517.5</ele>
        <time>2010-01-01T00:00:00Z</time>
      </trkpt>
      <trkpt lat="45.08463" lon="5.6032">
        <ele>1518.9</ele>
        <time>2010-01-01T00:00:00Z</time>
      </trkpt>
      <trkpt lat="45.08455" lon="5.60314">
        <ele>1520.1</ele>
        <time>2010-01-01T00:00:00Z</time>
      </trkpt>
      <trkpt lat="45.08444" lon="5.60305">
        <ele>1521.2</ele>
        <time>2010-01-01T00:00:00Z</time>
      </trkpt>
      <trkpt lat="45.08434" lon="5.603">
        <ele>1522</ele>
        <time>2010-01-01T00:00:00Z</time>
      </trkpt>
      <trkpt lat="45.08423" lon="5.60295">
        <ele>1522.2</ele>
        <time>2010-01-01T00:00:00Z</time>
      </trkpt>
      <trkpt lat="45.08415" lon="5.60285">
        <ele>1534.6</ele>
        <time>2010-01-01T00:00:00Z</time>
      </trkpt>
      <trkpt lat="45.08407" lon="5.60277">
        <ele>1532.7</ele>
        <time>2010-01-01T00:00:00Z</time>
      </trkpt>
      <trkpt lat="45.08399" lon="5.6027">
        <ele>1531.8</ele>
        <time>2010-01-01T00:00:00Z</time>
      </trkpt>
      <trkpt lat="45.08385" lon="5.6026">
        <ele>1532.7</ele>
        <time>2010-01-01T00:00:00Z</time>
      </trkpt>
      <trkpt lat="45.08375" lon="5.60257">
        <ele>1534</ele>
        <time>2010-01-01T00:00:00Z</time>
      </trkpt>
      <trkpt lat="45.08365" lon="5.60251">
        <ele>1534.3</ele>
        <time>2010-01-01T00:00:00Z</time>
      </trkpt>
      <trkpt lat="45.08358" lon="5.60243">
        <ele>1515.7</ele>
        <time>2010-01-01T00:00:00Z</time>
      </trkpt>
      <trkpt lat="45.08352" lon="5.60236">
        <ele>1515.9</ele>
        <time>2010-01-01T00:00:00Z</time>
      </trkpt>
      <trkpt lat="45.08341" lon="5.60229">
        <ele>1515.8</ele>
        <time>2010-01-01T00:00:00Z</time>
      </trkpt>
      <trkpt lat="45.0833" lon="5.60227">
        <ele>1520.4</ele>
        <time>2010-01-01T00:00:00Z</time>
      </trkpt>
      <trkpt lat="45.0833" lon="5.60227">
        <ele>1520.4</ele>
        <time>2010-01-01T00:00:00Z</time>
      </trkpt>
      <trkpt lat="45.08327" lon="5.60226">
        <ele>1520</ele>
        <time>2010-01-01T00:00:00Z</time>
      </trkpt>
      <trkpt lat="45.08318" lon="5.60224">
        <ele>1519.1</ele>
        <time>2010-01-01T00:00:00Z</time>
      </trkpt>
      <trkpt lat="45.08308" lon="5.60225">
        <ele>1519.1</ele>
        <time>2010-01-01T00:00:00Z</time>
      </trkpt>
      <trkpt lat="45.08302" lon="5.60229">
        <ele>1519.8</ele>
        <time>2010-01-01T00:00:00Z</time>
      </trkpt>
      <trkpt lat="45.08298" lon="5.60237">
        <ele>1521.1</ele>
        <time>2010-01-01T00:00:00Z</time>
      </trkpt>
      <trkpt lat="45.08292" lon="5.60242">
        <ele>1521.9</ele>
        <time>2010-01-01T00:00:00Z</time>
      </trkpt>
      <trkpt lat="45.08287" lon="5.60242">
        <ele>1522.3</ele>
        <time>2010-01-01T00:00:00Z</time>
      </trkpt>
      <trkpt lat="45.08284" lon="5.60238">
        <ele>1522.1</ele>
        <time>2010-01-01T00:00:00Z</time>
      </trkpt>
      <trkpt lat="45.08282" lon="5.60231">
        <ele>1521.2</ele>
        <time>2010-01-01T00:00:00Z</time>
      </trkpt>
      <trkpt lat="45.0828" lon="5.60225">
        <ele>1520.2</ele>
        <time>2010-01-01T00:00:00Z</time>
      </trkpt>
      <trkpt lat="45.08271" lon="5.60221">
        <ele>1520.2</ele>
        <time>2010-01-01T00:00:00Z</time>
      </trkpt>
      <trkpt lat="45.08263" lon="5.60219">
        <ele>1520.3</ele>
        <time>2010-01-01T00:00:00Z</time>
      </trkpt>
      <trkpt lat="45.0825" lon="5.60217">
        <ele>1520.3</ele>
        <time>2010-01-01T00:00:00Z</time>
      </trkpt>
      <trkpt lat="45.0824" lon="5.60217">
        <ele>1525</ele>
        <time>2010-01-01T00:00:00Z</time>
      </trkpt>
      <trkpt lat="45.0823" lon="5.60219">
        <ele>1525.5</ele>
        <time>2010-01-01T00:00:00Z</time>
      </trkpt>
      <trkpt lat="45.0822" lon="5.60221">
        <ele>1526</ele>
        <time>2010-01-01T00:00:00Z</time>
      </trkpt>
      <trkpt lat="45.08211" lon="5.60223">
        <ele>1526.6</ele>
        <time>2010-01-01T00:00:00Z</time>
      </trkpt>
      <trkpt lat="45.08201" lon="5.6022">
        <ele>1526.6</ele>
        <time>2010-01-01T00:00:00Z</time>
      </trkpt>
      <trkpt lat="45.08191" lon="5.60216">
        <ele>1526.5</ele>
        <time>2010-01-01T00:00:00Z</time>
      </trkpt>
      <trkpt lat="45.08181" lon="5.60212">
        <ele>1525.9</ele>
        <time>2010-01-01T00:00:00Z</time>
      </trkpt>
      <trkpt lat="45.08172" lon="5.60208">
        <ele>1525</ele>
        <time>2010-01-01T00:00:00Z</time>
      </trkpt>
      <trkpt lat="45.08159" lon="5.60203">
        <ele>1529.3</ele>
        <time>2010-01-01T00:00:00Z</time>
      </trkpt>
      <trkpt lat="45.08148" lon="5.60199">
        <ele>1528.8</ele>
        <time>2010-01-01T00:00:00Z</time>
      </trkpt>
      <trkpt lat="45.08136" lon="5.60195">
        <ele>1529</ele>
        <time>2010-01-01T00:00:00Z</time>
      </trkpt>
      <trkpt lat="45.08104" lon="5.60187">
        <ele>1528.2</ele>
        <time>2010-01-01T00:00:00Z</time>
      </trkpt>
      <trkpt lat="45.08091" lon="5.60182">
        <ele>1525.5</ele>
        <time>2010-01-01T00:00:00Z</time>
      </trkpt>
      <trkpt lat="45.08077" lon="5.60177">
        <ele>1526.6</ele>
        <time>2010-01-01T00:00:00Z</time>
      </trkpt>
      <trkpt lat="45.08064" lon="5.60175">
        <ele>1530.4</ele>
        <time>2010-01-01T00:00:00Z</time>
      </trkpt>
      <trkpt lat="45.08047" lon="5.60172">
        <ele>1533.4</ele>
        <time>2010-01-01T00:00:00Z</time>
      </trkpt>
      <trkpt lat="45.08034" lon="5.60169">
        <ele>1533.5</ele>
        <time>2010-01-01T00:00:00Z</time>
      </trkpt>
      <trkpt lat="45.0802" lon="5.6017">
        <ele>1531.8</ele>
        <time>2010-01-01T00:00:00Z</time>
      </trkpt>
      <trkpt lat="45.08014" lon="5.6017">
        <ele>1530.1</ele>
        <time>2010-01-01T00:00:00Z</time>
      </trkpt>
      <trkpt lat="45.08007" lon="5.6017">
        <ele>1527.2</ele>
        <time>2010-01-01T00:00:00Z</time>
      </trkpt>
      <trkpt lat="45.08" lon="5.60172">
        <ele>1527.3</ele>
        <time>2010-01-01T00:00:00Z</time>
      </trkpt>
      <trkpt lat="45.07992" lon="5.60175">
        <ele>1532.1</ele>
        <time>2010-01-01T00:00:00Z</time>
      </trkpt>
      <trkpt lat="45.07982" lon="5.60178">
        <ele>1537.3</ele>
        <time>2010-01-01T00:00:00Z</time>
      </trkpt>
      <trkpt lat="45.07972" lon="5.6018">
        <ele>1540.6</ele>
        <time>2010-01-01T00:00:00Z</time>
      </trkpt>
      <trkpt lat="45.07963" lon="5.60181">
        <ele>1542.3</ele>
        <time>2010-01-01T00:00:00Z</time>
      </trkpt>
      <trkpt lat="45.07955" lon="5.6018">
        <ele>1542.8</ele>
        <time>2010-01-01T00:00:00Z</time>
      </trkpt>
      <trkpt lat="45.07944" lon="5.60179">
        <ele>1542.5</ele>
        <time>2010-01-01T00:00:00Z</time>
      </trkpt>
      <trkpt lat="45.07935" lon="5.60179">
        <ele>1541.6</ele>
        <time>2010-01-01T00:00:00Z</time>
      </trkpt>
      <trkpt lat="45.07931" lon="5.60178">
        <ele>1540.7</ele>
        <time>2010-01-01T00:00:00Z</time>
      </trkpt>
      <trkpt lat="45.07931" lon="5.60178">
        <ele>1540.7</ele>
        <time>2010-01-01T00:00:00Z</time>
      </trkpt>
      <trkpt lat="45.07924" lon="5.60177">
        <ele>1538.9</ele>
        <time>2010-01-01T00:00:00Z</time>
      </trkpt>
      <trkpt lat="45.07913" lon="5.60175">
        <ele>1541.9</ele>
        <time>2010-01-01T00:00:00Z</time>
      </trkpt>
      <trkpt lat="45.07903" lon="5.60172">
        <ele>1546</ele>
        <time>2010-01-01T00:00:00Z</time>
      </trkpt>
      <trkpt lat="45.07896" lon="5.60169">
        <ele>1549.2</ele>
        <time>2010-01-01T00:00:00Z</time>
      </trkpt>
      <trkpt lat="45.07889" lon="5.60164">
        <ele>1524.5</ele>
        <time>2010-01-01T00:00:00Z</time>
      </trkpt>
      <trkpt lat="45.07881" lon="5.60159">
        <ele>1524.1</ele>
        <time>2010-01-01T00:00:00Z</time>
      </trkpt>
      <trkpt lat="45.07874" lon="5.60154">
        <ele>1524.2</ele>
        <time>2010-01-01T00:00:00Z</time>
      </trkpt>
      <trkpt lat="45.07867" lon="5.6015">
        <ele>1524.6</ele>
        <time>2010-01-01T00:00:00Z</time>
      </trkpt>
      <trkpt lat="45.0786" lon="5.60145">
        <ele>1524.8</ele>
        <time>2010-01-01T00:00:00Z</time>
      </trkpt>
      <trkpt lat="45.07854" lon="5.60147">
        <ele>1527</ele>
        <time>2010-01-01T00:00:00Z</time>
      </trkpt>
      <trkpt lat="45.0785" lon="5.60148">
        <ele>1528.6</ele>
        <time>2010-01-01T00:00:00Z</time>
      </trkpt>
      <trkpt lat="45.07845" lon="5.60145">
        <ele>1528.5</ele>
        <time>2010-01-01T00:00:00Z</time>
      </trkpt>
      <trkpt lat="45.07841" lon="5.6014">
        <ele>1526.6</ele>
        <time>2010-01-01T00:00:00Z</time>
      </trkpt>
      <trkpt lat="45.07837" lon="5.60135">
        <ele>1524.5</ele>
        <time>2010-01-01T00:00:00Z</time>
      </trkpt>
      <trkpt lat="45.07833" lon="5.60131">
        <ele>1537.3</ele>
        <time>2010-01-01T00:00:00Z</time>
      </trkpt>
      <trkpt lat="45.07829" lon="5.60128">
        <ele>1536.3</ele>
        <time>2010-01-01T00:00:00Z</time>
      </trkpt>
      <trkpt lat="45.07823" lon="5.60124">
        <ele>1535.2</ele>
        <time>2010-01-01T00:00:00Z</time>
      </trkpt>
      <trkpt lat="45.07816" lon="5.6012">
        <ele>1534.6</ele>
        <time>2010-01-01T00:00:00Z</time>
      </trkpt>
      <trkpt lat="45.0781" lon="5.60115">
        <ele>1533.8</ele>
        <time>2010-01-01T00:00:00Z</time>
      </trkpt>
      <trkpt lat="45.07804" lon="5.6011">
        <ele>1533.6</ele>
        <time>2010-01-01T00:00:00Z</time>
      </trkpt>
      <trkpt lat="45.07803" lon="5.60102">
        <ele>1531.5</ele>
        <time>2010-01-01T00:00:00Z</time>
      </trkpt>
      <trkpt lat="45.078" lon="5.60096">
        <ele>1531</ele>
        <time>2010-01-01T00:00:00Z</time>
      </trkpt>
      <trkpt lat="45.07793" lon="5.60091">
        <ele>1532.4</ele>
        <time>2010-01-01T00:00:00Z</time>
      </trkpt>
      <trkpt lat="45.07787" lon="5.60086">
        <ele>1533.4</ele>
        <time>2010-01-01T00:00:00Z</time>
      </trkpt>
      <trkpt lat="45.07779" lon="5.60079">
        <ele>1511.6</ele>
        <time>2010-01-01T00:00:00Z</time>
      </trkpt>
      <trkpt lat="45.07768" lon="5.60074">
        <ele>1516</ele>
        <time>2010-01-01T00:00:00Z</time>
      </trkpt>
      <trkpt lat="45.07757" lon="5.60069">
        <ele>1518.9</ele>
        <time>2010-01-01T00:00:00Z</time>
      </trkpt>
      <trkpt lat="45.07749" lon="5.60068">
        <ele>1528.9</ele>
        <time>2010-01-01T00:00:00Z</time>
      </trkpt>
      <trkpt lat="45.0774" lon="5.60068">
        <ele>1528.5</ele>
        <time>2010-01-01T00:00:00Z</time>
      </trkpt>
      <trkpt lat="45.07733" lon="5.60068">
        <ele>1527.9</ele>
        <time>2010-01-01T00:00:00Z</time>
      </trkpt>
      <trkpt lat="45.07724" lon="5.60067">
        <ele>1527.3</ele>
        <time>2010-01-01T00:00:00Z</time>
      </trkpt>
      <trkpt lat="45.07718" lon="5.60064">
        <ele>1526.8</ele>
        <time>2010-01-01T00:00:00Z</time>
      </trkpt>
      <trkpt lat="45.07714" lon="5.60059">
        <ele>1526.1</ele>
        <time>2010-01-01T00:00:00Z</time>
      </trkpt>
      <trkpt lat="45.07711" lon="5.60053">
        <ele>1525.1</ele>
        <time>2010-01-01T00:00:00Z</time>
      </trkpt>
      <trkpt lat="45.07708" lon="5.60047">
        <ele>1524</ele>
        <time>2010-01-01T00:00:00Z</time>
      </trkpt>
      <trkpt lat="45.07704" lon="5.60041">
        <ele>1522.9</ele>
        <time>2010-01-01T00:00:00Z</time>
      </trkpt>
      <trkpt lat="45.07699" lon="5.60035">
        <ele>1521.7</ele>
        <time>2010-01-01T00:00:00Z</time>
      </trkpt>
      <trkpt lat="45.07695" lon="5.60028">
        <ele>1520.2</ele>
        <time>2010-01-01T00:00:00Z</time>
      </trkpt>
      <trkpt lat="45.07689" lon="5.60022">
        <ele>1518.8</ele>
        <time>2010-01-01T00:00:00Z</time>
      </trkpt>
      <trkpt lat="45.07684" lon="5.60016">
        <ele>1517.1</ele>
        <time>2010-01-01T00:00:00Z</time>
      </trkpt>
      <trkpt lat="45.07678" lon="5.6001">
        <ele>1514.7</ele>
        <time>2010-01-01T00:00:00Z</time>
      </trkpt>
      <trkpt lat="45.07672" lon="5.60007">
        <ele>1512.5</ele>
        <time>2010-01-01T00:00:00Z</time>
      </trkpt>
      <trkpt lat="45.07666" lon="5.60005">
        <ele>1511.4</ele>
        <time>2010-01-01T00:00:00Z</time>
      </trkpt>
      <trkpt lat="45.07662" lon="5.60008">
        <ele>1513.7</ele>
        <time>2010-01-01T00:00:00Z</time>
      </trkpt>
      <trkpt lat="45.0766" lon="5.60014">
        <ele>1516.7</ele>
        <time>2010-01-01T00:00:00Z</time>
      </trkpt>
      <trkpt lat="45.07655" lon="5.60022">
        <ele>1520.3</ele>
        <time>2010-01-01T00:00:00Z</time>
      </trkpt>
      <trkpt lat="45.07649" lon="5.60028">
        <ele>1522.6</ele>
        <time>2010-01-01T00:00:00Z</time>
      </trkpt>
      <trkpt lat="45.07643" lon="5.60035">
        <ele>1524.9</ele>
        <time>2010-01-01T00:00:00Z</time>
      </trkpt>
      <trkpt lat="45.07637" lon="5.60042">
        <ele>1526.8</ele>
        <time>2010-01-01T00:00:00Z</time>
      </trkpt>
      <trkpt lat="45.07631" lon="5.60046">
        <ele>1527.8</ele>
        <time>2010-01-01T00:00:00Z</time>
      </trkpt>
      <trkpt lat="45.07623" lon="5.60051">
        <ele>1528.9</ele>
        <time>2010-01-01T00:00:00Z</time>
      </trkpt>
      <trkpt lat="45.07615" lon="5.60053">
        <ele>1529.5</ele>
        <time>2010-01-01T00:00:00Z</time>
      </trkpt>
      <trkpt lat="45.07605" lon="5.60053">
        <ele>1529.9</ele>
        <time>2010-01-01T00:00:00Z</time>
      </trkpt>
      <trkpt lat="45.07597" lon="5.60053">
        <ele>1530.4</ele>
        <time>2010-01-01T00:00:00Z</time>
      </trkpt>
      <trkpt lat="45.07597" lon="5.60053">
        <ele>1530.4</ele>
        <time>2010-01-01T00:00:00Z</time>
      </trkpt>
      <trkpt lat="45.07597" lon="5.60053">
        <ele>1530.4</ele>
        <time>2010-01-01T00:00:00Z</time>
      </trkpt>
      <trkpt lat="45.07591" lon="5.60056">
        <ele>1531.9</ele>
        <time>2010-01-01T00:00:00Z</time>
      </trkpt>
      <trkpt lat="45.07586" lon="5.60057">
        <ele>1532.6</ele>
        <time>2010-01-01T00:00:00Z</time>
      </trkpt>
      <trkpt lat="45.07581" lon="5.60054">
        <ele>1532.6</ele>
        <time>2010-01-01T00:00:00Z</time>
      </trkpt>
      <trkpt lat="45.07576" lon="5.60052">
        <ele>1531.7</ele>
        <time>2010-01-01T00:00:00Z</time>
      </trkpt>
      <trkpt lat="45.07571" lon="5.60053">
        <ele>1532</ele>
        <time>2010-01-01T00:00:00Z</time>
      </trkpt>
      <trkpt lat="45.07565" lon="5.60057">
        <ele>1533.1</ele>
        <time>2010-01-01T00:00:00Z</time>
      </trkpt>
      <trkpt lat="45.0756" lon="5.60061">
        <ele>1533.9</ele>
        <time>2010-01-01T00:00:00Z</time>
      </trkpt>
      <trkpt lat="45.07555" lon="5.60064">
        <ele>1534.2</ele>
        <time>2010-01-01T00:00:00Z</time>
      </trkpt>
      <trkpt lat="45.07549" lon="5.60063">
        <ele>1533.7</ele>
        <time>2010-01-01T00:00:00Z</time>
      </trkpt>
      <trkpt lat="45.07542" lon="5.60061">
        <ele>1533.3</ele>
        <time>2010-01-01T00:00:00Z</time>
      </trkpt>
      <trkpt lat="45.07534" lon="5.60057">
        <ele>1532.8</ele>
        <time>2010-01-01T00:00:00Z</time>
      </trkpt>
      <trkpt lat="45.07527" lon="5.60054">
        <ele>1532.6</ele>
        <time>2010-01-01T00:00:00Z</time>
      </trkpt>
      <trkpt lat="45.07518" lon="5.60051">
        <ele>1532.5</ele>
        <time>2010-01-01T00:00:00Z</time>
      </trkpt>
      <trkpt lat="45.0751" lon="5.6005">
        <ele>1532.7</ele>
        <time>2010-01-01T00:00:00Z</time>
      </trkpt>
      <trkpt lat="45.07502" lon="5.6005">
        <ele>1532.9</ele>
        <time>2010-01-01T00:00:00Z</time>
      </trkpt>
      <trkpt lat="45.07494" lon="5.60049">
        <ele>1547.8</ele>
        <time>2010-01-01T00:00:00Z</time>
      </trkpt>
      <trkpt lat="45.07486" lon="5.60044">
        <ele>1547.9</ele>
        <time>2010-01-01T00:00:00Z</time>
      </trkpt>
      <trkpt lat="45.07479" lon="5.60039">
        <ele>1548.2</ele>
        <time>2010-01-01T00:00:00Z</time>
      </trkpt>
      <trkpt lat="45.07473" lon="5.60032">
        <ele>1548.4</ele>
        <time>2010-01-01T00:00:00Z</time>
      </trkpt>
      <trkpt lat="45.07468" lon="5.60027">
        <ele>1549.1</ele>
        <time>2010-01-01T00:00:00Z</time>
      </trkpt>
      <trkpt lat="45.07464" lon="5.60023">
        <ele>1550</ele>
        <time>2010-01-01T00:00:00Z</time>
      </trkpt>
      <trkpt lat="45.0746" lon="5.60018">
        <ele>1551</ele>
        <time>2010-01-01T00:00:00Z</time>
      </trkpt>
      <trkpt lat="45.07455" lon="5.60013">
        <ele>1552.8</ele>
        <time>2010-01-01T00:00:00Z</time>
      </trkpt>
      <trkpt lat="45.07453" lon="5.6001">
        <ele>1553.6</ele>
        <time>2010-01-01T00:00:00Z</time>
      </trkpt>
      <trkpt lat="45.07451" lon="5.60005">
        <ele>1554.4</ele>
        <time>2010-01-01T00:00:00Z</time>
      </trkpt>
      <trkpt lat="45.07451" lon="5.59999">
        <ele>1547.6</ele>
        <time>2010-01-01T00:00:00Z</time>
      </trkpt>
      <trkpt lat="45.0745" lon="5.59995">
        <ele>1548</ele>
        <time>2010-01-01T00:00:00Z</time>
      </trkpt>
      <trkpt lat="45.07451" lon="5.59988">
        <ele>1547</ele>
        <time>2010-01-01T00:00:00Z</time>
      </trkpt>
      <trkpt lat="45.07453" lon="5.59982">
        <ele>1545.6</ele>
        <time>2010-01-01T00:00:00Z</time>
      </trkpt>
      <trkpt lat="45.07455" lon="5.59979">
        <ele>1544.5</ele>
        <time>2010-01-01T00:00:00Z</time>
      </trkpt>
      <trkpt lat="45.07456" lon="5.59975">
        <ele>1543.8</ele>
        <time>2010-01-01T00:00:00Z</time>
      </trkpt>
      <trkpt lat="45.07456" lon="5.59971">
        <ele>1543.6</ele>
        <time>2010-01-01T00:00:00Z</time>
      </trkpt>
      <trkpt lat="45.07455" lon="5.59967">
        <ele>1543.7</ele>
        <time>2010-01-01T00:00:00Z</time>
      </trkpt>
      <trkpt lat="45.07453" lon="5.59953">
        <ele>1543.7</ele>
        <time>2010-01-01T00:00:00Z</time>
      </trkpt>
      <trkpt lat="45.07452" lon="5.59947">
        <ele>1543.9</ele>
        <time>2010-01-01T00:00:00Z</time>
      </trkpt>
      <trkpt lat="45.07452" lon="5.59938">
        <ele>1543.8</ele>
        <time>2010-01-01T00:00:00Z</time>
      </trkpt>
      <trkpt lat="45.07454" lon="5.59928">
        <ele>1542.8</ele>
        <time>2010-01-01T00:00:00Z</time>
      </trkpt>
      <trkpt lat="45.07456" lon="5.59915">
        <ele>1536.6</ele>
        <time>2010-01-01T00:00:00Z</time>
      </trkpt>
      <trkpt lat="45.07458" lon="5.59903">
        <ele>1535.2</ele>
        <time>2010-01-01T00:00:00Z</time>
      </trkpt>
      <trkpt lat="45.0746" lon="5.59897">
        <ele>1534.1</ele>
        <time>2010-01-01T00:00:00Z</time>
      </trkpt>
      <trkpt lat="45.07461" lon="5.59891">
        <ele>1533.5</ele>
        <time>2010-01-01T00:00:00Z</time>
      </trkpt>
      <trkpt lat="45.07463" lon="5.59885">
        <ele>1532.5</ele>
        <time>2010-01-01T00:00:00Z</time>
      </trkpt>
      <trkpt lat="45.07465" lon="5.59879">
        <ele>1531.6</ele>
        <time>2010-01-01T00:00:00Z</time>
      </trkpt>
      <trkpt lat="45.07465" lon="5.59877">
        <ele>1531.5</ele>
        <time>2010-01-01T00:00:00Z</time>
      </trkpt>
      <trkpt lat="45.07465" lon="5.59877">
        <ele>1531.5</ele>
        <time>2010-01-01T00:00:00Z</time>
      </trkpt>
      <trkpt lat="45.07466" lon="5.59874">
        <ele>1531</ele>
        <time>2010-01-01T00:00:00Z</time>
      </trkpt>
      <trkpt lat="45.07465" lon="5.59869">
        <ele>1531.1</ele>
        <time>2010-01-01T00:00:00Z</time>
      </trkpt>
      <trkpt lat="45.07462" lon="5.59864">
        <ele>1532</ele>
        <time>2010-01-01T00:00:00Z</time>
      </trkpt>
      <trkpt lat="45.07459" lon="5.59863">
        <ele>1533.2</ele>
        <time>2010-01-01T00:00:00Z</time>
      </trkpt>
      <trkpt lat="45.07456" lon="5.59859">
        <ele>1534.4</ele>
        <time>2010-01-01T00:00:00Z</time>
      </trkpt>
      <trkpt lat="45.07454" lon="5.59856">
        <ele>1535.2</ele>
        <time>2010-01-01T00:00:00Z</time>
      </trkpt>
      <trkpt lat="45.07452" lon="5.59854">
        <ele>1536.2</ele>
        <time>2010-01-01T00:00:00Z</time>
      </trkpt>
      <trkpt lat="45.0745" lon="5.59853">
        <ele>1537.1</ele>
        <time>2010-01-01T00:00:00Z</time>
      </trkpt>
      <trkpt lat="45.07446" lon="5.5985">
        <ele>1539.2</ele>
        <time>2010-01-01T00:00:00Z</time>
      </trkpt>
      <trkpt lat="45.07443" lon="5.59847">
        <ele>1540.9</ele>
        <time>2010-01-01T00:00:00Z</time>
      </trkpt>
      <trkpt lat="45.07439" lon="5.59841">
        <ele>1543.8</ele>
        <time>2010-01-01T00:00:00Z</time>
      </trkpt>
      <trkpt lat="45.07433" lon="5.59834">
        <ele>1548.3</ele>
        <time>2010-01-01T00:00:00Z</time>
      </trkpt>
      <trkpt lat="45.07428" lon="5.59823">
        <ele>1544.3</ele>
        <time>2010-01-01T00:00:00Z</time>
      </trkpt>
      <trkpt lat="45.07425" lon="5.59814">
        <ele>1540.7</ele>
        <time>2010-01-01T00:00:00Z</time>
      </trkpt>
      <trkpt lat="45.0742" lon="5.59803">
        <ele>1537.1</ele>
        <time>2010-01-01T00:00:00Z</time>
      </trkpt>
      <trkpt lat="45.07418" lon="5.59792">
        <ele>1534.8</ele>
        <time>2010-01-01T00:00:00Z</time>
      </trkpt>
      <trkpt lat="45.07417" lon="5.59783">
        <ele>1534.5</ele>
        <time>2010-01-01T00:00:00Z</time>
      </trkpt>
      <trkpt lat="45.07417" lon="5.59776">
        <ele>1535.1</ele>
        <time>2010-01-01T00:00:00Z</time>
      </trkpt>
      <trkpt lat="45.07417" lon="5.59768">
        <ele>1537</ele>
        <time>2010-01-01T00:00:00Z</time>
      </trkpt>
      <trkpt lat="45.07417" lon="5.59759">
        <ele>1541.3</ele>
        <time>2010-01-01T00:00:00Z</time>
      </trkpt>
      <trkpt lat="45.07416" lon="5.59754">
        <ele>1552.7</ele>
        <time>2010-01-01T00:00:00Z</time>
      </trkpt>
      <trkpt lat="45.07416" lon="5.5975">
        <ele>1549.7</ele>
        <time>2010-01-01T00:00:00Z</time>
      </trkpt>
      <trkpt lat="45.07413" lon="5.59744">
        <ele>1549.5</ele>
        <time>2010-01-01T00:00:00Z</time>
      </trkpt>
      <trkpt lat="45.07406" lon="5.59729">
        <ele>1549.6</ele>
        <time>2010-01-01T00:00:00Z</time>
      </trkpt>
      <trkpt lat="45.074" lon="5.59718">
        <ele>1548.9</ele>
        <time>2010-01-01T00:00:00Z</time>
      </trkpt>
      <trkpt lat="45.0739" lon="5.59711">
        <ele>1549.3</ele>
        <time>2010-01-01T00:00:00Z</time>
      </trkpt>
      <trkpt lat="45.07378" lon="5.59706">
        <ele>1550.8</ele>
        <time>2010-01-01T00:00:00Z</time>
      </trkpt>
      <trkpt lat="45.07369" lon="5.59704">
        <ele>1552.4</ele>
        <time>2010-01-01T00:00:00Z</time>
      </trkpt>
      <trkpt lat="45.07368" lon="5.59674">
        <ele>1549.8</ele>
        <time>2010-01-01T00:00:00Z</time>
      </trkpt>
      <trkpt lat="45.07326" lon="5.59632">
        <ele>1569.7</ele>
        <time>2010-01-01T00:00:00Z</time>
      </trkpt>
      <trkpt lat="45.07329" lon="5.59564">
        <ele>1556.2</ele>
        <time>2010-01-01T00:00:00Z</time>
      </trkpt>
      <trkpt lat="45.07331" lon="5.59554">
        <ele>1556.3</ele>
        <time>2010-01-01T00:00:00Z</time>
      </trkpt>
      <trkpt lat="45.07329" lon="5.59544">
        <ele>1555.8</ele>
        <time>2010-01-01T00:00:00Z</time>
      </trkpt>
      <trkpt lat="45.07325" lon="5.59537">
        <ele>1555.2</ele>
        <time>2010-01-01T00:00:00Z</time>
      </trkpt>
      <trkpt lat="45.07321" lon="5.59534">
        <ele>1555.2</ele>
        <time>2010-01-01T00:00:00Z</time>
      </trkpt>
      <trkpt lat="45.07316" lon="5.5953">
        <ele>1555.3</ele>
        <time>2010-01-01T00:00:00Z</time>
      </trkpt>
      <trkpt lat="45.07311" lon="5.59525">
        <ele>1555.5</ele>
        <time>2010-01-01T00:00:00Z</time>
      </trkpt>
      <trkpt lat="45.07302" lon="5.59518">
        <ele>1557.1</ele>
        <time>2010-01-01T00:00:00Z</time>
      </trkpt>
      <trkpt lat="45.07299" lon="5.59513">
        <ele>1557.5</ele>
        <time>2010-01-01T00:00:00Z</time>
      </trkpt>
      <trkpt lat="45.0729" lon="5.59501">
        <ele>1559.9</ele>
        <time>2010-01-01T00:00:00Z</time>
      </trkpt>
      <trkpt lat="45.07285" lon="5.59493">
        <ele>1547.4</ele>
        <time>2010-01-01T00:00:00Z</time>
      </trkpt>
      <trkpt lat="45.07278" lon="5.59483">
        <ele>1548.5</ele>
        <time>2010-01-01T00:00:00Z</time>
      </trkpt>
      <trkpt lat="45.07273" lon="5.59475">
        <ele>1548.3</ele>
        <time>2010-01-01T00:00:00Z</time>
      </trkpt>
      <trkpt lat="45.07267" lon="5.59462">
        <ele>1546.4</ele>
        <time>2010-01-01T00:00:00Z</time>
      </trkpt>
      <trkpt lat="45.0726" lon="5.5945">
        <ele>1545.1</ele>
        <time>2010-01-01T00:00:00Z</time>
      </trkpt>
      <trkpt lat="45.07253" lon="5.59437">
        <ele>1544.7</ele>
        <time>2010-01-01T00:00:00Z</time>
      </trkpt>
      <trkpt lat="45.07249" lon="5.5943">
        <ele>1555.3</ele>
        <time>2010-01-01T00:00:00Z</time>
      </trkpt>
      <trkpt lat="45.07249" lon="5.5943">
        <ele>1555.3</ele>
        <time>2010-01-01T00:00:00Z</time>
      </trkpt>
      <trkpt lat="45.07244" lon="5.5942">
        <ele>1551.8</ele>
        <time>2010-01-01T00:00:00Z</time>
      </trkpt>
      <trkpt lat="45.07232" lon="5.59395">
        <ele>1539.1</ele>
        <time>2010-01-01T00:00:00Z</time>
      </trkpt>
      <trkpt lat="45.07219" lon="5.59373">
        <ele>1534.7</ele>
        <time>2010-01-01T00:00:00Z</time>
      </trkpt>
      <trkpt lat="45.07213" lon="5.59362">
        <ele>1532.6</ele>
        <time>2010-01-01T00:00:00Z</time>
      </trkpt>
      <trkpt lat="45.07209" lon="5.59359">
        <ele>1531.9</ele>
        <time>2010-01-01T00:00:00Z</time>
      </trkpt>
      <trkpt lat="45.07205" lon="5.59358">
        <ele>1531.5</ele>
        <time>2010-01-01T00:00:00Z</time>
      </trkpt>
      <trkpt lat="45.07202" lon="5.59358">
        <ele>1531.3</ele>
        <time>2010-01-01T00:00:00Z</time>
      </trkpt>
      <trkpt lat="45.07198" lon="5.59361">
        <ele>1531.6</ele>
        <time>2010-01-01T00:00:00Z</time>
      </trkpt>
      <trkpt lat="45.07194" lon="5.59365">
        <ele>1532.3</ele>
        <time>2010-01-01T00:00:00Z</time>
      </trkpt>
      <trkpt lat="45.07187" lon="5.59373">
        <ele>1534.3</ele>
        <time>2010-01-01T00:00:00Z</time>
      </trkpt>
      <trkpt lat="45.07181" lon="5.59379">
        <ele>1536.2</ele>
        <time>2010-01-01T00:00:00Z</time>
      </trkpt>
      <trkpt lat="45.07176" lon="5.59382">
        <ele>1537.4</ele>
        <time>2010-01-01T00:00:00Z</time>
      </trkpt>
      <trkpt lat="45.07173" lon="5.59383">
        <ele>1537.9</ele>
        <time>2010-01-01T00:00:00Z</time>
      </trkpt>
      <trkpt lat="45.07176" lon="5.59377">
        <ele>1535.6</ele>
        <time>2010-01-01T00:00:00Z</time>
      </trkpt>
      <trkpt lat="45.07179" lon="5.59373">
        <ele>1534.1</ele>
        <time>2010-01-01T00:00:00Z</time>
      </trkpt>
      <trkpt lat="45.0718" lon="5.5937">
        <ele>1533.1</ele>
        <time>2010-01-01T00:00:00Z</time>
      </trkpt>
      <trkpt lat="45.07181" lon="5.59369">
        <ele>1532.8</ele>
        <time>2010-01-01T00:00:00Z</time>
      </trkpt>
      <trkpt lat="45.07181" lon="5.59367">
        <ele>1532.1</ele>
        <time>2010-01-01T00:00:00Z</time>
      </trkpt>
      <trkpt lat="45.07179" lon="5.59367">
        <ele>1532</ele>
        <time>2010-01-01T00:00:00Z</time>
      </trkpt>
      <trkpt lat="45.07176" lon="5.5937">
        <ele>1533</ele>
        <time>2010-01-01T00:00:00Z</time>
      </trkpt>
      <trkpt lat="45.07171" lon="5.59374">
        <ele>1534.4</ele>
        <time>2010-01-01T00:00:00Z</time>
      </trkpt>
      <trkpt lat="45.07164" lon="5.59379">
        <ele>1533.7</ele>
        <time>2010-01-01T00:00:00Z</time>
      </trkpt>
      <trkpt lat="45.07156" lon="5.59385">
        <ele>1535.7</ele>
        <time>2010-01-01T00:00:00Z</time>
      </trkpt>
      <trkpt lat="45.07156" lon="5.59385">
        <ele>1535.7</ele>
        <time>2010-01-01T00:00:00Z</time>
      </trkpt>
      <trkpt lat="45.07146" lon="5.59393">
        <ele>1537.2</ele>
        <time>2010-01-01T00:00:00Z</time>
      </trkpt>
      <trkpt lat="45.07135" lon="5.59399">
        <ele>1536.7</ele>
        <time>2010-01-01T00:00:00Z</time>
      </trkpt>
      <trkpt lat="45.07118" lon="5.59407">
        <ele>1535.7</ele>
        <time>2010-01-01T00:00:00Z</time>
      </trkpt>
      <trkpt lat="45.07111" lon="5.59408">
        <ele>1535.4</ele>
        <time>2010-01-01T00:00:00Z</time>
      </trkpt>
      <trkpt lat="45.07107" lon="5.59408">
        <ele>1535.3</ele>
        <time>2010-01-01T00:00:00Z</time>
      </trkpt>
      <trkpt lat="45.07104" lon="5.59408">
        <ele>1535.4</ele>
        <time>2010-01-01T00:00:00Z</time>
      </trkpt>
      <trkpt lat="45.07103" lon="5.59408">
        <ele>1535.4</ele>
        <time>2010-01-01T00:00:00Z</time>
      </trkpt>
      <trkpt lat="45.07101" lon="5.59408">
        <ele>1535.5</ele>
        <time>2010-01-01T00:00:00Z</time>
      </trkpt>
      <trkpt lat="45.07097" lon="5.59407">
        <ele>1535.6</ele>
        <time>2010-01-01T00:00:00Z</time>
      </trkpt>
      <trkpt lat="45.07092" lon="5.59406">
        <ele>1535.8</ele>
        <time>2010-01-01T00:00:00Z</time>
      </trkpt>
      <trkpt lat="45.07088" lon="5.59406">
        <ele>1536.1</ele>
        <time>2010-01-01T00:00:00Z</time>
      </trkpt>
      <trkpt lat="45.07084" lon="5.59406">
        <ele>1536.2</ele>
        <time>2010-01-01T00:00:00Z</time>
      </trkpt>
      <trkpt lat="45.07081" lon="5.59407">
        <ele>1541</ele>
        <time>2010-01-01T00:00:00Z</time>
      </trkpt>
      <trkpt lat="45.07081" lon="5.59407">
        <ele>1541</ele>
        <time>2010-01-01T00:00:00Z</time>
      </trkpt>
      <trkpt lat="45.0708" lon="5.59407">
        <ele>1541.1</ele>
        <time>2010-01-01T00:00:00Z</time>
      </trkpt>
      <trkpt lat="45.07078" lon="5.59408">
        <ele>1541.2</ele>
        <time>2010-01-01T00:00:00Z</time>
      </trkpt>
      <trkpt lat="45.07073" lon="5.59409">
        <ele>1541.9</ele>
        <time>2010-01-01T00:00:00Z</time>
      </trkpt>
      <trkpt lat="45.0707" lon="5.5941">
        <ele>1542.4</ele>
        <time>2010-01-01T00:00:00Z</time>
      </trkpt>
      <trkpt lat="45.07067" lon="5.5941">
        <ele>1543</ele>
        <time>2010-01-01T00:00:00Z</time>
      </trkpt>
      <trkpt lat="45.07064" lon="5.59409">
        <ele>1543.7</ele>
        <time>2010-01-01T00:00:00Z</time>
      </trkpt>
      <trkpt lat="45.07062" lon="5.59406">
        <ele>1544.1</ele>
        <time>2010-01-01T00:00:00Z</time>
      </trkpt>
      <trkpt lat="45.0706" lon="5.59403">
        <ele>1544.5</ele>
        <time>2010-01-01T00:00:00Z</time>
      </trkpt>
      <trkpt lat="45.0706" lon="5.59398">
        <ele>1544.4</ele>
        <time>2010-01-01T00:00:00Z</time>
      </trkpt>
      <trkpt lat="45.0706" lon="5.59392">
        <ele>1544.2</ele>
        <time>2010-01-01T00:00:00Z</time>
      </trkpt>
      <trkpt lat="45.07062" lon="5.59378">
        <ele>1542.6</ele>
        <time>2010-01-01T00:00:00Z</time>
      </trkpt>
      <trkpt lat="45.07065" lon="5.59362">
        <ele>1539</ele>
        <time>2010-01-01T00:00:00Z</time>
      </trkpt>
      <trkpt lat="45.07066" lon="5.59349">
        <ele>1534.9</ele>
        <time>2010-01-01T00:00:00Z</time>
      </trkpt>
      <trkpt lat="45.07067" lon="5.59345">
        <ele>1533.1</ele>
        <time>2010-01-01T00:00:00Z</time>
      </trkpt>
      <trkpt lat="45.07067" lon="5.59342">
        <ele>1532.2</ele>
        <time>2010-01-01T00:00:00Z</time>
      </trkpt>
      <trkpt lat="45.07066" lon="5.59335">
        <ele>1531.5</ele>
        <time>2010-01-01T00:00:00Z</time>
      </trkpt>
      <trkpt lat="45.07065" lon="5.59327">
        <ele>1526.7</ele>
        <time>2010-01-01T00:00:00Z</time>
      </trkpt>
      <trkpt lat="45.07063" lon="5.59321">
        <ele>1528.2</ele>
        <time>2010-01-01T00:00:00Z</time>
      </trkpt>
      <trkpt lat="45.07062" lon="5.59318">
        <ele>1528.8</ele>
        <time>2010-01-01T00:00:00Z</time>
      </trkpt>
      <trkpt lat="45.07061" lon="5.59315">
        <ele>1529.5</ele>
        <time>2010-01-01T00:00:00Z</time>
      </trkpt>
      <trkpt lat="45.0706" lon="5.59311">
        <ele>1530</ele>
        <time>2010-01-01T00:00:00Z</time>
      </trkpt>
      <trkpt lat="45.0706" lon="5.59307">
        <ele>1530.2</ele>
        <time>2010-01-01T00:00:00Z</time>
      </trkpt>
      <trkpt lat="45.0706" lon="5.59304">
        <ele>1530.3</ele>
        <time>2010-01-01T00:00:00Z</time>
      </trkpt>
      <trkpt lat="45.07061" lon="5.593">
        <ele>1530</ele>
        <time>2010-01-01T00:00:00Z</time>
      </trkpt>
      <trkpt lat="45.07062" lon="5.59297">
        <ele>1529.7</ele>
        <time>2010-01-01T00:00:00Z</time>
      </trkpt>
      <trkpt lat="45.07062" lon="5.59295">
        <ele>1529.6</ele>
        <time>2010-01-01T00:00:00Z</time>
      </trkpt>
      <trkpt lat="45.07061" lon="5.59292">
        <ele>1529.7</ele>
        <time>2010-01-01T00:00:00Z</time>
      </trkpt>
      <trkpt lat="45.0706" lon="5.5929">
        <ele>1529.8</ele>
        <time>2010-01-01T00:00:00Z</time>
      </trkpt>
      <trkpt lat="45.07059" lon="5.59287">
        <ele>1529.8</ele>
        <time>2010-01-01T00:00:00Z</time>
      </trkpt>
      <trkpt lat="45.07058" lon="5.59283">
        <ele>1529.7</ele>
        <time>2010-01-01T00:00:00Z</time>
      </trkpt>
      <trkpt lat="45.07057" lon="5.59279">
        <ele>1529.5</ele>
        <time>2010-01-01T00:00:00Z</time>
      </trkpt>
      <trkpt lat="45.07057" lon="5.59271">
        <ele>1528.3</ele>
        <time>2010-01-01T00:00:00Z</time>
      </trkpt>
      <trkpt lat="45.07059" lon="5.59249">
        <ele>1521</ele>
        <time>2010-01-01T00:00:00Z</time>
      </trkpt>
      <trkpt lat="45.0706" lon="5.59235">
        <ele>1521.5</ele>
        <time>2010-01-01T00:00:00Z</time>
      </trkpt>
      <trkpt lat="45.07061" lon="5.59227">
        <ele>1522</ele>
        <time>2010-01-01T00:00:00Z</time>
      </trkpt>
      <trkpt lat="45.07062" lon="5.59219">
        <ele>1522.3</ele>
        <time>2010-01-01T00:00:00Z</time>
      </trkpt>
      <trkpt lat="45.07064" lon="5.59213">
        <ele>1521.9</ele>
        <time>2010-01-01T00:00:00Z</time>
      </trkpt>
      <trkpt lat="45.07064" lon="5.5921">
        <ele>1521.9</ele>
        <time>2010-01-01T00:00:00Z</time>
      </trkpt>
      <trkpt lat="45.07064" lon="5.59207">
        <ele>1521.8</ele>
        <time>2010-01-01T00:00:00Z</time>
      </trkpt>
      <trkpt lat="45.07066" lon="5.59202">
        <ele>1520.9</ele>
        <time>2010-01-01T00:00:00Z</time>
      </trkpt>
      <trkpt lat="45.07068" lon="5.59198">
        <ele>1520</ele>
        <time>2010-01-01T00:00:00Z</time>
      </trkpt>
      <trkpt lat="45.07069" lon="5.59194">
        <ele>1519</ele>
        <time>2010-01-01T00:00:00Z</time>
      </trkpt>
      <trkpt lat="45.07069" lon="5.59189">
        <ele>1517.9</ele>
        <time>2010-01-01T00:00:00Z</time>
      </trkpt>
      <trkpt lat="45.07069" lon="5.59183">
        <ele>1516.3</ele>
        <time>2010-01-01T00:00:00Z</time>
      </trkpt>
      <trkpt lat="45.07069" lon="5.59179">
        <ele>1515.1</ele>
        <time>2010-01-01T00:00:00Z</time>
      </trkpt>
      <trkpt lat="45.07069" lon="5.59173">
        <ele>1513.5</ele>
        <time>2010-01-01T00:00:00Z</time>
      </trkpt>
      <trkpt lat="45.0707" lon="5.59167">
        <ele>1511.9</ele>
        <time>2010-01-01T00:00:00Z</time>
      </trkpt>
      <trkpt lat="45.07069" lon="5.5916">
        <ele>1508.4</ele>
        <time>2010-01-01T00:00:00Z</time>
      </trkpt>
      <trkpt lat="45.07069" lon="5.59155">
        <ele>1509.1</ele>
        <time>2010-01-01T00:00:00Z</time>
      </trkpt>
      <trkpt lat="45.07069" lon="5.59154">
        <ele>1509.2</ele>
        <time>2010-01-01T00:00:00Z</time>
      </trkpt>
      <trkpt lat="45.07069" lon="5.59154">
        <ele>1509.2</ele>
        <time>2010-01-01T00:00:00Z</time>
      </trkpt>
      <trkpt lat="45.07067" lon="5.59147">
        <ele>1510.6</ele>
        <time>2010-01-01T00:00:00Z</time>
      </trkpt>
      <trkpt lat="45.07065" lon="5.5914">
        <ele>1511.4</ele>
        <time>2010-01-01T00:00:00Z</time>
      </trkpt>
      <trkpt lat="45.07064" lon="5.59133">
        <ele>1511.4</ele>
        <time>2010-01-01T00:00:00Z</time>
      </trkpt>
      <trkpt lat="45.07062" lon="5.59118">
        <ele>1510.3</ele>
        <time>2010-01-01T00:00:00Z</time>
      </trkpt>
      <trkpt lat="45.07061" lon="5.59106">
        <ele>1508.3</ele>
        <time>2010-01-01T00:00:00Z</time>
      </trkpt>
      <trkpt lat="45.07059" lon="5.59096">
        <ele>1507</ele>
        <time>2010-01-01T00:00:00Z</time>
      </trkpt>
      <trkpt lat="45.07058" lon="5.59088">
        <ele>1506.3</ele>
        <time>2010-01-01T00:00:00Z</time>
      </trkpt>
      <trkpt lat="45.07056" lon="5.59083">
        <ele>1492.4</ele>
        <time>2010-01-01T00:00:00Z</time>
      </trkpt>
      <trkpt lat="45.07054" lon="5.59079">
        <ele>1492.7</ele>
        <time>2010-01-01T00:00:00Z</time>
      </trkpt>
      <trkpt lat="45.0705" lon="5.59074">
        <ele>1493.4</ele>
        <time>2010-01-01T00:00:00Z</time>
      </trkpt>
      <trkpt lat="45.07045" lon="5.59069">
        <ele>1494.2</ele>
        <time>2010-01-01T00:00:00Z</time>
      </trkpt>
      <trkpt lat="45.07039" lon="5.59065">
        <ele>1495.3</ele>
        <time>2010-01-01T00:00:00Z</time>
      </trkpt>
      <trkpt lat="45.07029" lon="5.59061">
        <ele>1497.5</ele>
        <time>2010-01-01T00:00:00Z</time>
      </trkpt>
      <trkpt lat="45.07011" lon="5.59055">
        <ele>1500.3</ele>
        <time>2010-01-01T00:00:00Z</time>
      </trkpt>
      <trkpt lat="45.06988" lon="5.59049">
        <ele>1511.4</ele>
        <time>2010-01-01T00:00:00Z</time>
      </trkpt>
      <trkpt lat="45.06969" lon="5.59043">
        <ele>1510.2</ele>
        <time>2010-01-01T00:00:00Z</time>
      </trkpt>
      <trkpt lat="45.06942" lon="5.59034">
        <ele>1509.3</ele>
        <time>2010-01-01T00:00:00Z</time>
      </trkpt>
      <trkpt lat="45.06914" lon="5.59024">
        <ele>1513.8</ele>
        <time>2010-01-01T00:00:00Z</time>
      </trkpt>
      <trkpt lat="45.06881" lon="5.59011">
        <ele>1517.2</ele>
        <time>2010-01-01T00:00:00Z</time>
      </trkpt>
      <trkpt lat="45.0686" lon="5.59">
        <ele>1499.4</ele>
        <time>2010-01-01T00:00:00Z</time>
      </trkpt>
      <trkpt lat="45.06838" lon="5.5899">
        <ele>1505.5</ele>
        <time>2010-01-01T00:00:00Z</time>
      </trkpt>
      <trkpt lat="45.06828" lon="5.58982">
        <ele>1520.1</ele>
        <time>2010-01-01T00:00:00Z</time>
      </trkpt>
      <trkpt lat="45.06822" lon="5.58978">
        <ele>1521.7</ele>
        <time>2010-01-01T00:00:00Z</time>
      </trkpt>
      <trkpt lat="45.06817" lon="5.58975">
        <ele>1522.9</ele>
        <time>2010-01-01T00:00:00Z</time>
      </trkpt>
      <trkpt lat="45.06813" lon="5.58971">
        <ele>1523.8</ele>
        <time>2010-01-01T00:00:00Z</time>
      </trkpt>
      <trkpt lat="45.06811" lon="5.58967">
        <ele>1524.1</ele>
        <time>2010-01-01T00:00:00Z</time>
      </trkpt>
      <trkpt lat="45.0681" lon="5.58962">
        <ele>1524</ele>
        <time>2010-01-01T00:00:00Z</time>
      </trkpt>
      <trkpt lat="45.0681" lon="5.58956">
        <ele>1523.3</ele>
        <time>2010-01-01T00:00:00Z</time>
      </trkpt>
      <trkpt lat="45.06799" lon="5.58905">
        <ele>1510.9</ele>
        <time>2010-01-01T00:00:00Z</time>
      </trkpt>
      <trkpt lat="45.06789" lon="5.58862">
        <ele>1510.1</ele>
        <time>2010-01-01T00:00:00Z</time>
      </trkpt>
      <trkpt lat="45.06764" lon="5.58822">
        <ele>1508.2</ele>
        <time>2010-01-01T00:00:00Z</time>
      </trkpt>
      <trkpt lat="45.06761" lon="5.58806">
        <ele>1503.1</ele>
        <time>2010-01-01T00:00:00Z</time>
      </trkpt>
      <trkpt lat="45.0676" lon="5.588">
        <ele>1501.6</ele>
        <time>2010-01-01T00:00:00Z</time>
      </trkpt>
      <trkpt lat="45.0676" lon="5.588">
        <ele>1501.6</ele>
        <time>2010-01-01T00:00:00Z</time>
      </trkpt>
      <trkpt lat="45.06751" lon="5.58757">
        <ele>1504.9</ele>
        <time>2010-01-01T00:00:00Z</time>
      </trkpt>
      <trkpt lat="45.06739" lon="5.58706">
        <ele>1514.3</ele>
        <time>2010-01-01T00:00:00Z</time>
      </trkpt>
      <trkpt lat="45.06695" lon="5.58624">
        <ele>1503.8</ele>
        <time>2010-01-01T00:00:00Z</time>
      </trkpt>
      <trkpt lat="45.06647" lon="5.58553">
        <ele>1505</ele>
        <time>2010-01-01T00:00:00Z</time>
      </trkpt>
      <trkpt lat="45.06635" lon="5.58531">
        <ele>1502.3</ele>
        <time>2010-01-01T00:00:00Z</time>
      </trkpt>
      <trkpt lat="45.06626" lon="5.58517">
        <ele>1501.7</ele>
        <time>2010-01-01T00:00:00Z</time>
      </trkpt>
      <trkpt lat="45.06615" lon="5.58504">
        <ele>1502.4</ele>
        <time>2010-01-01T00:00:00Z</time>
      </trkpt>
      <trkpt lat="45.06604" lon="5.58494">
        <ele>1488.4</ele>
        <time>2010-01-01T00:00:00Z</time>
      </trkpt>
      <trkpt lat="45.06588" lon="5.5848">
        <ele>1488.5</ele>
        <time>2010-01-01T00:00:00Z</time>
      </trkpt>
      <trkpt lat="45.0657" lon="5.58471">
        <ele>1494.1</ele>
        <time>2010-01-01T00:00:00Z</time>
      </trkpt>
      <trkpt lat="45.06546" lon="5.58461">
        <ele>1492.7</ele>
        <time>2010-01-01T00:00:00Z</time>
      </trkpt>
      <trkpt lat="45.0652" lon="5.58453">
        <ele>1492.6</ele>
        <time>2010-01-01T00:00:00Z</time>
      </trkpt>
      <trkpt lat="45.06497" lon="5.58443">
        <ele>1494</ele>
        <time>2010-01-01T00:00:00Z</time>
      </trkpt>
      <trkpt lat="45.0647" lon="5.58434">
        <ele>1494.2</ele>
        <time>2010-01-01T00:00:00Z</time>
      </trkpt>
      <trkpt lat="45.06448" lon="5.58426">
        <ele>1494.1</ele>
        <time>2010-01-01T00:00:00Z</time>
      </trkpt>
      <trkpt lat="45.06433" lon="5.58421">
        <ele>1492.4</ele>
        <time>2010-01-01T00:00:00Z</time>
      </trkpt>
      <trkpt lat="45.06423" lon="5.58418">
        <ele>1490.2</ele>
        <time>2010-01-01T00:00:00Z</time>
      </trkpt>
      <trkpt lat="45.06417" lon="5.58417">
        <ele>1488.2</ele>
        <time>2010-01-01T00:00:00Z</time>
      </trkpt>
      <trkpt lat="45.06412" lon="5.58416">
        <ele>1484.3</ele>
        <time>2010-01-01T00:00:00Z</time>
      </trkpt>
      <trkpt lat="45.06407" lon="5.58415">
        <ele>1481.1</ele>
        <time>2010-01-01T00:00:00Z</time>
      </trkpt>
      <trkpt lat="45.06404" lon="5.58415">
        <ele>1479.6</ele>
        <time>2010-01-01T00:00:00Z</time>
      </trkpt>
      <trkpt lat="45.064" lon="5.58416">
        <ele>1477.8</ele>
        <time>2010-01-01T00:00:00Z</time>
      </trkpt>
      <trkpt lat="45.06395" lon="5.58416">
        <ele>1475.9</ele>
        <time>2010-01-01T00:00:00Z</time>
      </trkpt>
      <trkpt lat="45.06385" lon="5.58414">
        <ele>1472.8</ele>
        <time>2010-01-01T00:00:00Z</time>
      </trkpt>
      <trkpt lat="45.06382" lon="5.58414">
        <ele>1472</ele>
        <time>2010-01-01T00:00:00Z</time>
      </trkpt>
      <trkpt lat="45.06378" lon="5.58415">
        <ele>1471.2</ele>
        <time>2010-01-01T00:00:00Z</time>
      </trkpt>
      <trkpt lat="45.06377" lon="5.58418">
        <ele>1483.5</ele>
        <time>2010-01-01T00:00:00Z</time>
      </trkpt>
      <trkpt lat="45.06377" lon="5.58418">
        <ele>1483.5</ele>
        <time>2010-01-01T00:00:00Z</time>
      </trkpt>
      <trkpt lat="45.06376" lon="5.58424">
        <ele>1483.6</ele>
        <time>2010-01-01T00:00:00Z</time>
      </trkpt>
      <trkpt lat="45.06376" lon="5.58424">
        <ele>1483.6</ele>
        <time>2010-01-01T00:00:00Z</time>
      </trkpt>
      <trkpt lat="45.06375" lon="5.58431">
        <ele>1483.9</ele>
        <time>2010-01-01T00:00:00Z</time>
      </trkpt>
      <trkpt lat="45.06372" lon="5.58447">
        <ele>1485</ele>
        <time>2010-01-01T00:00:00Z</time>
      </trkpt>
      <trkpt lat="45.06366" lon="5.58469">
        <ele>1486.7</ele>
        <time>2010-01-01T00:00:00Z</time>
      </trkpt>
      <trkpt lat="45.06358" lon="5.58495">
        <ele>1487.1</ele>
        <time>2010-01-01T00:00:00Z</time>
      </trkpt>
      <trkpt lat="45.06347" lon="5.58526">
        <ele>1499.9</ele>
        <time>2010-01-01T00:00:00Z</time>
      </trkpt>
      <trkpt lat="45.06335" lon="5.58549">
        <ele>1502.9</ele>
        <time>2010-01-01T00:00:00Z</time>
      </trkpt>
      <trkpt lat="45.06324" lon="5.58566">
        <ele>1486.7</ele>
        <time>2010-01-01T00:00:00Z</time>
      </trkpt>
      <trkpt lat="45.06312" lon="5.58581">
        <ele>1485.5</ele>
        <time>2010-01-01T00:00:00Z</time>
      </trkpt>
      <trkpt lat="45.06298" lon="5.58596">
        <ele>1493.6</ele>
        <time>2010-01-01T00:00:00Z</time>
      </trkpt>
      <trkpt lat="45.06287" lon="5.5861">
        <ele>1492.4</ele>
        <time>2010-01-01T00:00:00Z</time>
      </trkpt>
      <trkpt lat="45.06276" lon="5.58623">
        <ele>1492.3</ele>
        <time>2010-01-01T00:00:00Z</time>
      </trkpt>
      <trkpt lat="45.06271" lon="5.5863">
        <ele>1492.6</ele>
        <time>2010-01-01T00:00:00Z</time>
      </trkpt>
      <trkpt lat="45.06267" lon="5.58638">
        <ele>1493.1</ele>
        <time>2010-01-01T00:00:00Z</time>
      </trkpt>
      <trkpt lat="45.06263" lon="5.58647">
        <ele>1493.5</ele>
        <time>2010-01-01T00:00:00Z</time>
      </trkpt>
      <trkpt lat="45.06258" lon="5.58657">
        <ele>1493.2</ele>
        <time>2010-01-01T00:00:00Z</time>
      </trkpt>
      <trkpt lat="45.06251" lon="5.58668">
        <ele>1493.9</ele>
        <time>2010-01-01T00:00:00Z</time>
      </trkpt>
      <trkpt lat="45.06243" lon="5.58682">
        <ele>1492</ele>
        <time>2010-01-01T00:00:00Z</time>
      </trkpt>
      <trkpt lat="45.06233" lon="5.58695">
        <ele>1492.5</ele>
        <time>2010-01-01T00:00:00Z</time>
      </trkpt>
      <trkpt lat="45.06227" lon="5.58705">
        <ele>1493.3</ele>
        <time>2010-01-01T00:00:00Z</time>
      </trkpt>
      <trkpt lat="45.06223" lon="5.58711">
        <ele>1493.7</ele>
        <time>2010-01-01T00:00:00Z</time>
      </trkpt>
      <trkpt lat="45.06218" lon="5.58716">
        <ele>1493.7</ele>
        <time>2010-01-01T00:00:00Z</time>
      </trkpt>
      <trkpt lat="45.0621" lon="5.58725">
        <ele>1493.6</ele>
        <time>2010-01-01T00:00:00Z</time>
      </trkpt>
      <trkpt lat="45.06201" lon="5.58734">
        <ele>1492.7</ele>
        <time>2010-01-01T00:00:00Z</time>
      </trkpt>
      <trkpt lat="45.06194" lon="5.58742">
        <ele>1491.8</ele>
        <time>2010-01-01T00:00:00Z</time>
      </trkpt>
      <trkpt lat="45.0619" lon="5.58748">
        <ele>1491.4</ele>
        <time>2010-01-01T00:00:00Z</time>
      </trkpt>
      <trkpt lat="45.06186" lon="5.58754">
        <ele>1503.1</ele>
        <time>2010-01-01T00:00:00Z</time>
      </trkpt>
      <trkpt lat="45.06185" lon="5.58758">
        <ele>1503.4</ele>
        <time>2010-01-01T00:00:00Z</time>
      </trkpt>
      <trkpt lat="45.06182" lon="5.58765">
        <ele>1504.1</ele>
        <time>2010-01-01T00:00:00Z</time>
      </trkpt>
      <trkpt lat="45.06179" lon="5.58774">
        <ele>1506.4</ele>
        <time>2010-01-01T00:00:00Z</time>
      </trkpt>
      <trkpt lat="45.06173" lon="5.58782">
        <ele>1508.1</ele>
        <time>2010-01-01T00:00:00Z</time>
      </trkpt>
      <trkpt lat="45.06163" lon="5.58788">
        <ele>1496</ele>
        <time>2010-01-01T00:00:00Z</time>
      </trkpt>
      <trkpt lat="45.06152" lon="5.58793">
        <ele>1496.6</ele>
        <time>2010-01-01T00:00:00Z</time>
      </trkpt>
      <trkpt lat="45.06137" lon="5.58801">
        <ele>1496.9</ele>
        <time>2010-01-01T00:00:00Z</time>
      </trkpt>
      <trkpt lat="45.06125" lon="5.58808">
        <ele>1496.7</ele>
        <time>2010-01-01T00:00:00Z</time>
      </trkpt>
      <trkpt lat="45.06115" lon="5.58814">
        <ele>1496.7</ele>
        <time>2010-01-01T00:00:00Z</time>
      </trkpt>
      <trkpt lat="45.06106" lon="5.58819">
        <ele>1496.8</ele>
        <time>2010-01-01T00:00:00Z</time>
      </trkpt>
      <trkpt lat="45.06094" lon="5.58824">
        <ele>1497.6</ele>
        <time>2010-01-01T00:00:00Z</time>
      </trkpt>
      <trkpt lat="45.06079" lon="5.58828">
        <ele>1494.9</ele>
        <time>2010-01-01T00:00:00Z</time>
      </trkpt>
      <trkpt lat="45.06064" lon="5.58831">
        <ele>1489</ele>
        <time>2010-01-01T00:00:00Z</time>
      </trkpt>
      <trkpt lat="45.06053" lon="5.58836">
        <ele>1500.1</ele>
        <time>2010-01-01T00:00:00Z</time>
      </trkpt>
      <trkpt lat="45.06043" lon="5.58844">
        <ele>1499.4</ele>
        <time>2010-01-01T00:00:00Z</time>
      </trkpt>
      <trkpt lat="45.06034" lon="5.58855">
        <ele>1499.1</ele>
        <time>2010-01-01T00:00:00Z</time>
      </trkpt>
      <trkpt lat="45.0602" lon="5.58878">
        <ele>1500.8</ele>
        <time>2010-01-01T00:00:00Z</time>
      </trkpt>
      <trkpt lat="45.06004" lon="5.58907">
        <ele>1502.3</ele>
        <time>2010-01-01T00:00:00Z</time>
      </trkpt>
      <trkpt lat="45.05988" lon="5.58933">
        <ele>1502.1</ele>
        <time>2010-01-01T00:00:00Z</time>
      </trkpt>
      <trkpt lat="45.05971" lon="5.58955">
        <ele>1502.8</ele>
        <time>2010-01-01T00:00:00Z</time>
      </trkpt>
      <trkpt lat="45.05967" lon="5.58959">
        <ele>1502.8</ele>
        <time>2010-01-01T00:00:00Z</time>
      </trkpt>
      <trkpt lat="45.05866" lon="5.59031">
        <ele>1503</ele>
        <time>2010-01-01T00:00:00Z</time>
      </trkpt>
      <trkpt lat="45.05861" lon="5.59037">
        <ele>1503.3</ele>
        <time>2010-01-01T00:00:00Z</time>
      </trkpt>
      <trkpt lat="45.05857" lon="5.59041">
        <ele>1503.6</ele>
        <time>2010-01-01T00:00:00Z</time>
      </trkpt>
      <trkpt lat="45.05853" lon="5.59047">
        <ele>1504.1</ele>
        <time>2010-01-01T00:00:00Z</time>
      </trkpt>
      <trkpt lat="45.05847" lon="5.59052">
        <ele>1504.4</ele>
        <time>2010-01-01T00:00:00Z</time>
      </trkpt>
      <trkpt lat="45.05843" lon="5.59054">
        <ele>1504.5</ele>
        <time>2010-01-01T00:00:00Z</time>
      </trkpt>
      <trkpt lat="45.05831" lon="5.59061">
        <ele>1501.4</ele>
        <time>2010-01-01T00:00:00Z</time>
      </trkpt>
      <trkpt lat="45.05825" lon="5.59066">
        <ele>1502</ele>
        <time>2010-01-01T00:00:00Z</time>
      </trkpt>
      <trkpt lat="45.0582" lon="5.59071">
        <ele>1502.2</ele>
        <time>2010-01-01T00:00:00Z</time>
      </trkpt>
      <trkpt lat="45.05815" lon="5.59075">
        <ele>1502</ele>
        <time>2010-01-01T00:00:00Z</time>
      </trkpt>
      <trkpt lat="45.05812" lon="5.59078">
        <ele>1501.8</ele>
        <time>2010-01-01T00:00:00Z</time>
      </trkpt>
      <trkpt lat="45.05808" lon="5.59082">
        <ele>1501.5</ele>
        <time>2010-01-01T00:00:00Z</time>
      </trkpt>
      <trkpt lat="45.05804" lon="5.59085">
        <ele>1507.7</ele>
        <time>2010-01-01T00:00:00Z</time>
      </trkpt>
      <trkpt lat="45.05802" lon="5.59088">
        <ele>1507.7</ele>
        <time>2010-01-01T00:00:00Z</time>
      </trkpt>
      <trkpt lat="45.05799" lon="5.5909">
        <ele>1507.6</ele>
        <time>2010-01-01T00:00:00Z</time>
      </trkpt>
      <trkpt lat="45.05796" lon="5.59091">
        <ele>1507.4</ele>
        <time>2010-01-01T00:00:00Z</time>
      </trkpt>
      <trkpt lat="45.05794" lon="5.59091">
        <ele>1507.3</ele>
        <time>2010-01-01T00:00:00Z</time>
      </trkpt>
      <trkpt lat="45.05792" lon="5.59089">
        <ele>1507.1</ele>
        <time>2010-01-01T00:00:00Z</time>
      </trkpt>
      <trkpt lat="45.05791" lon="5.59084">
        <ele>1506.8</ele>
        <time>2010-01-01T00:00:00Z</time>
      </trkpt>
      <trkpt lat="45.0579" lon="5.59082">
        <ele>1499.9</ele>
        <time>2010-01-01T00:00:00Z</time>
      </trkpt>
      <trkpt lat="45.05788" lon="5.5908">
        <ele>1499.7</ele>
        <time>2010-01-01T00:00:00Z</time>
      </trkpt>
      <trkpt lat="45.05785" lon="5.59079">
        <ele>1499.6</ele>
        <time>2010-01-01T00:00:00Z</time>
      </trkpt>
      <trkpt lat="45.05779" lon="5.59079">
        <ele>1499.3</ele>
        <time>2010-01-01T00:00:00Z</time>
      </trkpt>
      <trkpt lat="45.05769" lon="5.5908">
        <ele>1498.8</ele>
        <time>2010-01-01T00:00:00Z</time>
      </trkpt>
      <trkpt lat="45.05758" lon="5.59079">
        <ele>1498.4</ele>
        <time>2010-01-01T00:00:00Z</time>
      </trkpt>
      <trkpt lat="45.05753" lon="5.59079">
        <ele>1498.2</ele>
        <time>2010-01-01T00:00:00Z</time>
      </trkpt>
      <trkpt lat="45.05749" lon="5.59078">
        <ele>1499.7</ele>
        <time>2010-01-01T00:00:00Z</time>
      </trkpt>
      <trkpt lat="45.05743" lon="5.59077">
        <ele>1500.8</ele>
        <time>2010-01-01T00:00:00Z</time>
      </trkpt>
      <trkpt lat="45.0574" lon="5.59076">
        <ele>1501.5</ele>
        <time>2010-01-01T00:00:00Z</time>
      </trkpt>
      <trkpt lat="45.05737" lon="5.59073">
        <ele>1502.4</ele>
        <time>2010-01-01T00:00:00Z</time>
      </trkpt>
      <trkpt lat="45.05735" lon="5.59068">
        <ele>1503.1</ele>
        <time>2010-01-01T00:00:00Z</time>
      </trkpt>
      <trkpt lat="45.05734" lon="5.59059">
        <ele>1503.9</ele>
        <time>2010-01-01T00:00:00Z</time>
      </trkpt>
      <trkpt lat="45.05732" lon="5.59044">
        <ele>1504.4</ele>
        <time>2010-01-01T00:00:00Z</time>
      </trkpt>
      <trkpt lat="45.0573" lon="5.59029">
        <ele>1504.3</ele>
        <time>2010-01-01T00:00:00Z</time>
      </trkpt>
      <trkpt lat="45.05729" lon="5.59017">
        <ele>1503.8</ele>
        <time>2010-01-01T00:00:00Z</time>
      </trkpt>
      <trkpt lat="45.05729" lon="5.59009">
        <ele>1503.4</ele>
        <time>2010-01-01T00:00:00Z</time>
      </trkpt>
      <trkpt lat="45.05753" lon="5.58949">
        <ele>1493.7</ele>
        <time>2010-01-01T00:00:00Z</time>
      </trkpt>
      <trkpt lat="45.0576" lon="5.58903">
        <ele>1489</ele>
        <time>2010-01-01T00:00:00Z</time>
      </trkpt>
      <trkpt lat="45.05752" lon="5.58885">
        <ele>1485.6</ele>
        <time>2010-01-01T00:00:00Z</time>
      </trkpt>
      <trkpt lat="45.05743" lon="5.58885">
        <ele>1485</ele>
        <time>2010-01-01T00:00:00Z</time>
      </trkpt>
      <trkpt lat="45.05728" lon="5.58893">
        <ele>1485.3</ele>
        <time>2010-01-01T00:00:00Z</time>
      </trkpt>
      <trkpt lat="45.05717" lon="5.58901">
        <ele>1485.2</ele>
        <time>2010-01-01T00:00:00Z</time>
      </trkpt>
      <trkpt lat="45.05711" lon="5.58907">
        <ele>1485.3</ele>
        <time>2010-01-01T00:00:00Z</time>
      </trkpt>
      <trkpt lat="45.05706" lon="5.58909">
        <ele>1485.1</ele>
        <time>2010-01-01T00:00:00Z</time>
      </trkpt>
      <trkpt lat="45.05701" lon="5.58911">
        <ele>1485.1</ele>
        <time>2010-01-01T00:00:00Z</time>
      </trkpt>
      <trkpt lat="45.05695" lon="5.58915">
        <ele>1485.4</ele>
        <time>2010-01-01T00:00:00Z</time>
      </trkpt>
      <trkpt lat="45.05689" lon="5.58919">
        <ele>1495.1</ele>
        <time>2010-01-01T00:00:00Z</time>
      </trkpt>
      <trkpt lat="45.05676" lon="5.5893">
        <ele>1494.6</ele>
        <time>2010-01-01T00:00:00Z</time>
      </trkpt>
      <trkpt lat="45.05662" lon="5.58941">
        <ele>1491.5</ele>
        <time>2010-01-01T00:00:00Z</time>
      </trkpt>
      <trkpt lat="45.05649" lon="5.58952">
        <ele>1492.1</ele>
        <time>2010-01-01T00:00:00Z</time>
      </trkpt>
      <trkpt lat="45.0564" lon="5.5896">
        <ele>1492.4</ele>
        <time>2010-01-01T00:00:00Z</time>
      </trkpt>
      <trkpt lat="45.05623" lon="5.58972">
        <ele>1491.9</ele>
        <time>2010-01-01T00:00:00Z</time>
      </trkpt>
      <trkpt lat="45.05614" lon="5.58979">
        <ele>1491.7</ele>
        <time>2010-01-01T00:00:00Z</time>
      </trkpt>
      <trkpt lat="45.05606" lon="5.5898">
        <ele>1491.1</ele>
        <time>2010-01-01T00:00:00Z</time>
      </trkpt>
      <trkpt lat="45.05596" lon="5.58982">
        <ele>1490.8</ele>
        <time>2010-01-01T00:00:00Z</time>
      </trkpt>
      <trkpt lat="45.05591" lon="5.58984">
        <ele>1490.8</ele>
        <time>2010-01-01T00:00:00Z</time>
      </trkpt>
      <trkpt lat="45.05586" lon="5.58987">
        <ele>1491</ele>
        <time>2010-01-01T00:00:00Z</time>
      </trkpt>
      <trkpt lat="45.05581" lon="5.58991">
        <ele>1486.6</ele>
        <time>2010-01-01T00:00:00Z</time>
      </trkpt>
      <trkpt lat="45.05572" lon="5.59002">
        <ele>1491.5</ele>
        <time>2010-01-01T00:00:00Z</time>
      </trkpt>
      <trkpt lat="45.05563" lon="5.59013">
        <ele>1491.2</ele>
        <time>2010-01-01T00:00:00Z</time>
      </trkpt>
      <trkpt lat="45.05553" lon="5.59023">
        <ele>1490.9</ele>
        <time>2010-01-01T00:00:00Z</time>
      </trkpt>
      <trkpt lat="45.05546" lon="5.59032">
        <ele>1490.9</ele>
        <time>2010-01-01T00:00:00Z</time>
      </trkpt>
      <trkpt lat="45.05541" lon="5.59041">
        <ele>1491.1</ele>
        <time>2010-01-01T00:00:00Z</time>
      </trkpt>
      <trkpt lat="45.05537" lon="5.59053">
        <ele>1491.7</ele>
        <time>2010-01-01T00:00:00Z</time>
      </trkpt>
      <trkpt lat="45.05534" lon="5.59062">
        <ele>1492</ele>
        <time>2010-01-01T00:00:00Z</time>
      </trkpt>
      <trkpt lat="45.05532" lon="5.5907">
        <ele>1492.2</ele>
        <time>2010-01-01T00:00:00Z</time>
      </trkpt>
      <trkpt lat="45.0553" lon="5.59076">
        <ele>1492.2</ele>
        <time>2010-01-01T00:00:00Z</time>
      </trkpt>
      <trkpt lat="45.0553" lon="5.59083">
        <ele>1492.5</ele>
        <time>2010-01-01T00:00:00Z</time>
      </trkpt>
      <trkpt lat="45.05514" lon="5.59082">
        <ele>1490.9</ele>
        <time>2010-01-01T00:00:00Z</time>
      </trkpt>
      <trkpt lat="45.05507" lon="5.59076">
        <ele>1490.4</ele>
        <time>2010-01-01T00:00:00Z</time>
      </trkpt>
      <trkpt lat="45.05497" lon="5.59073">
        <ele>1487.7</ele>
        <time>2010-01-01T00:00:00Z</time>
      </trkpt>
      <trkpt lat="45.05474" lon="5.59083">
        <ele>1486.4</ele>
        <time>2010-01-01T00:00:00Z</time>
      </trkpt>
      <trkpt lat="45.05447" lon="5.59072">
        <ele>1485.7</ele>
        <time>2010-01-01T00:00:00Z</time>
      </trkpt>
      <trkpt lat="45.05418" lon="5.59036">
        <ele>1483.6</ele>
        <time>2010-01-01T00:00:00Z</time>
      </trkpt>
      <trkpt lat="45.0539" lon="5.59023">
        <ele>1489.1</ele>
        <time>2010-01-01T00:00:00Z</time>
      </trkpt>
      <trkpt lat="45.05351" lon="5.58981">
        <ele>1482.5</ele>
        <time>2010-01-01T00:00:00Z</time>
      </trkpt>
      <trkpt lat="45.05315" lon="5.58874">
        <ele>1472.9</ele>
        <time>2010-01-01T00:00:00Z</time>
      </trkpt>
      <trkpt lat="45.05289" lon="5.58828">
        <ele>1465.8</ele>
        <time>2010-01-01T00:00:00Z</time>
      </trkpt>
      <trkpt lat="45.05289" lon="5.58828">
        <ele>1465.8</ele>
        <time>2010-01-01T00:00:00Z</time>
      </trkpt>
      <trkpt lat="45.05285" lon="5.58819">
        <ele>1465.8</ele>
        <time>2010-01-01T00:00:00Z</time>
      </trkpt>
      <trkpt lat="45.05271" lon="5.58797">
        <ele>1464.9</ele>
        <time>2010-01-01T00:00:00Z</time>
      </trkpt>
      <trkpt lat="45.0527" lon="5.58805">
        <ele>1465.8</ele>
        <time>2010-01-01T00:00:00Z</time>
      </trkpt>
      <trkpt lat="45.05269" lon="5.58813">
        <ele>1466.8</ele>
        <time>2010-01-01T00:00:00Z</time>
      </trkpt>
      <trkpt lat="45.05268" lon="5.58821">
        <ele>1467.9</ele>
        <time>2010-01-01T00:00:00Z</time>
      </trkpt>
      <trkpt lat="45.05264" lon="5.58826">
        <ele>1469.1</ele>
        <time>2010-01-01T00:00:00Z</time>
      </trkpt>
      <trkpt lat="45.05261" lon="5.58829">
        <ele>1470</ele>
        <time>2010-01-01T00:00:00Z</time>
      </trkpt>
      <trkpt lat="45.05256" lon="5.58833">
        <ele>1471.7</ele>
        <time>2010-01-01T00:00:00Z</time>
      </trkpt>
      <trkpt lat="45.05252" lon="5.58836">
        <ele>1474</ele>
        <time>2010-01-01T00:00:00Z</time>
      </trkpt>
      <trkpt lat="45.0525" lon="5.58843">
        <ele>1474.2</ele>
        <time>2010-01-01T00:00:00Z</time>
      </trkpt>
      <trkpt lat="45.05249" lon="5.58852">
        <ele>1477.1</ele>
        <time>2010-01-01T00:00:00Z</time>
      </trkpt>
      <trkpt lat="45.05248" lon="5.58862">
        <ele>1478.2</ele>
        <time>2010-01-01T00:00:00Z</time>
      </trkpt>
      <trkpt lat="45.05244" lon="5.58877">
        <ele>1479.7</ele>
        <time>2010-01-01T00:00:00Z</time>
      </trkpt>
      <trkpt lat="45.05242" lon="5.58892">
        <ele>1481</ele>
        <time>2010-01-01T00:00:00Z</time>
      </trkpt>
      <trkpt lat="45.0524" lon="5.58908">
        <ele>1482.3</ele>
        <time>2010-01-01T00:00:00Z</time>
      </trkpt>
      <trkpt lat="45.05239" lon="5.58927">
        <ele>1488.4</ele>
        <time>2010-01-01T00:00:00Z</time>
      </trkpt>
      <trkpt lat="45.05248" lon="5.58938">
        <ele>1490</ele>
        <time>2010-01-01T00:00:00Z</time>
      </trkpt>
      <trkpt lat="45.05253" lon="5.58942">
        <ele>1487.9</ele>
        <time>2010-01-01T00:00:00Z</time>
      </trkpt>
      <trkpt lat="45.05258" lon="5.58949">
        <ele>1488.9</ele>
        <time>2010-01-01T00:00:00Z</time>
      </trkpt>
      <trkpt lat="45.0526" lon="5.58965">
        <ele>1491.5</ele>
        <time>2010-01-01T00:00:00Z</time>
      </trkpt>
      <trkpt lat="45.05258" lon="5.58966">
        <ele>1491.8</ele>
        <time>2010-01-01T00:00:00Z</time>
      </trkpt>
      <trkpt lat="45.05254" lon="5.58959">
        <ele>1490.6</ele>
        <time>2010-01-01T00:00:00Z</time>
      </trkpt>
      <trkpt lat="45.05249" lon="5.58958">
        <ele>1493.6</ele>
        <time>2010-01-01T00:00:00Z</time>
      </trkpt>
      <trkpt lat="45.05253" lon="5.58972">
        <ele>1493.3</ele>
        <time>2010-01-01T00:00:00Z</time>
      </trkpt>
      <trkpt lat="45.05253" lon="5.58979">
        <ele>1495</ele>
        <time>2010-01-01T00:00:00Z</time>
      </trkpt>
      <trkpt lat="45.0525" lon="5.58981">
        <ele>1495.7</ele>
        <time>2010-01-01T00:00:00Z</time>
      </trkpt>
      <trkpt lat="45.05252" lon="5.58985">
        <ele>1496.9</ele>
        <time>2010-01-01T00:00:00Z</time>
      </trkpt>
      <trkpt lat="45.05245" lon="5.58994">
        <ele>1501.1</ele>
        <time>2010-01-01T00:00:00Z</time>
      </trkpt>
      <trkpt lat="45.05237" lon="5.59004">
        <ele>1506.3</ele>
        <time>2010-01-01T00:00:00Z</time>
      </trkpt>
      <trkpt lat="45.05234" lon="5.59008">
        <ele>1506.9</ele>
        <time>2010-01-01T00:00:00Z</time>
      </trkpt>
      <trkpt lat="45.05232" lon="5.59011">
        <ele>1507.2</ele>
        <time>2010-01-01T00:00:00Z</time>
      </trkpt>
      <trkpt lat="45.05231" lon="5.59016">
        <ele>1507.7</ele>
        <time>2010-01-01T00:00:00Z</time>
      </trkpt>
      <trkpt lat="45.05231" lon="5.59018">
        <ele>1507.9</ele>
        <time>2010-01-01T00:00:00Z</time>
      </trkpt>
      <trkpt lat="45.05231" lon="5.5902">
        <ele>1508.1</ele>
        <time>2010-01-01T00:00:00Z</time>
      </trkpt>
      <trkpt lat="45.05231" lon="5.59024">
        <ele>1508.5</ele>
        <time>2010-01-01T00:00:00Z</time>
      </trkpt>
      <trkpt lat="45.05231" lon="5.59024">
        <ele>1508.5</ele>
        <time>2010-01-01T00:00:00Z</time>
      </trkpt>
      <trkpt lat="45.05231" lon="5.59024">
        <ele>1508.5</ele>
        <time>2010-01-01T00:00:00Z</time>
      </trkpt>
      <trkpt lat="45.0523" lon="5.59029">
        <ele>1509.1</ele>
        <time>2010-01-01T00:00:00Z</time>
      </trkpt>
      <trkpt lat="45.05229" lon="5.59032">
        <ele>1509.4</ele>
        <time>2010-01-01T00:00:00Z</time>
      </trkpt>
      <trkpt lat="45.0523" lon="5.59035">
        <ele>1509.8</ele>
        <time>2010-01-01T00:00:00Z</time>
      </trkpt>
      <trkpt lat="45.05231" lon="5.59039">
        <ele>1510.3</ele>
        <time>2010-01-01T00:00:00Z</time>
      </trkpt>
      <trkpt lat="45.05231" lon="5.59043">
        <ele>1510.9</ele>
        <time>2010-01-01T00:00:00Z</time>
      </trkpt>
      <trkpt lat="45.05231" lon="5.5905">
        <ele>1511.9</ele>
        <time>2010-01-01T00:00:00Z</time>
      </trkpt>
      <trkpt lat="45.05231" lon="5.59061">
        <ele>1513.5</ele>
        <time>2010-01-01T00:00:00Z</time>
      </trkpt>
      <trkpt lat="45.05233" lon="5.59075">
        <ele>1515.9</ele>
        <time>2010-01-01T00:00:00Z</time>
      </trkpt>
      <trkpt lat="45.05235" lon="5.59085">
        <ele>1524</ele>
        <time>2010-01-01T00:00:00Z</time>
      </trkpt>
      <trkpt lat="45.05236" lon="5.59089">
        <ele>1524.2</ele>
        <time>2010-01-01T00:00:00Z</time>
      </trkpt>
      <trkpt lat="45.05237" lon="5.59093">
        <ele>1524.4</ele>
        <time>2010-01-01T00:00:00Z</time>
      </trkpt>
      <trkpt lat="45.05237" lon="5.59102">
        <ele>1525.1</ele>
        <time>2010-01-01T00:00:00Z</time>
      </trkpt>
      <trkpt lat="45.05237" lon="5.59107">
        <ele>1525.7</ele>
        <time>2010-01-01T00:00:00Z</time>
      </trkpt>
      <trkpt lat="45.05237" lon="5.59112">
        <ele>1526.2</ele>
        <time>2010-01-01T00:00:00Z</time>
      </trkpt>
      <trkpt lat="45.05237" lon="5.59115">
        <ele>1526.6</ele>
        <time>2010-01-01T00:00:00Z</time>
      </trkpt>
      <trkpt lat="45.05237" lon="5.59121">
        <ele>1527.4</ele>
        <time>2010-01-01T00:00:00Z</time>
      </trkpt>
      <trkpt lat="45.05239" lon="5.59126">
        <ele>1528.2</ele>
        <time>2010-01-01T00:00:00Z</time>
      </trkpt>
      <trkpt lat="45.05239" lon="5.59129">
        <ele>1528.7</ele>
        <time>2010-01-01T00:00:00Z</time>
      </trkpt>
      <trkpt lat="45.05239" lon="5.59132">
        <ele>1529.2</ele>
        <time>2010-01-01T00:00:00Z</time>
      </trkpt>
      <trkpt lat="45.05239" lon="5.59134">
        <ele>1529.6</ele>
        <time>2010-01-01T00:00:00Z</time>
      </trkpt>
      <trkpt lat="45.0524" lon="5.59139">
        <ele>1530.7</ele>
        <time>2010-01-01T00:00:00Z</time>
      </trkpt>
      <trkpt lat="45.05239" lon="5.59147">
        <ele>1532.4</ele>
        <time>2010-01-01T00:00:00Z</time>
      </trkpt>
      <trkpt lat="45.05239" lon="5.59151">
        <ele>1533.3</ele>
        <time>2010-01-01T00:00:00Z</time>
      </trkpt>
      <trkpt lat="45.05239" lon="5.59154">
        <ele>1534.1</ele>
        <time>2010-01-01T00:00:00Z</time>
      </trkpt>
      <trkpt lat="45.0524" lon="5.59156">
        <ele>1534.9</ele>
        <time>2010-01-01T00:00:00Z</time>
      </trkpt>
      <trkpt lat="45.05241" lon="5.59159">
        <ele>1535.9</ele>
        <time>2010-01-01T00:00:00Z</time>
      </trkpt>
      <trkpt lat="45.05242" lon="5.59161">
        <ele>1536.8</ele>
        <time>2010-01-01T00:00:00Z</time>
      </trkpt>
      <trkpt lat="45.05246" lon="5.59166">
        <ele>1539.6</ele>
        <time>2010-01-01T00:00:00Z</time>
      </trkpt>
      <trkpt lat="45.05247" lon="5.59167">
        <ele>1542.2</ele>
        <time>2010-01-01T00:00:00Z</time>
      </trkpt>
      <trkpt lat="45.05249" lon="5.5917">
        <ele>1542.3</ele>
        <time>2010-01-01T00:00:00Z</time>
      </trkpt>
      <trkpt lat="45.05249" lon="5.59172">
        <ele>1542.4</ele>
        <time>2010-01-01T00:00:00Z</time>
      </trkpt>
      <trkpt lat="45.0525" lon="5.59176">
        <ele>1542.6</ele>
        <time>2010-01-01T00:00:00Z</time>
      </trkpt>
      <trkpt lat="45.0525" lon="5.59179">
        <ele>1542.9</ele>
        <time>2010-01-01T00:00:00Z</time>
      </trkpt>
      <trkpt lat="45.05251" lon="5.59185">
        <ele>1543.4</ele>
        <time>2010-01-01T00:00:00Z</time>
      </trkpt>
      <trkpt lat="45.05253" lon="5.59187">
        <ele>1543.5</ele>
        <time>2010-01-01T00:00:00Z</time>
      </trkpt>
      <trkpt lat="45.05254" lon="5.59187">
        <ele>1543.5</ele>
        <time>2010-01-01T00:00:00Z</time>
      </trkpt>
      <trkpt lat="45.05255" lon="5.59189">
        <ele>1543.7</ele>
        <time>2010-01-01T00:00:00Z</time>
      </trkpt>
      <trkpt lat="45.05255" lon="5.5919">
        <ele>1543.8</ele>
        <time>2010-01-01T00:00:00Z</time>
      </trkpt>
      <trkpt lat="45.05256" lon="5.59192">
        <ele>1544</ele>
        <time>2010-01-01T00:00:00Z</time>
      </trkpt>
      <trkpt lat="45.05255" lon="5.59195">
        <ele>1544.4</ele>
        <time>2010-01-01T00:00:00Z</time>
      </trkpt>
      <trkpt lat="45.05254" lon="5.59198">
        <ele>1544.8</ele>
        <time>2010-01-01T00:00:00Z</time>
      </trkpt>
      <trkpt lat="45.05253" lon="5.59207">
        <ele>1546.2</ele>
        <time>2010-01-01T00:00:00Z</time>
      </trkpt>
      <trkpt lat="45.05252" lon="5.59211">
        <ele>1547</ele>
        <time>2010-01-01T00:00:00Z</time>
      </trkpt>
      <trkpt lat="45.05253" lon="5.59214">
        <ele>1547.5</ele>
        <time>2010-01-01T00:00:00Z</time>
      </trkpt>
      <trkpt lat="45.05253" lon="5.59216">
        <ele>1547.9</ele>
        <time>2010-01-01T00:00:00Z</time>
      </trkpt>
      <trkpt lat="45.05254" lon="5.59218">
        <ele>1548.3</ele>
        <time>2010-01-01T00:00:00Z</time>
      </trkpt>
      <trkpt lat="45.05255" lon="5.5922">
        <ele>1548.7</ele>
        <time>2010-01-01T00:00:00Z</time>
      </trkpt>
      <trkpt lat="45.05256" lon="5.59221">
        <ele>1548.8</ele>
        <time>2010-01-01T00:00:00Z</time>
      </trkpt>
      <trkpt lat="45.05259" lon="5.59226">
        <ele>1549.8</ele>
        <time>2010-01-01T00:00:00Z</time>
      </trkpt>
      <trkpt lat="45.05261" lon="5.59228">
        <ele>1550.1</ele>
        <time>2010-01-01T00:00:00Z</time>
      </trkpt>
      <trkpt lat="45.05262" lon="5.59231">
        <ele>1550.7</ele>
        <time>2010-01-01T00:00:00Z</time>
      </trkpt>
      <trkpt lat="45.05264" lon="5.59234">
        <ele>1551</ele>
        <time>2010-01-01T00:00:00Z</time>
      </trkpt>
      <trkpt lat="45.05265" lon="5.59238">
        <ele>1551.7</ele>
        <time>2010-01-01T00:00:00Z</time>
      </trkpt>
      <trkpt lat="45.05265" lon="5.5924">
        <ele>1552.1</ele>
        <time>2010-01-01T00:00:00Z</time>
      </trkpt>
      <trkpt lat="45.05266" lon="5.59242">
        <ele>1552.2</ele>
        <time>2010-01-01T00:00:00Z</time>
      </trkpt>
      <trkpt lat="45.05266" lon="5.59246">
        <ele>1552.8</ele>
        <time>2010-01-01T00:00:00Z</time>
      </trkpt>
      <trkpt lat="45.05265" lon="5.59253">
        <ele>1562.8</ele>
        <time>2010-01-01T00:00:00Z</time>
      </trkpt>
      <trkpt lat="45.05264" lon="5.59258">
        <ele>1563.1</ele>
        <time>2010-01-01T00:00:00Z</time>
      </trkpt>
      <trkpt lat="45.05264" lon="5.5926">
        <ele>1563.3</ele>
        <time>2010-01-01T00:00:00Z</time>
      </trkpt>
      <trkpt lat="45.05264" lon="5.59262">
        <ele>1563.5</ele>
        <time>2010-01-01T00:00:00Z</time>
      </trkpt>
      <trkpt lat="45.05264" lon="5.59265">
        <ele>1563.8</ele>
        <time>2010-01-01T00:00:00Z</time>
      </trkpt>
      <trkpt lat="45.05265" lon="5.59268">
        <ele>1564.1</ele>
        <time>2010-01-01T00:00:00Z</time>
      </trkpt>
      <trkpt lat="45.05266" lon="5.59269">
        <ele>1564.3</ele>
        <time>2010-01-01T00:00:00Z</time>
      </trkpt>
      <trkpt lat="45.05266" lon="5.59272">
        <ele>1564.6</ele>
        <time>2010-01-01T00:00:00Z</time>
      </trkpt>
      <trkpt lat="45.05267" lon="5.59274">
        <ele>1564.9</ele>
        <time>2010-01-01T00:00:00Z</time>
      </trkpt>
      <trkpt lat="45.05267" lon="5.59276">
        <ele>1565.2</ele>
        <time>2010-01-01T00:00:00Z</time>
      </trkpt>
      <trkpt lat="45.05267" lon="5.59279">
        <ele>1565.6</ele>
        <time>2010-01-01T00:00:00Z</time>
      </trkpt>
      <trkpt lat="45.05267" lon="5.59283">
        <ele>1566.2</ele>
        <time>2010-01-01T00:00:00Z</time>
      </trkpt>
      <trkpt lat="45.05267" lon="5.59287">
        <ele>1566.8</ele>
        <time>2010-01-01T00:00:00Z</time>
      </trkpt>
      <trkpt lat="45.05267" lon="5.59294">
        <ele>1567.9</ele>
        <time>2010-01-01T00:00:00Z</time>
      </trkpt>
      <trkpt lat="45.05267" lon="5.59297">
        <ele>1568.4</ele>
        <time>2010-01-01T00:00:00Z</time>
      </trkpt>
      <trkpt lat="45.05267" lon="5.59301">
        <ele>1569.2</ele>
        <time>2010-01-01T00:00:00Z</time>
      </trkpt>
      <trkpt lat="45.05267" lon="5.59305">
        <ele>1569.9</ele>
        <time>2010-01-01T00:00:00Z</time>
      </trkpt>
      <trkpt lat="45.05268" lon="5.59307">
        <ele>1570.2</ele>
        <time>2010-01-01T00:00:00Z</time>
      </trkpt>
      <trkpt lat="45.05268" lon="5.5931">
        <ele>1570.8</ele>
        <time>2010-01-01T00:00:00Z</time>
      </trkpt>
      <trkpt lat="45.0527" lon="5.59313">
        <ele>1571.1</ele>
        <time>2010-01-01T00:00:00Z</time>
      </trkpt>
      <trkpt lat="45.05272" lon="5.59321">
        <ele>1572.1</ele>
        <time>2010-01-01T00:00:00Z</time>
      </trkpt>
      <trkpt lat="45.05274" lon="5.59324">
        <ele>1572.1</ele>
        <time>2010-01-01T00:00:00Z</time>
      </trkpt>
      <trkpt lat="45.05274" lon="5.59332">
        <ele>1572.8</ele>
        <time>2010-01-01T00:00:00Z</time>
      </trkpt>
      <trkpt lat="45.05275" lon="5.59345">
        <ele>1587</ele>
        <time>2010-01-01T00:00:00Z</time>
      </trkpt>
      <trkpt lat="45.05275" lon="5.59354">
        <ele>1588.1</ele>
        <time>2010-01-01T00:00:00Z</time>
      </trkpt>
      <trkpt lat="45.05275" lon="5.59358">
        <ele>1588.7</ele>
        <time>2010-01-01T00:00:00Z</time>
      </trkpt>
      <trkpt lat="45.05275" lon="5.59361">
        <ele>1589.1</ele>
        <time>2010-01-01T00:00:00Z</time>
      </trkpt>
      <trkpt lat="45.05275" lon="5.59362">
        <ele>1589.3</ele>
        <time>2010-01-01T00:00:00Z</time>
      </trkpt>
      <trkpt lat="45.05275" lon="5.59365">
        <ele>1589.7</ele>
        <time>2010-01-01T00:00:00Z</time>
      </trkpt>
      <trkpt lat="45.05276" lon="5.59367">
        <ele>1590.1</ele>
        <time>2010-01-01T00:00:00Z</time>
      </trkpt>
      <trkpt lat="45.05277" lon="5.59371">
        <ele>1590.7</ele>
        <time>2010-01-01T00:00:00Z</time>
      </trkpt>
      <trkpt lat="45.05278" lon="5.59378">
        <ele>1591.8</ele>
        <time>2010-01-01T00:00:00Z</time>
      </trkpt>
      <trkpt lat="45.0528" lon="5.59382">
        <ele>1592.4</ele>
        <time>2010-01-01T00:00:00Z</time>
      </trkpt>
      <trkpt lat="45.05282" lon="5.59385">
        <ele>1592.8</ele>
        <time>2010-01-01T00:00:00Z</time>
      </trkpt>
      <trkpt lat="45.05285" lon="5.59387">
        <ele>1593</ele>
        <time>2010-01-01T00:00:00Z</time>
      </trkpt>
      <trkpt lat="45.05285" lon="5.59387">
        <ele>1593</ele>
        <time>2010-01-01T00:00:00Z</time>
      </trkpt>
      <trkpt lat="45.05285" lon="5.59388">
        <ele>1593.1</ele>
        <time>2010-01-01T00:00:00Z</time>
      </trkpt>
      <trkpt lat="45.05289" lon="5.59392">
        <ele>1593.5</ele>
        <time>2010-01-01T00:00:00Z</time>
      </trkpt>
      <trkpt lat="45.05291" lon="5.59394">
        <ele>1593.7</ele>
        <time>2010-01-01T00:00:00Z</time>
      </trkpt>
      <trkpt lat="45.05302" lon="5.5941">
        <ele>1595.4</ele>
        <time>2010-01-01T00:00:00Z</time>
      </trkpt>
      <trkpt lat="45.05318" lon="5.59429">
        <ele>1610.1</ele>
        <time>2010-01-01T00:00:00Z</time>
      </trkpt>
      <trkpt lat="45.05336" lon="5.59451">
        <ele>1612.3</ele>
        <time>2010-01-01T00:00:00Z</time>
      </trkpt>
      <trkpt lat="45.05342" lon="5.59458">
        <ele>1613.9</ele>
        <time>2010-01-01T00:00:00Z</time>
      </trkpt>
      <trkpt lat="45.05349" lon="5.59466">
        <ele>1615.6</ele>
        <time>2010-01-01T00:00:00Z</time>
      </trkpt>
      <trkpt lat="45.05358" lon="5.59473">
        <ele>1616.7</ele>
        <time>2010-01-01T00:00:00Z</time>
      </trkpt>
      <trkpt lat="45.05367" lon="5.59479">
        <ele>1617.3</ele>
        <time>2010-01-01T00:00:00Z</time>
      </trkpt>
      <trkpt lat="45.05373" lon="5.59484">
        <ele>1617.8</ele>
        <time>2010-01-01T00:00:00Z</time>
      </trkpt>
      <trkpt lat="45.05379" lon="5.59487">
        <ele>1618.3</ele>
        <time>2010-01-01T00:00:00Z</time>
      </trkpt>
      <trkpt lat="45.0538" lon="5.59488">
        <ele>1618.4</ele>
        <time>2010-01-01T00:00:00Z</time>
      </trkpt>
      <trkpt lat="45.05381" lon="5.5949">
        <ele>1618.7</ele>
        <time>2010-01-01T00:00:00Z</time>
      </trkpt>
      <trkpt lat="45.0538" lon="5.59491">
        <ele>1618.8</ele>
        <time>2010-01-01T00:00:00Z</time>
      </trkpt>
      <trkpt lat="45.05376" lon="5.59493">
        <ele>1618.9</ele>
        <time>2010-01-01T00:00:00Z</time>
      </trkpt>
      <trkpt lat="45.0537" lon="5.59495">
        <ele>1619.1</ele>
        <time>2010-01-01T00:00:00Z</time>
      </trkpt>
      <trkpt lat="45.05362" lon="5.595">
        <ele>1620</ele>
        <time>2010-01-01T00:00:00Z</time>
      </trkpt>
      <trkpt lat="45.05357" lon="5.59502">
        <ele>1642.6</ele>
        <time>2010-01-01T00:00:00Z</time>
      </trkpt>
      <trkpt lat="45.05357" lon="5.59502">
        <ele>1642.6</ele>
        <time>2010-01-01T00:00:00Z</time>
      </trkpt>
      <trkpt lat="45.05356" lon="5.59503">
        <ele>1642.4</ele>
        <time>2010-01-01T00:00:00Z</time>
      </trkpt>
      <trkpt lat="45.05346" lon="5.59505">
        <ele>1638.9</ele>
        <time>2010-01-01T00:00:00Z</time>
      </trkpt>
      <trkpt lat="45.05336" lon="5.59509">
        <ele>1636.6</ele>
        <time>2010-01-01T00:00:00Z</time>
      </trkpt>
      <trkpt lat="45.05329" lon="5.59512">
        <ele>1640</ele>
        <time>2010-01-01T00:00:00Z</time>
      </trkpt>
      <trkpt lat="45.0532" lon="5.59516">
        <ele>1644.8</ele>
        <time>2010-01-01T00:00:00Z</time>
      </trkpt>
      <trkpt lat="45.05313" lon="5.59518">
        <ele>1647.4</ele>
        <time>2010-01-01T00:00:00Z</time>
      </trkpt>
      <trkpt lat="45.05308" lon="5.59518">
        <ele>1648.4</ele>
        <time>2010-01-01T00:00:00Z</time>
      </trkpt>
      <trkpt lat="45.053" lon="5.59514">
        <ele>1648.6</ele>
        <time>2010-01-01T00:00:00Z</time>
      </trkpt>
      <trkpt lat="45.05296" lon="5.59513">
        <ele>1648.8</ele>
        <time>2010-01-01T00:00:00Z</time>
      </trkpt>
      <trkpt lat="45.05292" lon="5.59512">
        <ele>1648.9</ele>
        <time>2010-01-01T00:00:00Z</time>
      </trkpt>
      <trkpt lat="45.05288" lon="5.59512">
        <ele>1649</ele>
        <time>2010-01-01T00:00:00Z</time>
      </trkpt>
      <trkpt lat="45.05282" lon="5.5951">
        <ele>1648.4</ele>
        <time>2010-01-01T00:00:00Z</time>
      </trkpt>
      <trkpt lat="45.05279" lon="5.5951">
        <ele>1648.1</ele>
        <time>2010-01-01T00:00:00Z</time>
      </trkpt>
      <trkpt lat="45.05278" lon="5.59512">
        <ele>1648.4</ele>
        <time>2010-01-01T00:00:00Z</time>
      </trkpt>
      <trkpt lat="45.05277" lon="5.59514">
        <ele>1648.7</ele>
        <time>2010-01-01T00:00:00Z</time>
      </trkpt>
      <trkpt lat="45.05278" lon="5.59516">
        <ele>1649.3</ele>
        <time>2010-01-01T00:00:00Z</time>
      </trkpt>
      <trkpt lat="45.05279" lon="5.59517">
        <ele>1649.6</ele>
        <time>2010-01-01T00:00:00Z</time>
      </trkpt>
      <trkpt lat="45.05279" lon="5.5952">
        <ele>1650.4</ele>
        <time>2010-01-01T00:00:00Z</time>
      </trkpt>
      <trkpt lat="45.05278" lon="5.59521">
        <ele>1650.6</ele>
        <time>2010-01-01T00:00:00Z</time>
      </trkpt>
      <trkpt lat="45.05277" lon="5.59522">
        <ele>1650.8</ele>
        <time>2010-01-01T00:00:00Z</time>
      </trkpt>
      <trkpt lat="45.05277" lon="5.59525">
        <ele>1651.7</ele>
        <time>2010-01-01T00:00:00Z</time>
      </trkpt>
      <trkpt lat="45.05279" lon="5.59527">
        <ele>1652.4</ele>
        <time>2010-01-01T00:00:00Z</time>
      </trkpt>
      <trkpt lat="45.05279" lon="5.59531">
        <ele>1653.6</ele>
        <time>2010-01-01T00:00:00Z</time>
      </trkpt>
      <trkpt lat="45.05277" lon="5.59536">
        <ele>1655.2</ele>
        <time>2010-01-01T00:00:00Z</time>
      </trkpt>
      <trkpt lat="45.05278" lon="5.5954">
        <ele>1656.5</ele>
        <time>2010-01-01T00:00:00Z</time>
      </trkpt>
      <trkpt lat="45.05279" lon="5.59547">
        <ele>1658.8</ele>
        <time>2010-01-01T00:00:00Z</time>
      </trkpt>
      <trkpt lat="45.05284" lon="5.59559">
        <ele>1662.3</ele>
        <time>2010-01-01T00:00:00Z</time>
      </trkpt>
      <trkpt lat="45.05289" lon="5.59573">
        <ele>1665.4</ele>
        <time>2010-01-01T00:00:00Z</time>
      </trkpt>
      <trkpt lat="45.05294" lon="5.59582">
        <ele>1666.9</ele>
        <time>2010-01-01T00:00:00Z</time>
      </trkpt>
      <trkpt lat="45.05296" lon="5.59584">
        <ele>1699</ele>
        <time>2010-01-01T00:00:00Z</time>
      </trkpt>
      <trkpt lat="45.05297" lon="5.59588">
        <ele>1699.5</ele>
        <time>2010-01-01T00:00:00Z</time>
      </trkpt>
      <trkpt lat="45.05296" lon="5.59589">
        <ele>1699.7</ele>
        <time>2010-01-01T00:00:00Z</time>
      </trkpt>
      <trkpt lat="45.05294" lon="5.59589">
        <ele>1699.7</ele>
        <time>2010-01-01T00:00:00Z</time>
      </trkpt>
      <trkpt lat="45.0529" lon="5.59589">
        <ele>1699.6</ele>
        <time>2010-01-01T00:00:00Z</time>
      </trkpt>
      <trkpt lat="45.05282" lon="5.59589">
        <ele>1698.7</ele>
        <time>2010-01-01T00:00:00Z</time>
      </trkpt>
      <trkpt lat="45.05274" lon="5.59589">
        <ele>1696.9</ele>
        <time>2010-01-01T00:00:00Z</time>
      </trkpt>
      <trkpt lat="45.05265" lon="5.59592">
        <ele>1694.5</ele>
        <time>2010-01-01T00:00:00Z</time>
      </trkpt>
      <trkpt lat="45.05255" lon="5.59597">
        <ele>1693.5</ele>
        <time>2010-01-01T00:00:00Z</time>
      </trkpt>
      <trkpt lat="45.05245" lon="5.59601">
        <ele>1695.2</ele>
        <time>2010-01-01T00:00:00Z</time>
      </trkpt>
      <trkpt lat="45.05238" lon="5.59605">
        <ele>1698.3</ele>
        <time>2010-01-01T00:00:00Z</time>
      </trkpt>
      <trkpt lat="45.05227" lon="5.59608">
        <ele>1701</ele>
        <time>2010-01-01T00:00:00Z</time>
      </trkpt>
      <trkpt lat="45.05218" lon="5.5961">
        <ele>1702.4</ele>
        <time>2010-01-01T00:00:00Z</time>
      </trkpt>
      <trkpt lat="45.05212" lon="5.5961">
        <ele>1702.7</ele>
        <time>2010-01-01T00:00:00Z</time>
      </trkpt>
      <trkpt lat="45.05211" lon="5.59613">
        <ele>1703.5</ele>
        <time>2010-01-01T00:00:00Z</time>
      </trkpt>
      <trkpt lat="45.05212" lon="5.59615">
        <ele>1704.1</ele>
        <time>2010-01-01T00:00:00Z</time>
      </trkpt>
      <trkpt lat="45.05214" lon="5.59617">
        <ele>1704.6</ele>
        <time>2010-01-01T00:00:00Z</time>
      </trkpt>
      <trkpt lat="45.05216" lon="5.59621">
        <ele>1705.8</ele>
        <time>2010-01-01T00:00:00Z</time>
      </trkpt>
      <trkpt lat="45.05216" lon="5.59621">
        <ele>1705.8</ele>
        <time>2010-01-01T00:00:00Z</time>
      </trkpt>
      <trkpt lat="45.05216" lon="5.59621">
        <ele>1705.8</ele>
        <time>2010-01-01T00:00:00Z</time>
      </trkpt>
      <trkpt lat="45.05219" lon="5.59625">
        <ele>1707</ele>
        <time>2010-01-01T00:00:00Z</time>
      </trkpt>
      <trkpt lat="45.0522" lon="5.59626">
        <ele>1707.3</ele>
        <time>2010-01-01T00:00:00Z</time>
      </trkpt>
      <trkpt lat="45.05222" lon="5.59627">
        <ele>1707.7</ele>
        <time>2010-01-01T00:00:00Z</time>
      </trkpt>
      <trkpt lat="45.05224" lon="5.59627">
        <ele>1707.7</ele>
        <time>2010-01-01T00:00:00Z</time>
      </trkpt>
      <trkpt lat="45.05226" lon="5.59628">
        <ele>1708.1</ele>
        <time>2010-01-01T00:00:00Z</time>
      </trkpt>
      <trkpt lat="45.05228" lon="5.59629">
        <ele>1708.5</ele>
        <time>2010-01-01T00:00:00Z</time>
      </trkpt>
      <trkpt lat="45.05231" lon="5.5963">
        <ele>1708.9</ele>
        <time>2010-01-01T00:00:00Z</time>
      </trkpt>
      <trkpt lat="45.05234" lon="5.59633">
        <ele>1710.2</ele>
        <time>2010-01-01T00:00:00Z</time>
      </trkpt>
      <trkpt lat="45.05235" lon="5.59635">
        <ele>1711.1</ele>
        <time>2010-01-01T00:00:00Z</time>
      </trkpt>
      <trkpt lat="45.05234" lon="5.59637">
        <ele>1711.8</ele>
        <time>2010-01-01T00:00:00Z</time>
      </trkpt>
      <trkpt lat="45.05232" lon="5.59638">
        <ele>1712.1</ele>
        <time>2010-01-01T00:00:00Z</time>
      </trkpt>
      <trkpt lat="45.0523" lon="5.59639">
        <ele>1712.3</ele>
        <time>2010-01-01T00:00:00Z</time>
      </trkpt>
      <trkpt lat="45.05229" lon="5.5964">
        <ele>1712.5</ele>
        <time>2010-01-01T00:00:00Z</time>
      </trkpt>
      <trkpt lat="45.05229" lon="5.59643">
        <ele>1713.6</ele>
        <time>2010-01-01T00:00:00Z</time>
      </trkpt>
      <trkpt lat="45.0523" lon="5.59645">
        <ele>1714.5</ele>
        <time>2010-01-01T00:00:00Z</time>
      </trkpt>
      <trkpt lat="45.05231" lon="5.59646">
        <ele>1715</ele>
        <time>2010-01-01T00:00:00Z</time>
      </trkpt>
      <trkpt lat="45.05233" lon="5.59647">
        <ele>1715.7</ele>
        <time>2010-01-01T00:00:00Z</time>
      </trkpt>
      <trkpt lat="45.05236" lon="5.59648">
        <ele>1716.7</ele>
        <time>2010-01-01T00:00:00Z</time>
      </trkpt>
      <trkpt lat="45.05242" lon="5.59649">
        <ele>1718.3</ele>
        <time>2010-01-01T00:00:00Z</time>
      </trkpt>
      <trkpt lat="45.05245" lon="5.59651">
        <ele>1719.9</ele>
        <time>2010-01-01T00:00:00Z</time>
      </trkpt>
      <trkpt lat="45.05247" lon="5.59652">
        <ele>1720.8</ele>
        <time>2010-01-01T00:00:00Z</time>
      </trkpt>
      <trkpt lat="45.05248" lon="5.59653">
        <ele>1721.5</ele>
        <time>2010-01-01T00:00:00Z</time>
      </trkpt>
      <trkpt lat="45.05248" lon="5.59656">
        <ele>1723.6</ele>
        <time>2010-01-01T00:00:00Z</time>
      </trkpt>
      <trkpt lat="45.05248" lon="5.59657">
        <ele>1724.3</ele>
        <time>2010-01-01T00:00:00Z</time>
      </trkpt>
      <trkpt lat="45.05247" lon="5.5966">
        <ele>1726.2</ele>
        <time>2010-01-01T00:00:00Z</time>
      </trkpt>
      <trkpt lat="45.05251" lon="5.59661">
        <ele>1727.9</ele>
        <time>2010-01-01T00:00:00Z</time>
      </trkpt>
      <trkpt lat="45.05255" lon="5.59662">
        <ele>1727.2</ele>
        <time>2010-01-01T00:00:00Z</time>
      </trkpt>
      <trkpt lat="45.05256" lon="5.59665">
        <ele>1727.7</ele>
        <time>2010-01-01T00:00:00Z</time>
      </trkpt>
      <trkpt lat="45.05256" lon="5.59667">
        <ele>1734.8</ele>
        <time>2010-01-01T00:00:00Z</time>
      </trkpt>
      <trkpt lat="45.05255" lon="5.59668">
        <ele>1734.6</ele>
        <time>2010-01-01T00:00:00Z</time>
      </trkpt>
      <trkpt lat="45.05255" lon="5.5967">
        <ele>1734.9</ele>
        <time>2010-01-01T00:00:00Z</time>
      </trkpt>
      <trkpt lat="45.05257" lon="5.59672">
        <ele>1735.6</ele>
        <time>2010-01-01T00:00:00Z</time>
      </trkpt>
      <trkpt lat="45.0526" lon="5.59673">
        <ele>1736.3</ele>
        <time>2010-01-01T00:00:00Z</time>
      </trkpt>
      <trkpt lat="45.05267" lon="5.59674">
        <ele>1737.4</ele>
        <time>2010-01-01T00:00:00Z</time>
      </trkpt>
      <trkpt lat="45.05271" lon="5.59675">
        <ele>1738</ele>
        <time>2010-01-01T00:00:00Z</time>
      </trkpt>
      <trkpt lat="45.05273" lon="5.59676">
        <ele>1738.3</ele>
        <time>2010-01-01T00:00:00Z</time>
      </trkpt>
      <trkpt lat="45.05273" lon="5.59678">
        <ele>1738.4</ele>
        <time>2010-01-01T00:00:00Z</time>
      </trkpt>
      <trkpt lat="45.05271" lon="5.5968">
        <ele>1738.4</ele>
        <time>2010-01-01T00:00:00Z</time>
      </trkpt>
      <trkpt lat="45.05268" lon="5.59681">
        <ele>1738.2</ele>
        <time>2010-01-01T00:00:00Z</time>
      </trkpt>
      <trkpt lat="45.05263" lon="5.59684">
        <ele>1738.1</ele>
        <time>2010-01-01T00:00:00Z</time>
      </trkpt>
      <trkpt lat="45.05261" lon="5.59688">
        <ele>1738.5</ele>
        <time>2010-01-01T00:00:00Z</time>
      </trkpt>
      <trkpt lat="45.05262" lon="5.59689">
        <ele>1738.7</ele>
        <time>2010-01-01T00:00:00Z</time>
      </trkpt>
      <trkpt lat="45.05263" lon="5.59689">
        <ele>1738.8</ele>
        <time>2010-01-01T00:00:00Z</time>
      </trkpt>
      <trkpt lat="45.05265" lon="5.59689">
        <ele>1738.9</ele>
        <time>2010-01-01T00:00:00Z</time>
      </trkpt>
      <trkpt lat="45.05266" lon="5.59688">
        <ele>1738.9</ele>
        <time>2010-01-01T00:00:00Z</time>
      </trkpt>
      <trkpt lat="45.05268" lon="5.59688">
        <ele>1739</ele>
        <time>2010-01-01T00:00:00Z</time>
      </trkpt>
      <trkpt lat="45.05268" lon="5.5969">
        <ele>1739.2</ele>
        <time>2010-01-01T00:00:00Z</time>
      </trkpt>
      <trkpt lat="45.05266" lon="5.59693">
        <ele>1739.5</ele>
        <time>2010-01-01T00:00:00Z</time>
      </trkpt>
      <trkpt lat="45.05266" lon="5.59694">
        <ele>1739.6</ele>
        <time>2010-01-01T00:00:00Z</time>
      </trkpt>
      <trkpt lat="45.05267" lon="5.59695">
        <ele>1739.8</ele>
        <time>2010-01-01T00:00:00Z</time>
      </trkpt>
      <trkpt lat="45.05268" lon="5.59694">
        <ele>1739.7</ele>
        <time>2010-01-01T00:00:00Z</time>
      </trkpt>
      <trkpt lat="45.05271" lon="5.59693">
        <ele>1739.7</ele>
        <time>2010-01-01T00:00:00Z</time>
      </trkpt>
      <trkpt lat="45.05273" lon="5.59693">
        <ele>1739.8</ele>
        <time>2010-01-01T00:00:00Z</time>
      </trkpt>
      <trkpt lat="45.05273" lon="5.59695">
        <ele>1740</ele>
        <time>2010-01-01T00:00:00Z</time>
      </trkpt>
      <trkpt lat="45.05272" lon="5.59699">
        <ele>1740.4</ele>
        <time>2010-01-01T00:00:00Z</time>
      </trkpt>
      <trkpt lat="45.05274" lon="5.59699">
        <ele>1740.5</ele>
        <time>2010-01-01T00:00:00Z</time>
      </trkpt>
      <trkpt lat="45.05276" lon="5.59698">
        <ele>1740.5</ele>
        <time>2010-01-01T00:00:00Z</time>
      </trkpt>
      <trkpt lat="45.05278" lon="5.59697">
        <ele>1740.5</ele>
        <time>2010-01-01T00:00:00Z</time>
      </trkpt>
      <trkpt lat="45.0528" lon="5.59699">
        <ele>1740.7</ele>
        <time>2010-01-01T00:00:00Z</time>
      </trkpt>
      <trkpt lat="45.0528" lon="5.59704">
        <ele>1741.2</ele>
        <time>2010-01-01T00:00:00Z</time>
      </trkpt>
      <trkpt lat="45.05281" lon="5.59703">
        <ele>1741.1</ele>
        <time>2010-01-01T00:00:00Z</time>
      </trkpt>
      <trkpt lat="45.05282" lon="5.59703">
        <ele>1741.2</ele>
        <time>2010-01-01T00:00:00Z</time>
      </trkpt>
      <trkpt lat="45.05284" lon="5.59705">
        <ele>1741.4</ele>
        <time>2010-01-01T00:00:00Z</time>
      </trkpt>
      <trkpt lat="45.05284" lon="5.59708">
        <ele>1741.7</ele>
        <time>2010-01-01T00:00:00Z</time>
      </trkpt>
      <trkpt lat="45.05282" lon="5.59711">
        <ele>1741.9</ele>
        <time>2010-01-01T00:00:00Z</time>
      </trkpt>
      <trkpt lat="45.05282" lon="5.59711">
        <ele>1741.9</ele>
        <time>2010-01-01T00:00:00Z</time>
      </trkpt>
      <trkpt lat="45.0528" lon="5.59715">
        <ele>1742.2</ele>
        <time>2010-01-01T00:00:00Z</time>
      </trkpt>
      <trkpt lat="45.05277" lon="5.59718">
        <ele>1742.3</ele>
        <time>2010-01-01T00:00:00Z</time>
      </trkpt>
      <trkpt lat="45.05273" lon="5.59722">
        <ele>1742.6</ele>
        <time>2010-01-01T00:00:00Z</time>
      </trkpt>
      <trkpt lat="45.05269" lon="5.59722">
        <ele>1742.5</ele>
        <time>2010-01-01T00:00:00Z</time>
      </trkpt>
      <trkpt lat="45.05265" lon="5.5972">
        <ele>1742.3</ele>
        <time>2010-01-01T00:00:00Z</time>
      </trkpt>
      <trkpt lat="45.05261" lon="5.5972">
        <ele>1742.2</ele>
        <time>2010-01-01T00:00:00Z</time>
      </trkpt>
      <trkpt lat="45.05256" lon="5.59722">
        <ele>1742.3</ele>
        <time>2010-01-01T00:00:00Z</time>
      </trkpt>
      <trkpt lat="45.05251" lon="5.59723">
        <ele>1742.4</ele>
        <time>2010-01-01T00:00:00Z</time>
      </trkpt>
      <trkpt lat="45.05244" lon="5.59724">
        <ele>1737.5</ele>
        <time>2010-01-01T00:00:00Z</time>
      </trkpt>
      <trkpt lat="45.05237" lon="5.59726">
        <ele>1737.2</ele>
        <time>2010-01-01T00:00:00Z</time>
      </trkpt>
      <trkpt lat="45.05235" lon="5.59727">
        <ele>1737.1</ele>
        <time>2010-01-01T00:00:00Z</time>
      </trkpt>
      <trkpt lat="45.05236" lon="5.5973">
        <ele>1737.7</ele>
        <time>2010-01-01T00:00:00Z</time>
      </trkpt>
      <trkpt lat="45.05239" lon="5.59733">
        <ele>1738.5</ele>
        <time>2010-01-01T00:00:00Z</time>
      </trkpt>
      <trkpt lat="45.05244" lon="5.59737">
        <ele>1739.9</ele>
        <time>2010-01-01T00:00:00Z</time>
      </trkpt>
      <trkpt lat="45.05249" lon="5.5974">
        <ele>1741.2</ele>
        <time>2010-01-01T00:00:00Z</time>
      </trkpt>
      <trkpt lat="45.05254" lon="5.59744">
        <ele>1744.3</ele>
        <time>2010-01-01T00:00:00Z</time>
      </trkpt>
      <trkpt lat="45.05255" lon="5.59746">
        <ele>1744.4</ele>
        <time>2010-01-01T00:00:00Z</time>
      </trkpt>
      <trkpt lat="45.05255" lon="5.59748">
        <ele>1744.5</ele>
        <time>2010-01-01T00:00:00Z</time>
      </trkpt>
      <trkpt lat="45.05253" lon="5.59748">
        <ele>1744.6</ele>
        <time>2010-01-01T00:00:00Z</time>
      </trkpt>
      <trkpt lat="45.05253" lon="5.59748">
        <ele>1744.6</ele>
        <time>2010-01-01T00:00:00Z</time>
      </trkpt>
      <trkpt lat="45.05252" lon="5.59748">
        <ele>1744.7</ele>
        <time>2010-01-01T00:00:00Z</time>
      </trkpt>
      <trkpt lat="45.05247" lon="5.59748">
        <ele>1743.4</ele>
        <time>2010-01-01T00:00:00Z</time>
      </trkpt>
      <trkpt lat="45.05242" lon="5.59749">
        <ele>1741.7</ele>
        <time>2010-01-01T00:00:00Z</time>
      </trkpt>
      <trkpt lat="45.05238" lon="5.5975">
        <ele>1735.7</ele>
        <time>2010-01-01T00:00:00Z</time>
      </trkpt>
      <trkpt lat="45.05235" lon="5.59751">
        <ele>1734</ele>
        <time>2010-01-01T00:00:00Z</time>
      </trkpt>
      <trkpt lat="45.05235" lon="5.59752">
        <ele>1733.9</ele>
        <time>2010-01-01T00:00:00Z</time>
      </trkpt>
      <trkpt lat="45.05235" lon="5.59754">
        <ele>1733.6</ele>
        <time>2010-01-01T00:00:00Z</time>
      </trkpt>
      <trkpt lat="45.05238" lon="5.59755">
        <ele>1734.9</ele>
        <time>2010-01-01T00:00:00Z</time>
      </trkpt>
      <trkpt lat="45.05241" lon="5.59758">
        <ele>1735.3</ele>
        <time>2010-01-01T00:00:00Z</time>
      </trkpt>
      <trkpt lat="45.05241" lon="5.5976">
        <ele>1734.4</ele>
        <time>2010-01-01T00:00:00Z</time>
      </trkpt>
      <trkpt lat="45.0524" lon="5.59761">
        <ele>1733.6</ele>
        <time>2010-01-01T00:00:00Z</time>
      </trkpt>
      <trkpt lat="45.05238" lon="5.59762">
        <ele>1732.5</ele>
        <time>2010-01-01T00:00:00Z</time>
      </trkpt>
      <trkpt lat="45.05233" lon="5.59763">
        <ele>1730.5</ele>
        <time>2010-01-01T00:00:00Z</time>
      </trkpt>
      <trkpt lat="45.05229" lon="5.59764">
        <ele>1729</ele>
        <time>2010-01-01T00:00:00Z</time>
      </trkpt>
      <trkpt lat="45.05226" lon="5.59767">
        <ele>1727.5</ele>
        <time>2010-01-01T00:00:00Z</time>
      </trkpt>
      <trkpt lat="45.05224" lon="5.59769">
        <ele>1726.6</ele>
        <time>2010-01-01T00:00:00Z</time>
      </trkpt>
      <trkpt lat="45.05223" lon="5.5977">
        <ele>1726.2</ele>
        <time>2010-01-01T00:00:00Z</time>
      </trkpt>
      <trkpt lat="45.05224" lon="5.59772">
        <ele>1725.9</ele>
        <time>2010-01-01T00:00:00Z</time>
      </trkpt>
      <trkpt lat="45.05226" lon="5.59773">
        <ele>1726</ele>
        <time>2010-01-01T00:00:00Z</time>
      </trkpt>
      <trkpt lat="45.05228" lon="5.59773">
        <ele>1726.4</ele>
        <time>2010-01-01T00:00:00Z</time>
      </trkpt>
      <trkpt lat="45.05232" lon="5.59775">
        <ele>1726.5</ele>
        <time>2010-01-01T00:00:00Z</time>
      </trkpt>
      <trkpt lat="45.05235" lon="5.59778">
        <ele>1726</ele>
        <time>2010-01-01T00:00:00Z</time>
      </trkpt>
      <trkpt lat="45.05236" lon="5.59781">
        <ele>1725.2</ele>
        <time>2010-01-01T00:00:00Z</time>
      </trkpt>
      <trkpt lat="45.05235" lon="5.59783">
        <ele>1724.4</ele>
        <time>2010-01-01T00:00:00Z</time>
      </trkpt>
      <trkpt lat="45.05232" lon="5.59786">
        <ele>1723.3</ele>
        <time>2010-01-01T00:00:00Z</time>
      </trkpt>
      <trkpt lat="45.05228" lon="5.59788">
        <ele>1722.4</ele>
        <time>2010-01-01T00:00:00Z</time>
      </trkpt>
      <trkpt lat="45.05223" lon="5.59793">
        <ele>1720.8</ele>
        <time>2010-01-01T00:00:00Z</time>
      </trkpt>
      <trkpt lat="45.05218" lon="5.59797">
        <ele>1719.6</ele>
        <time>2010-01-01T00:00:00Z</time>
      </trkpt>
      <trkpt lat="45.05214" lon="5.59797">
        <ele>1719.4</ele>
        <time>2010-01-01T00:00:00Z</time>
      </trkpt>
      <trkpt lat="45.05208" lon="5.59798">
        <ele>1718.8</ele>
        <time>2010-01-01T00:00:00Z</time>
      </trkpt>
      <trkpt lat="45.052" lon="5.59801">
        <ele>1717.6</ele>
        <time>2010-01-01T00:00:00Z</time>
      </trkpt>
      <trkpt lat="45.05192" lon="5.59805">
        <ele>1716</ele>
        <time>2010-01-01T00:00:00Z</time>
      </trkpt>
      <trkpt lat="45.05182" lon="5.5981">
        <ele>1713.6</ele>
        <time>2010-01-01T00:00:00Z</time>
      </trkpt>
      <trkpt lat="45.05171" lon="5.59814">
        <ele>1710.9</ele>
        <time>2010-01-01T00:00:00Z</time>
      </trkpt>
      <trkpt lat="45.0516" lon="5.59817">
        <ele>1703.5</ele>
        <time>2010-01-01T00:00:00Z</time>
      </trkpt>
      <trkpt lat="45.05151" lon="5.5982">
        <ele>1703.2</ele>
        <time>2010-01-01T00:00:00Z</time>
      </trkpt>
      <trkpt lat="45.05143" lon="5.59826">
        <ele>1702.5</ele>
        <time>2010-01-01T00:00:00Z</time>
      </trkpt>
      <trkpt lat="45.05139" lon="5.5983">
        <ele>1701.9</ele>
        <time>2010-01-01T00:00:00Z</time>
      </trkpt>
      <trkpt lat="45.05136" lon="5.59833">
        <ele>1701.5</ele>
        <time>2010-01-01T00:00:00Z</time>
      </trkpt>
      <trkpt lat="45.05133" lon="5.59833">
        <ele>1701.2</ele>
        <time>2010-01-01T00:00:00Z</time>
      </trkpt>
      <trkpt lat="45.0513" lon="5.59832">
        <ele>1700.9</ele>
        <time>2010-01-01T00:00:00Z</time>
      </trkpt>
      <trkpt lat="45.05128" lon="5.59832">
        <ele>1700.6</ele>
        <time>2010-01-01T00:00:00Z</time>
      </trkpt>
      <trkpt lat="45.05126" lon="5.59833">
        <ele>1700.2</ele>
        <time>2010-01-01T00:00:00Z</time>
      </trkpt>
      <trkpt lat="45.05123" lon="5.59836">
        <ele>1665.3</ele>
        <time>2010-01-01T00:00:00Z</time>
      </trkpt>
      <trkpt lat="45.05118" lon="5.59839">
        <ele>1664.1</ele>
        <time>2010-01-01T00:00:00Z</time>
      </trkpt>
      <trkpt lat="45.05115" lon="5.59842">
        <ele>1663.3</ele>
        <time>2010-01-01T00:00:00Z</time>
      </trkpt>
      <trkpt lat="45.05113" lon="5.59846">
        <ele>1662.2</ele>
        <time>2010-01-01T00:00:00Z</time>
      </trkpt>
      <trkpt lat="45.05112" lon="5.59847">
        <ele>1661.8</ele>
        <time>2010-01-01T00:00:00Z</time>
      </trkpt>
      <trkpt lat="45.05109" lon="5.5985">
        <ele>1660.9</ele>
        <time>2010-01-01T00:00:00Z</time>
      </trkpt>
      <trkpt lat="45.05104" lon="5.59851">
        <ele>1660.8</ele>
        <time>2010-01-01T00:00:00Z</time>
      </trkpt>
      <trkpt lat="45.05101" lon="5.59851">
        <ele>1661.2</ele>
        <time>2010-01-01T00:00:00Z</time>
      </trkpt>
      <trkpt lat="45.05097" lon="5.5985">
        <ele>1662.3</ele>
        <time>2010-01-01T00:00:00Z</time>
      </trkpt>
      <trkpt lat="45.05092" lon="5.5985">
        <ele>1663.2</ele>
        <time>2010-01-01T00:00:00Z</time>
      </trkpt>
      <trkpt lat="45.05087" lon="5.59853">
        <ele>1661.6</ele>
        <time>2010-01-01T00:00:00Z</time>
      </trkpt>
      <trkpt lat="45.05075" lon="5.59857">
        <ele>1645.1</ele>
        <time>2010-01-01T00:00:00Z</time>
      </trkpt>
      <trkpt lat="45.05061" lon="5.59861">
        <ele>1638.4</ele>
        <time>2010-01-01T00:00:00Z</time>
      </trkpt>
      <trkpt lat="45.05044" lon="5.59867">
        <ele>1632.2</ele>
        <time>2010-01-01T00:00:00Z</time>
      </trkpt>
      <trkpt lat="45.05036" lon="5.59871">
        <ele>1629.5</ele>
        <time>2010-01-01T00:00:00Z</time>
      </trkpt>
      <trkpt lat="45.05028" lon="5.59878">
        <ele>1625.1</ele>
        <time>2010-01-01T00:00:00Z</time>
      </trkpt>
      <trkpt lat="45.05021" lon="5.59883">
        <ele>1621.2</ele>
        <time>2010-01-01T00:00:00Z</time>
      </trkpt>
      <trkpt lat="45.05015" lon="5.59891">
        <ele>1614.7</ele>
        <time>2010-01-01T00:00:00Z</time>
      </trkpt>
      <trkpt lat="45.05012" lon="5.59894">
        <ele>1611.6</ele>
        <time>2010-01-01T00:00:00Z</time>
      </trkpt>
      <trkpt lat="45.05008" lon="5.59897">
        <ele>1607.9</ele>
        <time>2010-01-01T00:00:00Z</time>
      </trkpt>
      <trkpt lat="45.05" lon="5.59902">
        <ele>1597.7</ele>
        <time>2010-01-01T00:00:00Z</time>
      </trkpt>
      <trkpt lat="45.04988" lon="5.59908">
        <ele>1597.2</ele>
        <time>2010-01-01T00:00:00Z</time>
      </trkpt>
      <trkpt lat="45.04973" lon="5.59916">
        <ele>1603.2</ele>
        <time>2010-01-01T00:00:00Z</time>
      </trkpt>
      <trkpt lat="45.04965" lon="5.59922">
        <ele>1581.5</ele>
        <time>2010-01-01T00:00:00Z</time>
      </trkpt>
      <trkpt lat="45.04959" lon="5.59928">
        <ele>1582.1</ele>
        <time>2010-01-01T00:00:00Z</time>
      </trkpt>
      <trkpt lat="45.04952" lon="5.59932">
        <ele>1583</ele>
        <time>2010-01-01T00:00:00Z</time>
      </trkpt>
      <trkpt lat="45.04947" lon="5.59935">
        <ele>1583.6</ele>
        <time>2010-01-01T00:00:00Z</time>
      </trkpt>
      <trkpt lat="45.04941" lon="5.59936">
        <ele>1584.7</ele>
        <time>2010-01-01T00:00:00Z</time>
      </trkpt>
      <trkpt lat="45.0493" lon="5.59938">
        <ele>1586.5</ele>
        <time>2010-01-01T00:00:00Z</time>
      </trkpt>
      <trkpt lat="45.04919" lon="5.59944">
        <ele>1586.2</ele>
        <time>2010-01-01T00:00:00Z</time>
      </trkpt>
      <trkpt lat="45.04911" lon="5.59949">
        <ele>1595.3</ele>
        <time>2010-01-01T00:00:00Z</time>
      </trkpt>
      <trkpt lat="45.04904" lon="5.59952">
        <ele>1595.1</ele>
        <time>2010-01-01T00:00:00Z</time>
      </trkpt>
      <trkpt lat="45.04898" lon="5.59955">
        <ele>1595</ele>
        <time>2010-01-01T00:00:00Z</time>
      </trkpt>
      <trkpt lat="45.04896" lon="5.59957">
        <ele>1594.8</ele>
        <time>2010-01-01T00:00:00Z</time>
      </trkpt>
      <trkpt lat="45.04892" lon="5.59959">
        <ele>1594.9</ele>
        <time>2010-01-01T00:00:00Z</time>
      </trkpt>
      <trkpt lat="45.04886" lon="5.59961">
        <ele>1595.1</ele>
        <time>2010-01-01T00:00:00Z</time>
      </trkpt>
      <trkpt lat="45.04881" lon="5.59963">
        <ele>1595.3</ele>
        <time>2010-01-01T00:00:00Z</time>
      </trkpt>
      <trkpt lat="45.04878" lon="5.59967">
        <ele>1595.2</ele>
        <time>2010-01-01T00:00:00Z</time>
      </trkpt>
      <trkpt lat="45.04876" lon="5.59972">
        <ele>1595</ele>
        <time>2010-01-01T00:00:00Z</time>
      </trkpt>
      <trkpt lat="45.04872" lon="5.59979">
        <ele>1595</ele>
        <time>2010-01-01T00:00:00Z</time>
      </trkpt>
      <trkpt lat="45.04867" lon="5.59988">
        <ele>1595.2</ele>
        <time>2010-01-01T00:00:00Z</time>
      </trkpt>
      <trkpt lat="45.04859" lon="5.59996">
        <ele>1596</ele>
        <time>2010-01-01T00:00:00Z</time>
      </trkpt>
      <trkpt lat="45.04847" lon="5.60006">
        <ele>1594.5</ele>
        <time>2010-01-01T00:00:00Z</time>
      </trkpt>
      <trkpt lat="45.04838" lon="5.60015">
        <ele>1594.5</ele>
        <time>2010-01-01T00:00:00Z</time>
      </trkpt>
      <trkpt lat="45.0483" lon="5.6002">
        <ele>1599.7</ele>
        <time>2010-01-01T00:00:00Z</time>
      </trkpt>
      <trkpt lat="45.0482" lon="5.60025">
        <ele>1599.9</ele>
        <time>2010-01-01T00:00:00Z</time>
      </trkpt>
      <trkpt lat="45.04807" lon="5.60029">
        <ele>1600.3</ele>
        <time>2010-01-01T00:00:00Z</time>
      </trkpt>
      <trkpt lat="45.04793" lon="5.60034">
        <ele>1600.9</ele>
        <time>2010-01-01T00:00:00Z</time>
      </trkpt>
      <trkpt lat="45.04782" lon="5.60035">
        <ele>1601.5</ele>
        <time>2010-01-01T00:00:00Z</time>
      </trkpt>
      <trkpt lat="45.04771" lon="5.60034">
        <ele>1602.2</ele>
        <time>2010-01-01T00:00:00Z</time>
      </trkpt>
      <trkpt lat="45.04758" lon="5.60031">
        <ele>1603.3</ele>
        <time>2010-01-01T00:00:00Z</time>
      </trkpt>
      <trkpt lat="45.0475" lon="5.6003">
        <ele>1603.7</ele>
        <time>2010-01-01T00:00:00Z</time>
      </trkpt>
      <trkpt lat="45.04745" lon="5.60028">
        <ele>1603.9</ele>
        <time>2010-01-01T00:00:00Z</time>
      </trkpt>
      <trkpt lat="45.04741" lon="5.60027">
        <ele>1603.9</ele>
        <time>2010-01-01T00:00:00Z</time>
      </trkpt>
      <trkpt lat="45.04735" lon="5.60027">
        <ele>1603.5</ele>
        <time>2010-01-01T00:00:00Z</time>
      </trkpt>
      <trkpt lat="45.04728" lon="5.60027">
        <ele>1603</ele>
        <time>2010-01-01T00:00:00Z</time>
      </trkpt>
      <trkpt lat="45.04723" lon="5.60026">
        <ele>1602.8</ele>
        <time>2010-01-01T00:00:00Z</time>
      </trkpt>
      <trkpt lat="45.04714" lon="5.60021">
        <ele>1602.6</ele>
        <time>2010-01-01T00:00:00Z</time>
      </trkpt>
      <trkpt lat="45.04705" lon="5.60017">
        <ele>1602.5</ele>
        <time>2010-01-01T00:00:00Z</time>
      </trkpt>
      <trkpt lat="45.04696" lon="5.60015">
        <ele>1602.4</ele>
        <time>2010-01-01T00:00:00Z</time>
      </trkpt>
      <trkpt lat="45.0469" lon="5.60015">
        <ele>1602.4</ele>
        <time>2010-01-01T00:00:00Z</time>
      </trkpt>
      <trkpt lat="45.04684" lon="5.60017">
        <ele>1602.3</ele>
        <time>2010-01-01T00:00:00Z</time>
      </trkpt>
      <trkpt lat="45.04679" lon="5.60022">
        <ele>1601.8</ele>
        <time>2010-01-01T00:00:00Z</time>
      </trkpt>
      <trkpt lat="45.04674" lon="5.60025">
        <ele>1601.4</ele>
        <time>2010-01-01T00:00:00Z</time>
      </trkpt>
      <trkpt lat="45.0467" lon="5.60025">
        <ele>1601.4</ele>
        <time>2010-01-01T00:00:00Z</time>
      </trkpt>
      <trkpt lat="45.04666" lon="5.60025">
        <ele>1599.6</ele>
        <time>2010-01-01T00:00:00Z</time>
      </trkpt>
      <trkpt lat="45.04663" lon="5.60023">
        <ele>1599.9</ele>
        <time>2010-01-01T00:00:00Z</time>
      </trkpt>
      <trkpt lat="45.04658" lon="5.6002">
        <ele>1600.4</ele>
        <time>2010-01-01T00:00:00Z</time>
      </trkpt>
      <trkpt lat="45.04655" lon="5.60017">
        <ele>1600.7</ele>
        <time>2010-01-01T00:00:00Z</time>
      </trkpt>
      <trkpt lat="45.04649" lon="5.60014">
        <ele>1600.7</ele>
        <time>2010-01-01T00:00:00Z</time>
      </trkpt>
      <trkpt lat="45.04639" lon="5.60011">
        <ele>1600.3</ele>
        <time>2010-01-01T00:00:00Z</time>
      </trkpt>
      <trkpt lat="45.04631" lon="5.60008">
        <ele>1600.4</ele>
        <time>2010-01-01T00:00:00Z</time>
      </trkpt>
      <trkpt lat="45.04623" lon="5.60008">
        <ele>1600.5</ele>
        <time>2010-01-01T00:00:00Z</time>
      </trkpt>
      <trkpt lat="45.04615" lon="5.6001">
        <ele>1600.7</ele>
        <time>2010-01-01T00:00:00Z</time>
      </trkpt>
      <trkpt lat="45.0461" lon="5.6001">
        <ele>1601.2</ele>
        <time>2010-01-01T00:00:00Z</time>
      </trkpt>
      <trkpt lat="45.04606" lon="5.6001">
        <ele>1601.6</ele>
        <time>2010-01-01T00:00:00Z</time>
      </trkpt>
      <trkpt lat="45.04599" lon="5.60009">
        <ele>1602.8</ele>
        <time>2010-01-01T00:00:00Z</time>
      </trkpt>
      <trkpt lat="45.04591" lon="5.60008">
        <ele>1604.6</ele>
        <time>2010-01-01T00:00:00Z</time>
      </trkpt>
      <trkpt lat="45.04582" lon="5.60007">
        <ele>1606.5</ele>
        <time>2010-01-01T00:00:00Z</time>
      </trkpt>
      <trkpt lat="45.04575" lon="5.60008">
        <ele>1605.3</ele>
        <time>2010-01-01T00:00:00Z</time>
      </trkpt>
      <trkpt lat="45.04569" lon="5.6001">
        <ele>1604.2</ele>
        <time>2010-01-01T00:00:00Z</time>
      </trkpt>
      <trkpt lat="45.04568" lon="5.60011">
        <ele>1603.9</ele>
        <time>2010-01-01T00:00:00Z</time>
      </trkpt>
      <trkpt lat="45.04583" lon="5.6002">
        <ele>1603</ele>
        <time>2010-01-01T00:00:00Z</time>
      </trkpt>
      <trkpt lat="45.04589" lon="5.60022">
        <ele>1601.2</ele>
        <time>2010-01-01T00:00:00Z</time>
      </trkpt>
      <trkpt lat="45.04592" lon="5.60023">
        <ele>1600.8</ele>
        <time>2010-01-01T00:00:00Z</time>
      </trkpt>
      <trkpt lat="45.04605" lon="5.60023">
        <ele>1599.9</ele>
        <time>2010-01-01T00:00:00Z</time>
      </trkpt>
      <trkpt lat="45.04612" lon="5.60021">
        <ele>1599.8</ele>
        <time>2010-01-01T00:00:00Z</time>
      </trkpt>
      <trkpt lat="45.04619" lon="5.60021">
        <ele>1599.4</ele>
        <time>2010-01-01T00:00:00Z</time>
      </trkpt>
      <trkpt lat="45.04625" lon="5.60022">
        <ele>1599.1</ele>
        <time>2010-01-01T00:00:00Z</time>
      </trkpt>
      <trkpt lat="45.04625" lon="5.60022">
        <ele>1599.1</ele>
        <time>2010-01-01T00:00:00Z</time>
      </trkpt>
      <trkpt lat="45.04619" lon="5.60021">
        <ele>1599.4</ele>
        <time>2010-01-01T00:00:00Z</time>
      </trkpt>
      <trkpt lat="45.04612" lon="5.60021">
        <ele>1599.8</ele>
        <time>2010-01-01T00:00:00Z</time>
      </trkpt>
      <trkpt lat="45.04605" lon="5.60023">
        <ele>1599.9</ele>
        <time>2010-01-01T00:00:00Z</time>
      </trkpt>
      <trkpt lat="45.04592" lon="5.60023">
        <ele>1600.8</ele>
        <time>2010-01-01T00:00:00Z</time>
      </trkpt>
      <trkpt lat="45.04589" lon="5.60022">
        <ele>1601.2</ele>
        <time>2010-01-01T00:00:00Z</time>
      </trkpt>
      <trkpt lat="45.04583" lon="5.6002">
        <ele>1603</ele>
        <time>2010-01-01T00:00:00Z</time>
      </trkpt>
      <trkpt lat="45.04568" lon="5.60011">
        <ele>1603.9</ele>
        <time>2010-01-01T00:00:00Z</time>
      </trkpt>
      <trkpt lat="45.04563" lon="5.60013">
        <ele>1603.2</ele>
        <time>2010-01-01T00:00:00Z</time>
      </trkpt>
      <trkpt lat="45.04559" lon="5.60014">
        <ele>1602.8</ele>
        <time>2010-01-01T00:00:00Z</time>
      </trkpt>
      <trkpt lat="45.04551" lon="5.60016">
        <ele>1602.3</ele>
        <time>2010-01-01T00:00:00Z</time>
      </trkpt>
      <trkpt lat="45.04544" lon="5.60017">
        <ele>1602.3</ele>
        <time>2010-01-01T00:00:00Z</time>
      </trkpt>
      <trkpt lat="45.04537" lon="5.60019">
        <ele>1602.3</ele>
        <time>2010-01-01T00:00:00Z</time>
      </trkpt>
      <trkpt lat="45.04531" lon="5.60022">
        <ele>1602.3</ele>
        <time>2010-01-01T00:00:00Z</time>
      </trkpt>
      <trkpt lat="45.04528" lon="5.60024">
        <ele>1602.2</ele>
        <time>2010-01-01T00:00:00Z</time>
      </trkpt>
      <trkpt lat="45.04525" lon="5.60031">
        <ele>1601.1</ele>
        <time>2010-01-01T00:00:00Z</time>
      </trkpt>
      <trkpt lat="45.04522" lon="5.60038">
        <ele>1599.8</ele>
        <time>2010-01-01T00:00:00Z</time>
      </trkpt>
      <trkpt lat="45.04517" lon="5.60043">
        <ele>1598.8</ele>
        <time>2010-01-01T00:00:00Z</time>
      </trkpt>
      <trkpt lat="45.04508" lon="5.60049">
        <ele>1597.3</ele>
        <time>2010-01-01T00:00:00Z</time>
      </trkpt>
      <trkpt lat="45.04499" lon="5.60054">
        <ele>1597.2</ele>
        <time>2010-01-01T00:00:00Z</time>
      </trkpt>
      <trkpt lat="45.04495" lon="5.60056">
        <ele>1596.8</ele>
        <time>2010-01-01T00:00:00Z</time>
      </trkpt>
      <trkpt lat="45.04491" lon="5.60057">
        <ele>1596.7</ele>
        <time>2010-01-01T00:00:00Z</time>
      </trkpt>
      <trkpt lat="45.04482" lon="5.60057">
        <ele>1597.3</ele>
        <time>2010-01-01T00:00:00Z</time>
      </trkpt>
      <trkpt lat="45.04471" lon="5.60058">
        <ele>1598</ele>
        <time>2010-01-01T00:00:00Z</time>
      </trkpt>
      <trkpt lat="45.0446" lon="5.60058">
        <ele>1598.5</ele>
        <time>2010-01-01T00:00:00Z</time>
      </trkpt>
      <trkpt lat="45.04451" lon="5.6006">
        <ele>1598.4</ele>
        <time>2010-01-01T00:00:00Z</time>
      </trkpt>
      <trkpt lat="45.04445" lon="5.6006">
        <ele>1598.4</ele>
        <time>2010-01-01T00:00:00Z</time>
      </trkpt>
      <trkpt lat="45.04438" lon="5.6006">
        <ele>1598.2</ele>
        <time>2010-01-01T00:00:00Z</time>
      </trkpt>
      <trkpt lat="45.04432" lon="5.60059">
        <ele>1598.2</ele>
        <time>2010-01-01T00:00:00Z</time>
      </trkpt>
      <trkpt lat="45.04424" lon="5.60058">
        <ele>1598.1</ele>
        <time>2010-01-01T00:00:00Z</time>
      </trkpt>
      <trkpt lat="45.04417" lon="5.60058">
        <ele>1598</ele>
        <time>2010-01-01T00:00:00Z</time>
      </trkpt>
      <trkpt lat="45.04409" lon="5.60059">
        <ele>1599.2</ele>
        <time>2010-01-01T00:00:00Z</time>
      </trkpt>
      <trkpt lat="45.04402" lon="5.6006">
        <ele>1599.3</ele>
        <time>2010-01-01T00:00:00Z</time>
      </trkpt>
      <trkpt lat="45.04394" lon="5.60061">
        <ele>1599.6</ele>
        <time>2010-01-01T00:00:00Z</time>
      </trkpt>
      <trkpt lat="45.04388" lon="5.6006">
        <ele>1600</ele>
        <time>2010-01-01T00:00:00Z</time>
      </trkpt>
      <trkpt lat="45.04381" lon="5.60058">
        <ele>1600.4</ele>
        <time>2010-01-01T00:00:00Z</time>
      </trkpt>
      <trkpt lat="45.04374" lon="5.60056">
        <ele>1600.7</ele>
        <time>2010-01-01T00:00:00Z</time>
      </trkpt>
      <trkpt lat="45.04363" lon="5.60055">
        <ele>1600.6</ele>
        <time>2010-01-01T00:00:00Z</time>
      </trkpt>
      <trkpt lat="45.04347" lon="5.60055">
        <ele>1599.5</ele>
        <time>2010-01-01T00:00:00Z</time>
      </trkpt>
      <trkpt lat="45.04337" lon="5.60054">
        <ele>1599.4</ele>
        <time>2010-01-01T00:00:00Z</time>
      </trkpt>
      <trkpt lat="45.04328" lon="5.60052">
        <ele>1597.3</ele>
        <time>2010-01-01T00:00:00Z</time>
      </trkpt>
      <trkpt lat="45.04314" lon="5.60053">
        <ele>1596.9</ele>
        <time>2010-01-01T00:00:00Z</time>
      </trkpt>
      <trkpt lat="45.04298" lon="5.60053">
        <ele>1596.6</ele>
        <time>2010-01-01T00:00:00Z</time>
      </trkpt>
      <trkpt lat="45.0429" lon="5.60053">
        <ele>1596.1</ele>
        <time>2010-01-01T00:00:00Z</time>
      </trkpt>
      <trkpt lat="45.04284" lon="5.60055">
        <ele>1595.1</ele>
        <time>2010-01-01T00:00:00Z</time>
      </trkpt>
      <trkpt lat="45.04279" lon="5.60057">
        <ele>1594</ele>
        <time>2010-01-01T00:00:00Z</time>
      </trkpt>
      <trkpt lat="45.04275" lon="5.60057">
        <ele>1593.4</ele>
        <time>2010-01-01T00:00:00Z</time>
      </trkpt>
      <trkpt lat="45.04262" lon="5.60055">
        <ele>1592.4</ele>
        <time>2010-01-01T00:00:00Z</time>
      </trkpt>
      <trkpt lat="45.04245" lon="5.60054">
        <ele>1587.9</ele>
        <time>2010-01-01T00:00:00Z</time>
      </trkpt>
      <trkpt lat="45.04223" lon="5.60051">
        <ele>1589.6</ele>
        <time>2010-01-01T00:00:00Z</time>
      </trkpt>
      <trkpt lat="45.04212" lon="5.60053">
        <ele>1589.2</ele>
        <time>2010-01-01T00:00:00Z</time>
      </trkpt>
      <trkpt lat="45.04205" lon="5.60053">
        <ele>1589</ele>
        <time>2010-01-01T00:00:00Z</time>
      </trkpt>
      <trkpt lat="45.04198" lon="5.60053">
        <ele>1588.7</ele>
        <time>2010-01-01T00:00:00Z</time>
      </trkpt>
      <trkpt lat="45.04181" lon="5.60051">
        <ele>1588.3</ele>
        <time>2010-01-01T00:00:00Z</time>
      </trkpt>
      <trkpt lat="45.04163" lon="5.60051">
        <ele>1581</ele>
        <time>2010-01-01T00:00:00Z</time>
      </trkpt>
      <trkpt lat="45.04147" lon="5.60051">
        <ele>1580.4</ele>
        <time>2010-01-01T00:00:00Z</time>
      </trkpt>
      <trkpt lat="45.04131" lon="5.60047">
        <ele>1580.3</ele>
        <time>2010-01-01T00:00:00Z</time>
      </trkpt>
      <trkpt lat="45.04111" lon="5.6004">
        <ele>1579.8</ele>
        <time>2010-01-01T00:00:00Z</time>
      </trkpt>
      <trkpt lat="45.04092" lon="5.60032">
        <ele>1581</ele>
        <time>2010-01-01T00:00:00Z</time>
      </trkpt>
      <trkpt lat="45.04076" lon="5.60025">
        <ele>1571.7</ele>
        <time>2010-01-01T00:00:00Z</time>
      </trkpt>
      <trkpt lat="45.04065" lon="5.60023">
        <ele>1570.5</ele>
        <time>2010-01-01T00:00:00Z</time>
      </trkpt>
      <trkpt lat="45.04053" lon="5.60026">
        <ele>1567.1</ele>
        <time>2010-01-01T00:00:00Z</time>
      </trkpt>
      <trkpt lat="45.04045" lon="5.60031">
        <ele>1564.6</ele>
        <time>2010-01-01T00:00:00Z</time>
      </trkpt>
      <trkpt lat="45.04039" lon="5.60035">
        <ele>1562.9</ele>
        <time>2010-01-01T00:00:00Z</time>
      </trkpt>
      <trkpt lat="45.04036" lon="5.60035">
        <ele>1562.6</ele>
        <time>2010-01-01T00:00:00Z</time>
      </trkpt>
      <trkpt lat="45.04032" lon="5.60031">
        <ele>1563.2</ele>
        <time>2010-01-01T00:00:00Z</time>
      </trkpt>
      <trkpt lat="45.04029" lon="5.60027">
        <ele>1564</ele>
        <time>2010-01-01T00:00:00Z</time>
      </trkpt>
      <trkpt lat="45.04027" lon="5.60025">
        <ele>1564.3</ele>
        <time>2010-01-01T00:00:00Z</time>
      </trkpt>
      <trkpt lat="45.04018" lon="5.60019">
        <ele>1565.7</ele>
        <time>2010-01-01T00:00:00Z</time>
      </trkpt>
      <trkpt lat="45.0401" lon="5.60018">
        <ele>1566.3</ele>
        <time>2010-01-01T00:00:00Z</time>
      </trkpt>
      <trkpt lat="45.04005" lon="5.60019">
        <ele>1566.2</ele>
        <time>2010-01-01T00:00:00Z</time>
      </trkpt>
      <trkpt lat="45.04001" lon="5.60021">
        <ele>1565.5</ele>
        <time>2010-01-01T00:00:00Z</time>
      </trkpt>
      <trkpt lat="45.03998" lon="5.60022">
        <ele>1553.8</ele>
        <time>2010-01-01T00:00:00Z</time>
      </trkpt>
      <trkpt lat="45.03994" lon="5.6002">
        <ele>1554.5</ele>
        <time>2010-01-01T00:00:00Z</time>
      </trkpt>
      <trkpt lat="45.03987" lon="5.60015">
        <ele>1555.3</ele>
        <time>2010-01-01T00:00:00Z</time>
      </trkpt>
      <trkpt lat="45.03979" lon="5.60012">
        <ele>1553.3</ele>
        <time>2010-01-01T00:00:00Z</time>
      </trkpt>
      <trkpt lat="45.03966" lon="5.60007">
        <ele>1549.9</ele>
        <time>2010-01-01T00:00:00Z</time>
      </trkpt>
      <trkpt lat="45.03954" lon="5.60005">
        <ele>1547.8</ele>
        <time>2010-01-01T00:00:00Z</time>
      </trkpt>
      <trkpt lat="45.03949" lon="5.60005">
        <ele>1547.3</ele>
        <time>2010-01-01T00:00:00Z</time>
      </trkpt>
      <trkpt lat="45.03944" lon="5.60003">
        <ele>1547.4</ele>
        <time>2010-01-01T00:00:00Z</time>
      </trkpt>
      <trkpt lat="45.03937" lon="5.60001">
        <ele>1548.1</ele>
        <time>2010-01-01T00:00:00Z</time>
      </trkpt>
      <trkpt lat="45.03928" lon="5.6">
        <ele>1568.3</ele>
        <time>2010-01-01T00:00:00Z</time>
      </trkpt>
      <trkpt lat="45.0392" lon="5.59994">
        <ele>1564.2</ele>
        <time>2010-01-01T00:00:00Z</time>
      </trkpt>
      <trkpt lat="45.03912" lon="5.59987">
        <ele>1563.9</ele>
        <time>2010-01-01T00:00:00Z</time>
      </trkpt>
      <trkpt lat="45.03903" lon="5.59981">
        <ele>1567.6</ele>
        <time>2010-01-01T00:00:00Z</time>
      </trkpt>
      <trkpt lat="45.039" lon="5.5998">
        <ele>1568.3</ele>
        <time>2010-01-01T00:00:00Z</time>
      </trkpt>
      <trkpt lat="45.039" lon="5.5998">
        <ele>1568.3</ele>
        <time>2010-01-01T00:00:00Z</time>
      </trkpt>
      <trkpt lat="45.03886" lon="5.59976">
        <ele>1569.8</ele>
        <time>2010-01-01T00:00:00Z</time>
      </trkpt>
      <trkpt lat="45.03877" lon="5.59968">
        <ele>1571.7</ele>
        <time>2010-01-01T00:00:00Z</time>
      </trkpt>
      <trkpt lat="45.03862" lon="5.59961">
        <ele>1572.6</ele>
        <time>2010-01-01T00:00:00Z</time>
      </trkpt>
      <trkpt lat="45.03849" lon="5.59967">
        <ele>1568.1</ele>
        <time>2010-01-01T00:00:00Z</time>
      </trkpt>
      <trkpt lat="45.03842" lon="5.5997">
        <ele>1565.3</ele>
        <time>2010-01-01T00:00:00Z</time>
      </trkpt>
      <trkpt lat="45.03835" lon="5.59971">
        <ele>1564</ele>
        <time>2010-01-01T00:00:00Z</time>
      </trkpt>
      <trkpt lat="45.03826" lon="5.59972">
        <ele>1549.9</ele>
        <time>2010-01-01T00:00:00Z</time>
      </trkpt>
      <trkpt lat="45.03819" lon="5.5997">
        <ele>1550.7</ele>
        <time>2010-01-01T00:00:00Z</time>
      </trkpt>
      <trkpt lat="45.0381" lon="5.59962">
        <ele>1553.5</ele>
        <time>2010-01-01T00:00:00Z</time>
      </trkpt>
      <trkpt lat="45.03795" lon="5.59945">
        <ele>1557.2</ele>
        <time>2010-01-01T00:00:00Z</time>
      </trkpt>
      <trkpt lat="45.03782" lon="5.59931">
        <ele>1558.2</ele>
        <time>2010-01-01T00:00:00Z</time>
      </trkpt>
      <trkpt lat="45.03766" lon="5.59918">
        <ele>1558.9</ele>
        <time>2010-01-01T00:00:00Z</time>
      </trkpt>
      <trkpt lat="45.0375" lon="5.59905">
        <ele>1577.9</ele>
        <time>2010-01-01T00:00:00Z</time>
      </trkpt>
      <trkpt lat="45.03733" lon="5.59892">
        <ele>1575.4</ele>
        <time>2010-01-01T00:00:00Z</time>
      </trkpt>
      <trkpt lat="45.0372" lon="5.59887">
        <ele>1576.7</ele>
        <time>2010-01-01T00:00:00Z</time>
      </trkpt>
      <trkpt lat="45.03701" lon="5.59883">
        <ele>1575.8</ele>
        <time>2010-01-01T00:00:00Z</time>
      </trkpt>
      <trkpt lat="45.03686" lon="5.59883">
        <ele>1573.5</ele>
        <time>2010-01-01T00:00:00Z</time>
      </trkpt>
      <trkpt lat="45.03667" lon="5.59886">
        <ele>1569.9</ele>
        <time>2010-01-01T00:00:00Z</time>
      </trkpt>
      <trkpt lat="45.03654" lon="5.59884">
        <ele>1561.5</ele>
        <time>2010-01-01T00:00:00Z</time>
      </trkpt>
      <trkpt lat="45.03637" lon="5.59881">
        <ele>1562.2</ele>
        <time>2010-01-01T00:00:00Z</time>
      </trkpt>
      <trkpt lat="45.03627" lon="5.59875">
        <ele>1563.4</ele>
        <time>2010-01-01T00:00:00Z</time>
      </trkpt>
      <trkpt lat="45.0362" lon="5.59865">
        <ele>1565.6</ele>
        <time>2010-01-01T00:00:00Z</time>
      </trkpt>
      <trkpt lat="45.03609" lon="5.59849">
        <ele>1569.2</ele>
        <time>2010-01-01T00:00:00Z</time>
      </trkpt>
      <trkpt lat="45.03594" lon="5.59841">
        <ele>1572.9</ele>
        <time>2010-01-01T00:00:00Z</time>
      </trkpt>
      <trkpt lat="45.03574" lon="5.59835">
        <ele>1570.9</ele>
        <time>2010-01-01T00:00:00Z</time>
      </trkpt>
      <trkpt lat="45.03561" lon="5.59835">
        <ele>1564.8</ele>
        <time>2010-01-01T00:00:00Z</time>
      </trkpt>
      <trkpt lat="45.03542" lon="5.59838">
        <ele>1561</ele>
        <time>2010-01-01T00:00:00Z</time>
      </trkpt>
      <trkpt lat="45.03529" lon="5.59843">
        <ele>1560.6</ele>
        <time>2010-01-01T00:00:00Z</time>
      </trkpt>
      <trkpt lat="45.0352" lon="5.59846">
        <ele>1561.3</ele>
        <time>2010-01-01T00:00:00Z</time>
      </trkpt>
      <trkpt lat="45.03509" lon="5.59847">
        <ele>1563.4</ele>
        <time>2010-01-01T00:00:00Z</time>
      </trkpt>
      <trkpt lat="45.03494" lon="5.59846">
        <ele>1559.4</ele>
        <time>2010-01-01T00:00:00Z</time>
      </trkpt>
      <trkpt lat="45.03487" lon="5.59846">
        <ele>1556.4</ele>
        <time>2010-01-01T00:00:00Z</time>
      </trkpt>
      <trkpt lat="45.0348" lon="5.59844">
        <ele>1554</ele>
        <time>2010-01-01T00:00:00Z</time>
      </trkpt>
      <trkpt lat="45.03474" lon="5.59834">
        <ele>1553.5</ele>
        <time>2010-01-01T00:00:00Z</time>
      </trkpt>
      <trkpt lat="45.03474" lon="5.59834">
        <ele>1553.5</ele>
        <time>2010-01-01T00:00:00Z</time>
      </trkpt>
      <trkpt lat="45.03473" lon="5.59832">
        <ele>1578.2</ele>
        <time>2010-01-01T00:00:00Z</time>
      </trkpt>
      <trkpt lat="45.0347" lon="5.59822">
        <ele>1579.1</ele>
        <time>2010-01-01T00:00:00Z</time>
      </trkpt>
      <trkpt lat="45.03466" lon="5.59808">
        <ele>1581</ele>
        <time>2010-01-01T00:00:00Z</time>
      </trkpt>
      <trkpt lat="45.03463" lon="5.59802">
        <ele>1582</ele>
        <time>2010-01-01T00:00:00Z</time>
      </trkpt>
      <trkpt lat="45.03459" lon="5.59798">
        <ele>1582.4</ele>
        <time>2010-01-01T00:00:00Z</time>
      </trkpt>
      <trkpt lat="45.03455" lon="5.59796">
        <ele>1582.3</ele>
        <time>2010-01-01T00:00:00Z</time>
      </trkpt>
      <trkpt lat="45.03449" lon="5.59796">
        <ele>1581.6</ele>
        <time>2010-01-01T00:00:00Z</time>
      </trkpt>
      <trkpt lat="45.03443" lon="5.59794">
        <ele>1581.4</ele>
        <time>2010-01-01T00:00:00Z</time>
      </trkpt>
      <trkpt lat="45.03434" lon="5.59793">
        <ele>1580.7</ele>
        <time>2010-01-01T00:00:00Z</time>
      </trkpt>
      <trkpt lat="45.03426" lon="5.59789">
        <ele>1581.4</ele>
        <time>2010-01-01T00:00:00Z</time>
      </trkpt>
      <trkpt lat="45.03417" lon="5.59784">
        <ele>1582.7</ele>
        <time>2010-01-01T00:00:00Z</time>
      </trkpt>
      <trkpt lat="45.0341" lon="5.59778">
        <ele>1571.3</ele>
        <time>2010-01-01T00:00:00Z</time>
      </trkpt>
      <trkpt lat="45.03404" lon="5.59767">
        <ele>1575.3</ele>
        <time>2010-01-01T00:00:00Z</time>
      </trkpt>
      <trkpt lat="45.03399" lon="5.5976">
        <ele>1576.1</ele>
        <time>2010-01-01T00:00:00Z</time>
      </trkpt>
      <trkpt lat="45.03393" lon="5.59753">
        <ele>1574.7</ele>
        <time>2010-01-01T00:00:00Z</time>
      </trkpt>
      <trkpt lat="45.03385" lon="5.59745">
        <ele>1599.8</ele>
        <time>2010-01-01T00:00:00Z</time>
      </trkpt>
      <trkpt lat="45.03373" lon="5.59734">
        <ele>1599.6</ele>
        <time>2010-01-01T00:00:00Z</time>
      </trkpt>
      <trkpt lat="45.0336" lon="5.59724">
        <ele>1599.1</ele>
        <time>2010-01-01T00:00:00Z</time>
      </trkpt>
      <trkpt lat="45.03351" lon="5.59718">
        <ele>1599.3</ele>
        <time>2010-01-01T00:00:00Z</time>
      </trkpt>
      <trkpt lat="45.03347" lon="5.59714">
        <ele>1600.3</ele>
        <time>2010-01-01T00:00:00Z</time>
      </trkpt>
      <trkpt lat="45.03339" lon="5.59711">
        <ele>1600.5</ele>
        <time>2010-01-01T00:00:00Z</time>
      </trkpt>
      <trkpt lat="45.03331" lon="5.5971">
        <ele>1582.2</ele>
        <time>2010-01-01T00:00:00Z</time>
      </trkpt>
      <trkpt lat="45.03325" lon="5.5971">
        <ele>1581.7</ele>
        <time>2010-01-01T00:00:00Z</time>
      </trkpt>
      <trkpt lat="45.03318" lon="5.59707">
        <ele>1582.2</ele>
        <time>2010-01-01T00:00:00Z</time>
      </trkpt>
      <trkpt lat="45.03306" lon="5.59699">
        <ele>1583.1</ele>
        <time>2010-01-01T00:00:00Z</time>
      </trkpt>
      <trkpt lat="45.03296" lon="5.59686">
        <ele>1584.4</ele>
        <time>2010-01-01T00:00:00Z</time>
      </trkpt>
      <trkpt lat="45.03291" lon="5.59683">
        <ele>1583.9</ele>
        <time>2010-01-01T00:00:00Z</time>
      </trkpt>
      <trkpt lat="45.03285" lon="5.59679">
        <ele>1583.5</ele>
        <time>2010-01-01T00:00:00Z</time>
      </trkpt>
      <trkpt lat="45.03276" lon="5.59672">
        <ele>1583.3</ele>
        <time>2010-01-01T00:00:00Z</time>
      </trkpt>
      <trkpt lat="45.03268" lon="5.59666">
        <ele>1613.4</ele>
        <time>2010-01-01T00:00:00Z</time>
      </trkpt>
      <trkpt lat="45.03263" lon="5.59661">
        <ele>1609.9</ele>
        <time>2010-01-01T00:00:00Z</time>
      </trkpt>
      <trkpt lat="45.03252" lon="5.59655">
        <ele>1607.2</ele>
        <time>2010-01-01T00:00:00Z</time>
      </trkpt>
      <trkpt lat="45.03242" lon="5.59653">
        <ele>1595.8</ele>
        <time>2010-01-01T00:00:00Z</time>
      </trkpt>
      <trkpt lat="45.03234" lon="5.59651">
        <ele>1597.7</ele>
        <time>2010-01-01T00:00:00Z</time>
      </trkpt>
      <trkpt lat="45.03214" lon="5.5964">
        <ele>1600.7</ele>
        <time>2010-01-01T00:00:00Z</time>
      </trkpt>
      <trkpt lat="45.03203" lon="5.59631">
        <ele>1601.8</ele>
        <time>2010-01-01T00:00:00Z</time>
      </trkpt>
      <trkpt lat="45.03177" lon="5.59618">
        <ele>1602.4</ele>
        <time>2010-01-01T00:00:00Z</time>
      </trkpt>
      <trkpt lat="45.03157" lon="5.59605">
        <ele>1588.4</ele>
        <time>2010-01-01T00:00:00Z</time>
      </trkpt>
      <trkpt lat="45.03149" lon="5.59597">
        <ele>1589.2</ele>
        <time>2010-01-01T00:00:00Z</time>
      </trkpt>
      <trkpt lat="45.03141" lon="5.5959">
        <ele>1587.1</ele>
        <time>2010-01-01T00:00:00Z</time>
      </trkpt>
      <trkpt lat="45.03132" lon="5.59585">
        <ele>1583.6</ele>
        <time>2010-01-01T00:00:00Z</time>
      </trkpt>
      <trkpt lat="45.03121" lon="5.59582">
        <ele>1607.1</ele>
        <time>2010-01-01T00:00:00Z</time>
      </trkpt>
      <trkpt lat="45.0311" lon="5.5958">
        <ele>1601.7</ele>
        <time>2010-01-01T00:00:00Z</time>
      </trkpt>
      <trkpt lat="45.03099" lon="5.59578">
        <ele>1593.9</ele>
        <time>2010-01-01T00:00:00Z</time>
      </trkpt>
      <trkpt lat="45.03093" lon="5.59577">
        <ele>1588.8</ele>
        <time>2010-01-01T00:00:00Z</time>
      </trkpt>
      <trkpt lat="45.03085" lon="5.59572">
        <ele>1588.6</ele>
        <time>2010-01-01T00:00:00Z</time>
      </trkpt>
      <trkpt lat="45.03078" lon="5.59566">
        <ele>1582.5</ele>
        <time>2010-01-01T00:00:00Z</time>
      </trkpt>
      <trkpt lat="45.03072" lon="5.59559">
        <ele>1586.1</ele>
        <time>2010-01-01T00:00:00Z</time>
      </trkpt>
      <trkpt lat="45.03064" lon="5.59552">
        <ele>1589.1</ele>
        <time>2010-01-01T00:00:00Z</time>
      </trkpt>
      <trkpt lat="45.03061" lon="5.59546">
        <ele>1591.2</ele>
        <time>2010-01-01T00:00:00Z</time>
      </trkpt>
      <trkpt lat="45.03056" lon="5.59539">
        <ele>1593.2</ele>
        <time>2010-01-01T00:00:00Z</time>
      </trkpt>
      <trkpt lat="45.0305" lon="5.5953">
        <ele>1595.3</ele>
        <time>2010-01-01T00:00:00Z</time>
      </trkpt>
      <trkpt lat="45.03042" lon="5.59523">
        <ele>1595.8</ele>
        <time>2010-01-01T00:00:00Z</time>
      </trkpt>
      <trkpt lat="45.03036" lon="5.5952">
        <ele>1595.6</ele>
        <time>2010-01-01T00:00:00Z</time>
      </trkpt>
      <trkpt lat="45.03029" lon="5.59517">
        <ele>1595.4</ele>
        <time>2010-01-01T00:00:00Z</time>
      </trkpt>
      <trkpt lat="45.03023" lon="5.59512">
        <ele>1595.9</ele>
        <time>2010-01-01T00:00:00Z</time>
      </trkpt>
      <trkpt lat="45.03017" lon="5.59507">
        <ele>1596.6</ele>
        <time>2010-01-01T00:00:00Z</time>
      </trkpt>
      <trkpt lat="45.0301" lon="5.59502">
        <ele>1597.7</ele>
        <time>2010-01-01T00:00:00Z</time>
      </trkpt>
      <trkpt lat="45.03004" lon="5.59498">
        <ele>1605.1</ele>
        <time>2010-01-01T00:00:00Z</time>
      </trkpt>
      <trkpt lat="45.03001" lon="5.59493">
        <ele>1607.6</ele>
        <time>2010-01-01T00:00:00Z</time>
      </trkpt>
      <trkpt lat="45.02995" lon="5.59488">
        <ele>1597.2</ele>
        <time>2010-01-01T00:00:00Z</time>
      </trkpt>
      <trkpt lat="45.02989" lon="5.59479">
        <ele>1596</ele>
        <time>2010-01-01T00:00:00Z</time>
      </trkpt>
      <trkpt lat="45.02985" lon="5.59471">
        <ele>1595.7</ele>
        <time>2010-01-01T00:00:00Z</time>
      </trkpt>
      <trkpt lat="45.02977" lon="5.59466">
        <ele>1595</ele>
        <time>2010-01-01T00:00:00Z</time>
      </trkpt>
      <trkpt lat="45.02968" lon="5.59463">
        <ele>1593.9</ele>
        <time>2010-01-01T00:00:00Z</time>
      </trkpt>
      <trkpt lat="45.02962" lon="5.59461">
        <ele>1593.1</ele>
        <time>2010-01-01T00:00:00Z</time>
      </trkpt>
      <trkpt lat="45.02954" lon="5.59459">
        <ele>1592</ele>
        <time>2010-01-01T00:00:00Z</time>
      </trkpt>
      <trkpt lat="45.02945" lon="5.59454">
        <ele>1591.2</ele>
        <time>2010-01-01T00:00:00Z</time>
      </trkpt>
      <trkpt lat="45.02939" lon="5.59451">
        <ele>1590.8</ele>
        <time>2010-01-01T00:00:00Z</time>
      </trkpt>
      <trkpt lat="45.02936" lon="5.59448">
        <ele>1590.8</ele>
        <time>2010-01-01T00:00:00Z</time>
      </trkpt>
      <trkpt lat="45.02933" lon="5.59442">
        <ele>1591.1</ele>
        <time>2010-01-01T00:00:00Z</time>
      </trkpt>
      <trkpt lat="45.02924" lon="5.59435">
        <ele>1591.1</ele>
        <time>2010-01-01T00:00:00Z</time>
      </trkpt>
      <trkpt lat="45.02912" lon="5.59425">
        <ele>1584.5</ele>
        <time>2010-01-01T00:00:00Z</time>
      </trkpt>
      <trkpt lat="45.0291" lon="5.59424">
        <ele>1584.3</ele>
        <time>2010-01-01T00:00:00Z</time>
      </trkpt>
      <trkpt lat="45.0291" lon="5.59424">
        <ele>1584.3</ele>
        <time>2010-01-01T00:00:00Z</time>
      </trkpt>
      <trkpt lat="45.029" lon="5.59418">
        <ele>1581.4</ele>
        <time>2010-01-01T00:00:00Z</time>
      </trkpt>
      <trkpt lat="45.02884" lon="5.59404">
        <ele>1612</ele>
        <time>2010-01-01T00:00:00Z</time>
      </trkpt>
      <trkpt lat="45.02875" lon="5.59398">
        <ele>1613</ele>
        <time>2010-01-01T00:00:00Z</time>
      </trkpt>
      <trkpt lat="45.02867" lon="5.59393">
        <ele>1613</ele>
        <time>2010-01-01T00:00:00Z</time>
      </trkpt>
      <trkpt lat="45.02858" lon="5.59392">
        <ele>1610.5</ele>
        <time>2010-01-01T00:00:00Z</time>
      </trkpt>
      <trkpt lat="45.0285" lon="5.59391">
        <ele>1608.4</ele>
        <time>2010-01-01T00:00:00Z</time>
      </trkpt>
      <trkpt lat="45.02843" lon="5.59389">
        <ele>1607.6</ele>
        <time>2010-01-01T00:00:00Z</time>
      </trkpt>
      <trkpt lat="45.02835" lon="5.59384">
        <ele>1609.4</ele>
        <time>2010-01-01T00:00:00Z</time>
      </trkpt>
      <trkpt lat="45.02826" lon="5.59378">
        <ele>1589.5</ele>
        <time>2010-01-01T00:00:00Z</time>
      </trkpt>
      <trkpt lat="45.02818" lon="5.59373">
        <ele>1590.6</ele>
        <time>2010-01-01T00:00:00Z</time>
      </trkpt>
      <trkpt lat="45.02811" lon="5.59366">
        <ele>1591.9</ele>
        <time>2010-01-01T00:00:00Z</time>
      </trkpt>
      <trkpt lat="45.02799" lon="5.59354">
        <ele>1592.1</ele>
        <time>2010-01-01T00:00:00Z</time>
      </trkpt>
      <trkpt lat="45.0279" lon="5.59348">
        <ele>1590.4</ele>
        <time>2010-01-01T00:00:00Z</time>
      </trkpt>
      <trkpt lat="45.02782" lon="5.59343">
        <ele>1588.7</ele>
        <time>2010-01-01T00:00:00Z</time>
      </trkpt>
      <trkpt lat="45.02775" lon="5.59343">
        <ele>1587</ele>
        <time>2010-01-01T00:00:00Z</time>
      </trkpt>
      <trkpt lat="45.02768" lon="5.59343">
        <ele>1585.6</ele>
        <time>2010-01-01T00:00:00Z</time>
      </trkpt>
      <trkpt lat="45.02761" lon="5.59339">
        <ele>1584.3</ele>
        <time>2010-01-01T00:00:00Z</time>
      </trkpt>
      <trkpt lat="45.02751" lon="5.59334">
        <ele>1582.3</ele>
        <time>2010-01-01T00:00:00Z</time>
      </trkpt>
      <trkpt lat="45.02743" lon="5.5933">
        <ele>1590.1</ele>
        <time>2010-01-01T00:00:00Z</time>
      </trkpt>
      <trkpt lat="45.02732" lon="5.59328">
        <ele>1596.2</ele>
        <time>2010-01-01T00:00:00Z</time>
      </trkpt>
      <trkpt lat="45.02724" lon="5.59327">
        <ele>1598</ele>
        <time>2010-01-01T00:00:00Z</time>
      </trkpt>
      <trkpt lat="45.0272" lon="5.59323">
        <ele>1599.1</ele>
        <time>2010-01-01T00:00:00Z</time>
      </trkpt>
      <trkpt lat="45.02712" lon="5.59316">
        <ele>1600.2</ele>
        <time>2010-01-01T00:00:00Z</time>
      </trkpt>
      <trkpt lat="45.02704" lon="5.59311">
        <ele>1599.6</ele>
        <time>2010-01-01T00:00:00Z</time>
      </trkpt>
      <trkpt lat="45.02693" lon="5.59306">
        <ele>1597.4</ele>
        <time>2010-01-01T00:00:00Z</time>
      </trkpt>
      <trkpt lat="45.02687" lon="5.59308">
        <ele>1594.6</ele>
        <time>2010-01-01T00:00:00Z</time>
      </trkpt>
      <trkpt lat="45.02682" lon="5.59308">
        <ele>1592.8</ele>
        <time>2010-01-01T00:00:00Z</time>
      </trkpt>
      <trkpt lat="45.02676" lon="5.59303">
        <ele>1592.9</ele>
        <time>2010-01-01T00:00:00Z</time>
      </trkpt>
      <trkpt lat="45.02669" lon="5.593">
        <ele>1592.5</ele>
        <time>2010-01-01T00:00:00Z</time>
      </trkpt>
      <trkpt lat="45.02661" lon="5.59297">
        <ele>1571.1</ele>
        <time>2010-01-01T00:00:00Z</time>
      </trkpt>
      <trkpt lat="45.0265" lon="5.5929">
        <ele>1571.7</ele>
        <time>2010-01-01T00:00:00Z</time>
      </trkpt>
      <trkpt lat="45.02636" lon="5.5928">
        <ele>1572.7</ele>
        <time>2010-01-01T00:00:00Z</time>
      </trkpt>
      <trkpt lat="45.02614" lon="5.59267">
        <ele>1575.5</ele>
        <time>2010-01-01T00:00:00Z</time>
      </trkpt>
      <trkpt lat="45.02591" lon="5.59248">
        <ele>1599.9</ele>
        <time>2010-01-01T00:00:00Z</time>
      </trkpt>
      <trkpt lat="45.02574" lon="5.59237">
        <ele>1589.1</ele>
        <time>2010-01-01T00:00:00Z</time>
      </trkpt>
      <trkpt lat="45.02566" lon="5.59229">
        <ele>1589.2</ele>
        <time>2010-01-01T00:00:00Z</time>
      </trkpt>
      <trkpt lat="45.02558" lon="5.5922">
        <ele>1589.5</ele>
        <time>2010-01-01T00:00:00Z</time>
      </trkpt>
      <trkpt lat="45.0255" lon="5.59215">
        <ele>1589.7</ele>
        <time>2010-01-01T00:00:00Z</time>
      </trkpt>
      <trkpt lat="45.02539" lon="5.5921">
        <ele>1590.1</ele>
        <time>2010-01-01T00:00:00Z</time>
      </trkpt>
      <trkpt lat="45.02528" lon="5.59203">
        <ele>1591.1</ele>
        <time>2010-01-01T00:00:00Z</time>
      </trkpt>
      <trkpt lat="45.02515" lon="5.59198">
        <ele>1592.6</ele>
        <time>2010-01-01T00:00:00Z</time>
      </trkpt>
      <trkpt lat="45.02503" lon="5.59194">
        <ele>1594.1</ele>
        <time>2010-01-01T00:00:00Z</time>
      </trkpt>
      <trkpt lat="45.02493" lon="5.59188">
        <ele>1592.9</ele>
        <time>2010-01-01T00:00:00Z</time>
      </trkpt>
      <trkpt lat="45.02484" lon="5.59182">
        <ele>1593.3</ele>
        <time>2010-01-01T00:00:00Z</time>
      </trkpt>
      <trkpt lat="45.02475" lon="5.59177">
        <ele>1592.3</ele>
        <time>2010-01-01T00:00:00Z</time>
      </trkpt>
      <trkpt lat="45.02464" lon="5.59176">
        <ele>1590.4</ele>
        <time>2010-01-01T00:00:00Z</time>
      </trkpt>
      <trkpt lat="45.02457" lon="5.59177">
        <ele>1589.6</ele>
        <time>2010-01-01T00:00:00Z</time>
      </trkpt>
      <trkpt lat="45.02447" lon="5.59176">
        <ele>1589.3</ele>
        <time>2010-01-01T00:00:00Z</time>
      </trkpt>
      <trkpt lat="45.02439" lon="5.59173">
        <ele>1589.9</ele>
        <time>2010-01-01T00:00:00Z</time>
      </trkpt>
      <trkpt lat="45.02432" lon="5.5917">
        <ele>1591.1</ele>
        <time>2010-01-01T00:00:00Z</time>
      </trkpt>
      <trkpt lat="45.02424" lon="5.59163">
        <ele>1598.3</ele>
        <time>2010-01-01T00:00:00Z</time>
      </trkpt>
      <trkpt lat="45.02414" lon="5.59156">
        <ele>1595.5</ele>
        <time>2010-01-01T00:00:00Z</time>
      </trkpt>
      <trkpt lat="45.02405" lon="5.5915">
        <ele>1595.2</ele>
        <time>2010-01-01T00:00:00Z</time>
      </trkpt>
      <trkpt lat="45.02396" lon="5.59147">
        <ele>1594.7</ele>
        <time>2010-01-01T00:00:00Z</time>
      </trkpt>
      <trkpt lat="45.02387" lon="5.59143">
        <ele>1594.1</ele>
        <time>2010-01-01T00:00:00Z</time>
      </trkpt>
      <trkpt lat="45.02379" lon="5.59142">
        <ele>1593.4</ele>
        <time>2010-01-01T00:00:00Z</time>
      </trkpt>
      <trkpt lat="45.02373" lon="5.59141">
        <ele>1592.8</ele>
        <time>2010-01-01T00:00:00Z</time>
      </trkpt>
      <trkpt lat="45.02366" lon="5.59141">
        <ele>1591.9</ele>
        <time>2010-01-01T00:00:00Z</time>
      </trkpt>
      <trkpt lat="45.02351" lon="5.59139">
        <ele>1590.2</ele>
        <time>2010-01-01T00:00:00Z</time>
      </trkpt>
      <trkpt lat="45.02343" lon="5.59133">
        <ele>1590.6</ele>
        <time>2010-01-01T00:00:00Z</time>
      </trkpt>
      <trkpt lat="45.02336" lon="5.59128">
        <ele>1591.2</ele>
        <time>2010-01-01T00:00:00Z</time>
      </trkpt>
      <trkpt lat="45.02327" lon="5.59123">
        <ele>1582</ele>
        <time>2010-01-01T00:00:00Z</time>
      </trkpt>
      <trkpt lat="45.02316" lon="5.59115">
        <ele>1582.7</ele>
        <time>2010-01-01T00:00:00Z</time>
      </trkpt>
      <trkpt lat="45.02309" lon="5.59109">
        <ele>1582.9</ele>
        <time>2010-01-01T00:00:00Z</time>
      </trkpt>
      <trkpt lat="45.02302" lon="5.59103">
        <ele>1582.8</ele>
        <time>2010-01-01T00:00:00Z</time>
      </trkpt>
      <trkpt lat="45.02293" lon="5.59098">
        <ele>1582</ele>
        <time>2010-01-01T00:00:00Z</time>
      </trkpt>
      <trkpt lat="45.02286" lon="5.59096">
        <ele>1581.4</ele>
        <time>2010-01-01T00:00:00Z</time>
      </trkpt>
      <trkpt lat="45.0228" lon="5.59095">
        <ele>1580.9</ele>
        <time>2010-01-01T00:00:00Z</time>
      </trkpt>
      <trkpt lat="45.02272" lon="5.59093">
        <ele>1580.6</ele>
        <time>2010-01-01T00:00:00Z</time>
      </trkpt>
      <trkpt lat="45.02264" lon="5.59091">
        <ele>1580.7</ele>
        <time>2010-01-01T00:00:00Z</time>
      </trkpt>
      <trkpt lat="45.02258" lon="5.59087">
        <ele>1581.1</ele>
        <time>2010-01-01T00:00:00Z</time>
      </trkpt>
      <trkpt lat="45.02251" lon="5.59085">
        <ele>1581.7</ele>
        <time>2010-01-01T00:00:00Z</time>
      </trkpt>
      <trkpt lat="45.02244" lon="5.59081">
        <ele>1581.3</ele>
        <time>2010-01-01T00:00:00Z</time>
      </trkpt>
      <trkpt lat="45.02237" lon="5.59075">
        <ele>1580.6</ele>
        <time>2010-01-01T00:00:00Z</time>
      </trkpt>
      <trkpt lat="45.0223" lon="5.59073">
        <ele>1580.1</ele>
        <time>2010-01-01T00:00:00Z</time>
      </trkpt>
      <trkpt lat="45.02222" lon="5.59069">
        <ele>1579.6</ele>
        <time>2010-01-01T00:00:00Z</time>
      </trkpt>
      <trkpt lat="45.02198" lon="5.59057">
        <ele>1578.3</ele>
        <time>2010-01-01T00:00:00Z</time>
      </trkpt>
      <trkpt lat="45.02194" lon="5.59054">
        <ele>1578.1</ele>
        <time>2010-01-01T00:00:00Z</time>
      </trkpt>
      <trkpt lat="45.0219" lon="5.59049">
        <ele>1578</ele>
        <time>2010-01-01T00:00:00Z</time>
      </trkpt>
      <trkpt lat="45.0219" lon="5.59049">
        <ele>1578</ele>
        <time>2010-01-01T00:00:00Z</time>
      </trkpt>
      <trkpt lat="45.02188" lon="5.59046">
        <ele>1578</ele>
        <time>2010-01-01T00:00:00Z</time>
      </trkpt>
      <trkpt lat="45.02178" lon="5.59037">
        <ele>1577.8</ele>
        <time>2010-01-01T00:00:00Z</time>
      </trkpt>
      <trkpt lat="45.0217" lon="5.59028">
        <ele>1577.6</ele>
        <time>2010-01-01T00:00:00Z</time>
      </trkpt>
      <trkpt lat="45.02159" lon="5.59024">
        <ele>1575.2</ele>
        <time>2010-01-01T00:00:00Z</time>
      </trkpt>
      <trkpt lat="45.02151" lon="5.59023">
        <ele>1575.3</ele>
        <time>2010-01-01T00:00:00Z</time>
      </trkpt>
      <trkpt lat="45.02141" lon="5.59025">
        <ele>1575.2</ele>
        <time>2010-01-01T00:00:00Z</time>
      </trkpt>
      <trkpt lat="45.0213" lon="5.59027">
        <ele>1575.3</ele>
        <time>2010-01-01T00:00:00Z</time>
      </trkpt>
      <trkpt lat="45.02119" lon="5.59026">
        <ele>1575.6</ele>
        <time>2010-01-01T00:00:00Z</time>
      </trkpt>
      <trkpt lat="45.02111" lon="5.59024">
        <ele>1576</ele>
        <time>2010-01-01T00:00:00Z</time>
      </trkpt>
      <trkpt lat="45.02104" lon="5.59023">
        <ele>1576.4</ele>
        <time>2010-01-01T00:00:00Z</time>
      </trkpt>
      <trkpt lat="45.02096" lon="5.59018">
        <ele>1577.6</ele>
        <time>2010-01-01T00:00:00Z</time>
      </trkpt>
      <trkpt lat="45.02089" lon="5.59015">
        <ele>1578.6</ele>
        <time>2010-01-01T00:00:00Z</time>
      </trkpt>
      <trkpt lat="45.0208" lon="5.59012">
        <ele>1578.9</ele>
        <time>2010-01-01T00:00:00Z</time>
      </trkpt>
      <trkpt lat="45.02071" lon="5.59006">
        <ele>1578.9</ele>
        <time>2010-01-01T00:00:00Z</time>
      </trkpt>
      <trkpt lat="45.02062" lon="5.59001">
        <ele>1578</ele>
        <time>2010-01-01T00:00:00Z</time>
      </trkpt>
      <trkpt lat="45.02051" lon="5.58996">
        <ele>1596.6</ele>
        <time>2010-01-01T00:00:00Z</time>
      </trkpt>
      <trkpt lat="45.02042" lon="5.58994">
        <ele>1597.2</ele>
        <time>2010-01-01T00:00:00Z</time>
      </trkpt>
      <trkpt lat="45.02031" lon="5.58992">
        <ele>1596.8</ele>
        <time>2010-01-01T00:00:00Z</time>
      </trkpt>
      <trkpt lat="45.0202" lon="5.58993">
        <ele>1595.2</ele>
        <time>2010-01-01T00:00:00Z</time>
      </trkpt>
      <trkpt lat="45.02009" lon="5.58993">
        <ele>1592.8</ele>
        <time>2010-01-01T00:00:00Z</time>
      </trkpt>
      <trkpt lat="45.01999" lon="5.58989">
        <ele>1591</ele>
        <time>2010-01-01T00:00:00Z</time>
      </trkpt>
      <trkpt lat="45.01989" lon="5.58986">
        <ele>1592.3</ele>
        <time>2010-01-01T00:00:00Z</time>
      </trkpt>
      <trkpt lat="45.01979" lon="5.58981">
        <ele>1593.8</ele>
        <time>2010-01-01T00:00:00Z</time>
      </trkpt>
      <trkpt lat="45.01966" lon="5.58978">
        <ele>1594.9</ele>
        <time>2010-01-01T00:00:00Z</time>
      </trkpt>
      <trkpt lat="45.01956" lon="5.58977">
        <ele>1595.3</ele>
        <time>2010-01-01T00:00:00Z</time>
      </trkpt>
      <trkpt lat="45.01945" lon="5.58978">
        <ele>1595.3</ele>
        <time>2010-01-01T00:00:00Z</time>
      </trkpt>
      <trkpt lat="45.01934" lon="5.58978">
        <ele>1595.1</ele>
        <time>2010-01-01T00:00:00Z</time>
      </trkpt>
      <trkpt lat="45.01924" lon="5.58978">
        <ele>1594.7</ele>
        <time>2010-01-01T00:00:00Z</time>
      </trkpt>
      <trkpt lat="45.01915" lon="5.58978">
        <ele>1591.6</ele>
        <time>2010-01-01T00:00:00Z</time>
      </trkpt>
      <trkpt lat="45.01909" lon="5.58982">
        <ele>1590.8</ele>
        <time>2010-01-01T00:00:00Z</time>
      </trkpt>
      <trkpt lat="45.01899" lon="5.58983">
        <ele>1590.5</ele>
        <time>2010-01-01T00:00:00Z</time>
      </trkpt>
      <trkpt lat="45.01892" lon="5.5898">
        <ele>1590.6</ele>
        <time>2010-01-01T00:00:00Z</time>
      </trkpt>
      <trkpt lat="45.01883" lon="5.58976">
        <ele>1590.3</ele>
        <time>2010-01-01T00:00:00Z</time>
      </trkpt>
      <trkpt lat="45.01873" lon="5.58973">
        <ele>1589.5</ele>
        <time>2010-01-01T00:00:00Z</time>
      </trkpt>
      <trkpt lat="45.01864" lon="5.58968">
        <ele>1588.9</ele>
        <time>2010-01-01T00:00:00Z</time>
      </trkpt>
      <trkpt lat="45.01856" lon="5.58961">
        <ele>1588.8</ele>
        <time>2010-01-01T00:00:00Z</time>
      </trkpt>
      <trkpt lat="45.01842" lon="5.58949">
        <ele>1588.8</ele>
        <time>2010-01-01T00:00:00Z</time>
      </trkpt>
      <trkpt lat="45.01828" lon="5.58944">
        <ele>1580.6</ele>
        <time>2010-01-01T00:00:00Z</time>
      </trkpt>
      <trkpt lat="45.01818" lon="5.58942">
        <ele>1580.6</ele>
        <time>2010-01-01T00:00:00Z</time>
      </trkpt>
      <trkpt lat="45.01809" lon="5.58943">
        <ele>1580</ele>
        <time>2010-01-01T00:00:00Z</time>
      </trkpt>
      <trkpt lat="45.018" lon="5.58944">
        <ele>1579.6</ele>
        <time>2010-01-01T00:00:00Z</time>
      </trkpt>
      <trkpt lat="45.01783" lon="5.58945">
        <ele>1579.3</ele>
        <time>2010-01-01T00:00:00Z</time>
      </trkpt>
      <trkpt lat="45.01774" lon="5.58944">
        <ele>1579.6</ele>
        <time>2010-01-01T00:00:00Z</time>
      </trkpt>
      <trkpt lat="45.01759" lon="5.5894">
        <ele>1581.3</ele>
        <time>2010-01-01T00:00:00Z</time>
      </trkpt>
      <trkpt lat="45.01747" lon="5.58936">
        <ele>1578.5</ele>
        <time>2010-01-01T00:00:00Z</time>
      </trkpt>
      <trkpt lat="45.01738" lon="5.58934">
        <ele>1577.9</ele>
        <time>2010-01-01T00:00:00Z</time>
      </trkpt>
      <trkpt lat="45.0173" lon="5.58931">
        <ele>1576.8</ele>
        <time>2010-01-01T00:00:00Z</time>
      </trkpt>
      <trkpt lat="45.01717" lon="5.58932">
        <ele>1573.7</ele>
        <time>2010-01-01T00:00:00Z</time>
      </trkpt>
      <trkpt lat="45.01711" lon="5.58934">
        <ele>1572.5</ele>
        <time>2010-01-01T00:00:00Z</time>
      </trkpt>
      <trkpt lat="45.01702" lon="5.58935">
        <ele>1571.3</ele>
        <time>2010-01-01T00:00:00Z</time>
      </trkpt>
      <trkpt lat="45.01696" lon="5.58937">
        <ele>1570.6</ele>
        <time>2010-01-01T00:00:00Z</time>
      </trkpt>
      <trkpt lat="45.01691" lon="5.5894">
        <ele>1570</ele>
        <time>2010-01-01T00:00:00Z</time>
      </trkpt>
      <trkpt lat="45.01687" lon="5.58943">
        <ele>1569.5</ele>
        <time>2010-01-01T00:00:00Z</time>
      </trkpt>
      <trkpt lat="45.01683" lon="5.58947">
        <ele>1568.8</ele>
        <time>2010-01-01T00:00:00Z</time>
      </trkpt>
      <trkpt lat="45.01675" lon="5.58952">
        <ele>1567.8</ele>
        <time>2010-01-01T00:00:00Z</time>
      </trkpt>
      <trkpt lat="45.01663" lon="5.58958">
        <ele>1567.8</ele>
        <time>2010-01-01T00:00:00Z</time>
      </trkpt>
      <trkpt lat="45.01656" lon="5.5896">
        <ele>1567.8</ele>
        <time>2010-01-01T00:00:00Z</time>
      </trkpt>
      <trkpt lat="45.0165" lon="5.5896">
        <ele>1568.2</ele>
        <time>2010-01-01T00:00:00Z</time>
      </trkpt>
      <trkpt lat="45.01642" lon="5.58958">
        <ele>1569.1</ele>
        <time>2010-01-01T00:00:00Z</time>
      </trkpt>
      <trkpt lat="45.01634" lon="5.58958">
        <ele>1569.7</ele>
        <time>2010-01-01T00:00:00Z</time>
      </trkpt>
      <trkpt lat="45.01633" lon="5.58958">
        <ele>1569.8</ele>
        <time>2010-01-01T00:00:00Z</time>
      </trkpt>
      <trkpt lat="45.01633" lon="5.58958">
        <ele>1569.8</ele>
        <time>2010-01-01T00:00:00Z</time>
      </trkpt>
      <trkpt lat="45.01626" lon="5.58958">
        <ele>1570.4</ele>
        <time>2010-01-01T00:00:00Z</time>
      </trkpt>
      <trkpt lat="45.01615" lon="5.58962">
        <ele>1570.9</ele>
        <time>2010-01-01T00:00:00Z</time>
      </trkpt>
      <trkpt lat="45.01602" lon="5.58968">
        <ele>1571.1</ele>
        <time>2010-01-01T00:00:00Z</time>
      </trkpt>
      <trkpt lat="45.01593" lon="5.58971">
        <ele>1571.1</ele>
        <time>2010-01-01T00:00:00Z</time>
      </trkpt>
      <trkpt lat="45.01586" lon="5.58971">
        <ele>1571.3</ele>
        <time>2010-01-01T00:00:00Z</time>
      </trkpt>
      <trkpt lat="45.01578" lon="5.58971">
        <ele>1579.4</ele>
        <time>2010-01-01T00:00:00Z</time>
      </trkpt>
      <trkpt lat="45.01564" lon="5.58969">
        <ele>1580.8</ele>
        <time>2010-01-01T00:00:00Z</time>
      </trkpt>
      <trkpt lat="45.01552" lon="5.5897">
        <ele>1581.7</ele>
        <time>2010-01-01T00:00:00Z</time>
      </trkpt>
      <trkpt lat="45.01547" lon="5.5897">
        <ele>1582.1</ele>
        <time>2010-01-01T00:00:00Z</time>
      </trkpt>
      <trkpt lat="45.0154" lon="5.58969">
        <ele>1582.7</ele>
        <time>2010-01-01T00:00:00Z</time>
      </trkpt>
      <trkpt lat="45.01535" lon="5.58969">
        <ele>1583</ele>
        <time>2010-01-01T00:00:00Z</time>
      </trkpt>
      <trkpt lat="45.01528" lon="5.58969">
        <ele>1583.3</ele>
        <time>2010-01-01T00:00:00Z</time>
      </trkpt>
      <trkpt lat="45.01521" lon="5.58969">
        <ele>1583.4</ele>
        <time>2010-01-01T00:00:00Z</time>
      </trkpt>
      <trkpt lat="45.01514" lon="5.58969">
        <ele>1583.5</ele>
        <time>2010-01-01T00:00:00Z</time>
      </trkpt>
      <trkpt lat="45.01508" lon="5.58969">
        <ele>1583.6</ele>
        <time>2010-01-01T00:00:00Z</time>
      </trkpt>
      <trkpt lat="45.01501" lon="5.58969">
        <ele>1583.7</ele>
        <time>2010-01-01T00:00:00Z</time>
      </trkpt>
      <trkpt lat="45.01494" lon="5.58969">
        <ele>1585.5</ele>
        <time>2010-01-01T00:00:00Z</time>
      </trkpt>
      <trkpt lat="45.01487" lon="5.58968">
        <ele>1585.8</ele>
        <time>2010-01-01T00:00:00Z</time>
      </trkpt>
      <trkpt lat="45.01481" lon="5.58966">
        <ele>1586.3</ele>
        <time>2010-01-01T00:00:00Z</time>
      </trkpt>
      <trkpt lat="45.01475" lon="5.58967">
        <ele>1586.1</ele>
        <time>2010-01-01T00:00:00Z</time>
      </trkpt>
      <trkpt lat="45.0147" lon="5.58968">
        <ele>1585.8</ele>
        <time>2010-01-01T00:00:00Z</time>
      </trkpt>
      <trkpt lat="45.01465" lon="5.58969">
        <ele>1585.5</ele>
        <time>2010-01-01T00:00:00Z</time>
      </trkpt>
      <trkpt lat="45.01457" lon="5.58972">
        <ele>1584.6</ele>
        <time>2010-01-01T00:00:00Z</time>
      </trkpt>
      <trkpt lat="45.01451" lon="5.58973">
        <ele>1584.1</ele>
        <time>2010-01-01T00:00:00Z</time>
      </trkpt>
      <trkpt lat="45.01444" lon="5.58973">
        <ele>1583.5</ele>
        <time>2010-01-01T00:00:00Z</time>
      </trkpt>
      <trkpt lat="45.01439" lon="5.58973">
        <ele>1583</ele>
        <time>2010-01-01T00:00:00Z</time>
      </trkpt>
      <trkpt lat="45.01435" lon="5.58972">
        <ele>1582.9</ele>
        <time>2010-01-01T00:00:00Z</time>
      </trkpt>
      <trkpt lat="45.0143" lon="5.58969">
        <ele>1583.3</ele>
        <time>2010-01-01T00:00:00Z</time>
      </trkpt>
      <trkpt lat="45.01426" lon="5.58968">
        <ele>1583.4</ele>
        <time>2010-01-01T00:00:00Z</time>
      </trkpt>
      <trkpt lat="45.01421" lon="5.58966">
        <ele>1583.8</ele>
        <time>2010-01-01T00:00:00Z</time>
      </trkpt>
      <trkpt lat="45.01416" lon="5.58963">
        <ele>1577.5</ele>
        <time>2010-01-01T00:00:00Z</time>
      </trkpt>
      <trkpt lat="45.01411" lon="5.5896">
        <ele>1578.2</ele>
        <time>2010-01-01T00:00:00Z</time>
      </trkpt>
      <trkpt lat="45.01406" lon="5.58957">
        <ele>1578.8</ele>
        <time>2010-01-01T00:00:00Z</time>
      </trkpt>
      <trkpt lat="45.01401" lon="5.58957">
        <ele>1578.4</ele>
        <time>2010-01-01T00:00:00Z</time>
      </trkpt>
      <trkpt lat="45.01395" lon="5.58953">
        <ele>1578.9</ele>
        <time>2010-01-01T00:00:00Z</time>
      </trkpt>
      <trkpt lat="45.01389" lon="5.58951">
        <ele>1578.6</ele>
        <time>2010-01-01T00:00:00Z</time>
      </trkpt>
      <trkpt lat="45.0138" lon="5.58947">
        <ele>1578.1</ele>
        <time>2010-01-01T00:00:00Z</time>
      </trkpt>
      <trkpt lat="45.01376" lon="5.58943">
        <ele>1578.2</ele>
        <time>2010-01-01T00:00:00Z</time>
      </trkpt>
      <trkpt lat="45.01376" lon="5.58937">
        <ele>1579.1</ele>
        <time>2010-01-01T00:00:00Z</time>
      </trkpt>
      <trkpt lat="45.01375" lon="5.58931">
        <ele>1579.8</ele>
        <time>2010-01-01T00:00:00Z</time>
      </trkpt>
      <trkpt lat="45.01375" lon="5.58925">
        <ele>1580.4</ele>
        <time>2010-01-01T00:00:00Z</time>
      </trkpt>
      <trkpt lat="45.01374" lon="5.58919">
        <ele>1580.7</ele>
        <time>2010-01-01T00:00:00Z</time>
      </trkpt>
      <trkpt lat="45.01373" lon="5.58914">
        <ele>1601.8</ele>
        <time>2010-01-01T00:00:00Z</time>
      </trkpt>
      <trkpt lat="45.01368" lon="5.5891">
        <ele>1600.8</ele>
        <time>2010-01-01T00:00:00Z</time>
      </trkpt>
      <trkpt lat="45.01363" lon="5.58905">
        <ele>1599.9</ele>
        <time>2010-01-01T00:00:00Z</time>
      </trkpt>
      <trkpt lat="45.01353" lon="5.58898">
        <ele>1598.2</ele>
        <time>2010-01-01T00:00:00Z</time>
      </trkpt>
      <trkpt lat="45.01351" lon="5.58892">
        <ele>1599.7</ele>
        <time>2010-01-01T00:00:00Z</time>
      </trkpt>
      <trkpt lat="45.01342" lon="5.58886">
        <ele>1600.1</ele>
        <time>2010-01-01T00:00:00Z</time>
      </trkpt>
      <trkpt lat="45.01335" lon="5.58873">
        <ele>1603.5</ele>
        <time>2010-01-01T00:00:00Z</time>
      </trkpt>
      <trkpt lat="45.01332" lon="5.58867">
        <ele>1582</ele>
        <time>2010-01-01T00:00:00Z</time>
      </trkpt>
      <trkpt lat="45.01327" lon="5.58863">
        <ele>1582.9</ele>
        <time>2010-01-01T00:00:00Z</time>
      </trkpt>
      <trkpt lat="45.0132" lon="5.58858">
        <ele>1583.4</ele>
        <time>2010-01-01T00:00:00Z</time>
      </trkpt>
      <trkpt lat="45.01314" lon="5.58854">
        <ele>1583</ele>
        <time>2010-01-01T00:00:00Z</time>
      </trkpt>
      <trkpt lat="45.01308" lon="5.5885">
        <ele>1581.8</ele>
        <time>2010-01-01T00:00:00Z</time>
      </trkpt>
      <trkpt lat="45.01304" lon="5.58845">
        <ele>1581.2</ele>
        <time>2010-01-01T00:00:00Z</time>
      </trkpt>
      <trkpt lat="45.01293" lon="5.58831">
        <ele>1597.2</ele>
        <time>2010-01-01T00:00:00Z</time>
      </trkpt>
      <trkpt lat="45.01288" lon="5.58825">
        <ele>1595.8</ele>
        <time>2010-01-01T00:00:00Z</time>
      </trkpt>
      <trkpt lat="45.01286" lon="5.5882">
        <ele>1595.7</ele>
        <time>2010-01-01T00:00:00Z</time>
      </trkpt>
      <trkpt lat="45.01281" lon="5.58797">
        <ele>1598.6</ele>
        <time>2010-01-01T00:00:00Z</time>
      </trkpt>
      <trkpt lat="45.0128" lon="5.58792">
        <ele>1599.4</ele>
        <time>2010-01-01T00:00:00Z</time>
      </trkpt>
      <trkpt lat="45.01274" lon="5.5878">
        <ele>1599.6</ele>
        <time>2010-01-01T00:00:00Z</time>
      </trkpt>
      <trkpt lat="45.0127" lon="5.58774">
        <ele>1599</ele>
        <time>2010-01-01T00:00:00Z</time>
      </trkpt>
      <trkpt lat="45.01267" lon="5.58772">
        <ele>1598.2</ele>
        <time>2010-01-01T00:00:00Z</time>
      </trkpt>
      <trkpt lat="45.01265" lon="5.58767">
        <ele>1597.6</ele>
        <time>2010-01-01T00:00:00Z</time>
      </trkpt>
      <trkpt lat="45.01264" lon="5.58761">
        <ele>1596.8</ele>
        <time>2010-01-01T00:00:00Z</time>
      </trkpt>
      <trkpt lat="45.01263" lon="5.58757">
        <ele>1596.1</ele>
        <time>2010-01-01T00:00:00Z</time>
      </trkpt>
      <trkpt lat="45.01261" lon="5.58754">
        <ele>1595</ele>
        <time>2010-01-01T00:00:00Z</time>
      </trkpt>
      <trkpt lat="45.01259" lon="5.58751">
        <ele>1593.9</ele>
        <time>2010-01-01T00:00:00Z</time>
      </trkpt>
      <trkpt lat="45.01256" lon="5.58748">
        <ele>1600.9</ele>
        <time>2010-01-01T00:00:00Z</time>
      </trkpt>
      <trkpt lat="45.01253" lon="5.58745">
        <ele>1600.1</ele>
        <time>2010-01-01T00:00:00Z</time>
      </trkpt>
      <trkpt lat="45.0125" lon="5.58741">
        <ele>1604.7</ele>
        <time>2010-01-01T00:00:00Z</time>
      </trkpt>
      <trkpt lat="45.01246" lon="5.58739">
        <ele>1591.4</ele>
        <time>2010-01-01T00:00:00Z</time>
      </trkpt>
      <trkpt lat="45.01243" lon="5.58736">
        <ele>1592</ele>
        <time>2010-01-01T00:00:00Z</time>
      </trkpt>
      <trkpt lat="45.0124" lon="5.58732">
        <ele>1592.8</ele>
        <time>2010-01-01T00:00:00Z</time>
      </trkpt>
      <trkpt lat="45.01236" lon="5.58729">
        <ele>1593.3</ele>
        <time>2010-01-01T00:00:00Z</time>
      </trkpt>
      <trkpt lat="45.01233" lon="5.58728">
        <ele>1593.3</ele>
        <time>2010-01-01T00:00:00Z</time>
      </trkpt>
      <trkpt lat="45.0123" lon="5.58726">
        <ele>1593.4</ele>
        <time>2010-01-01T00:00:00Z</time>
      </trkpt>
      <trkpt lat="45.01223" lon="5.58721">
        <ele>1593.6</ele>
        <time>2010-01-01T00:00:00Z</time>
      </trkpt>
      <trkpt lat="45.01221" lon="5.58718">
        <ele>1594</ele>
        <time>2010-01-01T00:00:00Z</time>
      </trkpt>
      <trkpt lat="45.01218" lon="5.58713">
        <ele>1594.7</ele>
        <time>2010-01-01T00:00:00Z</time>
      </trkpt>
      <trkpt lat="45.01216" lon="5.58709">
        <ele>1595.4</ele>
        <time>2010-01-01T00:00:00Z</time>
      </trkpt>
      <trkpt lat="45.01214" lon="5.58707">
        <ele>1595.4</ele>
        <time>2010-01-01T00:00:00Z</time>
      </trkpt>
      <trkpt lat="45.01206" lon="5.58703">
        <ele>1594.5</ele>
        <time>2010-01-01T00:00:00Z</time>
      </trkpt>
      <trkpt lat="45.01202" lon="5.58703">
        <ele>1593.6</ele>
        <time>2010-01-01T00:00:00Z</time>
      </trkpt>
      <trkpt lat="45.01199" lon="5.58701">
        <ele>1593.3</ele>
        <time>2010-01-01T00:00:00Z</time>
      </trkpt>
      <trkpt lat="45.01197" lon="5.58696">
        <ele>1594</ele>
        <time>2010-01-01T00:00:00Z</time>
      </trkpt>
      <trkpt lat="45.01196" lon="5.58691">
        <ele>1594.7</ele>
        <time>2010-01-01T00:00:00Z</time>
      </trkpt>
      <trkpt lat="45.01194" lon="5.58688">
        <ele>1594.8</ele>
        <time>2010-01-01T00:00:00Z</time>
      </trkpt>
      <trkpt lat="45.01192" lon="5.58688">
        <ele>1594.3</ele>
        <time>2010-01-01T00:00:00Z</time>
      </trkpt>
      <trkpt lat="45.01188" lon="5.58688">
        <ele>1593.6</ele>
        <time>2010-01-01T00:00:00Z</time>
      </trkpt>
      <trkpt lat="45.01183" lon="5.58688">
        <ele>1592.8</ele>
        <time>2010-01-01T00:00:00Z</time>
      </trkpt>
      <trkpt lat="45.01179" lon="5.58688">
        <ele>1592.2</ele>
        <time>2010-01-01T00:00:00Z</time>
      </trkpt>
      <trkpt lat="45.01176" lon="5.58687">
        <ele>1592</ele>
        <time>2010-01-01T00:00:00Z</time>
      </trkpt>
      <trkpt lat="45.01171" lon="5.58685">
        <ele>1591.8</ele>
        <time>2010-01-01T00:00:00Z</time>
      </trkpt>
      <trkpt lat="45.01167" lon="5.58684">
        <ele>1591.7</ele>
        <time>2010-01-01T00:00:00Z</time>
      </trkpt>
      <trkpt lat="45.01162" lon="5.58681">
        <ele>1577.2</ele>
        <time>2010-01-01T00:00:00Z</time>
      </trkpt>
      <trkpt lat="45.01158" lon="5.58676">
        <ele>1578.8</ele>
        <time>2010-01-01T00:00:00Z</time>
      </trkpt>
      <trkpt lat="45.01155" lon="5.58671">
        <ele>1579.1</ele>
        <time>2010-01-01T00:00:00Z</time>
      </trkpt>
      <trkpt lat="45.0115" lon="5.58664">
        <ele>1591.4</ele>
        <time>2010-01-01T00:00:00Z</time>
      </trkpt>
      <trkpt lat="45.01146" lon="5.58658">
        <ele>1591.3</ele>
        <time>2010-01-01T00:00:00Z</time>
      </trkpt>
      <trkpt lat="45.0114" lon="5.58653">
        <ele>1590.9</ele>
        <time>2010-01-01T00:00:00Z</time>
      </trkpt>
      <trkpt lat="45.01137" lon="5.5865">
        <ele>1590.6</ele>
        <time>2010-01-01T00:00:00Z</time>
      </trkpt>
      <trkpt lat="45.01133" lon="5.58645">
        <ele>1590.5</ele>
        <time>2010-01-01T00:00:00Z</time>
      </trkpt>
      <trkpt lat="45.01125" lon="5.5864">
        <ele>1589.5</ele>
        <time>2010-01-01T00:00:00Z</time>
      </trkpt>
      <trkpt lat="45.01117" lon="5.58634">
        <ele>1588.7</ele>
        <time>2010-01-01T00:00:00Z</time>
      </trkpt>
      <trkpt lat="45.01112" lon="5.58631">
        <ele>1588.1</ele>
        <time>2010-01-01T00:00:00Z</time>
      </trkpt>
      <trkpt lat="45.01107" lon="5.58626">
        <ele>1588.2</ele>
        <time>2010-01-01T00:00:00Z</time>
      </trkpt>
      <trkpt lat="45.01102" lon="5.58622">
        <ele>1588.2</ele>
        <time>2010-01-01T00:00:00Z</time>
      </trkpt>
      <trkpt lat="45.01098" lon="5.58619">
        <ele>1588.2</ele>
        <time>2010-01-01T00:00:00Z</time>
      </trkpt>
      <trkpt lat="45.01098" lon="5.58619">
        <ele>1588.2</ele>
        <time>2010-01-01T00:00:00Z</time>
      </trkpt>
      <trkpt lat="45.01095" lon="5.58618">
        <ele>1588</ele>
        <time>2010-01-01T00:00:00Z</time>
      </trkpt>
      <trkpt lat="45.01091" lon="5.58616">
        <ele>1587.9</ele>
        <time>2010-01-01T00:00:00Z</time>
      </trkpt>
      <trkpt lat="45.01084" lon="5.58612">
        <ele>1587.9</ele>
        <time>2010-01-01T00:00:00Z</time>
      </trkpt>
      <trkpt lat="45.01078" lon="5.58609">
        <ele>1569.9</ele>
        <time>2010-01-01T00:00:00Z</time>
      </trkpt>
      <trkpt lat="45.01073" lon="5.58605">
        <ele>1570.7</ele>
        <time>2010-01-01T00:00:00Z</time>
      </trkpt>
      <trkpt lat="45.01068" lon="5.58603">
        <ele>1570.3</ele>
        <time>2010-01-01T00:00:00Z</time>
      </trkpt>
      <trkpt lat="45.01063" lon="5.58602">
        <ele>1569.3</ele>
        <time>2010-01-01T00:00:00Z</time>
      </trkpt>
      <trkpt lat="45.01059" lon="5.58599">
        <ele>1568.9</ele>
        <time>2010-01-01T00:00:00Z</time>
      </trkpt>
      <trkpt lat="45.01053" lon="5.58596">
        <ele>1567.8</ele>
        <time>2010-01-01T00:00:00Z</time>
      </trkpt>
      <trkpt lat="45.01047" lon="5.58592">
        <ele>1566.7</ele>
        <time>2010-01-01T00:00:00Z</time>
      </trkpt>
      <trkpt lat="45.01043" lon="5.58589">
        <ele>1566.1</ele>
        <time>2010-01-01T00:00:00Z</time>
      </trkpt>
      <trkpt lat="45.01037" lon="5.58586">
        <ele>1565.2</ele>
        <time>2010-01-01T00:00:00Z</time>
      </trkpt>
      <trkpt lat="45.01028" lon="5.58583">
        <ele>1590.1</ele>
        <time>2010-01-01T00:00:00Z</time>
      </trkpt>
      <trkpt lat="45.01021" lon="5.58579">
        <ele>1587</ele>
        <time>2010-01-01T00:00:00Z</time>
      </trkpt>
      <trkpt lat="45.01014" lon="5.58578">
        <ele>1582.4</ele>
        <time>2010-01-01T00:00:00Z</time>
      </trkpt>
      <trkpt lat="45.0101" lon="5.58577">
        <ele>1579.6</ele>
        <time>2010-01-01T00:00:00Z</time>
      </trkpt>
      <trkpt lat="45.01006" lon="5.58575">
        <ele>1578.1</ele>
        <time>2010-01-01T00:00:00Z</time>
      </trkpt>
      <trkpt lat="45.01001" lon="5.58573">
        <ele>1578.1</ele>
        <time>2010-01-01T00:00:00Z</time>
      </trkpt>
      <trkpt lat="45.00993" lon="5.58569">
        <ele>1568.3</ele>
        <time>2010-01-01T00:00:00Z</time>
      </trkpt>
      <trkpt lat="45.00986" lon="5.58566">
        <ele>1569</ele>
        <time>2010-01-01T00:00:00Z</time>
      </trkpt>
      <trkpt lat="45.00981" lon="5.58564">
        <ele>1569.2</ele>
        <time>2010-01-01T00:00:00Z</time>
      </trkpt>
      <trkpt lat="45.00975" lon="5.58564">
        <ele>1568.7</ele>
        <time>2010-01-01T00:00:00Z</time>
      </trkpt>
      <trkpt lat="45.00969" lon="5.58563">
        <ele>1568</ele>
        <time>2010-01-01T00:00:00Z</time>
      </trkpt>
      <trkpt lat="45.0096" lon="5.58562">
        <ele>1566.5</ele>
        <time>2010-01-01T00:00:00Z</time>
      </trkpt>
      <trkpt lat="45.00956" lon="5.58561">
        <ele>1565.8</ele>
        <time>2010-01-01T00:00:00Z</time>
      </trkpt>
      <trkpt lat="45.0095" lon="5.58561">
        <ele>1564.3</ele>
        <time>2010-01-01T00:00:00Z</time>
      </trkpt>
      <trkpt lat="45.00944" lon="5.5856">
        <ele>1562.8</ele>
        <time>2010-01-01T00:00:00Z</time>
      </trkpt>
      <trkpt lat="45.00934" lon="5.58558">
        <ele>1560.7</ele>
        <time>2010-01-01T00:00:00Z</time>
      </trkpt>
      <trkpt lat="45.0093" lon="5.58557">
        <ele>1560</ele>
        <time>2010-01-01T00:00:00Z</time>
      </trkpt>
      <trkpt lat="45.00926" lon="5.58555">
        <ele>1559.9</ele>
        <time>2010-01-01T00:00:00Z</time>
      </trkpt>
      <trkpt lat="45.00921" lon="5.58553">
        <ele>1559.9</ele>
        <time>2010-01-01T00:00:00Z</time>
      </trkpt>
      <trkpt lat="45.00913" lon="5.58549">
        <ele>1555</ele>
        <time>2010-01-01T00:00:00Z</time>
      </trkpt>
      <trkpt lat="45.00908" lon="5.58546">
        <ele>1556.1</ele>
        <time>2010-01-01T00:00:00Z</time>
      </trkpt>
      <trkpt lat="45.00903" lon="5.58543">
        <ele>1557.1</ele>
        <time>2010-01-01T00:00:00Z</time>
      </trkpt>
      <trkpt lat="45.00897" lon="5.58541">
        <ele>1558</ele>
        <time>2010-01-01T00:00:00Z</time>
      </trkpt>
      <trkpt lat="45.00892" lon="5.58538">
        <ele>1559.1</ele>
        <time>2010-01-01T00:00:00Z</time>
      </trkpt>
      <trkpt lat="45.00888" lon="5.58535">
        <ele>1560</ele>
        <time>2010-01-01T00:00:00Z</time>
      </trkpt>
      <trkpt lat="45.00884" lon="5.58532">
        <ele>1560.9</ele>
        <time>2010-01-01T00:00:00Z</time>
      </trkpt>
      <trkpt lat="45.0088" lon="5.58529">
        <ele>1561.8</ele>
        <time>2010-01-01T00:00:00Z</time>
      </trkpt>
      <trkpt lat="45.00873" lon="5.58524">
        <ele>1563.7</ele>
        <time>2010-01-01T00:00:00Z</time>
      </trkpt>
      <trkpt lat="45.0087" lon="5.58521">
        <ele>1564.7</ele>
        <time>2010-01-01T00:00:00Z</time>
      </trkpt>
      <trkpt lat="45.00866" lon="5.58521">
        <ele>1565.6</ele>
        <time>2010-01-01T00:00:00Z</time>
      </trkpt>
      <trkpt lat="45.00863" lon="5.5852">
        <ele>1566.4</ele>
        <time>2010-01-01T00:00:00Z</time>
      </trkpt>
      <trkpt lat="45.00858" lon="5.58521">
        <ele>1567.4</ele>
        <time>2010-01-01T00:00:00Z</time>
      </trkpt>
      <trkpt lat="45.00853" lon="5.58522">
        <ele>1568.4</ele>
        <time>2010-01-01T00:00:00Z</time>
      </trkpt>
      <trkpt lat="45.00849" lon="5.58524">
        <ele>1568.7</ele>
        <time>2010-01-01T00:00:00Z</time>
      </trkpt>
      <trkpt lat="45.00843" lon="5.58524">
        <ele>1569.8</ele>
        <time>2010-01-01T00:00:00Z</time>
      </trkpt>
      <trkpt lat="45.00839" lon="5.58526">
        <ele>1569.6</ele>
        <time>2010-01-01T00:00:00Z</time>
      </trkpt>
      <trkpt lat="45.00834" lon="5.58528">
        <ele>1569.2</ele>
        <time>2010-01-01T00:00:00Z</time>
      </trkpt>
      <trkpt lat="45.00831" lon="5.58527">
        <ele>1577.5</ele>
        <time>2010-01-01T00:00:00Z</time>
      </trkpt>
      <trkpt lat="45.00825" lon="5.58527">
        <ele>1577.4</ele>
        <time>2010-01-01T00:00:00Z</time>
      </trkpt>
      <trkpt lat="45.00819" lon="5.58528">
        <ele>1577</ele>
        <time>2010-01-01T00:00:00Z</time>
      </trkpt>
      <trkpt lat="45.00815" lon="5.58529">
        <ele>1576.6</ele>
        <time>2010-01-01T00:00:00Z</time>
      </trkpt>
      <trkpt lat="45.00811" lon="5.5853">
        <ele>1576.3</ele>
        <time>2010-01-01T00:00:00Z</time>
      </trkpt>
      <trkpt lat="45.00808" lon="5.5853">
        <ele>1576.3</ele>
        <time>2010-01-01T00:00:00Z</time>
      </trkpt>
      <trkpt lat="45.00805" lon="5.5853">
        <ele>1576.3</ele>
        <time>2010-01-01T00:00:00Z</time>
      </trkpt>
      <trkpt lat="45.00802" lon="5.5853">
        <ele>1576.3</ele>
        <time>2010-01-01T00:00:00Z</time>
      </trkpt>
      <trkpt lat="45.00799" lon="5.58529">
        <ele>1576.6</ele>
        <time>2010-01-01T00:00:00Z</time>
      </trkpt>
      <trkpt lat="45.00795" lon="5.58527">
        <ele>1577.1</ele>
        <time>2010-01-01T00:00:00Z</time>
      </trkpt>
      <trkpt lat="45.00792" lon="5.58525">
        <ele>1577.5</ele>
        <time>2010-01-01T00:00:00Z</time>
      </trkpt>
      <trkpt lat="45.00788" lon="5.58522">
        <ele>1578.3</ele>
        <time>2010-01-01T00:00:00Z</time>
      </trkpt>
      <trkpt lat="45.00784" lon="5.58522">
        <ele>1578.6</ele>
        <time>2010-01-01T00:00:00Z</time>
      </trkpt>
      <trkpt lat="45.0078" lon="5.58522">
        <ele>1579</ele>
        <time>2010-01-01T00:00:00Z</time>
      </trkpt>
      <trkpt lat="45.00776" lon="5.58522">
        <ele>1579.5</ele>
        <time>2010-01-01T00:00:00Z</time>
      </trkpt>
      <trkpt lat="45.00776" lon="5.58522">
        <ele>1579.5</ele>
        <time>2010-01-01T00:00:00Z</time>
      </trkpt>
      <trkpt lat="45.00774" lon="5.58522">
        <ele>1579.7</ele>
        <time>2010-01-01T00:00:00Z</time>
      </trkpt>
      <trkpt lat="45.0077" lon="5.58523">
        <ele>1580</ele>
        <time>2010-01-01T00:00:00Z</time>
      </trkpt>
      <trkpt lat="45.00767" lon="5.58524">
        <ele>1580.1</ele>
        <time>2010-01-01T00:00:00Z</time>
      </trkpt>
      <trkpt lat="45.00763" lon="5.58525">
        <ele>1580.3</ele>
        <time>2010-01-01T00:00:00Z</time>
      </trkpt>
      <trkpt lat="45.0076" lon="5.58526">
        <ele>1580.2</ele>
        <time>2010-01-01T00:00:00Z</time>
      </trkpt>
      <trkpt lat="45.00758" lon="5.58527">
        <ele>1580.1</ele>
        <time>2010-01-01T00:00:00Z</time>
      </trkpt>
      <trkpt lat="45.00757" lon="5.5853">
        <ele>1579.1</ele>
        <time>2010-01-01T00:00:00Z</time>
      </trkpt>
      <trkpt lat="45.00757" lon="5.58535">
        <ele>1577.5</ele>
        <time>2010-01-01T00:00:00Z</time>
      </trkpt>
      <trkpt lat="45.00756" lon="5.58542">
        <ele>1575.3</ele>
        <time>2010-01-01T00:00:00Z</time>
      </trkpt>
      <trkpt lat="45.00756" lon="5.58546">
        <ele>1574.1</ele>
        <time>2010-01-01T00:00:00Z</time>
      </trkpt>
      <trkpt lat="45.00754" lon="5.5855">
        <ele>1572.9</ele>
        <time>2010-01-01T00:00:00Z</time>
      </trkpt>
      <trkpt lat="45.00751" lon="5.58553">
        <ele>1572</ele>
        <time>2010-01-01T00:00:00Z</time>
      </trkpt>
      <trkpt lat="45.00745" lon="5.58555">
        <ele>1580.1</ele>
        <time>2010-01-01T00:00:00Z</time>
      </trkpt>
      <trkpt lat="45.00742" lon="5.58557">
        <ele>1579.6</ele>
        <time>2010-01-01T00:00:00Z</time>
      </trkpt>
      <trkpt lat="45.00737" lon="5.58558">
        <ele>1580</ele>
        <time>2010-01-01T00:00:00Z</time>
      </trkpt>
      <trkpt lat="45.00731" lon="5.58559">
        <ele>1580.9</ele>
        <time>2010-01-01T00:00:00Z</time>
      </trkpt>
      <trkpt lat="45.00725" lon="5.58558">
        <ele>1582.5</ele>
        <time>2010-01-01T00:00:00Z</time>
      </trkpt>
      <trkpt lat="45.00719" lon="5.58558">
        <ele>1583.7</ele>
        <time>2010-01-01T00:00:00Z</time>
      </trkpt>
      <trkpt lat="45.00714" lon="5.58556">
        <ele>1585</ele>
        <time>2010-01-01T00:00:00Z</time>
      </trkpt>
      <trkpt lat="45.00708" lon="5.58551">
        <ele>1587</ele>
        <time>2010-01-01T00:00:00Z</time>
      </trkpt>
      <trkpt lat="45.00705" lon="5.58546">
        <ele>1588.5</ele>
        <time>2010-01-01T00:00:00Z</time>
      </trkpt>
      <trkpt lat="45.00702" lon="5.58536">
        <ele>1591.2</ele>
        <time>2010-01-01T00:00:00Z</time>
      </trkpt>
      <trkpt lat="45.007" lon="5.58533">
        <ele>1592.2</ele>
        <time>2010-01-01T00:00:00Z</time>
      </trkpt>
      <trkpt lat="45.00697" lon="5.58533">
        <ele>1592.7</ele>
        <time>2010-01-01T00:00:00Z</time>
      </trkpt>
      <trkpt lat="45.00694" lon="5.5853">
        <ele>1594</ele>
        <time>2010-01-01T00:00:00Z</time>
      </trkpt>
      <trkpt lat="45.0069" lon="5.58528">
        <ele>1595.3</ele>
        <time>2010-01-01T00:00:00Z</time>
      </trkpt>
      <trkpt lat="45.00687" lon="5.58524">
        <ele>1597.3</ele>
        <time>2010-01-01T00:00:00Z</time>
      </trkpt>
      <trkpt lat="45.00684" lon="5.58523">
        <ele>1598.3</ele>
        <time>2010-01-01T00:00:00Z</time>
      </trkpt>
      <trkpt lat="45.00682" lon="5.58525">
        <ele>1598</ele>
        <time>2010-01-01T00:00:00Z</time>
      </trkpt>
      <trkpt lat="45.00681" lon="5.58532">
        <ele>1595.6</ele>
        <time>2010-01-01T00:00:00Z</time>
      </trkpt>
      <trkpt lat="45.00679" lon="5.58544">
        <ele>1591.8</ele>
        <time>2010-01-01T00:00:00Z</time>
      </trkpt>
      <trkpt lat="45.00678" lon="5.58553">
        <ele>1589.3</ele>
        <time>2010-01-01T00:00:00Z</time>
      </trkpt>
      <trkpt lat="45.00677" lon="5.58562">
        <ele>1587</ele>
        <time>2010-01-01T00:00:00Z</time>
      </trkpt>
      <trkpt lat="45.00675" lon="5.58568">
        <ele>1585.6</ele>
        <time>2010-01-01T00:00:00Z</time>
      </trkpt>
      <trkpt lat="45.00671" lon="5.58575">
        <ele>1583.7</ele>
        <time>2010-01-01T00:00:00Z</time>
      </trkpt>
      <trkpt lat="45.00667" lon="5.58583">
        <ele>1581.2</ele>
        <time>2010-01-01T00:00:00Z</time>
      </trkpt>
      <trkpt lat="45.00664" lon="5.58585">
        <ele>1581.1</ele>
        <time>2010-01-01T00:00:00Z</time>
      </trkpt>
      <trkpt lat="45.00658" lon="5.58589">
        <ele>1581.5</ele>
        <time>2010-01-01T00:00:00Z</time>
      </trkpt>
      <trkpt lat="45.00649" lon="5.58595">
        <ele>1582</ele>
        <time>2010-01-01T00:00:00Z</time>
      </trkpt>
      <trkpt lat="45.00638" lon="5.58602">
        <ele>1583</ele>
        <time>2010-01-01T00:00:00Z</time>
      </trkpt>
      <trkpt lat="45.00632" lon="5.58608">
        <ele>1583.3</ele>
        <time>2010-01-01T00:00:00Z</time>
      </trkpt>
      <trkpt lat="45.00624" lon="5.58616">
        <ele>1583.6</ele>
        <time>2010-01-01T00:00:00Z</time>
      </trkpt>
      <trkpt lat="45.00616" lon="5.58623">
        <ele>1583.7</ele>
        <time>2010-01-01T00:00:00Z</time>
      </trkpt>
      <trkpt lat="45.00608" lon="5.58628">
        <ele>1584</ele>
        <time>2010-01-01T00:00:00Z</time>
      </trkpt>
      <trkpt lat="45.00603" lon="5.58632">
        <ele>1583.8</ele>
        <time>2010-01-01T00:00:00Z</time>
      </trkpt>
      <trkpt lat="45.00599" lon="5.58637">
        <ele>1583.2</ele>
        <time>2010-01-01T00:00:00Z</time>
      </trkpt>
      <trkpt lat="45.00595" lon="5.58644">
        <ele>1582.3</ele>
        <time>2010-01-01T00:00:00Z</time>
      </trkpt>
      <trkpt lat="45.00591" lon="5.58649">
        <ele>1581.8</ele>
        <time>2010-01-01T00:00:00Z</time>
      </trkpt>
      <trkpt lat="45.00587" lon="5.58654">
        <ele>1581.3</ele>
        <time>2010-01-01T00:00:00Z</time>
      </trkpt>
      <trkpt lat="45.00581" lon="5.58659">
        <ele>1587.5</ele>
        <time>2010-01-01T00:00:00Z</time>
      </trkpt>
      <trkpt lat="45.00578" lon="5.58662">
        <ele>1586.7</ele>
        <time>2010-01-01T00:00:00Z</time>
      </trkpt>
      <trkpt lat="45.00573" lon="5.58664">
        <ele>1589.3</ele>
        <time>2010-01-01T00:00:00Z</time>
      </trkpt>
      <trkpt lat="45.00567" lon="5.58665">
        <ele>1592.6</ele>
        <time>2010-01-01T00:00:00Z</time>
      </trkpt>
      <trkpt lat="45.0056" lon="5.58668">
        <ele>1579</ele>
        <time>2010-01-01T00:00:00Z</time>
      </trkpt>
      <trkpt lat="45.00552" lon="5.58672">
        <ele>1579.4</ele>
        <time>2010-01-01T00:00:00Z</time>
      </trkpt>
      <trkpt lat="45.00533" lon="5.58678">
        <ele>1581.9</ele>
        <time>2010-01-01T00:00:00Z</time>
      </trkpt>
      <trkpt lat="45.00516" lon="5.58682">
        <ele>1585.6</ele>
        <time>2010-01-01T00:00:00Z</time>
      </trkpt>
      <trkpt lat="45.00504" lon="5.58687">
        <ele>1586.2</ele>
        <time>2010-01-01T00:00:00Z</time>
      </trkpt>
      <trkpt lat="45.00501" lon="5.58688">
        <ele>1586.1</ele>
        <time>2010-01-01T00:00:00Z</time>
      </trkpt>
      <trkpt lat="45.00497" lon="5.5869">
        <ele>1590.4</ele>
        <time>2010-01-01T00:00:00Z</time>
      </trkpt>
      <trkpt lat="45.00493" lon="5.58693">
        <ele>1589.5</ele>
        <time>2010-01-01T00:00:00Z</time>
      </trkpt>
      <trkpt lat="45.00489" lon="5.58697">
        <ele>1588.4</ele>
        <time>2010-01-01T00:00:00Z</time>
      </trkpt>
      <trkpt lat="45.00486" lon="5.58699">
        <ele>1587.9</ele>
        <time>2010-01-01T00:00:00Z</time>
      </trkpt>
      <trkpt lat="45.00482" lon="5.58698">
        <ele>1587.9</ele>
        <time>2010-01-01T00:00:00Z</time>
      </trkpt>
      <trkpt lat="45.00479" lon="5.58696">
        <ele>1588.1</ele>
        <time>2010-01-01T00:00:00Z</time>
      </trkpt>
      <trkpt lat="45.00475" lon="5.58698">
        <ele>1587.6</ele>
        <time>2010-01-01T00:00:00Z</time>
      </trkpt>
      <trkpt lat="45.00472" lon="5.58701">
        <ele>1587</ele>
        <time>2010-01-01T00:00:00Z</time>
      </trkpt>
      <trkpt lat="45.00467" lon="5.58705">
        <ele>1586.3</ele>
        <time>2010-01-01T00:00:00Z</time>
      </trkpt>
      <trkpt lat="45.00463" lon="5.58708">
        <ele>1585.8</ele>
        <time>2010-01-01T00:00:00Z</time>
      </trkpt>
      <trkpt lat="45.00457" lon="5.58713">
        <ele>1585.1</ele>
        <time>2010-01-01T00:00:00Z</time>
      </trkpt>
      <trkpt lat="45.0045" lon="5.58716">
        <ele>1584.6</ele>
        <time>2010-01-01T00:00:00Z</time>
      </trkpt>
      <trkpt lat="45.00446" lon="5.58717">
        <ele>1584.4</ele>
        <time>2010-01-01T00:00:00Z</time>
      </trkpt>
      <trkpt lat="45.00441" lon="5.58719">
        <ele>1583.9</ele>
        <time>2010-01-01T00:00:00Z</time>
      </trkpt>
      <trkpt lat="45.00437" lon="5.58721">
        <ele>1583.5</ele>
        <time>2010-01-01T00:00:00Z</time>
      </trkpt>
      <trkpt lat="45.00433" lon="5.58724">
        <ele>1582.7</ele>
        <time>2010-01-01T00:00:00Z</time>
      </trkpt>
      <trkpt lat="45.00429" lon="5.58726">
        <ele>1582.1</ele>
        <time>2010-01-01T00:00:00Z</time>
      </trkpt>
      <trkpt lat="45.00422" lon="5.58727">
        <ele>1581.6</ele>
        <time>2010-01-01T00:00:00Z</time>
      </trkpt>
      <trkpt lat="45.00414" lon="5.58728">
        <ele>1573.2</ele>
        <time>2010-01-01T00:00:00Z</time>
      </trkpt>
      <trkpt lat="45.00405" lon="5.58729">
        <ele>1572.5</ele>
        <time>2010-01-01T00:00:00Z</time>
      </trkpt>
      <trkpt lat="45.004" lon="5.58729">
        <ele>1572</ele>
        <time>2010-01-01T00:00:00Z</time>
      </trkpt>
      <trkpt lat="45.00395" lon="5.58728">
        <ele>1571.5</ele>
        <time>2010-01-01T00:00:00Z</time>
      </trkpt>
      <trkpt lat="45.00393" lon="5.58726">
        <ele>1571.4</ele>
        <time>2010-01-01T00:00:00Z</time>
      </trkpt>
      <trkpt lat="45.00393" lon="5.58726">
        <ele>1571.4</ele>
        <time>2010-01-01T00:00:00Z</time>
      </trkpt>
      <trkpt lat="45.00389" lon="5.58723">
        <ele>1571</ele>
        <time>2010-01-01T00:00:00Z</time>
      </trkpt>
      <trkpt lat="45.00385" lon="5.5872">
        <ele>1570.6</ele>
        <time>2010-01-01T00:00:00Z</time>
      </trkpt>
      <trkpt lat="45.00383" lon="5.58717">
        <ele>1570.6</ele>
        <time>2010-01-01T00:00:00Z</time>
      </trkpt>
      <trkpt lat="45.00381" lon="5.58711">
        <ele>1570.8</ele>
        <time>2010-01-01T00:00:00Z</time>
      </trkpt>
      <trkpt lat="45.00379" lon="5.587">
        <ele>1571.5</ele>
        <time>2010-01-01T00:00:00Z</time>
      </trkpt>
      <trkpt lat="45.00378" lon="5.58692">
        <ele>1572.1</ele>
        <time>2010-01-01T00:00:00Z</time>
      </trkpt>
      <trkpt lat="45.00376" lon="5.58687">
        <ele>1572.1</ele>
        <time>2010-01-01T00:00:00Z</time>
      </trkpt>
      <trkpt lat="45.00376" lon="5.58682">
        <ele>1572.4</ele>
        <time>2010-01-01T00:00:00Z</time>
      </trkpt>
      <trkpt lat="45.00375" lon="5.58671">
        <ele>1572.7</ele>
        <time>2010-01-01T00:00:00Z</time>
      </trkpt>
      <trkpt lat="45.00372" lon="5.58659">
        <ele>1583.6</ele>
        <time>2010-01-01T00:00:00Z</time>
      </trkpt>
      <trkpt lat="45.0037" lon="5.58644">
        <ele>1584.5</ele>
        <time>2010-01-01T00:00:00Z</time>
      </trkpt>
      <trkpt lat="45.00368" lon="5.5863">
        <ele>1585.9</ele>
        <time>2010-01-01T00:00:00Z</time>
      </trkpt>
      <trkpt lat="45.00365" lon="5.5862">
        <ele>1586.5</ele>
        <time>2010-01-01T00:00:00Z</time>
      </trkpt>
      <trkpt lat="45.00364" lon="5.58612">
        <ele>1587</ele>
        <time>2010-01-01T00:00:00Z</time>
      </trkpt>
      <trkpt lat="45.00362" lon="5.58606">
        <ele>1586.9</ele>
        <time>2010-01-01T00:00:00Z</time>
      </trkpt>
      <trkpt lat="45.00361" lon="5.58598">
        <ele>1586.9</ele>
        <time>2010-01-01T00:00:00Z</time>
      </trkpt>
      <trkpt lat="45.00358" lon="5.58594">
        <ele>1586.1</ele>
        <time>2010-01-01T00:00:00Z</time>
      </trkpt>
      <trkpt lat="45.00357" lon="5.5859">
        <ele>1585.8</ele>
        <time>2010-01-01T00:00:00Z</time>
      </trkpt>
      <trkpt lat="45.00355" lon="5.58583">
        <ele>1596.1</ele>
        <time>2010-01-01T00:00:00Z</time>
      </trkpt>
      <trkpt lat="45.00353" lon="5.58577">
        <ele>1595.6</ele>
        <time>2010-01-01T00:00:00Z</time>
      </trkpt>
      <trkpt lat="45.00351" lon="5.58572">
        <ele>1595.8</ele>
        <time>2010-01-01T00:00:00Z</time>
      </trkpt>
      <trkpt lat="45.00349" lon="5.58566">
        <ele>1597</ele>
        <time>2010-01-01T00:00:00Z</time>
      </trkpt>
      <trkpt lat="45.00348" lon="5.58558">
        <ele>1599.5</ele>
        <time>2010-01-01T00:00:00Z</time>
      </trkpt>
      <trkpt lat="45.00348" lon="5.58551">
        <ele>1601.6</ele>
        <time>2010-01-01T00:00:00Z</time>
      </trkpt>
      <trkpt lat="45.00349" lon="5.58544">
        <ele>1603.5</ele>
        <time>2010-01-01T00:00:00Z</time>
      </trkpt>
      <trkpt lat="45.00349" lon="5.58538">
        <ele>1604.7</ele>
        <time>2010-01-01T00:00:00Z</time>
      </trkpt>
      <trkpt lat="45.00347" lon="5.58532">
        <ele>1605.2</ele>
        <time>2010-01-01T00:00:00Z</time>
      </trkpt>
      <trkpt lat="45.00345" lon="5.58526">
        <ele>1605.6</ele>
        <time>2010-01-01T00:00:00Z</time>
      </trkpt>
      <trkpt lat="45.00344" lon="5.58522">
        <ele>1605.7</ele>
        <time>2010-01-01T00:00:00Z</time>
      </trkpt>
      <trkpt lat="45.00344" lon="5.58516">
        <ele>1605.9</ele>
        <time>2010-01-01T00:00:00Z</time>
      </trkpt>
      <trkpt lat="45.00345" lon="5.5851">
        <ele>1605.9</ele>
        <time>2010-01-01T00:00:00Z</time>
      </trkpt>
      <trkpt lat="45.00344" lon="5.58506">
        <ele>1605.6</ele>
        <time>2010-01-01T00:00:00Z</time>
      </trkpt>
      <trkpt lat="45.00342" lon="5.58505">
        <ele>1605.2</ele>
        <time>2010-01-01T00:00:00Z</time>
      </trkpt>
      <trkpt lat="45.00339" lon="5.58504">
        <ele>1604.5</ele>
        <time>2010-01-01T00:00:00Z</time>
      </trkpt>
      <trkpt lat="45.00336" lon="5.58504">
        <ele>1604</ele>
        <time>2010-01-01T00:00:00Z</time>
      </trkpt>
      <trkpt lat="45.0033" lon="5.58505">
        <ele>1596.4</ele>
        <time>2010-01-01T00:00:00Z</time>
      </trkpt>
      <trkpt lat="45.00325" lon="5.58507">
        <ele>1592.1</ele>
        <time>2010-01-01T00:00:00Z</time>
      </trkpt>
      <trkpt lat="45.00321" lon="5.58507">
        <ele>1589.6</ele>
        <time>2010-01-01T00:00:00Z</time>
      </trkpt>
      <trkpt lat="45.00317" lon="5.58506">
        <ele>1587.5</ele>
        <time>2010-01-01T00:00:00Z</time>
      </trkpt>
      <trkpt lat="45.00314" lon="5.58505">
        <ele>1586.1</ele>
        <time>2010-01-01T00:00:00Z</time>
      </trkpt>
      <trkpt lat="45.00309" lon="5.58501">
        <ele>1584</ele>
        <time>2010-01-01T00:00:00Z</time>
      </trkpt>
      <trkpt lat="45.00297" lon="5.58489">
        <ele>1599.9</ele>
        <time>2010-01-01T00:00:00Z</time>
      </trkpt>
      <trkpt lat="45.00287" lon="5.58477">
        <ele>1599.4</ele>
        <time>2010-01-01T00:00:00Z</time>
      </trkpt>
      <trkpt lat="45.00282" lon="5.58473">
        <ele>1599</ele>
        <time>2010-01-01T00:00:00Z</time>
      </trkpt>
      <trkpt lat="45.00278" lon="5.5847">
        <ele>1598.8</ele>
        <time>2010-01-01T00:00:00Z</time>
      </trkpt>
      <trkpt lat="45.00274" lon="5.58464">
        <ele>1599.6</ele>
        <time>2010-01-01T00:00:00Z</time>
      </trkpt>
      <trkpt lat="45.0027" lon="5.58462">
        <ele>1599.5</ele>
        <time>2010-01-01T00:00:00Z</time>
      </trkpt>
      <trkpt lat="45.00266" lon="5.5846">
        <ele>1599.5</ele>
        <time>2010-01-01T00:00:00Z</time>
      </trkpt>
      <trkpt lat="45.00264" lon="5.58456">
        <ele>1600.4</ele>
        <time>2010-01-01T00:00:00Z</time>
      </trkpt>
      <trkpt lat="45.00263" lon="5.58451">
        <ele>1601.7</ele>
        <time>2010-01-01T00:00:00Z</time>
      </trkpt>
      <trkpt lat="45.00263" lon="5.58445">
        <ele>1603.2</ele>
        <time>2010-01-01T00:00:00Z</time>
      </trkpt>
      <trkpt lat="45.00263" lon="5.58442">
        <ele>1603.8</ele>
        <time>2010-01-01T00:00:00Z</time>
      </trkpt>
      <trkpt lat="45.00257" lon="5.5844">
        <ele>1603.9</ele>
        <time>2010-01-01T00:00:00Z</time>
      </trkpt>
      <trkpt lat="45.00255" lon="5.5844">
        <ele>1603.8</ele>
        <time>2010-01-01T00:00:00Z</time>
      </trkpt>
      <trkpt lat="45.00249" lon="5.58438">
        <ele>1590.5</ele>
        <time>2010-01-01T00:00:00Z</time>
      </trkpt>
      <trkpt lat="45.00244" lon="5.58437">
        <ele>1590.4</ele>
        <time>2010-01-01T00:00:00Z</time>
      </trkpt>
      <trkpt lat="45.00239" lon="5.58436">
        <ele>1589.8</ele>
        <time>2010-01-01T00:00:00Z</time>
      </trkpt>
      <trkpt lat="45.00234" lon="5.58435">
        <ele>1588.7</ele>
        <time>2010-01-01T00:00:00Z</time>
      </trkpt>
      <trkpt lat="45.0023" lon="5.58433">
        <ele>1588.1</ele>
        <time>2010-01-01T00:00:00Z</time>
      </trkpt>
      <trkpt lat="45.00224" lon="5.5843">
        <ele>1586.9</ele>
        <time>2010-01-01T00:00:00Z</time>
      </trkpt>
      <trkpt lat="45.0022" lon="5.58429">
        <ele>1585.8</ele>
        <time>2010-01-01T00:00:00Z</time>
      </trkpt>
      <trkpt lat="45.00214" lon="5.58425">
        <ele>1584.5</ele>
        <time>2010-01-01T00:00:00Z</time>
      </trkpt>
      <trkpt lat="45.00209" lon="5.58423">
        <ele>1583.4</ele>
        <time>2010-01-01T00:00:00Z</time>
      </trkpt>
      <trkpt lat="45.00202" lon="5.58418">
        <ele>1582.2</ele>
        <time>2010-01-01T00:00:00Z</time>
      </trkpt>
      <trkpt lat="45.00195" lon="5.58413">
        <ele>1600.6</ele>
        <time>2010-01-01T00:00:00Z</time>
      </trkpt>
      <trkpt lat="45.00188" lon="5.58408">
        <ele>1598.4</ele>
        <time>2010-01-01T00:00:00Z</time>
      </trkpt>
      <trkpt lat="45.00182" lon="5.58405">
        <ele>1596.4</ele>
        <time>2010-01-01T00:00:00Z</time>
      </trkpt>
      <trkpt lat="45.00178" lon="5.58401">
        <ele>1596.5</ele>
        <time>2010-01-01T00:00:00Z</time>
      </trkpt>
      <trkpt lat="45.00174" lon="5.58396">
        <ele>1597.9</ele>
        <time>2010-01-01T00:00:00Z</time>
      </trkpt>
      <trkpt lat="45.00173" lon="5.58394">
        <ele>1598.7</ele>
        <time>2010-01-01T00:00:00Z</time>
      </trkpt>
      <trkpt lat="45.00173" lon="5.58394">
        <ele>1598.7</ele>
        <time>2010-01-01T00:00:00Z</time>
      </trkpt>
      <trkpt lat="45.00171" lon="5.58391">
        <ele>1599.8</ele>
        <time>2010-01-01T00:00:00Z</time>
      </trkpt>
      <trkpt lat="45.00165" lon="5.58381">
        <ele>1585.4</ele>
        <time>2010-01-01T00:00:00Z</time>
      </trkpt>
      <trkpt lat="45.0016" lon="5.58374">
        <ele>1587</ele>
        <time>2010-01-01T00:00:00Z</time>
      </trkpt>
      <trkpt lat="45.00157" lon="5.58366">
        <ele>1589.2</ele>
        <time>2010-01-01T00:00:00Z</time>
      </trkpt>
      <trkpt lat="45.00154" lon="5.58362">
        <ele>1590.2</ele>
        <time>2010-01-01T00:00:00Z</time>
      </trkpt>
      <trkpt lat="45.0015" lon="5.58357">
        <ele>1591.1</ele>
        <time>2010-01-01T00:00:00Z</time>
      </trkpt>
      <trkpt lat="45.00146" lon="5.58354">
        <ele>1591</ele>
        <time>2010-01-01T00:00:00Z</time>
      </trkpt>
      <trkpt lat="45.00141" lon="5.58348">
        <ele>1591</ele>
        <time>2010-01-01T00:00:00Z</time>
      </trkpt>
      <trkpt lat="45.00137" lon="5.58343">
        <ele>1590.6</ele>
        <time>2010-01-01T00:00:00Z</time>
      </trkpt>
      <trkpt lat="45.00132" lon="5.5834">
        <ele>1589.4</ele>
        <time>2010-01-01T00:00:00Z</time>
      </trkpt>
      <trkpt lat="45.00127" lon="5.58336">
        <ele>1588.3</ele>
        <time>2010-01-01T00:00:00Z</time>
      </trkpt>
      <trkpt lat="45.00123" lon="5.58333">
        <ele>1606.3</ele>
        <time>2010-01-01T00:00:00Z</time>
      </trkpt>
      <trkpt lat="45.00118" lon="5.58329">
        <ele>1605.1</ele>
        <time>2010-01-01T00:00:00Z</time>
      </trkpt>
      <trkpt lat="45.00112" lon="5.58325">
        <ele>1603.6</ele>
        <time>2010-01-01T00:00:00Z</time>
      </trkpt>
      <trkpt lat="45.00108" lon="5.58322">
        <ele>1602.7</ele>
        <time>2010-01-01T00:00:00Z</time>
      </trkpt>
      <trkpt lat="45.00102" lon="5.58321">
        <ele>1600.6</ele>
        <time>2010-01-01T00:00:00Z</time>
      </trkpt>
      <trkpt lat="45.00099" lon="5.58318">
        <ele>1600.4</ele>
        <time>2010-01-01T00:00:00Z</time>
      </trkpt>
      <trkpt lat="45.00092" lon="5.58312">
        <ele>1601</ele>
        <time>2010-01-01T00:00:00Z</time>
      </trkpt>
      <trkpt lat="45.00089" lon="5.58309">
        <ele>1601.8</ele>
        <time>2010-01-01T00:00:00Z</time>
      </trkpt>
      <trkpt lat="45.00085" lon="5.58306">
        <ele>1602.7</ele>
        <time>2010-01-01T00:00:00Z</time>
      </trkpt>
      <trkpt lat="45.00081" lon="5.58305">
        <ele>1590.9</ele>
        <time>2010-01-01T00:00:00Z</time>
      </trkpt>
      <trkpt lat="45.00077" lon="5.58304">
        <ele>1591.1</ele>
        <time>2010-01-01T00:00:00Z</time>
      </trkpt>
      <trkpt lat="45.00073" lon="5.58303">
        <ele>1591.2</ele>
        <time>2010-01-01T00:00:00Z</time>
      </trkpt>
      <trkpt lat="45.00067" lon="5.583">
        <ele>1591.7</ele>
        <time>2010-01-01T00:00:00Z</time>
      </trkpt>
      <trkpt lat="45.00062" lon="5.58297">
        <ele>1592.2</ele>
        <time>2010-01-01T00:00:00Z</time>
      </trkpt>
      <trkpt lat="45.00058" lon="5.58296">
        <ele>1592.1</ele>
        <time>2010-01-01T00:00:00Z</time>
      </trkpt>
      <trkpt lat="45.00051" lon="5.58293">
        <ele>1592.2</ele>
        <time>2010-01-01T00:00:00Z</time>
      </trkpt>
      <trkpt lat="45.00045" lon="5.5829">
        <ele>1592.2</ele>
        <time>2010-01-01T00:00:00Z</time>
      </trkpt>
      <trkpt lat="45.00036" lon="5.58284">
        <ele>1592.5</ele>
        <time>2010-01-01T00:00:00Z</time>
      </trkpt>
      <trkpt lat="45.0003" lon="5.5828">
        <ele>1592.8</ele>
        <time>2010-01-01T00:00:00Z</time>
      </trkpt>
      <trkpt lat="45.00027" lon="5.58277">
        <ele>1593.1</ele>
        <time>2010-01-01T00:00:00Z</time>
      </trkpt>
      <trkpt lat="45.00022" lon="5.58274">
        <ele>1593.5</ele>
        <time>2010-01-01T00:00:00Z</time>
      </trkpt>
      <trkpt lat="45.00018" lon="5.58272">
        <ele>1593.8</ele>
        <time>2010-01-01T00:00:00Z</time>
      </trkpt>
      <trkpt lat="45.00013" lon="5.58269">
        <ele>1594.4</ele>
        <time>2010-01-01T00:00:00Z</time>
      </trkpt>
      <trkpt lat="45.00009" lon="5.58269">
        <ele>1594.5</ele>
        <time>2010-01-01T00:00:00Z</time>
      </trkpt>
      <trkpt lat="45.00005" lon="5.58268">
        <ele>1594.8</ele>
        <time>2010-01-01T00:00:00Z</time>
      </trkpt>
      <trkpt lat="45" lon="5.58266">
        <ele>1593.5</ele>
        <time>2010-01-01T00:00:00Z</time>
      </trkpt>
      <trkpt lat="44.99999" lon="5.58265">
        <ele>1587.3</ele>
        <time>2010-01-01T00:00:00Z</time>
      </trkpt>
      <trkpt lat="44.99996" lon="5.58264">
        <ele>1587.5</ele>
        <time>2010-01-01T00:00:00Z</time>
      </trkpt>
      <trkpt lat="44.99992" lon="5.58262">
        <ele>1587.6</ele>
        <time>2010-01-01T00:00:00Z</time>
      </trkpt>
      <trkpt lat="44.99987" lon="5.58259">
        <ele>1586.8</ele>
        <time>2010-01-01T00:00:00Z</time>
      </trkpt>
      <trkpt lat="44.99979" lon="5.58254">
        <ele>1584.1</ele>
        <time>2010-01-01T00:00:00Z</time>
      </trkpt>
      <trkpt lat="44.99975" lon="5.58252">
        <ele>1582.6</ele>
        <time>2010-01-01T00:00:00Z</time>
      </trkpt>
      <trkpt lat="44.99972" lon="5.5825">
        <ele>1590</ele>
        <time>2010-01-01T00:00:00Z</time>
      </trkpt>
      <trkpt lat="44.99967" lon="5.58249">
        <ele>1588.8</ele>
        <time>2010-01-01T00:00:00Z</time>
      </trkpt>
      <trkpt lat="44.99962" lon="5.58248">
        <ele>1587.6</ele>
        <time>2010-01-01T00:00:00Z</time>
      </trkpt>
      <trkpt lat="44.99958" lon="5.58247">
        <ele>1586.7</ele>
        <time>2010-01-01T00:00:00Z</time>
      </trkpt>
      <trkpt lat="44.99951" lon="5.58246">
        <ele>1585.2</ele>
        <time>2010-01-01T00:00:00Z</time>
      </trkpt>
      <trkpt lat="44.99946" lon="5.58245">
        <ele>1584</ele>
        <time>2010-01-01T00:00:00Z</time>
      </trkpt>
      <trkpt lat="44.99941" lon="5.58243">
        <ele>1582.9</ele>
        <time>2010-01-01T00:00:00Z</time>
      </trkpt>
      <trkpt lat="44.99928" lon="5.58239">
        <ele>1580.1</ele>
        <time>2010-01-01T00:00:00Z</time>
      </trkpt>
      <trkpt lat="44.9992" lon="5.58236">
        <ele>1579.4</ele>
        <time>2010-01-01T00:00:00Z</time>
      </trkpt>
      <trkpt lat="44.99913" lon="5.58232">
        <ele>1576.6</ele>
        <time>2010-01-01T00:00:00Z</time>
      </trkpt>
      <trkpt lat="44.99909" lon="5.58229">
        <ele>1577.2</ele>
        <time>2010-01-01T00:00:00Z</time>
      </trkpt>
      <trkpt lat="44.99904" lon="5.58225">
        <ele>1577.9</ele>
        <time>2010-01-01T00:00:00Z</time>
      </trkpt>
      <trkpt lat="44.99899" lon="5.5822">
        <ele>1578.6</ele>
        <time>2010-01-01T00:00:00Z</time>
      </trkpt>
      <trkpt lat="44.99895" lon="5.58216">
        <ele>1579.2</ele>
        <time>2010-01-01T00:00:00Z</time>
      </trkpt>
      <trkpt lat="44.9989" lon="5.58212">
        <ele>1579.7</ele>
        <time>2010-01-01T00:00:00Z</time>
      </trkpt>
      <trkpt lat="44.99885" lon="5.58209">
        <ele>1580.1</ele>
        <time>2010-01-01T00:00:00Z</time>
      </trkpt>
      <trkpt lat="44.9988" lon="5.58205">
        <ele>1580.7</ele>
        <time>2010-01-01T00:00:00Z</time>
      </trkpt>
      <trkpt lat="44.99875" lon="5.58201">
        <ele>1581.3</ele>
        <time>2010-01-01T00:00:00Z</time>
      </trkpt>
      <trkpt lat="44.99871" lon="5.58196">
        <ele>1582.2</ele>
        <time>2010-01-01T00:00:00Z</time>
      </trkpt>
      <trkpt lat="44.99866" lon="5.58192">
        <ele>1583</ele>
        <time>2010-01-01T00:00:00Z</time>
      </trkpt>
      <trkpt lat="44.99861" lon="5.58187">
        <ele>1584.3</ele>
        <time>2010-01-01T00:00:00Z</time>
      </trkpt>
      <trkpt lat="44.99857" lon="5.58184">
        <ele>1585.4</ele>
        <time>2010-01-01T00:00:00Z</time>
      </trkpt>
      <trkpt lat="44.99854" lon="5.58181">
        <ele>1586.4</ele>
        <time>2010-01-01T00:00:00Z</time>
      </trkpt>
      <trkpt lat="44.99849" lon="5.5818">
        <ele>1587.6</ele>
        <time>2010-01-01T00:00:00Z</time>
      </trkpt>
      <trkpt lat="44.99846" lon="5.58177">
        <ele>1589.1</ele>
        <time>2010-01-01T00:00:00Z</time>
      </trkpt>
      <trkpt lat="44.99843" lon="5.58174">
        <ele>1590.9</ele>
        <time>2010-01-01T00:00:00Z</time>
      </trkpt>
      <trkpt lat="44.9984" lon="5.5817">
        <ele>1593.2</ele>
        <time>2010-01-01T00:00:00Z</time>
      </trkpt>
      <trkpt lat="44.99837" lon="5.58168">
        <ele>1595.3</ele>
        <time>2010-01-01T00:00:00Z</time>
      </trkpt>
      <trkpt lat="44.99833" lon="5.58166">
        <ele>1598</ele>
        <time>2010-01-01T00:00:00Z</time>
      </trkpt>
      <trkpt lat="44.99831" lon="5.58164">
        <ele>1598.2</ele>
        <time>2010-01-01T00:00:00Z</time>
      </trkpt>
      <trkpt lat="44.99828" lon="5.5816">
        <ele>1598.5</ele>
        <time>2010-01-01T00:00:00Z</time>
      </trkpt>
      <trkpt lat="44.99825" lon="5.58159">
        <ele>1598.5</ele>
        <time>2010-01-01T00:00:00Z</time>
      </trkpt>
      <trkpt lat="44.9982" lon="5.58157">
        <ele>1598.5</ele>
        <time>2010-01-01T00:00:00Z</time>
      </trkpt>
      <trkpt lat="44.99816" lon="5.58154">
        <ele>1598.5</ele>
        <time>2010-01-01T00:00:00Z</time>
      </trkpt>
      <trkpt lat="44.99812" lon="5.58152">
        <ele>1598.4</ele>
        <time>2010-01-01T00:00:00Z</time>
      </trkpt>
      <trkpt lat="44.99808" lon="5.58151">
        <ele>1598.1</ele>
        <time>2010-01-01T00:00:00Z</time>
      </trkpt>
      <trkpt lat="44.99805" lon="5.58149">
        <ele>1597.9</ele>
        <time>2010-01-01T00:00:00Z</time>
      </trkpt>
      <trkpt lat="44.99802" lon="5.58146">
        <ele>1597.9</ele>
        <time>2010-01-01T00:00:00Z</time>
      </trkpt>
      <trkpt lat="44.99801" lon="5.58143">
        <ele>1598.1</ele>
        <time>2010-01-01T00:00:00Z</time>
      </trkpt>
      <trkpt lat="44.998" lon="5.58139">
        <ele>1598.6</ele>
        <time>2010-01-01T00:00:00Z</time>
      </trkpt>
      <trkpt lat="44.998" lon="5.58135">
        <ele>1599.2</ele>
        <time>2010-01-01T00:00:00Z</time>
      </trkpt>
      <trkpt lat="44.998" lon="5.58131">
        <ele>1599.9</ele>
        <time>2010-01-01T00:00:00Z</time>
      </trkpt>
      <trkpt lat="44.99799" lon="5.58127">
        <ele>1600.5</ele>
        <time>2010-01-01T00:00:00Z</time>
      </trkpt>
      <trkpt lat="44.99798" lon="5.58123">
        <ele>1601</ele>
        <time>2010-01-01T00:00:00Z</time>
      </trkpt>
      <trkpt lat="44.99796" lon="5.5812">
        <ele>1601.3</ele>
        <time>2010-01-01T00:00:00Z</time>
      </trkpt>
      <trkpt lat="44.99793" lon="5.5812">
        <ele>1600.9</ele>
        <time>2010-01-01T00:00:00Z</time>
      </trkpt>
      <trkpt lat="44.99791" lon="5.5812">
        <ele>1600.6</ele>
        <time>2010-01-01T00:00:00Z</time>
      </trkpt>
      <trkpt lat="44.99788" lon="5.58119">
        <ele>1600.3</ele>
        <time>2010-01-01T00:00:00Z</time>
      </trkpt>
      <trkpt lat="44.99788" lon="5.58119">
        <ele>1600.3</ele>
        <time>2010-01-01T00:00:00Z</time>
      </trkpt>
      <trkpt lat="44.99788" lon="5.58119">
        <ele>1600.3</ele>
        <time>2010-01-01T00:00:00Z</time>
      </trkpt>
      <trkpt lat="44.99786" lon="5.58117">
        <ele>1600.4</ele>
        <time>2010-01-01T00:00:00Z</time>
      </trkpt>
      <trkpt lat="44.99783" lon="5.58114">
        <ele>1600.5</ele>
        <time>2010-01-01T00:00:00Z</time>
      </trkpt>
      <trkpt lat="44.99782" lon="5.58109">
        <ele>1601.2</ele>
        <time>2010-01-01T00:00:00Z</time>
      </trkpt>
      <trkpt lat="44.99782" lon="5.58106">
        <ele>1601.7</ele>
        <time>2010-01-01T00:00:00Z</time>
      </trkpt>
      <trkpt lat="44.99782" lon="5.58102">
        <ele>1602.2</ele>
        <time>2010-01-01T00:00:00Z</time>
      </trkpt>
      <trkpt lat="44.99781" lon="5.58098">
        <ele>1602.6</ele>
        <time>2010-01-01T00:00:00Z</time>
      </trkpt>
      <trkpt lat="44.99776" lon="5.58096">
        <ele>1602.3</ele>
        <time>2010-01-01T00:00:00Z</time>
      </trkpt>
      <trkpt lat="44.99774" lon="5.58097">
        <ele>1602</ele>
        <time>2010-01-01T00:00:00Z</time>
      </trkpt>
      <trkpt lat="44.9977" lon="5.58097">
        <ele>1601.8</ele>
        <time>2010-01-01T00:00:00Z</time>
      </trkpt>
      <trkpt lat="44.99767" lon="5.58097">
        <ele>1601.7</ele>
        <time>2010-01-01T00:00:00Z</time>
      </trkpt>
      <trkpt lat="44.99764" lon="5.58096">
        <ele>1601.7</ele>
        <time>2010-01-01T00:00:00Z</time>
      </trkpt>
      <trkpt lat="44.99761" lon="5.58095">
        <ele>1601.9</ele>
        <time>2010-01-01T00:00:00Z</time>
      </trkpt>
      <trkpt lat="44.9976" lon="5.58093">
        <ele>1602.1</ele>
        <time>2010-01-01T00:00:00Z</time>
      </trkpt>
      <trkpt lat="44.99759" lon="5.58089">
        <ele>1602.6</ele>
        <time>2010-01-01T00:00:00Z</time>
      </trkpt>
      <trkpt lat="44.99758" lon="5.58084">
        <ele>1603</ele>
        <time>2010-01-01T00:00:00Z</time>
      </trkpt>
      <trkpt lat="44.99758" lon="5.58079">
        <ele>1613.6</ele>
        <time>2010-01-01T00:00:00Z</time>
      </trkpt>
      <trkpt lat="44.99756" lon="5.58077">
        <ele>1613.4</ele>
        <time>2010-01-01T00:00:00Z</time>
      </trkpt>
      <trkpt lat="44.99753" lon="5.58075">
        <ele>1613.5</ele>
        <time>2010-01-01T00:00:00Z</time>
      </trkpt>
      <trkpt lat="44.99748" lon="5.58075">
        <ele>1609.3</ele>
        <time>2010-01-01T00:00:00Z</time>
      </trkpt>
      <trkpt lat="44.99744" lon="5.58075">
        <ele>1610.1</ele>
        <time>2010-01-01T00:00:00Z</time>
      </trkpt>
      <trkpt lat="44.9974" lon="5.58074">
        <ele>1611.5</ele>
        <time>2010-01-01T00:00:00Z</time>
      </trkpt>
      <trkpt lat="44.99737" lon="5.58072">
        <ele>1612.8</ele>
        <time>2010-01-01T00:00:00Z</time>
      </trkpt>
      <trkpt lat="44.99735" lon="5.58072">
        <ele>1613.3</ele>
        <time>2010-01-01T00:00:00Z</time>
      </trkpt>
      <trkpt lat="44.99732" lon="5.58072">
        <ele>1613.9</ele>
        <time>2010-01-01T00:00:00Z</time>
      </trkpt>
      <trkpt lat="44.9973" lon="5.58074">
        <ele>1613.8</ele>
        <time>2010-01-01T00:00:00Z</time>
      </trkpt>
      <trkpt lat="44.99728" lon="5.58075">
        <ele>1614</ele>
        <time>2010-01-01T00:00:00Z</time>
      </trkpt>
      <trkpt lat="44.99726" lon="5.58075">
        <ele>1614.3</ele>
        <time>2010-01-01T00:00:00Z</time>
      </trkpt>
      <trkpt lat="44.99723" lon="5.58074">
        <ele>1614.8</ele>
        <time>2010-01-01T00:00:00Z</time>
      </trkpt>
      <trkpt lat="44.99721" lon="5.58071">
        <ele>1615.5</ele>
        <time>2010-01-01T00:00:00Z</time>
      </trkpt>
      <trkpt lat="44.99718" lon="5.58069">
        <ele>1616</ele>
        <time>2010-01-01T00:00:00Z</time>
      </trkpt>
      <trkpt lat="44.99715" lon="5.5807">
        <ele>1616</ele>
        <time>2010-01-01T00:00:00Z</time>
      </trkpt>
      <trkpt lat="44.99711" lon="5.58071">
        <ele>1615.9</ele>
        <time>2010-01-01T00:00:00Z</time>
      </trkpt>
      <trkpt lat="44.99706" lon="5.58072">
        <ele>1615.6</ele>
        <time>2010-01-01T00:00:00Z</time>
      </trkpt>
      <trkpt lat="44.99702" lon="5.58073">
        <ele>1615.1</ele>
        <time>2010-01-01T00:00:00Z</time>
      </trkpt>
      <trkpt lat="44.99698" lon="5.58073">
        <ele>1614.7</ele>
        <time>2010-01-01T00:00:00Z</time>
      </trkpt>
      <trkpt lat="44.99695" lon="5.58072">
        <ele>1614.4</ele>
        <time>2010-01-01T00:00:00Z</time>
      </trkpt>
      <trkpt lat="44.99692" lon="5.58072">
        <ele>1613.9</ele>
        <time>2010-01-01T00:00:00Z</time>
      </trkpt>
      <trkpt lat="44.99689" lon="5.58074">
        <ele>1612.9</ele>
        <time>2010-01-01T00:00:00Z</time>
      </trkpt>
      <trkpt lat="44.99686" lon="5.58075">
        <ele>1611.9</ele>
        <time>2010-01-01T00:00:00Z</time>
      </trkpt>
      <trkpt lat="44.99683" lon="5.58076">
        <ele>1610.8</ele>
        <time>2010-01-01T00:00:00Z</time>
      </trkpt>
      <trkpt lat="44.99679" lon="5.58077">
        <ele>1609.1</ele>
        <time>2010-01-01T00:00:00Z</time>
      </trkpt>
      <trkpt lat="44.99675" lon="5.58078">
        <ele>1607.1</ele>
        <time>2010-01-01T00:00:00Z</time>
      </trkpt>
      <trkpt lat="44.99671" lon="5.58079">
        <ele>1604.8</ele>
        <time>2010-01-01T00:00:00Z</time>
      </trkpt>
      <trkpt lat="44.99666" lon="5.58081">
        <ele>1601</ele>
        <time>2010-01-01T00:00:00Z</time>
      </trkpt>
      <trkpt lat="44.99662" lon="5.58083">
        <ele>1601.7</ele>
        <time>2010-01-01T00:00:00Z</time>
      </trkpt>
      <trkpt lat="44.99658" lon="5.58084">
        <ele>1594.3</ele>
        <time>2010-01-01T00:00:00Z</time>
      </trkpt>
      <trkpt lat="44.99654" lon="5.58085">
        <ele>1592.3</ele>
        <time>2010-01-01T00:00:00Z</time>
      </trkpt>
      <trkpt lat="44.99649" lon="5.58086">
        <ele>1590.3</ele>
        <time>2010-01-01T00:00:00Z</time>
      </trkpt>
      <trkpt lat="44.99646" lon="5.58087">
        <ele>1589.3</ele>
        <time>2010-01-01T00:00:00Z</time>
      </trkpt>
      <trkpt lat="44.99642" lon="5.58087">
        <ele>1588.3</ele>
        <time>2010-01-01T00:00:00Z</time>
      </trkpt>
      <trkpt lat="44.99638" lon="5.58088">
        <ele>1587.3</ele>
        <time>2010-01-01T00:00:00Z</time>
      </trkpt>
      <trkpt lat="44.99634" lon="5.58089">
        <ele>1586.5</ele>
        <time>2010-01-01T00:00:00Z</time>
      </trkpt>
      <trkpt lat="44.99631" lon="5.58089">
        <ele>1586.1</ele>
        <time>2010-01-01T00:00:00Z</time>
      </trkpt>
      <trkpt lat="44.99628" lon="5.5809">
        <ele>1585.7</ele>
        <time>2010-01-01T00:00:00Z</time>
      </trkpt>
      <trkpt lat="44.99625" lon="5.58089">
        <ele>1585.5</ele>
        <time>2010-01-01T00:00:00Z</time>
      </trkpt>
      <trkpt lat="44.99622" lon="5.58088">
        <ele>1585.3</ele>
        <time>2010-01-01T00:00:00Z</time>
      </trkpt>
      <trkpt lat="44.9962" lon="5.58086">
        <ele>1585.3</ele>
        <time>2010-01-01T00:00:00Z</time>
      </trkpt>
      <trkpt lat="44.99618" lon="5.58083">
        <ele>1602.9</ele>
        <time>2010-01-01T00:00:00Z</time>
      </trkpt>
      <trkpt lat="44.99616" lon="5.5808">
        <ele>1602.8</ele>
        <time>2010-01-01T00:00:00Z</time>
      </trkpt>
      <trkpt lat="44.99615" lon="5.58079">
        <ele>1602.7</ele>
        <time>2010-01-01T00:00:00Z</time>
      </trkpt>
      <trkpt lat="44.99609" lon="5.58068">
        <ele>1602.9</ele>
        <time>2010-01-01T00:00:00Z</time>
      </trkpt>
      <trkpt lat="44.99599" lon="5.58047">
        <ele>1605.7</ele>
        <time>2010-01-01T00:00:00Z</time>
      </trkpt>
      <trkpt lat="44.9959" lon="5.58025">
        <ele>1608.5</ele>
        <time>2010-01-01T00:00:00Z</time>
      </trkpt>
      <trkpt lat="44.99578" lon="5.57991">
        <ele>1603.5</ele>
        <time>2010-01-01T00:00:00Z</time>
      </trkpt>
      <trkpt lat="44.99568" lon="5.57964">
        <ele>1598.4</ele>
        <time>2010-01-01T00:00:00Z</time>
      </trkpt>
      <trkpt lat="44.99561" lon="5.5794">
        <ele>1599.9</ele>
        <time>2010-01-01T00:00:00Z</time>
      </trkpt>
      <trkpt lat="44.99549" lon="5.57893">
        <ele>1602.3</ele>
        <time>2010-01-01T00:00:00Z</time>
      </trkpt>
      <trkpt lat="44.99545" lon="5.57871">
        <ele>1601.7</ele>
        <time>2010-01-01T00:00:00Z</time>
      </trkpt>
      <trkpt lat="44.99543" lon="5.57861">
        <ele>1601.6</ele>
        <time>2010-01-01T00:00:00Z</time>
      </trkpt>
      <trkpt lat="44.99542" lon="5.57854">
        <ele>1601.6</ele>
        <time>2010-01-01T00:00:00Z</time>
      </trkpt>
      <trkpt lat="44.99541" lon="5.57847">
        <ele>1601.4</ele>
        <time>2010-01-01T00:00:00Z</time>
      </trkpt>
      <trkpt lat="44.9954" lon="5.57841">
        <ele>1601.2</ele>
        <time>2010-01-01T00:00:00Z</time>
      </trkpt>
      <trkpt lat="44.99538" lon="5.57834">
        <ele>1600.5</ele>
        <time>2010-01-01T00:00:00Z</time>
      </trkpt>
      <trkpt lat="44.99536" lon="5.57829">
        <ele>1601.7</ele>
        <time>2010-01-01T00:00:00Z</time>
      </trkpt>
      <trkpt lat="44.99534" lon="5.57825">
        <ele>1600.9</ele>
        <time>2010-01-01T00:00:00Z</time>
      </trkpt>
      <trkpt lat="44.99534" lon="5.57823">
        <ele>1601</ele>
        <time>2010-01-01T00:00:00Z</time>
      </trkpt>
      <trkpt lat="44.99533" lon="5.5782">
        <ele>1600.7</ele>
        <time>2010-01-01T00:00:00Z</time>
      </trkpt>
      <trkpt lat="44.99533" lon="5.57818">
        <ele>1600.8</ele>
        <time>2010-01-01T00:00:00Z</time>
      </trkpt>
      <trkpt lat="44.99533" lon="5.57815">
        <ele>1600.9</ele>
        <time>2010-01-01T00:00:00Z</time>
      </trkpt>
      <trkpt lat="44.99533" lon="5.57812">
        <ele>1601</ele>
        <time>2010-01-01T00:00:00Z</time>
      </trkpt>
      <trkpt lat="44.99534" lon="5.5781">
        <ele>1601.4</ele>
        <time>2010-01-01T00:00:00Z</time>
      </trkpt>
      <trkpt lat="44.99534" lon="5.57808">
        <ele>1601.5</ele>
        <time>2010-01-01T00:00:00Z</time>
      </trkpt>
      <trkpt lat="44.99535" lon="5.57805">
        <ele>1601.9</ele>
        <time>2010-01-01T00:00:00Z</time>
      </trkpt>
      <trkpt lat="44.99536" lon="5.57803">
        <ele>1602.2</ele>
        <time>2010-01-01T00:00:00Z</time>
      </trkpt>
      <trkpt lat="44.99538" lon="5.57801">
        <ele>1602.8</ele>
        <time>2010-01-01T00:00:00Z</time>
      </trkpt>
      <trkpt lat="44.99539" lon="5.57797">
        <ele>1603.1</ele>
        <time>2010-01-01T00:00:00Z</time>
      </trkpt>
      <trkpt lat="44.9954" lon="5.57794">
        <ele>1603.3</ele>
        <time>2010-01-01T00:00:00Z</time>
      </trkpt>
      <trkpt lat="44.99541" lon="5.57792">
        <ele>1603.6</ele>
        <time>2010-01-01T00:00:00Z</time>
      </trkpt>
      <trkpt lat="44.99542" lon="5.5779">
        <ele>1603.8</ele>
        <time>2010-01-01T00:00:00Z</time>
      </trkpt>
      <trkpt lat="44.99543" lon="5.57789">
        <ele>1604.1</ele>
        <time>2010-01-01T00:00:00Z</time>
      </trkpt>
      <trkpt lat="44.99543" lon="5.57786">
        <ele>1604.1</ele>
        <time>2010-01-01T00:00:00Z</time>
      </trkpt>
      <trkpt lat="44.99544" lon="5.57784">
        <ele>1604.3</ele>
        <time>2010-01-01T00:00:00Z</time>
      </trkpt>
      <trkpt lat="44.99546" lon="5.57782">
        <ele>1604.9</ele>
        <time>2010-01-01T00:00:00Z</time>
      </trkpt>
      <trkpt lat="44.99547" lon="5.5778">
        <ele>1605.2</ele>
        <time>2010-01-01T00:00:00Z</time>
      </trkpt>
      <trkpt lat="44.99547" lon="5.57776">
        <ele>1605.2</ele>
        <time>2010-01-01T00:00:00Z</time>
      </trkpt>
      <trkpt lat="44.99547" lon="5.57773">
        <ele>1605.3</ele>
        <time>2010-01-01T00:00:00Z</time>
      </trkpt>
      <trkpt lat="44.99547" lon="5.57773">
        <ele>1605.3</ele>
        <time>2010-01-01T00:00:00Z</time>
      </trkpt>
      <trkpt lat="44.99547" lon="5.57771">
        <ele>1605.3</ele>
        <time>2010-01-01T00:00:00Z</time>
      </trkpt>
      <trkpt lat="44.99546" lon="5.57768">
        <ele>1605</ele>
        <time>2010-01-01T00:00:00Z</time>
      </trkpt>
      <trkpt lat="44.99546" lon="5.57763">
        <ele>1605.1</ele>
        <time>2010-01-01T00:00:00Z</time>
      </trkpt>
      <trkpt lat="44.99545" lon="5.57759">
        <ele>1604.8</ele>
        <time>2010-01-01T00:00:00Z</time>
      </trkpt>
      <trkpt lat="44.99545" lon="5.57755">
        <ele>1604.8</ele>
        <time>2010-01-01T00:00:00Z</time>
      </trkpt>
      <trkpt lat="44.99544" lon="5.57752">
        <ele>1604.4</ele>
        <time>2010-01-01T00:00:00Z</time>
      </trkpt>
      <trkpt lat="44.99543" lon="5.57749">
        <ele>1598.4</ele>
        <time>2010-01-01T00:00:00Z</time>
      </trkpt>
      <trkpt lat="44.99542" lon="5.57746">
        <ele>1597.9</ele>
        <time>2010-01-01T00:00:00Z</time>
      </trkpt>
      <trkpt lat="44.99542" lon="5.57744">
        <ele>1597.8</ele>
        <time>2010-01-01T00:00:00Z</time>
      </trkpt>
      <trkpt lat="44.99538" lon="5.57747">
        <ele>1596.3</ele>
        <time>2010-01-01T00:00:00Z</time>
      </trkpt>
      <trkpt lat="44.99535" lon="5.57749">
        <ele>1595.2</ele>
        <time>2010-01-01T00:00:00Z</time>
      </trkpt>
      <trkpt lat="44.99532" lon="5.57751">
        <ele>1599.5</ele>
        <time>2010-01-01T00:00:00Z</time>
      </trkpt>
      <trkpt lat="44.9953" lon="5.57754">
        <ele>1598.8</ele>
        <time>2010-01-01T00:00:00Z</time>
      </trkpt>
      <trkpt lat="44.99528" lon="5.57757">
        <ele>1598.1</ele>
        <time>2010-01-01T00:00:00Z</time>
      </trkpt>
      <trkpt lat="44.99526" lon="5.57759">
        <ele>1597.4</ele>
        <time>2010-01-01T00:00:00Z</time>
      </trkpt>
      <trkpt lat="44.99524" lon="5.57762">
        <ele>1596.8</ele>
        <time>2010-01-01T00:00:00Z</time>
      </trkpt>
      <trkpt lat="44.99522" lon="5.57765">
        <ele>1596.5</ele>
        <time>2010-01-01T00:00:00Z</time>
      </trkpt>
      <trkpt lat="44.9952" lon="5.57768">
        <ele>1596.2</ele>
        <time>2010-01-01T00:00:00Z</time>
      </trkpt>
      <trkpt lat="44.99518" lon="5.5777">
        <ele>1595.9</ele>
        <time>2010-01-01T00:00:00Z</time>
      </trkpt>
      <trkpt lat="44.99517" lon="5.57772">
        <ele>1595.9</ele>
        <time>2010-01-01T00:00:00Z</time>
      </trkpt>
      <trkpt lat="44.99515" lon="5.57775">
        <ele>1595.9</ele>
        <time>2010-01-01T00:00:00Z</time>
      </trkpt>
      <trkpt lat="44.99514" lon="5.57779">
        <ele>1596.2</ele>
        <time>2010-01-01T00:00:00Z</time>
      </trkpt>
      <trkpt lat="44.99514" lon="5.57784">
        <ele>1596.7</ele>
        <time>2010-01-01T00:00:00Z</time>
      </trkpt>
      <trkpt lat="44.99513" lon="5.57787">
        <ele>1596.7</ele>
        <time>2010-01-01T00:00:00Z</time>
      </trkpt>
      <trkpt lat="44.99513" lon="5.5779">
        <ele>1596.8</ele>
        <time>2010-01-01T00:00:00Z</time>
      </trkpt>
      <trkpt lat="44.99513" lon="5.57793">
        <ele>1596.8</ele>
        <time>2010-01-01T00:00:00Z</time>
      </trkpt>
      <trkpt lat="44.99513" lon="5.57795">
        <ele>1596.8</ele>
        <time>2010-01-01T00:00:00Z</time>
      </trkpt>
      <trkpt lat="44.99513" lon="5.57797">
        <ele>1596.7</ele>
        <time>2010-01-01T00:00:00Z</time>
      </trkpt>
      <trkpt lat="44.99514" lon="5.578">
        <ele>1596.7</ele>
        <time>2010-01-01T00:00:00Z</time>
      </trkpt>
      <trkpt lat="44.99516" lon="5.57801">
        <ele>1597.1</ele>
        <time>2010-01-01T00:00:00Z</time>
      </trkpt>
      <trkpt lat="44.99517" lon="5.57804">
        <ele>1597</ele>
        <time>2010-01-01T00:00:00Z</time>
      </trkpt>
      <trkpt lat="44.99517" lon="5.57807">
        <ele>1596.7</ele>
        <time>2010-01-01T00:00:00Z</time>
      </trkpt>
      <trkpt lat="44.99518" lon="5.5781">
        <ele>1596.5</ele>
        <time>2010-01-01T00:00:00Z</time>
      </trkpt>
      <trkpt lat="44.99519" lon="5.57814">
        <ele>1596.2</ele>
        <time>2010-01-01T00:00:00Z</time>
      </trkpt>
      <trkpt lat="44.9952" lon="5.57819">
        <ele>1595.8</ele>
        <time>2010-01-01T00:00:00Z</time>
      </trkpt>
      <trkpt lat="44.9952" lon="5.57825">
        <ele>1594.9</ele>
        <time>2010-01-01T00:00:00Z</time>
      </trkpt>
      <trkpt lat="44.99521" lon="5.5783">
        <ele>1595</ele>
        <time>2010-01-01T00:00:00Z</time>
      </trkpt>
      <trkpt lat="44.99521" lon="5.57833">
        <ele>1594.9</ele>
        <time>2010-01-01T00:00:00Z</time>
      </trkpt>
      <trkpt lat="44.99522" lon="5.57837">
        <ele>1593.6</ele>
        <time>2010-01-01T00:00:00Z</time>
      </trkpt>
      <trkpt lat="44.99522" lon="5.57841">
        <ele>1593.8</ele>
        <time>2010-01-01T00:00:00Z</time>
      </trkpt>
      <trkpt lat="44.99522" lon="5.57845">
        <ele>1594.1</ele>
        <time>2010-01-01T00:00:00Z</time>
      </trkpt>
      <trkpt lat="44.99522" lon="5.57848">
        <ele>1594.4</ele>
        <time>2010-01-01T00:00:00Z</time>
      </trkpt>
      <trkpt lat="44.99522" lon="5.57852">
        <ele>1594.7</ele>
        <time>2010-01-01T00:00:00Z</time>
      </trkpt>
      <trkpt lat="44.99522" lon="5.57857">
        <ele>1595</ele>
        <time>2010-01-01T00:00:00Z</time>
      </trkpt>
      <trkpt lat="44.99522" lon="5.57861">
        <ele>1595.2</ele>
        <time>2010-01-01T00:00:00Z</time>
      </trkpt>
      <trkpt lat="44.99523" lon="5.57866">
        <ele>1595.5</ele>
        <time>2010-01-01T00:00:00Z</time>
      </trkpt>
      <trkpt lat="44.99523" lon="5.57871">
        <ele>1595.4</ele>
        <time>2010-01-01T00:00:00Z</time>
      </trkpt>
      <trkpt lat="44.99523" lon="5.57875">
        <ele>1595.2</ele>
        <time>2010-01-01T00:00:00Z</time>
      </trkpt>
      <trkpt lat="44.99523" lon="5.57879">
        <ele>1594.8</ele>
        <time>2010-01-01T00:00:00Z</time>
      </trkpt>
      <trkpt lat="44.99523" lon="5.57882">
        <ele>1594.5</ele>
        <time>2010-01-01T00:00:00Z</time>
      </trkpt>
      <trkpt lat="44.99523" lon="5.57886">
        <ele>1594</ele>
        <time>2010-01-01T00:00:00Z</time>
      </trkpt>
      <trkpt lat="44.99522" lon="5.5789">
        <ele>1593.1</ele>
        <time>2010-01-01T00:00:00Z</time>
      </trkpt>
      <trkpt lat="44.99522" lon="5.57901">
        <ele>1590.9</ele>
        <time>2010-01-01T00:00:00Z</time>
      </trkpt>
      <trkpt lat="44.99521" lon="5.5791">
        <ele>1588.7</ele>
        <time>2010-01-01T00:00:00Z</time>
      </trkpt>
      <trkpt lat="44.99521" lon="5.57914">
        <ele>1588.2</ele>
        <time>2010-01-01T00:00:00Z</time>
      </trkpt>
      <trkpt lat="44.99521" lon="5.57919">
        <ele>1583.9</ele>
        <time>2010-01-01T00:00:00Z</time>
      </trkpt>
      <trkpt lat="44.99521" lon="5.57924">
        <ele>1584.2</ele>
        <time>2010-01-01T00:00:00Z</time>
      </trkpt>
      <trkpt lat="44.99521" lon="5.57928">
        <ele>1584.6</ele>
        <time>2010-01-01T00:00:00Z</time>
      </trkpt>
      <trkpt lat="44.99521" lon="5.57931">
        <ele>1585</ele>
        <time>2010-01-01T00:00:00Z</time>
      </trkpt>
      <trkpt lat="44.9952" lon="5.57934">
        <ele>1585</ele>
        <time>2010-01-01T00:00:00Z</time>
      </trkpt>
      <trkpt lat="44.9952" lon="5.57939">
        <ele>1585.6</ele>
        <time>2010-01-01T00:00:00Z</time>
      </trkpt>
      <trkpt lat="44.9952" lon="5.57943">
        <ele>1585.9</ele>
        <time>2010-01-01T00:00:00Z</time>
      </trkpt>
      <trkpt lat="44.9952" lon="5.57948">
        <ele>1586.2</ele>
        <time>2010-01-01T00:00:00Z</time>
      </trkpt>
      <trkpt lat="44.9952" lon="5.57952">
        <ele>1586.3</ele>
        <time>2010-01-01T00:00:00Z</time>
      </trkpt>
      <trkpt lat="44.9952" lon="5.57956">
        <ele>1586.3</ele>
        <time>2010-01-01T00:00:00Z</time>
      </trkpt>
      <trkpt lat="44.9952" lon="5.5796">
        <ele>1586.1</ele>
        <time>2010-01-01T00:00:00Z</time>
      </trkpt>
      <trkpt lat="44.9952" lon="5.57965">
        <ele>1585.7</ele>
        <time>2010-01-01T00:00:00Z</time>
      </trkpt>
      <trkpt lat="44.9952" lon="5.5797">
        <ele>1585.2</ele>
        <time>2010-01-01T00:00:00Z</time>
      </trkpt>
      <trkpt lat="44.99521" lon="5.57975">
        <ele>1584.7</ele>
        <time>2010-01-01T00:00:00Z</time>
      </trkpt>
      <trkpt lat="44.99521" lon="5.57981">
        <ele>1583.7</ele>
        <time>2010-01-01T00:00:00Z</time>
      </trkpt>
      <trkpt lat="44.99521" lon="5.57986">
        <ele>1582.8</ele>
        <time>2010-01-01T00:00:00Z</time>
      </trkpt>
      <trkpt lat="44.99521" lon="5.5799">
        <ele>1582.1</ele>
        <time>2010-01-01T00:00:00Z</time>
      </trkpt>
      <trkpt lat="44.99521" lon="5.57994">
        <ele>1581.5</ele>
        <time>2010-01-01T00:00:00Z</time>
      </trkpt>
      <trkpt lat="44.99521" lon="5.57995">
        <ele>1581.4</ele>
        <time>2010-01-01T00:00:00Z</time>
      </trkpt>
      <trkpt lat="44.9952" lon="5.57999">
        <ele>1580.6</ele>
        <time>2010-01-01T00:00:00Z</time>
      </trkpt>
      <trkpt lat="44.9952" lon="5.58002">
        <ele>1574.3</ele>
        <time>2010-01-01T00:00:00Z</time>
      </trkpt>
      <trkpt lat="44.9952" lon="5.58005">
        <ele>1574.3</ele>
        <time>2010-01-01T00:00:00Z</time>
      </trkpt>
      <trkpt lat="44.99521" lon="5.58009">
        <ele>1574.8</ele>
        <time>2010-01-01T00:00:00Z</time>
      </trkpt>
      <trkpt lat="44.99521" lon="5.58012">
        <ele>1574.9</ele>
        <time>2010-01-01T00:00:00Z</time>
      </trkpt>
      <trkpt lat="44.99521" lon="5.58015">
        <ele>1575</ele>
        <time>2010-01-01T00:00:00Z</time>
      </trkpt>
      <trkpt lat="44.99521" lon="5.5802">
        <ele>1575.1</ele>
        <time>2010-01-01T00:00:00Z</time>
      </trkpt>
      <trkpt lat="44.99521" lon="5.5803">
        <ele>1575</ele>
        <time>2010-01-01T00:00:00Z</time>
      </trkpt>
      <trkpt lat="44.9952" lon="5.58041">
        <ele>1573.9</ele>
        <time>2010-01-01T00:00:00Z</time>
      </trkpt>
      <trkpt lat="44.99519" lon="5.5805">
        <ele>1572.4</ele>
        <time>2010-01-01T00:00:00Z</time>
      </trkpt>
      <trkpt lat="44.99518" lon="5.58057">
        <ele>1570.8</ele>
        <time>2010-01-01T00:00:00Z</time>
      </trkpt>
      <trkpt lat="44.99518" lon="5.58066">
        <ele>1568.5</ele>
        <time>2010-01-01T00:00:00Z</time>
      </trkpt>
      <trkpt lat="44.99518" lon="5.58077">
        <ele>1565.9</ele>
        <time>2010-01-01T00:00:00Z</time>
      </trkpt>
      <trkpt lat="44.99518" lon="5.58087">
        <ele>1556.1</ele>
        <time>2010-01-01T00:00:00Z</time>
      </trkpt>
      <trkpt lat="44.99518" lon="5.58101">
        <ele>1556.1</ele>
        <time>2010-01-01T00:00:00Z</time>
      </trkpt>
      <trkpt lat="44.99517" lon="5.58115">
        <ele>1555.1</ele>
        <time>2010-01-01T00:00:00Z</time>
      </trkpt>
      <trkpt lat="44.99517" lon="5.58127">
        <ele>1553.4</ele>
        <time>2010-01-01T00:00:00Z</time>
      </trkpt>
      <trkpt lat="44.99516" lon="5.58136">
        <ele>1551.1</ele>
        <time>2010-01-01T00:00:00Z</time>
      </trkpt>
      <trkpt lat="44.99515" lon="5.58146">
        <ele>1547.8</ele>
        <time>2010-01-01T00:00:00Z</time>
      </trkpt>
      <trkpt lat="44.99513" lon="5.58157">
        <ele>1542.8</ele>
        <time>2010-01-01T00:00:00Z</time>
      </trkpt>
      <trkpt lat="44.99511" lon="5.58168">
        <ele>1532.7</ele>
        <time>2010-01-01T00:00:00Z</time>
      </trkpt>
      <trkpt lat="44.99509" lon="5.58179">
        <ele>1533.5</ele>
        <time>2010-01-01T00:00:00Z</time>
      </trkpt>
      <trkpt lat="44.99508" lon="5.58188">
        <ele>1534.5</ele>
        <time>2010-01-01T00:00:00Z</time>
      </trkpt>
      <trkpt lat="44.99507" lon="5.58195">
        <ele>1534.7</ele>
        <time>2010-01-01T00:00:00Z</time>
      </trkpt>
      <trkpt lat="44.99505" lon="5.58202">
        <ele>1534.5</ele>
        <time>2010-01-01T00:00:00Z</time>
      </trkpt>
      <trkpt lat="44.99503" lon="5.58209">
        <ele>1533.9</ele>
        <time>2010-01-01T00:00:00Z</time>
      </trkpt>
      <trkpt lat="44.99502" lon="5.58217">
        <ele>1532.8</ele>
        <time>2010-01-01T00:00:00Z</time>
      </trkpt>
      <trkpt lat="44.99501" lon="5.58225">
        <ele>1531.2</ele>
        <time>2010-01-01T00:00:00Z</time>
      </trkpt>
      <trkpt lat="44.99501" lon="5.58234">
        <ele>1528.6</ele>
        <time>2010-01-01T00:00:00Z</time>
      </trkpt>
      <trkpt lat="44.995" lon="5.58243">
        <ele>1515.8</ele>
        <time>2010-01-01T00:00:00Z</time>
      </trkpt>
      <trkpt lat="44.99499" lon="5.58247">
        <ele>1517.9</ele>
        <time>2010-01-01T00:00:00Z</time>
      </trkpt>
      <trkpt lat="44.99499" lon="5.58247">
        <ele>1517.9</ele>
        <time>2010-01-01T00:00:00Z</time>
      </trkpt>
      <trkpt lat="44.99498" lon="5.58251">
        <ele>1517.8</ele>
        <time>2010-01-01T00:00:00Z</time>
      </trkpt>
      <trkpt lat="44.99496" lon="5.58259">
        <ele>1512</ele>
        <time>2010-01-01T00:00:00Z</time>
      </trkpt>
      <trkpt lat="44.99493" lon="5.58271">
        <ele>1506</ele>
        <time>2010-01-01T00:00:00Z</time>
      </trkpt>
      <trkpt lat="44.99488" lon="5.5829">
        <ele>1501.3</ele>
        <time>2010-01-01T00:00:00Z</time>
      </trkpt>
      <trkpt lat="44.99485" lon="5.58301">
        <ele>1500.1</ele>
        <time>2010-01-01T00:00:00Z</time>
      </trkpt>
      <trkpt lat="44.99483" lon="5.58309">
        <ele>1499.8</ele>
        <time>2010-01-01T00:00:00Z</time>
      </trkpt>
      <trkpt lat="44.99481" lon="5.58315">
        <ele>1499.6</ele>
        <time>2010-01-01T00:00:00Z</time>
      </trkpt>
      <trkpt lat="44.99479" lon="5.58321">
        <ele>1499.5</ele>
        <time>2010-01-01T00:00:00Z</time>
      </trkpt>
      <trkpt lat="44.99477" lon="5.58326">
        <ele>1499.2</ele>
        <time>2010-01-01T00:00:00Z</time>
      </trkpt>
      <trkpt lat="44.99473" lon="5.5833">
        <ele>1498.3</ele>
        <time>2010-01-01T00:00:00Z</time>
      </trkpt>
      <trkpt lat="44.99469" lon="5.58335">
        <ele>1491.9</ele>
        <time>2010-01-01T00:00:00Z</time>
      </trkpt>
      <trkpt lat="44.99464" lon="5.5834">
        <ele>1490.5</ele>
        <time>2010-01-01T00:00:00Z</time>
      </trkpt>
      <trkpt lat="44.99461" lon="5.58344">
        <ele>1489.6</ele>
        <time>2010-01-01T00:00:00Z</time>
      </trkpt>
      <trkpt lat="44.99458" lon="5.58348">
        <ele>1488.9</ele>
        <time>2010-01-01T00:00:00Z</time>
      </trkpt>
      <trkpt lat="44.99455" lon="5.58358">
        <ele>1487.9</ele>
        <time>2010-01-01T00:00:00Z</time>
      </trkpt>
      <trkpt lat="44.99452" lon="5.58373">
        <ele>1486.8</ele>
        <time>2010-01-01T00:00:00Z</time>
      </trkpt>
      <trkpt lat="44.99451" lon="5.58375">
        <ele>1486.6</ele>
        <time>2010-01-01T00:00:00Z</time>
      </trkpt>
      <trkpt lat="44.99449" lon="5.58375">
        <ele>1486.4</ele>
        <time>2010-01-01T00:00:00Z</time>
      </trkpt>
      <trkpt lat="44.99446" lon="5.58371">
        <ele>1486.4</ele>
        <time>2010-01-01T00:00:00Z</time>
      </trkpt>
      <trkpt lat="44.99445" lon="5.58363">
        <ele>1486.5</ele>
        <time>2010-01-01T00:00:00Z</time>
      </trkpt>
      <trkpt lat="44.99446" lon="5.58351">
        <ele>1486.8</ele>
        <time>2010-01-01T00:00:00Z</time>
      </trkpt>
      <trkpt lat="44.99449" lon="5.58328">
        <ele>1492.4</ele>
        <time>2010-01-01T00:00:00Z</time>
      </trkpt>
      <trkpt lat="44.9945" lon="5.58315">
        <ele>1493.2</ele>
        <time>2010-01-01T00:00:00Z</time>
      </trkpt>
      <trkpt lat="44.99449" lon="5.58304">
        <ele>1493.5</ele>
        <time>2010-01-01T00:00:00Z</time>
      </trkpt>
      <trkpt lat="44.99442" lon="5.58275">
        <ele>1492</ele>
        <time>2010-01-01T00:00:00Z</time>
      </trkpt>
      <trkpt lat="44.99434" lon="5.58249">
        <ele>1489.8</ele>
        <time>2010-01-01T00:00:00Z</time>
      </trkpt>
      <trkpt lat="44.9943" lon="5.58236">
        <ele>1490.4</ele>
        <time>2010-01-01T00:00:00Z</time>
      </trkpt>
      <trkpt lat="44.99424" lon="5.58225">
        <ele>1492</ele>
        <time>2010-01-01T00:00:00Z</time>
      </trkpt>
      <trkpt lat="44.99412" lon="5.58205">
        <ele>1467.4</ele>
        <time>2010-01-01T00:00:00Z</time>
      </trkpt>
      <trkpt lat="44.99402" lon="5.58186">
        <ele>1468.9</ele>
        <time>2010-01-01T00:00:00Z</time>
      </trkpt>
      <trkpt lat="44.99396" lon="5.58173">
        <ele>1469.2</ele>
        <time>2010-01-01T00:00:00Z</time>
      </trkpt>
      <trkpt lat="44.99392" lon="5.58169">
        <ele>1467.7</ele>
        <time>2010-01-01T00:00:00Z</time>
      </trkpt>
      <trkpt lat="44.99388" lon="5.58167">
        <ele>1466.1</ele>
        <time>2010-01-01T00:00:00Z</time>
      </trkpt>
      <trkpt lat="44.99385" lon="5.58168">
        <ele>1464.9</ele>
        <time>2010-01-01T00:00:00Z</time>
      </trkpt>
      <trkpt lat="44.99382" lon="5.58172">
        <ele>1463.6</ele>
        <time>2010-01-01T00:00:00Z</time>
      </trkpt>
      <trkpt lat="44.9938" lon="5.58178">
        <ele>1462.6</ele>
        <time>2010-01-01T00:00:00Z</time>
      </trkpt>
      <trkpt lat="44.99379" lon="5.58192">
        <ele>1461.7</ele>
        <time>2010-01-01T00:00:00Z</time>
      </trkpt>
      <trkpt lat="44.99379" lon="5.58207">
        <ele>1461</ele>
        <time>2010-01-01T00:00:00Z</time>
      </trkpt>
      <trkpt lat="44.99377" lon="5.58274">
        <ele>1458.2</ele>
        <time>2010-01-01T00:00:00Z</time>
      </trkpt>
      <trkpt lat="44.99375" lon="5.58286">
        <ele>1457.7</ele>
        <time>2010-01-01T00:00:00Z</time>
      </trkpt>
      <trkpt lat="44.99374" lon="5.58296">
        <ele>1457.5</ele>
        <time>2010-01-01T00:00:00Z</time>
      </trkpt>
      <trkpt lat="44.99372" lon="5.58305">
        <ele>1457</ele>
        <time>2010-01-01T00:00:00Z</time>
      </trkpt>
      <trkpt lat="44.99368" lon="5.58314">
        <ele>1455.7</ele>
        <time>2010-01-01T00:00:00Z</time>
      </trkpt>
      <trkpt lat="44.9936" lon="5.58327">
        <ele>1452.3</ele>
        <time>2010-01-01T00:00:00Z</time>
      </trkpt>
      <trkpt lat="44.99349" lon="5.58341">
        <ele>1449.5</ele>
        <time>2010-01-01T00:00:00Z</time>
      </trkpt>
      <trkpt lat="44.99342" lon="5.58348">
        <ele>1448.8</ele>
        <time>2010-01-01T00:00:00Z</time>
      </trkpt>
      <trkpt lat="44.99339" lon="5.58352">
        <ele>1449.5</ele>
        <time>2010-01-01T00:00:00Z</time>
      </trkpt>
      <trkpt lat="44.99339" lon="5.58352">
        <ele>1449.5</ele>
        <time>2010-01-01T00:00:00Z</time>
      </trkpt>
      <trkpt lat="44.99329" lon="5.58369">
        <ele>1428.8</ele>
        <time>2010-01-01T00:00:00Z</time>
      </trkpt>
      <trkpt lat="44.99319" lon="5.58386">
        <ele>1429</ele>
        <time>2010-01-01T00:00:00Z</time>
      </trkpt>
      <trkpt lat="44.99312" lon="5.58398">
        <ele>1429.3</ele>
        <time>2010-01-01T00:00:00Z</time>
      </trkpt>
      <trkpt lat="44.99292" lon="5.58431">
        <ele>1424.1</ele>
        <time>2010-01-01T00:00:00Z</time>
      </trkpt>
      <trkpt lat="44.99285" lon="5.58444">
        <ele>1421.9</ele>
        <time>2010-01-01T00:00:00Z</time>
      </trkpt>
      <trkpt lat="44.99275" lon="5.58459">
        <ele>1419.7</ele>
        <time>2010-01-01T00:00:00Z</time>
      </trkpt>
      <trkpt lat="44.99263" lon="5.58475">
        <ele>1416.1</ele>
        <time>2010-01-01T00:00:00Z</time>
      </trkpt>
      <trkpt lat="44.99258" lon="5.58484">
        <ele>1413.1</ele>
        <time>2010-01-01T00:00:00Z</time>
      </trkpt>
      <trkpt lat="44.99248" lon="5.58509">
        <ele>1396.8</ele>
        <time>2010-01-01T00:00:00Z</time>
      </trkpt>
      <trkpt lat="44.99241" lon="5.5853">
        <ele>1389.8</ele>
        <time>2010-01-01T00:00:00Z</time>
      </trkpt>
      <trkpt lat="44.99233" lon="5.58557">
        <ele>1388.9</ele>
        <time>2010-01-01T00:00:00Z</time>
      </trkpt>
      <trkpt lat="44.99225" lon="5.58575">
        <ele>1388.6</ele>
        <time>2010-01-01T00:00:00Z</time>
      </trkpt>
      <trkpt lat="44.99221" lon="5.58583">
        <ele>1387.2</ele>
        <time>2010-01-01T00:00:00Z</time>
      </trkpt>
      <trkpt lat="44.99214" lon="5.58602">
        <ele>1382.2</ele>
        <time>2010-01-01T00:00:00Z</time>
      </trkpt>
      <trkpt lat="44.99211" lon="5.58609">
        <ele>1381</ele>
        <time>2010-01-01T00:00:00Z</time>
      </trkpt>
      <trkpt lat="44.99211" lon="5.58609">
        <ele>1381</ele>
        <time>2010-01-01T00:00:00Z</time>
      </trkpt>
      <trkpt lat="44.9921" lon="5.5861">
        <ele>1380.7</ele>
        <time>2010-01-01T00:00:00Z</time>
      </trkpt>
      <trkpt lat="44.99206" lon="5.58617">
        <ele>1379.5</ele>
        <time>2010-01-01T00:00:00Z</time>
      </trkpt>
      <trkpt lat="44.99198" lon="5.58626">
        <ele>1377.5</ele>
        <time>2010-01-01T00:00:00Z</time>
      </trkpt>
      <trkpt lat="44.99189" lon="5.58628">
        <ele>1375.7</ele>
        <time>2010-01-01T00:00:00Z</time>
      </trkpt>
      <trkpt lat="44.99183" lon="5.58626">
        <ele>1374.7</ele>
        <time>2010-01-01T00:00:00Z</time>
      </trkpt>
      <trkpt lat="44.99175" lon="5.58617">
        <ele>1373.3</ele>
        <time>2010-01-01T00:00:00Z</time>
      </trkpt>
      <trkpt lat="44.99172" lon="5.58605">
        <ele>1371.3</ele>
        <time>2010-01-01T00:00:00Z</time>
      </trkpt>
      <trkpt lat="44.9917" lon="5.58593">
        <ele>1367.3</ele>
        <time>2010-01-01T00:00:00Z</time>
      </trkpt>
      <trkpt lat="44.9917" lon="5.58571">
        <ele>1369</ele>
        <time>2010-01-01T00:00:00Z</time>
      </trkpt>
      <trkpt lat="44.99171" lon="5.58549">
        <ele>1374</ele>
        <time>2010-01-01T00:00:00Z</time>
      </trkpt>
      <trkpt lat="44.9917" lon="5.58533">
        <ele>1373.6</ele>
        <time>2010-01-01T00:00:00Z</time>
      </trkpt>
      <trkpt lat="44.99162" lon="5.58497">
        <ele>1354.8</ele>
        <time>2010-01-01T00:00:00Z</time>
      </trkpt>
      <trkpt lat="44.99159" lon="5.58458">
        <ele>1342.4</ele>
        <time>2010-01-01T00:00:00Z</time>
      </trkpt>
      <trkpt lat="44.99157" lon="5.58439">
        <ele>1343.6</ele>
        <time>2010-01-01T00:00:00Z</time>
      </trkpt>
      <trkpt lat="44.99149" lon="5.58418">
        <ele>1344.5</ele>
        <time>2010-01-01T00:00:00Z</time>
      </trkpt>
      <trkpt lat="44.99139" lon="5.584">
        <ele>1341.4</ele>
        <time>2010-01-01T00:00:00Z</time>
      </trkpt>
      <trkpt lat="44.99137" lon="5.58388">
        <ele>1340.5</ele>
        <time>2010-01-01T00:00:00Z</time>
      </trkpt>
      <trkpt lat="44.99135" lon="5.58372">
        <ele>1340.4</ele>
        <time>2010-01-01T00:00:00Z</time>
      </trkpt>
      <trkpt lat="44.99134" lon="5.58358">
        <ele>1341.1</ele>
        <time>2010-01-01T00:00:00Z</time>
      </trkpt>
      <trkpt lat="44.9913" lon="5.58351">
        <ele>1340.4</ele>
        <time>2010-01-01T00:00:00Z</time>
      </trkpt>
      <trkpt lat="44.99121" lon="5.58344">
        <ele>1338.1</ele>
        <time>2010-01-01T00:00:00Z</time>
      </trkpt>
      <trkpt lat="44.99104" lon="5.58339">
        <ele>1333.1</ele>
        <time>2010-01-01T00:00:00Z</time>
      </trkpt>
      <trkpt lat="44.99091" lon="5.5834">
        <ele>1329.2</ele>
        <time>2010-01-01T00:00:00Z</time>
      </trkpt>
      <trkpt lat="44.99079" lon="5.58335">
        <ele>1321.5</ele>
        <time>2010-01-01T00:00:00Z</time>
      </trkpt>
      <trkpt lat="44.9906" lon="5.58328">
        <ele>1319.2</ele>
        <time>2010-01-01T00:00:00Z</time>
      </trkpt>
      <trkpt lat="44.99043" lon="5.58319">
        <ele>1315.9</ele>
        <time>2010-01-01T00:00:00Z</time>
      </trkpt>
      <trkpt lat="44.99043" lon="5.58319">
        <ele>1315.9</ele>
        <time>2010-01-01T00:00:00Z</time>
      </trkpt>
      <trkpt lat="44.99041" lon="5.58318">
        <ele>1315.6</ele>
        <time>2010-01-01T00:00:00Z</time>
      </trkpt>
      <trkpt lat="44.99015" lon="5.58302">
        <ele>1312.2</ele>
        <time>2010-01-01T00:00:00Z</time>
      </trkpt>
      <trkpt lat="44.98999" lon="5.58288">
        <ele>1295</ele>
        <time>2010-01-01T00:00:00Z</time>
      </trkpt>
      <trkpt lat="44.98985" lon="5.58283">
        <ele>1294.1</ele>
        <time>2010-01-01T00:00:00Z</time>
      </trkpt>
      <trkpt lat="44.98969" lon="5.58273">
        <ele>1292.2</ele>
        <time>2010-01-01T00:00:00Z</time>
      </trkpt>
      <trkpt lat="44.98953" lon="5.58263">
        <ele>1289</ele>
        <time>2010-01-01T00:00:00Z</time>
      </trkpt>
      <trkpt lat="44.9894" lon="5.58259">
        <ele>1286</ele>
        <time>2010-01-01T00:00:00Z</time>
      </trkpt>
      <trkpt lat="44.98926" lon="5.58257">
        <ele>1282.3</ele>
        <time>2010-01-01T00:00:00Z</time>
      </trkpt>
      <trkpt lat="44.98923" lon="5.58254">
        <ele>1281</ele>
        <time>2010-01-01T00:00:00Z</time>
      </trkpt>
      <trkpt lat="44.9892" lon="5.58249">
        <ele>1280</ele>
        <time>2010-01-01T00:00:00Z</time>
      </trkpt>
      <trkpt lat="44.98918" lon="5.58241">
        <ele>1282.5</ele>
        <time>2010-01-01T00:00:00Z</time>
      </trkpt>
      <trkpt lat="44.98917" lon="5.58234">
        <ele>1284.7</ele>
        <time>2010-01-01T00:00:00Z</time>
      </trkpt>
      <trkpt lat="44.98917" lon="5.58227">
        <ele>1286.3</ele>
        <time>2010-01-01T00:00:00Z</time>
      </trkpt>
      <trkpt lat="44.98916" lon="5.58208">
        <ele>1270.5</ele>
        <time>2010-01-01T00:00:00Z</time>
      </trkpt>
      <trkpt lat="44.98912" lon="5.58201">
        <ele>1270.7</ele>
        <time>2010-01-01T00:00:00Z</time>
      </trkpt>
      <trkpt lat="44.98909" lon="5.58196">
        <ele>1270.9</ele>
        <time>2010-01-01T00:00:00Z</time>
      </trkpt>
      <trkpt lat="44.98905" lon="5.58196">
        <ele>1270.4</ele>
        <time>2010-01-01T00:00:00Z</time>
      </trkpt>
      <trkpt lat="44.98897" lon="5.58197">
        <ele>1269.1</ele>
        <time>2010-01-01T00:00:00Z</time>
      </trkpt>
      <trkpt lat="44.98888" lon="5.58197">
        <ele>1267.5</ele>
        <time>2010-01-01T00:00:00Z</time>
      </trkpt>
      <trkpt lat="44.98873" lon="5.58199">
        <ele>1264.5</ele>
        <time>2010-01-01T00:00:00Z</time>
      </trkpt>
      <trkpt lat="44.98861" lon="5.58205">
        <ele>1262.3</ele>
        <time>2010-01-01T00:00:00Z</time>
      </trkpt>
      <trkpt lat="44.98854" lon="5.58212">
        <ele>1261.1</ele>
        <time>2010-01-01T00:00:00Z</time>
      </trkpt>
      <trkpt lat="44.98842" lon="5.58219">
        <ele>1259.1</ele>
        <time>2010-01-01T00:00:00Z</time>
      </trkpt>
      <trkpt lat="44.9883" lon="5.58227">
        <ele>1242.4</ele>
        <time>2010-01-01T00:00:00Z</time>
      </trkpt>
      <trkpt lat="44.98824" lon="5.58225">
        <ele>1241.7</ele>
        <time>2010-01-01T00:00:00Z</time>
      </trkpt>
      <trkpt lat="44.98817" lon="5.58221">
        <ele>1240.5</ele>
        <time>2010-01-01T00:00:00Z</time>
      </trkpt>
      <trkpt lat="44.98812" lon="5.58218">
        <ele>1239.8</ele>
        <time>2010-01-01T00:00:00Z</time>
      </trkpt>
      <trkpt lat="44.988" lon="5.58209">
        <ele>1238</ele>
        <time>2010-01-01T00:00:00Z</time>
      </trkpt>
      <trkpt lat="44.988" lon="5.58209">
        <ele>1238</ele>
        <time>2010-01-01T00:00:00Z</time>
      </trkpt>
      <trkpt lat="44.98793" lon="5.58195">
        <ele>1237.1</ele>
        <time>2010-01-01T00:00:00Z</time>
      </trkpt>
      <trkpt lat="44.98788" lon="5.58185">
        <ele>1236.2</ele>
        <time>2010-01-01T00:00:00Z</time>
      </trkpt>
      <trkpt lat="44.98782" lon="5.58165">
        <ele>1235.7</ele>
        <time>2010-01-01T00:00:00Z</time>
      </trkpt>
      <trkpt lat="44.98781" lon="5.58183">
        <ele>1234.9</ele>
        <time>2010-01-01T00:00:00Z</time>
      </trkpt>
      <trkpt lat="44.98781" lon="5.582">
        <ele>1235.2</ele>
        <time>2010-01-01T00:00:00Z</time>
      </trkpt>
      <trkpt lat="44.98783" lon="5.5822">
        <ele>1235.2</ele>
        <time>2010-01-01T00:00:00Z</time>
      </trkpt>
      <trkpt lat="44.98784" lon="5.58236">
        <ele>1234.9</ele>
        <time>2010-01-01T00:00:00Z</time>
      </trkpt>
      <trkpt lat="44.98786" lon="5.58251">
        <ele>1233.8</ele>
        <time>2010-01-01T00:00:00Z</time>
      </trkpt>
      <trkpt lat="44.98787" lon="5.58262">
        <ele>1234</ele>
        <time>2010-01-01T00:00:00Z</time>
      </trkpt>
      <trkpt lat="44.98787" lon="5.58272">
        <ele>1234</ele>
        <time>2010-01-01T00:00:00Z</time>
      </trkpt>
      <trkpt lat="44.98787" lon="5.58279">
        <ele>1234</ele>
        <time>2010-01-01T00:00:00Z</time>
      </trkpt>
      <trkpt lat="44.98787" lon="5.58282">
        <ele>1233.9</ele>
        <time>2010-01-01T00:00:00Z</time>
      </trkpt>
      <trkpt lat="44.98786" lon="5.58292">
        <ele>1233.6</ele>
        <time>2010-01-01T00:00:00Z</time>
      </trkpt>
      <trkpt lat="44.98784" lon="5.58301">
        <ele>1233.1</ele>
        <time>2010-01-01T00:00:00Z</time>
      </trkpt>
      <trkpt lat="44.98783" lon="5.58312">
        <ele>1232.6</ele>
        <time>2010-01-01T00:00:00Z</time>
      </trkpt>
      <trkpt lat="44.98782" lon="5.58324">
        <ele>1231.9</ele>
        <time>2010-01-01T00:00:00Z</time>
      </trkpt>
      <trkpt lat="44.98783" lon="5.58326">
        <ele>1232.1</ele>
        <time>2010-01-01T00:00:00Z</time>
      </trkpt>
      <trkpt lat="44.98783" lon="5.58326">
        <ele>1232.1</ele>
        <time>2010-01-01T00:00:00Z</time>
      </trkpt>
      <trkpt lat="44.98783" lon="5.58334">
        <ele>1226.8</ele>
        <time>2010-01-01T00:00:00Z</time>
      </trkpt>
      <trkpt lat="44.98783" lon="5.58344">
        <ele>1226.4</ele>
        <time>2010-01-01T00:00:00Z</time>
      </trkpt>
      <trkpt lat="44.98785" lon="5.58353">
        <ele>1226.4</ele>
        <time>2010-01-01T00:00:00Z</time>
      </trkpt>
      <trkpt lat="44.98787" lon="5.58359">
        <ele>1226.4</ele>
        <time>2010-01-01T00:00:00Z</time>
      </trkpt>
      <trkpt lat="44.9879" lon="5.58363">
        <ele>1226.5</ele>
        <time>2010-01-01T00:00:00Z</time>
      </trkpt>
      <trkpt lat="44.98793" lon="5.58368">
        <ele>1226.5</ele>
        <time>2010-01-01T00:00:00Z</time>
      </trkpt>
      <trkpt lat="44.98796" lon="5.58372">
        <ele>1226.6</ele>
        <time>2010-01-01T00:00:00Z</time>
      </trkpt>
      <trkpt lat="44.98809" lon="5.58381">
        <ele>1227.5</ele>
        <time>2010-01-01T00:00:00Z</time>
      </trkpt>
      <trkpt lat="44.98821" lon="5.5839">
        <ele>1228.1</ele>
        <time>2010-01-01T00:00:00Z</time>
      </trkpt>
      <trkpt lat="44.98832" lon="5.584">
        <ele>1228.6</ele>
        <time>2010-01-01T00:00:00Z</time>
      </trkpt>
      <trkpt lat="44.98841" lon="5.58411">
        <ele>1236.4</ele>
        <time>2010-01-01T00:00:00Z</time>
      </trkpt>
      <trkpt lat="44.98856" lon="5.58428">
        <ele>1229.3</ele>
        <time>2010-01-01T00:00:00Z</time>
      </trkpt>
      <trkpt lat="44.98869" lon="5.58447">
        <ele>1228.5</ele>
        <time>2010-01-01T00:00:00Z</time>
      </trkpt>
      <trkpt lat="44.98885" lon="5.5847">
        <ele>1227.2</ele>
        <time>2010-01-01T00:00:00Z</time>
      </trkpt>
      <trkpt lat="44.98895" lon="5.58485">
        <ele>1226.9</ele>
        <time>2010-01-01T00:00:00Z</time>
      </trkpt>
      <trkpt lat="44.98898" lon="5.58494">
        <ele>1226.7</ele>
        <time>2010-01-01T00:00:00Z</time>
      </trkpt>
      <trkpt lat="44.98899" lon="5.58504">
        <ele>1218.1</ele>
        <time>2010-01-01T00:00:00Z</time>
      </trkpt>
      <trkpt lat="44.98899" lon="5.58512">
        <ele>1217</ele>
        <time>2010-01-01T00:00:00Z</time>
      </trkpt>
      <trkpt lat="44.98899" lon="5.58523">
        <ele>1215.2</ele>
        <time>2010-01-01T00:00:00Z</time>
      </trkpt>
      <trkpt lat="44.98899" lon="5.58533">
        <ele>1213.9</ele>
        <time>2010-01-01T00:00:00Z</time>
      </trkpt>
      <trkpt lat="44.98898" lon="5.58544">
        <ele>1213.1</ele>
        <time>2010-01-01T00:00:00Z</time>
      </trkpt>
      <trkpt lat="44.98896" lon="5.58555">
        <ele>1212.7</ele>
        <time>2010-01-01T00:00:00Z</time>
      </trkpt>
      <trkpt lat="44.98894" lon="5.58568">
        <ele>1212.9</ele>
        <time>2010-01-01T00:00:00Z</time>
      </trkpt>
      <trkpt lat="44.98891" lon="5.58581">
        <ele>1212.5</ele>
        <time>2010-01-01T00:00:00Z</time>
      </trkpt>
      <trkpt lat="44.98887" lon="5.58598">
        <ele>1208.8</ele>
        <time>2010-01-01T00:00:00Z</time>
      </trkpt>
      <trkpt lat="44.98883" lon="5.58612">
        <ele>1207.2</ele>
        <time>2010-01-01T00:00:00Z</time>
      </trkpt>
      <trkpt lat="44.98879" lon="5.58625">
        <ele>1206.2</ele>
        <time>2010-01-01T00:00:00Z</time>
      </trkpt>
      <trkpt lat="44.98875" lon="5.58637">
        <ele>1205.4</ele>
        <time>2010-01-01T00:00:00Z</time>
      </trkpt>
      <trkpt lat="44.98875" lon="5.58637">
        <ele>1205.4</ele>
        <time>2010-01-01T00:00:00Z</time>
      </trkpt>
      <trkpt lat="44.98875" lon="5.58637">
        <ele>1205.4</ele>
        <time>2010-01-01T00:00:00Z</time>
      </trkpt>
      <trkpt lat="44.98872" lon="5.58647">
        <ele>1204.6</ele>
        <time>2010-01-01T00:00:00Z</time>
      </trkpt>
      <trkpt lat="44.98869" lon="5.58657">
        <ele>1203.5</ele>
        <time>2010-01-01T00:00:00Z</time>
      </trkpt>
      <trkpt lat="44.98867" lon="5.5867">
        <ele>1204.5</ele>
        <time>2010-01-01T00:00:00Z</time>
      </trkpt>
      <trkpt lat="44.98864" lon="5.58681">
        <ele>1203.9</ele>
        <time>2010-01-01T00:00:00Z</time>
      </trkpt>
      <trkpt lat="44.98861" lon="5.58697">
        <ele>1204.2</ele>
        <time>2010-01-01T00:00:00Z</time>
      </trkpt>
      <trkpt lat="44.98859" lon="5.58709">
        <ele>1204.3</ele>
        <time>2010-01-01T00:00:00Z</time>
      </trkpt>
      <trkpt lat="44.98857" lon="5.58722">
        <ele>1203.7</ele>
        <time>2010-01-01T00:00:00Z</time>
      </trkpt>
      <trkpt lat="44.98855" lon="5.58731">
        <ele>1202.5</ele>
        <time>2010-01-01T00:00:00Z</time>
      </trkpt>
      <trkpt lat="44.98852" lon="5.58742">
        <ele>1200.3</ele>
        <time>2010-01-01T00:00:00Z</time>
      </trkpt>
      <trkpt lat="44.98849" lon="5.58752">
        <ele>1200.6</ele>
        <time>2010-01-01T00:00:00Z</time>
      </trkpt>
      <trkpt lat="44.98843" lon="5.58771">
        <ele>1202.9</ele>
        <time>2010-01-01T00:00:00Z</time>
      </trkpt>
      <trkpt lat="44.98836" lon="5.5879">
        <ele>1205.1</ele>
        <time>2010-01-01T00:00:00Z</time>
      </trkpt>
      <trkpt lat="44.9883" lon="5.58805">
        <ele>1180.7</ele>
        <time>2010-01-01T00:00:00Z</time>
      </trkpt>
      <trkpt lat="44.98824" lon="5.58817">
        <ele>1182.5</ele>
        <time>2010-01-01T00:00:00Z</time>
      </trkpt>
      <trkpt lat="44.98821" lon="5.58821">
        <ele>1182.8</ele>
        <time>2010-01-01T00:00:00Z</time>
      </trkpt>
      <trkpt lat="44.98811" lon="5.58839">
        <ele>1184.7</ele>
        <time>2010-01-01T00:00:00Z</time>
      </trkpt>
      <trkpt lat="44.98802" lon="5.58858">
        <ele>1182.3</ele>
        <time>2010-01-01T00:00:00Z</time>
      </trkpt>
      <trkpt lat="44.98793" lon="5.58877">
        <ele>1181.4</ele>
        <time>2010-01-01T00:00:00Z</time>
      </trkpt>
      <trkpt lat="44.98782" lon="5.589">
        <ele>1179.9</ele>
        <time>2010-01-01T00:00:00Z</time>
      </trkpt>
      <trkpt lat="44.98772" lon="5.58921">
        <ele>1181.7</ele>
        <time>2010-01-01T00:00:00Z</time>
      </trkpt>
      <trkpt lat="44.98766" lon="5.58936">
        <ele>1181.9</ele>
        <time>2010-01-01T00:00:00Z</time>
      </trkpt>
      <trkpt lat="44.98763" lon="5.58948">
        <ele>1183.2</ele>
        <time>2010-01-01T00:00:00Z</time>
      </trkpt>
      <trkpt lat="44.9876" lon="5.58962">
        <ele>1183.7</ele>
        <time>2010-01-01T00:00:00Z</time>
      </trkpt>
      <trkpt lat="44.98757" lon="5.58976">
        <ele>1182.3</ele>
        <time>2010-01-01T00:00:00Z</time>
      </trkpt>
      <trkpt lat="44.98756" lon="5.58989">
        <ele>1179</ele>
        <time>2010-01-01T00:00:00Z</time>
      </trkpt>
      <trkpt lat="44.98756" lon="5.58989">
        <ele>1179</ele>
        <time>2010-01-01T00:00:00Z</time>
      </trkpt>
      <trkpt lat="44.98756" lon="5.58989">
        <ele>1179</ele>
        <time>2010-01-01T00:00:00Z</time>
      </trkpt>
      <trkpt lat="44.98757" lon="5.59007">
        <ele>1177.3</ele>
        <time>2010-01-01T00:00:00Z</time>
      </trkpt>
      <trkpt lat="44.98759" lon="5.59026">
        <ele>1181.4</ele>
        <time>2010-01-01T00:00:00Z</time>
      </trkpt>
      <trkpt lat="44.98761" lon="5.59038">
        <ele>1182</ele>
        <time>2010-01-01T00:00:00Z</time>
      </trkpt>
      <trkpt lat="44.98761" lon="5.59052">
        <ele>1180.6</ele>
        <time>2010-01-01T00:00:00Z</time>
      </trkpt>
      <trkpt lat="44.98759" lon="5.59062">
        <ele>1178.1</ele>
        <time>2010-01-01T00:00:00Z</time>
      </trkpt>
      <trkpt lat="44.98758" lon="5.59072">
        <ele>1174.5</ele>
        <time>2010-01-01T00:00:00Z</time>
      </trkpt>
      <trkpt lat="44.98758" lon="5.59081">
        <ele>1171.5</ele>
        <time>2010-01-01T00:00:00Z</time>
      </trkpt>
      <trkpt lat="44.98758" lon="5.5909">
        <ele>1168.4</ele>
        <time>2010-01-01T00:00:00Z</time>
      </trkpt>
      <trkpt lat="44.9876" lon="5.59102">
        <ele>1170.1</ele>
        <time>2010-01-01T00:00:00Z</time>
      </trkpt>
      <trkpt lat="44.98762" lon="5.59116">
        <ele>1170.5</ele>
        <time>2010-01-01T00:00:00Z</time>
      </trkpt>
      <trkpt lat="44.98766" lon="5.59132">
        <ele>1169.5</ele>
        <time>2010-01-01T00:00:00Z</time>
      </trkpt>
      <trkpt lat="44.98772" lon="5.59151">
        <ele>1167.5</ele>
        <time>2010-01-01T00:00:00Z</time>
      </trkpt>
      <trkpt lat="44.98777" lon="5.5917">
        <ele>1158.2</ele>
        <time>2010-01-01T00:00:00Z</time>
      </trkpt>
      <trkpt lat="44.98783" lon="5.59189">
        <ele>1158.3</ele>
        <time>2010-01-01T00:00:00Z</time>
      </trkpt>
      <trkpt lat="44.98789" lon="5.59204">
        <ele>1157.8</ele>
        <time>2010-01-01T00:00:00Z</time>
      </trkpt>
      <trkpt lat="44.98794" lon="5.59215">
        <ele>1157.3</ele>
        <time>2010-01-01T00:00:00Z</time>
      </trkpt>
      <trkpt lat="44.98799" lon="5.59227">
        <ele>1156.8</ele>
        <time>2010-01-01T00:00:00Z</time>
      </trkpt>
      <trkpt lat="44.98806" lon="5.59239">
        <ele>1156.8</ele>
        <time>2010-01-01T00:00:00Z</time>
      </trkpt>
      <trkpt lat="44.98807" lon="5.59239">
        <ele>1156.9</ele>
        <time>2010-01-01T00:00:00Z</time>
      </trkpt>
      <trkpt lat="44.98814" lon="5.5925">
        <ele>1150.3</ele>
        <time>2010-01-01T00:00:00Z</time>
      </trkpt>
      <trkpt lat="44.98823" lon="5.59262">
        <ele>1151.3</ele>
        <time>2010-01-01T00:00:00Z</time>
      </trkpt>
      <trkpt lat="44.98831" lon="5.59272">
        <ele>1149.9</ele>
        <time>2010-01-01T00:00:00Z</time>
      </trkpt>
      <trkpt lat="44.98838" lon="5.59283">
        <ele>1159.3</ele>
        <time>2010-01-01T00:00:00Z</time>
      </trkpt>
      <trkpt lat="44.98844" lon="5.59292">
        <ele>1158.9</ele>
        <time>2010-01-01T00:00:00Z</time>
      </trkpt>
      <trkpt lat="44.98848" lon="5.59304">
        <ele>1157.8</ele>
        <time>2010-01-01T00:00:00Z</time>
      </trkpt>
      <trkpt lat="44.98852" lon="5.5931">
        <ele>1157.4</ele>
        <time>2010-01-01T00:00:00Z</time>
      </trkpt>
      <trkpt lat="44.98854" lon="5.59314">
        <ele>1157.2</ele>
        <time>2010-01-01T00:00:00Z</time>
      </trkpt>
      <trkpt lat="44.98859" lon="5.59327">
        <ele>1156.7</ele>
        <time>2010-01-01T00:00:00Z</time>
      </trkpt>
      <trkpt lat="44.98866" lon="5.5934">
        <ele>1150</ele>
        <time>2010-01-01T00:00:00Z</time>
      </trkpt>
      <trkpt lat="44.98872" lon="5.59354">
        <ele>1150</ele>
        <time>2010-01-01T00:00:00Z</time>
      </trkpt>
      <trkpt lat="44.98879" lon="5.59367">
        <ele>1149.9</ele>
        <time>2010-01-01T00:00:00Z</time>
      </trkpt>
      <trkpt lat="44.98885" lon="5.59377">
        <ele>1149.8</ele>
        <time>2010-01-01T00:00:00Z</time>
      </trkpt>
      <trkpt lat="44.98892" lon="5.59387">
        <ele>1149.8</ele>
        <time>2010-01-01T00:00:00Z</time>
      </trkpt>
      <trkpt lat="44.98898" lon="5.59395">
        <ele>1150</ele>
        <time>2010-01-01T00:00:00Z</time>
      </trkpt>
      <trkpt lat="44.98901" lon="5.59401">
        <ele>1150.1</ele>
        <time>2010-01-01T00:00:00Z</time>
      </trkpt>
      <trkpt lat="44.98904" lon="5.59406">
        <ele>1150.4</ele>
        <time>2010-01-01T00:00:00Z</time>
      </trkpt>
      <trkpt lat="44.98906" lon="5.59412">
        <ele>1150.7</ele>
        <time>2010-01-01T00:00:00Z</time>
      </trkpt>
      <trkpt lat="44.98906" lon="5.59418">
        <ele>1148.2</ele>
        <time>2010-01-01T00:00:00Z</time>
      </trkpt>
      <trkpt lat="44.98906" lon="5.59426">
        <ele>1147.3</ele>
        <time>2010-01-01T00:00:00Z</time>
      </trkpt>
      <trkpt lat="44.98907" lon="5.59428">
        <ele>1147.1</ele>
        <time>2010-01-01T00:00:00Z</time>
      </trkpt>
      <trkpt lat="44.98907" lon="5.59428">
        <ele>1147.1</ele>
        <time>2010-01-01T00:00:00Z</time>
      </trkpt>
      <trkpt lat="44.98916" lon="5.59438">
        <ele>1146.2</ele>
        <time>2010-01-01T00:00:00Z</time>
      </trkpt>
      <trkpt lat="44.98922" lon="5.59445">
        <ele>1152.7</ele>
        <time>2010-01-01T00:00:00Z</time>
      </trkpt>
      <trkpt lat="44.98932" lon="5.59452">
        <ele>1152.8</ele>
        <time>2010-01-01T00:00:00Z</time>
      </trkpt>
      <trkpt lat="44.98952" lon="5.59464">
        <ele>1153.4</ele>
        <time>2010-01-01T00:00:00Z</time>
      </trkpt>
      <trkpt lat="44.99014" lon="5.59499">
        <ele>1158.3</ele>
        <time>2010-01-01T00:00:00Z</time>
      </trkpt>
      <trkpt lat="44.9905" lon="5.5952">
        <ele>1156.6</ele>
        <time>2010-01-01T00:00:00Z</time>
      </trkpt>
      <trkpt lat="44.99057" lon="5.59524">
        <ele>1156.7</ele>
        <time>2010-01-01T00:00:00Z</time>
      </trkpt>
    </trkseg>
  </trk>
</gpx>